<?xml version="1.0" encoding="UTF-8" standalone="no" ?>
<gpx xmlns="http://www.topografix.com/GPX/1/1" xmlns:xsi="http://www.w3.org/2001/XMLSchema-instance" xsi:schemaLocation="http://www.topografix.com/GPX/1/1 http://www.topografix.com/GPX/1/1/gpx.xsd" version="1.1" creator="VisuGPX - https://www.visugpx.com">
  <metadata>
    <name>Cyclisme sur route</name>
    <desc><![CDATA[Moins de chaleur, plus de kilomètres !
Pour cette nouvelle idée de sortie à vélo, nous avons profité d\'une météo plus clémente et d\'une chaleur moins écrasante pour aller nous oxygéner sur les hauteurs.]]></desc>
  </metadata>
  <trk>
    <name><![CDATA[Cyclisme sur route]]></name>
    <trkseg>
      <trkpt lat="45.23935" lon="4.69134">
        <ele>424.719752</ele>
        <time>2026-07-02T10:19:39.276Z</time>
      </trkpt>
      <trkpt lat="45.23929" lon="4.69121">
        <ele>424.719752</ele>
        <time>2026-07-02T10:20:03.739Z</time>
      </trkpt>
      <trkpt lat="45.23919" lon="4.6911">
        <ele>424.719752</ele>
        <time>2026-07-02T10:20:07.746Z</time>
      </trkpt>
      <trkpt lat="45.2391" lon="4.69104">
        <ele>424.719752</ele>
        <time>2026-07-02T10:20:12.751Z</time>
      </trkpt>
      <trkpt lat="45.23906" lon="4.69092">
        <ele>424.719752</ele>
        <time>2026-07-02T10:20:19.747Z</time>
      </trkpt>
      <trkpt lat="45.23917" lon="4.69075">
        <ele>424.719752</ele>
        <time>2026-07-02T10:20:22.703Z</time>
      </trkpt>
      <trkpt lat="45.23924" lon="4.69063">
        <ele>424.719752</ele>
        <time>2026-07-02T10:20:24.739Z</time>
      </trkpt>
      <trkpt lat="45.23927" lon="4.69049">
        <ele>424.719752</ele>
        <time>2026-07-02T10:20:26.741Z</time>
      </trkpt>
      <trkpt lat="45.23928" lon="4.69034">
        <ele>424.757608</ele>
        <time>2026-07-02T10:20:28.737Z</time>
      </trkpt>
      <trkpt lat="45.23925" lon="4.69018">
        <ele>425.944068</ele>
        <time>2026-07-02T10:20:30.733Z</time>
      </trkpt>
      <trkpt lat="45.2392" lon="4.69004">
        <ele>427.100342</ele>
        <time>2026-07-02T10:20:32.739Z</time>
      </trkpt>
      <trkpt lat="45.23915" lon="4.68989">
        <ele>428.240476</ele>
        <time>2026-07-02T10:20:34.737Z</time>
      </trkpt>
      <trkpt lat="45.23915" lon="4.68975">
        <ele>429.281815</ele>
        <time>2026-07-02T10:20:36.735Z</time>
      </trkpt>
      <trkpt lat="45.23916" lon="4.68961">
        <ele>430.268854</ele>
        <time>2026-07-02T10:20:38.738Z</time>
      </trkpt>
      <trkpt lat="45.2392" lon="4.68946">
        <ele>431.396835</ele>
        <time>2026-07-02T10:20:40.735Z</time>
      </trkpt>
      <trkpt lat="45.23922" lon="4.68932">
        <ele>432.464216</ele>
        <time>2026-07-02T10:20:43.738Z</time>
      </trkpt>
      <trkpt lat="45.23923" lon="4.68917">
        <ele>433.570925</ele>
        <time>2026-07-02T10:20:47.740Z</time>
      </trkpt>
      <trkpt lat="45.23926" lon="4.68902">
        <ele>434.677881</ele>
        <time>2026-07-02T10:20:50.737Z</time>
      </trkpt>
      <trkpt lat="45.23926" lon="4.68887">
        <ele>435.705262</ele>
        <time>2026-07-02T10:20:54.738Z</time>
      </trkpt>
      <trkpt lat="45.23925" lon="4.68872">
        <ele>436.818548</ele>
        <time>2026-07-02T10:20:58.743Z</time>
      </trkpt>
      <trkpt lat="45.23927" lon="4.68856">
        <ele>437.980562</ele>
        <time>2026-07-02T10:21:02.738Z</time>
      </trkpt>
      <trkpt lat="45.23931" lon="4.68841">
        <ele>439.121936</ele>
        <time>2026-07-02T10:21:06.736Z</time>
      </trkpt>
      <trkpt lat="45.23934" lon="4.68824">
        <ele>440.376076</ele>
        <time>2026-07-02T10:21:10.694Z</time>
      </trkpt>
      <trkpt lat="45.23936" lon="4.6881">
        <ele>441.378171</ele>
        <time>2026-07-02T10:21:13.738Z</time>
      </trkpt>
      <trkpt lat="45.23938" lon="4.68797">
        <ele>442.361842</ele>
        <time>2026-07-02T10:21:16.737Z</time>
      </trkpt>
      <trkpt lat="45.23941" lon="4.68784">
        <ele>443.065229</ele>
        <time>2026-07-02T10:21:19.734Z</time>
      </trkpt>
      <trkpt lat="45.23944" lon="4.68767">
        <ele>443.07359</ele>
        <time>2026-07-02T10:21:22.735Z</time>
      </trkpt>
      <trkpt lat="45.23946" lon="4.68755">
        <ele>443.079996</ele>
        <time>2026-07-02T10:21:24.734Z</time>
      </trkpt>
      <trkpt lat="45.23951" lon="4.68739">
        <ele>443.088322</ele>
        <time>2026-07-02T10:21:27.736Z</time>
      </trkpt>
      <trkpt lat="45.23954" lon="4.68726">
        <ele>443.095005</ele>
        <time>2026-07-02T10:21:29.735Z</time>
      </trkpt>
      <trkpt lat="45.23956" lon="4.68712">
        <ele>443.101777</ele>
        <time>2026-07-02T10:21:31.736Z</time>
      </trkpt>
      <trkpt lat="45.23959" lon="4.68699">
        <ele>443.108485</ele>
        <time>2026-07-02T10:21:33.739Z</time>
      </trkpt>
      <trkpt lat="45.23961" lon="4.68686">
        <ele>443.114946</ele>
        <time>2026-07-02T10:21:35.739Z</time>
      </trkpt>
      <trkpt lat="45.23963" lon="4.68673">
        <ele>443.121494</ele>
        <time>2026-07-02T10:21:37.737Z</time>
      </trkpt>
      <trkpt lat="45.23966" lon="4.68661">
        <ele>443.128016</ele>
        <time>2026-07-02T10:21:39.713Z</time>
      </trkpt>
      <trkpt lat="45.23968" lon="4.68645">
        <ele>443.135631</ele>
        <time>2026-07-02T10:21:41.735Z</time>
      </trkpt>
      <trkpt lat="45.23971" lon="4.68631">
        <ele>443.143019</ele>
        <time>2026-07-02T10:21:43.741Z</time>
      </trkpt>
      <trkpt lat="45.23973" lon="4.68615">
        <ele>443.150629</ele>
        <time>2026-07-02T10:21:45.737Z</time>
      </trkpt>
      <trkpt lat="45.23978" lon="4.68599">
        <ele>443.159343</ele>
        <time>2026-07-02T10:21:47.749Z</time>
      </trkpt>
      <trkpt lat="45.23982" lon="4.68579">
        <ele>443.169399</ele>
        <time>2026-07-02T10:21:49.734Z</time>
      </trkpt>
      <trkpt lat="45.23988" lon="4.6856">
        <ele>443.179578</ele>
        <time>2026-07-02T10:21:51.733Z</time>
      </trkpt>
      <trkpt lat="45.23992" lon="4.68545">
        <ele>443.187411</ele>
        <time>2026-07-02T10:21:53.740Z</time>
      </trkpt>
      <trkpt lat="45.23995" lon="4.68529">
        <ele>443.513796</ele>
        <time>2026-07-02T10:21:55.743Z</time>
      </trkpt>
      <trkpt lat="45.23998" lon="4.68514">
        <ele>443.857148</ele>
        <time>2026-07-02T10:21:57.741Z</time>
      </trkpt>
      <trkpt lat="45.24002" lon="4.68499">
        <ele>444.212495</ele>
        <time>2026-07-02T10:21:59.739Z</time>
      </trkpt>
      <trkpt lat="45.24004" lon="4.68485">
        <ele>444.530953</ele>
        <time>2026-07-02T10:22:01.738Z</time>
      </trkpt>
      <trkpt lat="45.24005" lon="4.68472">
        <ele>444.812041</ele>
        <time>2026-07-02T10:22:03.742Z</time>
      </trkpt>
      <trkpt lat="45.24008" lon="4.68455">
        <ele>445.195878</ele>
        <time>2026-07-02T10:22:06.733Z</time>
      </trkpt>
      <trkpt lat="45.2401" lon="4.68437">
        <ele>445.596566</ele>
        <time>2026-07-02T10:22:09.739Z</time>
      </trkpt>
      <trkpt lat="45.24012" lon="4.6842">
        <ele>445.969271</ele>
        <time>2026-07-02T10:22:12.740Z</time>
      </trkpt>
      <trkpt lat="45.24014" lon="4.68404">
        <ele>446.320344</ele>
        <time>2026-07-02T10:22:16.740Z</time>
      </trkpt>
      <trkpt lat="45.24014" lon="4.68388">
        <ele>446.680207</ele>
        <time>2026-07-02T10:22:20.739Z</time>
      </trkpt>
      <trkpt lat="45.24017" lon="4.68371">
        <ele>447.066193</ele>
        <time>2026-07-02T10:22:23.730Z</time>
      </trkpt>
      <trkpt lat="45.24018" lon="4.68353">
        <ele>447.449123</ele>
        <time>2026-07-02T10:22:26.736Z</time>
      </trkpt>
      <trkpt lat="45.24019" lon="4.68339">
        <ele>447.765787</ele>
        <time>2026-07-02T10:22:28.744Z</time>
      </trkpt>
      <trkpt lat="45.24021" lon="4.68324">
        <ele>448.10447</ele>
        <time>2026-07-02T10:22:30.735Z</time>
      </trkpt>
      <trkpt lat="45.24024" lon="4.68306">
        <ele>448.501091</ele>
        <time>2026-07-02T10:22:32.737Z</time>
      </trkpt>
      <trkpt lat="45.24027" lon="4.68288">
        <ele>448.516024</ele>
        <time>2026-07-02T10:22:34.736Z</time>
      </trkpt>
      <trkpt lat="45.24032" lon="4.68268">
        <ele>447.511483</ele>
        <time>2026-07-02T10:22:36.737Z</time>
      </trkpt>
      <trkpt lat="45.24034" lon="4.68245">
        <ele>446.400452</ele>
        <time>2026-07-02T10:22:38.740Z</time>
      </trkpt>
      <trkpt lat="45.24038" lon="4.68221">
        <ele>445.189949</ele>
        <time>2026-07-02T10:22:40.741Z</time>
      </trkpt>
      <trkpt lat="45.24041" lon="4.682">
        <ele>444.172062</ele>
        <time>2026-07-02T10:22:42.742Z</time>
      </trkpt>
      <trkpt lat="45.24045" lon="4.68177">
        <ele>443.009714</ele>
        <time>2026-07-02T10:22:44.737Z</time>
      </trkpt>
      <trkpt lat="45.24048" lon="4.68153">
        <ele>441.862763</ele>
        <time>2026-07-02T10:22:46.745Z</time>
      </trkpt>
      <trkpt lat="45.24049" lon="4.6813">
        <ele>440.74107</ele>
        <time>2026-07-02T10:22:48.744Z</time>
      </trkpt>
      <trkpt lat="45.24052" lon="4.68106">
        <ele>439.60901</ele>
        <time>2026-07-02T10:22:50.738Z</time>
      </trkpt>
      <trkpt lat="45.24055" lon="4.68083">
        <ele>438.4711</ele>
        <time>2026-07-02T10:22:52.740Z</time>
      </trkpt>
      <trkpt lat="45.24056" lon="4.68061">
        <ele>437.395007</ele>
        <time>2026-07-02T10:22:54.743Z</time>
      </trkpt>
      <trkpt lat="45.24058" lon="4.6804">
        <ele>436.579879</ele>
        <time>2026-07-02T10:22:56.749Z</time>
      </trkpt>
      <trkpt lat="45.24059" lon="4.68018">
        <ele>436.931212</ele>
        <time>2026-07-02T10:22:58.747Z</time>
      </trkpt>
      <trkpt lat="45.24059" lon="4.67997">
        <ele>437.262853</ele>
        <time>2026-07-02T10:23:00.743Z</time>
      </trkpt>
      <trkpt lat="45.24059" lon="4.67975">
        <ele>437.614062</ele>
        <time>2026-07-02T10:23:02.743Z</time>
      </trkpt>
      <trkpt lat="45.24061" lon="4.67953">
        <ele>437.966909</ele>
        <time>2026-07-02T10:23:04.734Z</time>
      </trkpt>
      <trkpt lat="45.24064" lon="4.67932">
        <ele>438.318628</ele>
        <time>2026-07-02T10:23:06.742Z</time>
      </trkpt>
      <trkpt lat="45.24066" lon="4.67913">
        <ele>438.61669</ele>
        <time>2026-07-02T10:23:08.739Z</time>
      </trkpt>
      <trkpt lat="45.24068" lon="4.67895">
        <ele>438.910718</ele>
        <time>2026-07-02T10:23:10.745Z</time>
      </trkpt>
      <trkpt lat="45.24072" lon="4.67878">
        <ele>439.195767</ele>
        <time>2026-07-02T10:23:12.741Z</time>
      </trkpt>
      <trkpt lat="45.24073" lon="4.67864">
        <ele>439.415594</ele>
        <time>2026-07-02T10:23:14.741Z</time>
      </trkpt>
      <trkpt lat="45.24077" lon="4.67849">
        <ele>439.666011</ele>
        <time>2026-07-02T10:23:16.747Z</time>
      </trkpt>
      <trkpt lat="45.24082" lon="4.67837">
        <ele>439.89885</ele>
        <time>2026-07-02T10:23:18.749Z</time>
      </trkpt>
      <trkpt lat="45.24087" lon="4.67822">
        <ele>440.159311</ele>
        <time>2026-07-02T10:23:20.742Z</time>
      </trkpt>
      <trkpt lat="45.24092" lon="4.67807">
        <ele>440.422454</ele>
        <time>2026-07-02T10:23:22.745Z</time>
      </trkpt>
      <trkpt lat="45.24097" lon="4.67796">
        <ele>440.524555</ele>
        <time>2026-07-02T10:23:24.743Z</time>
      </trkpt>
      <trkpt lat="45.24108" lon="4.67786">
        <ele>439.178185</ele>
        <time>2026-07-02T10:23:27.723Z</time>
      </trkpt>
      <trkpt lat="45.24116" lon="4.67772">
        <ele>437.911308</ele>
        <time>2026-07-02T10:23:30.736Z</time>
      </trkpt>
      <trkpt lat="45.24121" lon="4.67752">
        <ele>436.39318</ele>
        <time>2026-07-02T10:23:33.751Z</time>
      </trkpt>
      <trkpt lat="45.24129" lon="4.67736">
        <ele>435.051484</ele>
        <time>2026-07-02T10:23:35.746Z</time>
      </trkpt>
      <trkpt lat="45.24137" lon="4.67719">
        <ele>433.593893</ele>
        <time>2026-07-02T10:23:37.724Z</time>
      </trkpt>
      <trkpt lat="45.24144" lon="4.67701">
        <ele>432.160034</ele>
        <time>2026-07-02T10:23:39.743Z</time>
      </trkpt>
      <trkpt lat="45.24146" lon="4.67688">
        <ele>431.217781</ele>
        <time>2026-07-02T10:23:41.738Z</time>
      </trkpt>
      <trkpt lat="45.24149" lon="4.67671">
        <ele>430.003041</ele>
        <time>2026-07-02T10:23:44.712Z</time>
      </trkpt>
      <trkpt lat="45.24141" lon="4.67658">
        <ele>428.760424</ele>
        <time>2026-07-02T10:23:47.742Z</time>
      </trkpt>
      <trkpt lat="45.24138" lon="4.6764">
        <ele>427.423541</ele>
        <time>2026-07-02T10:23:50.745Z</time>
      </trkpt>
      <trkpt lat="45.24133" lon="4.67624">
        <ele>426.250367</ele>
        <time>2026-07-02T10:23:52.735Z</time>
      </trkpt>
      <trkpt lat="45.24124" lon="4.67606">
        <ele>424.688776</ele>
        <time>2026-07-02T10:23:54.738Z</time>
      </trkpt>
      <trkpt lat="45.24118" lon="4.67587">
        <ele>423.198585</ele>
        <time>2026-07-02T10:23:56.746Z</time>
      </trkpt>
      <trkpt lat="45.24113" lon="4.67568">
        <ele>421.122386</ele>
        <time>2026-07-02T10:23:58.742Z</time>
      </trkpt>
      <trkpt lat="45.24106" lon="4.67551">
        <ele>418.700343</ele>
        <time>2026-07-02T10:24:00.745Z</time>
      </trkpt>
      <trkpt lat="45.24097" lon="4.67539">
        <ele>416.48994</ele>
        <time>2026-07-02T10:24:02.738Z</time>
      </trkpt>
      <trkpt lat="45.2409" lon="4.67528">
        <ele>414.541258</ele>
        <time>2026-07-02T10:24:04.741Z</time>
      </trkpt>
      <trkpt lat="45.24083" lon="4.67518">
        <ele>412.837101</ele>
        <time>2026-07-02T10:24:06.738Z</time>
      </trkpt>
      <trkpt lat="45.24075" lon="4.67507">
        <ele>410.825673</ele>
        <time>2026-07-02T10:24:08.745Z</time>
      </trkpt>
      <trkpt lat="45.24068" lon="4.67498">
        <ele>409.092016</ele>
        <time>2026-07-02T10:24:10.751Z</time>
      </trkpt>
      <trkpt lat="45.24058" lon="4.67489">
        <ele>407.037813</ele>
        <time>2026-07-02T10:24:12.740Z</time>
      </trkpt>
      <trkpt lat="45.24049" lon="4.67479">
        <ele>404.968197</ele>
        <time>2026-07-02T10:24:14.738Z</time>
      </trkpt>
      <trkpt lat="45.24041" lon="4.67468">
        <ele>403.043179</ele>
        <time>2026-07-02T10:24:16.732Z</time>
      </trkpt>
      <trkpt lat="45.24032" lon="4.67459">
        <ele>401.050251</ele>
        <time>2026-07-02T10:24:18.740Z</time>
      </trkpt>
      <trkpt lat="45.24024" lon="4.67449">
        <ele>399.116785</ele>
        <time>2026-07-02T10:24:20.734Z</time>
      </trkpt>
      <trkpt lat="45.2402" lon="4.67434">
        <ele>397.109855</ele>
        <time>2026-07-02T10:24:23.733Z</time>
      </trkpt>
      <trkpt lat="45.24023" lon="4.67421">
        <ele>395.401012</ele>
        <time>2026-07-02T10:24:29.738Z</time>
      </trkpt>
      <trkpt lat="45.24036" lon="4.67421">
        <ele>393.109104</ele>
        <time>2026-07-02T10:24:32.738Z</time>
      </trkpt>
      <trkpt lat="45.24027" lon="4.67408">
        <ele>390.875153</ele>
        <time>2026-07-02T10:24:42.741Z</time>
      </trkpt>
      <trkpt lat="45.24021" lon="4.67399">
        <ele>390.244883</ele>
        <time>2026-07-02T10:24:44.743Z</time>
      </trkpt>
      <trkpt lat="45.24011" lon="4.6739">
        <ele>389.952056</ele>
        <time>2026-07-02T10:24:47.752Z</time>
      </trkpt>
      <trkpt lat="45.24022" lon="4.6739">
        <ele>389.666458</ele>
        <time>2026-07-02T10:24:52.737Z</time>
      </trkpt>
      <trkpt lat="45.24018" lon="4.67377">
        <ele>389.40211</ele>
        <time>2026-07-02T10:25:03.742Z</time>
      </trkpt>
      <trkpt lat="45.24012" lon="4.67365">
        <ele>389.135407</ele>
        <time>2026-07-02T10:25:07.738Z</time>
      </trkpt>
      <trkpt lat="45.2401" lon="4.67352">
        <ele>388.899224</ele>
        <time>2026-07-02T10:25:12.735Z</time>
      </trkpt>
      <trkpt lat="45.24007" lon="4.6734">
        <ele>388.650663</ele>
        <time>2026-07-02T10:25:18.742Z</time>
      </trkpt>
      <trkpt lat="45.24" lon="4.67328">
        <ele>388.372994</ele>
        <time>2026-07-02T10:25:22.737Z</time>
      </trkpt>
      <trkpt lat="45.23988" lon="4.67322">
        <ele>388.050858</ele>
        <time>2026-07-02T10:25:25.741Z</time>
      </trkpt>
      <trkpt lat="45.2398" lon="4.67319">
        <ele>387.816029</ele>
        <time>2026-07-02T10:25:27.747Z</time>
      </trkpt>
      <trkpt lat="45.23969" lon="4.67313">
        <ele>387.518476</ele>
        <time>2026-07-02T10:25:30.740Z</time>
      </trkpt>
      <trkpt lat="45.23961" lon="4.67299">
        <ele>387.185192</ele>
        <time>2026-07-02T10:25:33.733Z</time>
      </trkpt>
      <trkpt lat="45.23958" lon="4.67285">
        <ele>386.920128</ele>
        <time>2026-07-02T10:25:36.743Z</time>
      </trkpt>
      <trkpt lat="45.23952" lon="4.67274">
        <ele>386.661954</ele>
        <time>2026-07-02T10:25:40.736Z</time>
      </trkpt>
      <trkpt lat="45.23945" lon="4.67262">
        <ele>386.378146</ele>
        <time>2026-07-02T10:25:43.740Z</time>
      </trkpt>
      <trkpt lat="45.23941" lon="4.67247">
        <ele>386.077437</ele>
        <time>2026-07-02T10:25:46.742Z</time>
      </trkpt>
      <trkpt lat="45.23936" lon="4.67232">
        <ele>385.772927</ele>
        <time>2026-07-02T10:25:49.741Z</time>
      </trkpt>
      <trkpt lat="45.23931" lon="4.6722">
        <ele>386.266893</ele>
        <time>2026-07-02T10:25:53.727Z</time>
      </trkpt>
      <trkpt lat="45.23924" lon="4.67203">
        <ele>387.266103</ele>
        <time>2026-07-02T10:25:56.733Z</time>
      </trkpt>
      <trkpt lat="45.23918" lon="4.67188">
        <ele>388.160302</ele>
        <time>2026-07-02T10:25:59.729Z</time>
      </trkpt>
      <trkpt lat="45.23923" lon="4.67171">
        <ele>389.109759</ele>
        <time>2026-07-02T10:26:02.740Z</time>
      </trkpt>
      <trkpt lat="45.23925" lon="4.67156">
        <ele>389.948221</ele>
        <time>2026-07-02T10:26:06.740Z</time>
      </trkpt>
      <trkpt lat="45.23928" lon="4.67143">
        <ele>390.622551</ele>
        <time>2026-07-02T10:26:10.728Z</time>
      </trkpt>
      <trkpt lat="45.23932" lon="4.67131">
        <ele>391.31983</ele>
        <time>2026-07-02T10:26:16.740Z</time>
      </trkpt>
      <trkpt lat="45.23931" lon="4.67117">
        <ele>392.054181</ele>
        <time>2026-07-02T10:26:21.743Z</time>
      </trkpt>
      <trkpt lat="45.23933" lon="4.67104">
        <ele>392.735134</ele>
        <time>2026-07-02T10:26:25.735Z</time>
      </trkpt>
      <trkpt lat="45.23937" lon="4.67092">
        <ele>393.406608</ele>
        <time>2026-07-02T10:26:27.734Z</time>
      </trkpt>
      <trkpt lat="45.23944" lon="4.67074">
        <ele>394.460472</ele>
        <time>2026-07-02T10:26:31.737Z</time>
      </trkpt>
      <trkpt lat="45.23947" lon="4.67056">
        <ele>395.422086</ele>
        <time>2026-07-02T10:26:34.734Z</time>
      </trkpt>
      <trkpt lat="45.23953" lon="4.67041">
        <ele>396.348817</ele>
        <time>2026-07-02T10:26:37.733Z</time>
      </trkpt>
      <trkpt lat="45.23948" lon="4.67026">
        <ele>397.192846</ele>
        <time>2026-07-02T10:26:41.734Z</time>
      </trkpt>
      <trkpt lat="45.23949" lon="4.67011">
        <ele>397.976133</ele>
        <time>2026-07-02T10:26:44.741Z</time>
      </trkpt>
      <trkpt lat="45.23947" lon="4.66996">
        <ele>398.79281</ele>
        <time>2026-07-02T10:26:48.729Z</time>
      </trkpt>
      <trkpt lat="45.23947" lon="4.66981">
        <ele>399.836262</ele>
        <time>2026-07-02T10:26:52.717Z</time>
      </trkpt>
      <trkpt lat="45.23946" lon="4.66968">
        <ele>400.835124</ele>
        <time>2026-07-02T10:26:55.737Z</time>
      </trkpt>
      <trkpt lat="45.23953" lon="4.66952">
        <ele>402.235308</ele>
        <time>2026-07-02T10:26:59.737Z</time>
      </trkpt>
      <trkpt lat="45.23958" lon="4.66939">
        <ele>403.374351</ele>
        <time>2026-07-02T10:27:02.743Z</time>
      </trkpt>
      <trkpt lat="45.23959" lon="4.66924">
        <ele>404.520774</ele>
        <time>2026-07-02T10:27:05.744Z</time>
      </trkpt>
      <trkpt lat="45.23962" lon="4.66909">
        <ele>405.73995</ele>
        <time>2026-07-02T10:27:09.736Z</time>
      </trkpt>
      <trkpt lat="45.23966" lon="4.66895">
        <ele>406.906701</ele>
        <time>2026-07-02T10:27:13.743Z</time>
      </trkpt>
      <trkpt lat="45.23971" lon="4.66883">
        <ele>407.973345</ele>
        <time>2026-07-02T10:27:17.735Z</time>
      </trkpt>
      <trkpt lat="45.23975" lon="4.66869">
        <ele>409.14509</ele>
        <time>2026-07-02T10:27:21.735Z</time>
      </trkpt>
      <trkpt lat="45.23974" lon="4.66854">
        <ele>410.299318</ele>
        <time>2026-07-02T10:27:24.730Z</time>
      </trkpt>
      <trkpt lat="45.2397" lon="4.6684">
        <ele>411.442042</ele>
        <time>2026-07-02T10:27:27.739Z</time>
      </trkpt>
      <trkpt lat="45.23966" lon="4.66828">
        <ele>412.481469</ele>
        <time>2026-07-02T10:27:30.742Z</time>
      </trkpt>
      <trkpt lat="45.23964" lon="4.66814">
        <ele>413.578006</ele>
        <time>2026-07-02T10:27:33.747Z</time>
      </trkpt>
      <trkpt lat="45.23963" lon="4.668">
        <ele>414.622696</ele>
        <time>2026-07-02T10:27:36.746Z</time>
      </trkpt>
      <trkpt lat="45.23961" lon="4.66788">
        <ele>415.604249</ele>
        <time>2026-07-02T10:27:40.739Z</time>
      </trkpt>
      <trkpt lat="45.23964" lon="4.66776">
        <ele>416.591975</ele>
        <time>2026-07-02T10:27:46.742Z</time>
      </trkpt>
      <trkpt lat="45.23963" lon="4.66762">
        <ele>417.625118</ele>
        <time>2026-07-02T10:27:52.742Z</time>
      </trkpt>
      <trkpt lat="45.23964" lon="4.6675">
        <ele>418.56799</ele>
        <time>2026-07-02T10:27:57.743Z</time>
      </trkpt>
      <trkpt lat="45.23963" lon="4.66735">
        <ele>418.470436</ele>
        <time>2026-07-02T10:28:01.737Z</time>
      </trkpt>
      <trkpt lat="45.23961" lon="4.66722">
        <ele>418.380343</ele>
        <time>2026-07-02T10:28:04.742Z</time>
      </trkpt>
      <trkpt lat="45.23963" lon="4.66706">
        <ele>418.267492</ele>
        <time>2026-07-02T10:28:08.743Z</time>
      </trkpt>
      <trkpt lat="45.23965" lon="4.66692">
        <ele>418.170058</ele>
        <time>2026-07-02T10:28:11.740Z</time>
      </trkpt>
      <trkpt lat="45.23967" lon="4.66676">
        <ele>418.055863</ele>
        <time>2026-07-02T10:28:14.745Z</time>
      </trkpt>
      <trkpt lat="45.23971" lon="4.66661">
        <ele>417.946463</ele>
        <time>2026-07-02T10:28:17.747Z</time>
      </trkpt>
      <trkpt lat="45.23978" lon="4.66646">
        <ele>417.828002</ele>
        <time>2026-07-02T10:28:20.738Z</time>
      </trkpt>
      <trkpt lat="45.23983" lon="4.6663">
        <ele>417.710476</ele>
        <time>2026-07-02T10:28:23.738Z</time>
      </trkpt>
      <trkpt lat="45.23989" lon="4.66616">
        <ele>417.596002</ele>
        <time>2026-07-02T10:28:26.742Z</time>
      </trkpt>
      <trkpt lat="45.2399" lon="4.66602">
        <ele>417.499593</ele>
        <time>2026-07-02T10:28:29.744Z</time>
      </trkpt>
      <trkpt lat="45.23985" lon="4.66591">
        <ele>417.410865</ele>
        <time>2026-07-02T10:28:34.737Z</time>
      </trkpt>
      <trkpt lat="45.23979" lon="4.66577">
        <ele>417.304373</ele>
        <time>2026-07-02T10:28:40.741Z</time>
      </trkpt>
      <trkpt lat="45.23977" lon="4.6656">
        <ele>417.185309</ele>
        <time>2026-07-02T10:28:43.739Z</time>
      </trkpt>
      <trkpt lat="45.23976" lon="4.66541">
        <ele>417.053839</ele>
        <time>2026-07-02T10:28:46.745Z</time>
      </trkpt>
      <trkpt lat="45.23975" lon="4.66528">
        <ele>416.965632</ele>
        <time>2026-07-02T10:28:48.750Z</time>
      </trkpt>
      <trkpt lat="45.23973" lon="4.66513">
        <ele>416.86027</ele>
        <time>2026-07-02T10:28:50.741Z</time>
      </trkpt>
      <trkpt lat="45.23971" lon="4.66497">
        <ele>416.100263</ele>
        <time>2026-07-02T10:28:52.741Z</time>
      </trkpt>
      <trkpt lat="45.23971" lon="4.66479">
        <ele>415.013628</ele>
        <time>2026-07-02T10:28:54.750Z</time>
      </trkpt>
      <trkpt lat="45.23972" lon="4.66458">
        <ele>413.6958</ele>
        <time>2026-07-02T10:28:56.741Z</time>
      </trkpt>
      <trkpt lat="45.23973" lon="4.66436">
        <ele>412.296918</ele>
        <time>2026-07-02T10:28:58.742Z</time>
      </trkpt>
      <trkpt lat="45.2397" lon="4.66418">
        <ele>411.17237</ele>
        <time>2026-07-02T10:29:00.740Z</time>
      </trkpt>
      <trkpt lat="45.23969" lon="4.66399">
        <ele>409.970726</ele>
        <time>2026-07-02T10:29:02.740Z</time>
      </trkpt>
      <trkpt lat="45.23968" lon="4.66378">
        <ele>408.663784</ele>
        <time>2026-07-02T10:29:04.739Z</time>
      </trkpt>
      <trkpt lat="45.23965" lon="4.66357">
        <ele>407.382604</ele>
        <time>2026-07-02T10:29:06.737Z</time>
      </trkpt>
      <trkpt lat="45.2396" lon="4.66338">
        <ele>406.082324</ele>
        <time>2026-07-02T10:29:08.738Z</time>
      </trkpt>
      <trkpt lat="45.23956" lon="4.66318">
        <ele>404.81085</ele>
        <time>2026-07-02T10:29:10.744Z</time>
      </trkpt>
      <trkpt lat="45.23955" lon="4.66296">
        <ele>403.41038</ele>
        <time>2026-07-02T10:29:12.746Z</time>
      </trkpt>
      <trkpt lat="45.23954" lon="4.66275">
        <ele>402.117358</ele>
        <time>2026-07-02T10:29:14.742Z</time>
      </trkpt>
      <trkpt lat="45.23955" lon="4.66251">
        <ele>400.984278</ele>
        <time>2026-07-02T10:29:16.740Z</time>
      </trkpt>
      <trkpt lat="45.23952" lon="4.66228">
        <ele>401.057158</ele>
        <time>2026-07-02T10:29:18.738Z</time>
      </trkpt>
      <trkpt lat="45.2395" lon="4.66205">
        <ele>401.128999</ele>
        <time>2026-07-02T10:29:20.735Z</time>
      </trkpt>
      <trkpt lat="45.23947" lon="4.66183">
        <ele>401.198732</ele>
        <time>2026-07-02T10:29:22.739Z</time>
      </trkpt>
      <trkpt lat="45.23944" lon="4.66161">
        <ele>401.267594</ele>
        <time>2026-07-02T10:29:24.738Z</time>
      </trkpt>
      <trkpt lat="45.23941" lon="4.66138">
        <ele>401.33927</ele>
        <time>2026-07-02T10:29:26.742Z</time>
      </trkpt>
      <trkpt lat="45.23938" lon="4.66115">
        <ele>401.412711</ele>
        <time>2026-07-02T10:29:28.731Z</time>
      </trkpt>
      <trkpt lat="45.23935" lon="4.66092">
        <ele>401.486479</ele>
        <time>2026-07-02T10:29:30.740Z</time>
      </trkpt>
      <trkpt lat="45.2393" lon="4.66069">
        <ele>401.561503</ele>
        <time>2026-07-02T10:29:32.739Z</time>
      </trkpt>
      <trkpt lat="45.23925" lon="4.66046">
        <ele>401.634565</ele>
        <time>2026-07-02T10:29:34.738Z</time>
      </trkpt>
      <trkpt lat="45.23925" lon="4.6602">
        <ele>401.714282</ele>
        <time>2026-07-02T10:29:36.743Z</time>
      </trkpt>
      <trkpt lat="45.23929" lon="4.66006">
        <ele>401.746409</ele>
        <time>2026-07-02T10:29:37.741Z</time>
      </trkpt>
      <trkpt lat="45.23935" lon="4.65992">
        <ele>401.210381</ele>
        <time>2026-07-02T10:29:38.738Z</time>
      </trkpt>
      <trkpt lat="45.23945" lon="4.65982">
        <ele>400.683117</ele>
        <time>2026-07-02T10:29:39.745Z</time>
      </trkpt>
      <trkpt lat="45.23953" lon="4.65973">
        <ele>400.236823</ele>
        <time>2026-07-02T10:29:40.744Z</time>
      </trkpt>
      <trkpt lat="45.2396" lon="4.65963">
        <ele>399.7741</ele>
        <time>2026-07-02T10:29:41.749Z</time>
      </trkpt>
      <trkpt lat="45.23967" lon="4.65951">
        <ele>399.278182</ele>
        <time>2026-07-02T10:29:42.745Z</time>
      </trkpt>
      <trkpt lat="45.23975" lon="4.6594">
        <ele>398.77545</ele>
        <time>2026-07-02T10:29:43.745Z</time>
      </trkpt>
      <trkpt lat="45.23982" lon="4.65929">
        <ele>398.309851</ele>
        <time>2026-07-02T10:29:44.745Z</time>
      </trkpt>
      <trkpt lat="45.2399" lon="4.65919">
        <ele>397.865717</ele>
        <time>2026-07-02T10:29:45.742Z</time>
      </trkpt>
      <trkpt lat="45.23998" lon="4.65913">
        <ele>397.432893</ele>
        <time>2026-07-02T10:29:46.734Z</time>
      </trkpt>
      <trkpt lat="45.24008" lon="4.65909">
        <ele>396.983714</ele>
        <time>2026-07-02T10:29:47.746Z</time>
      </trkpt>
      <trkpt lat="45.24018" lon="4.65907">
        <ele>396.527768</ele>
        <time>2026-07-02T10:29:48.738Z</time>
      </trkpt>
      <trkpt lat="45.24029" lon="4.65906">
        <ele>396.047883</ele>
        <time>2026-07-02T10:29:49.744Z</time>
      </trkpt>
      <trkpt lat="45.24039" lon="4.65906">
        <ele>395.568868</ele>
        <time>2026-07-02T10:29:50.743Z</time>
      </trkpt>
      <trkpt lat="45.2405" lon="4.65907">
        <ele>395.093448</ele>
        <time>2026-07-02T10:29:51.744Z</time>
      </trkpt>
      <trkpt lat="45.24061" lon="4.65906">
        <ele>394.599201</ele>
        <time>2026-07-02T10:29:52.738Z</time>
      </trkpt>
      <trkpt lat="45.24071" lon="4.65906">
        <ele>394.133606</ele>
        <time>2026-07-02T10:29:53.745Z</time>
      </trkpt>
      <trkpt lat="45.24081" lon="4.65904">
        <ele>393.70897</ele>
        <time>2026-07-02T10:29:54.735Z</time>
      </trkpt>
      <trkpt lat="45.24091" lon="4.65899">
        <ele>393.669121</ele>
        <time>2026-07-02T10:29:55.747Z</time>
      </trkpt>
      <trkpt lat="45.241" lon="4.65892">
        <ele>393.626204</ele>
        <time>2026-07-02T10:29:56.740Z</time>
      </trkpt>
      <trkpt lat="45.24109" lon="4.65882">
        <ele>393.580504</ele>
        <time>2026-07-02T10:29:57.739Z</time>
      </trkpt>
      <trkpt lat="45.24118" lon="4.65873">
        <ele>393.538404</ele>
        <time>2026-07-02T10:29:58.738Z</time>
      </trkpt>
      <trkpt lat="45.24127" lon="4.65862">
        <ele>393.49261</ele>
        <time>2026-07-02T10:29:59.740Z</time>
      </trkpt>
      <trkpt lat="45.24136" lon="4.65852">
        <ele>393.44839</ele>
        <time>2026-07-02T10:30:00.734Z</time>
      </trkpt>
      <trkpt lat="45.24145" lon="4.65843">
        <ele>393.404821</ele>
        <time>2026-07-02T10:30:01.737Z</time>
      </trkpt>
      <trkpt lat="45.24153" lon="4.65833">
        <ele>393.362948</ele>
        <time>2026-07-02T10:30:02.743Z</time>
      </trkpt>
      <trkpt lat="45.24161" lon="4.65823">
        <ele>393.321554</ele>
        <time>2026-07-02T10:30:03.745Z</time>
      </trkpt>
      <trkpt lat="45.24169" lon="4.65814">
        <ele>393.280208</ele>
        <time>2026-07-02T10:30:04.755Z</time>
      </trkpt>
      <trkpt lat="45.24177" lon="4.65806">
        <ele>393.242611</ele>
        <time>2026-07-02T10:30:05.716Z</time>
      </trkpt>
      <trkpt lat="45.24184" lon="4.65796">
        <ele>393.204337</ele>
        <time>2026-07-02T10:30:06.713Z</time>
      </trkpt>
      <trkpt lat="45.24197" lon="4.65779">
        <ele>393.133675</ele>
        <time>2026-07-02T10:30:08.735Z</time>
      </trkpt>
      <trkpt lat="45.24207" lon="4.65759">
        <ele>393.067481</ele>
        <time>2026-07-02T10:30:10.735Z</time>
      </trkpt>
      <trkpt lat="45.24213" lon="4.65738">
        <ele>393.006486</ele>
        <time>2026-07-02T10:30:12.733Z</time>
      </trkpt>
      <trkpt lat="45.24217" lon="4.65717">
        <ele>393.828623</ele>
        <time>2026-07-02T10:30:14.737Z</time>
      </trkpt>
      <trkpt lat="45.24219" lon="4.65698">
        <ele>394.55707</ele>
        <time>2026-07-02T10:30:16.741Z</time>
      </trkpt>
      <trkpt lat="45.24217" lon="4.65677">
        <ele>395.357706</ele>
        <time>2026-07-02T10:30:18.741Z</time>
      </trkpt>
      <trkpt lat="45.24213" lon="4.6566">
        <ele>396.055167</ele>
        <time>2026-07-02T10:30:20.743Z</time>
      </trkpt>
      <trkpt lat="45.2421" lon="4.65643">
        <ele>396.705225</ele>
        <time>2026-07-02T10:30:22.739Z</time>
      </trkpt>
      <trkpt lat="45.2421" lon="4.65626">
        <ele>397.354074</ele>
        <time>2026-07-02T10:30:24.736Z</time>
      </trkpt>
      <trkpt lat="45.24214" lon="4.6561">
        <ele>397.98037</ele>
        <time>2026-07-02T10:30:26.731Z</time>
      </trkpt>
      <trkpt lat="45.24216" lon="4.65594">
        <ele>398.591649</ele>
        <time>2026-07-02T10:30:28.728Z</time>
      </trkpt>
      <trkpt lat="45.24213" lon="4.65579">
        <ele>399.197657</ele>
        <time>2026-07-02T10:30:30.732Z</time>
      </trkpt>
      <trkpt lat="45.24212" lon="4.65563">
        <ele>399.784824</ele>
        <time>2026-07-02T10:30:32.735Z</time>
      </trkpt>
      <trkpt lat="45.24208" lon="4.65551">
        <ele>400.282267</ele>
        <time>2026-07-02T10:30:34.731Z</time>
      </trkpt>
      <trkpt lat="45.24202" lon="4.6554">
        <ele>400.840905</ele>
        <time>2026-07-02T10:30:36.733Z</time>
      </trkpt>
      <trkpt lat="45.24196" lon="4.65529">
        <ele>401.35007</ele>
        <time>2026-07-02T10:30:38.719Z</time>
      </trkpt>
      <trkpt lat="45.24191" lon="4.65517">
        <ele>401.875602</ele>
        <time>2026-07-02T10:30:40.741Z</time>
      </trkpt>
      <trkpt lat="45.24186" lon="4.65506">
        <ele>402.37232</ele>
        <time>2026-07-02T10:30:42.745Z</time>
      </trkpt>
      <trkpt lat="45.24179" lon="4.65497">
        <ele>402.580908</ele>
        <time>2026-07-02T10:30:44.735Z</time>
      </trkpt>
      <trkpt lat="45.24172" lon="4.65484">
        <ele>402.434999</ele>
        <time>2026-07-02T10:30:46.737Z</time>
      </trkpt>
      <trkpt lat="45.24164" lon="4.65475">
        <ele>402.299078</ele>
        <time>2026-07-02T10:30:48.735Z</time>
      </trkpt>
      <trkpt lat="45.24156" lon="4.65465">
        <ele>402.156018</ele>
        <time>2026-07-02T10:30:50.738Z</time>
      </trkpt>
      <trkpt lat="45.24146" lon="4.65455">
        <ele>401.994876</ele>
        <time>2026-07-02T10:30:52.741Z</time>
      </trkpt>
      <trkpt lat="45.24135" lon="4.65448">
        <ele>401.834645</ele>
        <time>2026-07-02T10:30:54.739Z</time>
      </trkpt>
      <trkpt lat="45.24125" lon="4.65436">
        <ele>401.672525</ele>
        <time>2026-07-02T10:30:56.735Z</time>
      </trkpt>
      <trkpt lat="45.24115" lon="4.65429">
        <ele>401.51937</ele>
        <time>2026-07-02T10:30:58.729Z</time>
      </trkpt>
      <trkpt lat="45.24105" lon="4.65417">
        <ele>401.346463</ele>
        <time>2026-07-02T10:31:00.731Z</time>
      </trkpt>
      <trkpt lat="45.24098" lon="4.65405">
        <ele>401.205918</ele>
        <time>2026-07-02T10:31:02.740Z</time>
      </trkpt>
      <trkpt lat="45.24092" lon="4.65391">
        <ele>401.054273</ele>
        <time>2026-07-02T10:31:04.737Z</time>
      </trkpt>
      <trkpt lat="45.24091" lon="4.65377">
        <ele>400.92417</ele>
        <time>2026-07-02T10:31:07.744Z</time>
      </trkpt>
      <trkpt lat="45.24096" lon="4.65362">
        <ele>400.769234</ele>
        <time>2026-07-02T10:31:10.704Z</time>
      </trkpt>
      <trkpt lat="45.24102" lon="4.65345">
        <ele>400.594871</ele>
        <time>2026-07-02T10:31:13.696Z</time>
      </trkpt>
      <trkpt lat="45.24109" lon="4.65329">
        <ele>400.413826</ele>
        <time>2026-07-02T10:31:16.734Z</time>
      </trkpt>
      <trkpt lat="45.24114" lon="4.65316">
        <ele>400.281289</ele>
        <time>2026-07-02T10:31:18.742Z</time>
      </trkpt>
      <trkpt lat="45.24119" lon="4.65298">
        <ele>400.525855</ele>
        <time>2026-07-02T10:31:21.737Z</time>
      </trkpt>
      <trkpt lat="45.24119" lon="4.65279">
        <ele>400.780073</ele>
        <time>2026-07-02T10:31:24.747Z</time>
      </trkpt>
      <trkpt lat="45.24121" lon="4.65265">
        <ele>400.962997</ele>
        <time>2026-07-02T10:31:26.742Z</time>
      </trkpt>
      <trkpt lat="45.24123" lon="4.65251">
        <ele>401.146268</ele>
        <time>2026-07-02T10:31:28.744Z</time>
      </trkpt>
      <trkpt lat="45.24125" lon="4.65237">
        <ele>401.340025</ele>
        <time>2026-07-02T10:31:30.745Z</time>
      </trkpt>
      <trkpt lat="45.24128" lon="4.65223">
        <ele>401.533982</ele>
        <time>2026-07-02T10:31:32.737Z</time>
      </trkpt>
      <trkpt lat="45.24131" lon="4.6521">
        <ele>401.703347</ele>
        <time>2026-07-02T10:31:34.746Z</time>
      </trkpt>
      <trkpt lat="45.24131" lon="4.65197">
        <ele>401.876695</ele>
        <time>2026-07-02T10:31:36.738Z</time>
      </trkpt>
      <trkpt lat="45.24128" lon="4.65183">
        <ele>402.059961</ele>
        <time>2026-07-02T10:31:38.737Z</time>
      </trkpt>
      <trkpt lat="45.24124" lon="4.65172">
        <ele>402.227502</ele>
        <time>2026-07-02T10:31:40.750Z</time>
      </trkpt>
      <trkpt lat="45.24117" lon="4.65157">
        <ele>402.460023</ele>
        <time>2026-07-02T10:31:43.749Z</time>
      </trkpt>
      <trkpt lat="45.24111" lon="4.65146">
        <ele>402.636984</ele>
        <time>2026-07-02T10:31:45.740Z</time>
      </trkpt>
      <trkpt lat="45.24107" lon="4.65134">
        <ele>402.820274</ele>
        <time>2026-07-02T10:31:47.736Z</time>
      </trkpt>
      <trkpt lat="45.24102" lon="4.6512">
        <ele>403.022554</ele>
        <time>2026-07-02T10:31:49.743Z</time>
      </trkpt>
      <trkpt lat="45.24097" lon="4.65107">
        <ele>403.21136</ele>
        <time>2026-07-02T10:31:51.745Z</time>
      </trkpt>
      <trkpt lat="45.24092" lon="4.65094">
        <ele>403.403285</ele>
        <time>2026-07-02T10:31:53.742Z</time>
      </trkpt>
      <trkpt lat="45.24087" lon="4.65082">
        <ele>403.593195</ele>
        <time>2026-07-02T10:31:55.751Z</time>
      </trkpt>
      <trkpt lat="45.24081" lon="4.65067">
        <ele>403.582973</ele>
        <time>2026-07-02T10:31:57.736Z</time>
      </trkpt>
      <trkpt lat="45.24075" lon="4.65054">
        <ele>403.558448</ele>
        <time>2026-07-02T10:31:59.739Z</time>
      </trkpt>
      <trkpt lat="45.24071" lon="4.65041">
        <ele>403.53519</ele>
        <time>2026-07-02T10:32:01.744Z</time>
      </trkpt>
      <trkpt lat="45.24065" lon="4.65029">
        <ele>403.510544</ele>
        <time>2026-07-02T10:32:03.739Z</time>
      </trkpt>
      <trkpt lat="45.24059" lon="4.65016">
        <ele>403.485398</ele>
        <time>2026-07-02T10:32:05.740Z</time>
      </trkpt>
      <trkpt lat="45.2405" lon="4.65004">
        <ele>403.456836</ele>
        <time>2026-07-02T10:32:08.738Z</time>
      </trkpt>
      <trkpt lat="45.24042" lon="4.64997">
        <ele>403.435226</ele>
        <time>2026-07-02T10:32:10.741Z</time>
      </trkpt>
      <trkpt lat="45.24034" lon="4.64989">
        <ele>403.411228</ele>
        <time>2026-07-02T10:32:12.734Z</time>
      </trkpt>
      <trkpt lat="45.24024" lon="4.64984">
        <ele>403.386862</ele>
        <time>2026-07-02T10:32:14.741Z</time>
      </trkpt>
      <trkpt lat="45.24015" lon="4.64977">
        <ele>403.363065</ele>
        <time>2026-07-02T10:32:16.739Z</time>
      </trkpt>
      <trkpt lat="45.24006" lon="4.64971">
        <ele>403.339497</ele>
        <time>2026-07-02T10:32:18.739Z</time>
      </trkpt>
      <trkpt lat="45.23997" lon="4.64964">
        <ele>403.314927</ele>
        <time>2026-07-02T10:32:20.740Z</time>
      </trkpt>
      <trkpt lat="45.23988" lon="4.64954">
        <ele>403.289911</ele>
        <time>2026-07-02T10:32:22.749Z</time>
      </trkpt>
      <trkpt lat="45.23981" lon="4.64941">
        <ele>403.262999</ele>
        <time>2026-07-02T10:32:24.738Z</time>
      </trkpt>
      <trkpt lat="45.23976" lon="4.64926">
        <ele>403.236415</ele>
        <time>2026-07-02T10:32:26.735Z</time>
      </trkpt>
      <trkpt lat="45.23972" lon="4.64912">
        <ele>403.210972</ele>
        <time>2026-07-02T10:32:28.748Z</time>
      </trkpt>
      <trkpt lat="45.23969" lon="4.64899">
        <ele>403.198675</ele>
        <time>2026-07-02T10:32:30.739Z</time>
      </trkpt>
      <trkpt lat="45.23965" lon="4.64884">
        <ele>403.414933</ele>
        <time>2026-07-02T10:32:32.734Z</time>
      </trkpt>
      <trkpt lat="45.23961" lon="4.64872">
        <ele>403.610418</ele>
        <time>2026-07-02T10:32:34.739Z</time>
      </trkpt>
      <trkpt lat="45.23957" lon="4.64858">
        <ele>403.813128</ele>
        <time>2026-07-02T10:32:36.737Z</time>
      </trkpt>
      <trkpt lat="45.23952" lon="4.64846">
        <ele>404.019726</ele>
        <time>2026-07-02T10:32:38.738Z</time>
      </trkpt>
      <trkpt lat="45.23945" lon="4.64834">
        <ele>404.228614</ele>
        <time>2026-07-02T10:32:40.745Z</time>
      </trkpt>
      <trkpt lat="45.23939" lon="4.64823">
        <ele>404.431176</ele>
        <time>2026-07-02T10:32:42.739Z</time>
      </trkpt>
      <trkpt lat="45.23931" lon="4.64811">
        <ele>404.658735</ele>
        <time>2026-07-02T10:32:44.741Z</time>
      </trkpt>
      <trkpt lat="45.23925" lon="4.64797">
        <ele>404.88818</ele>
        <time>2026-07-02T10:32:46.743Z</time>
      </trkpt>
      <trkpt lat="45.23921" lon="4.64782">
        <ele>405.118227</ele>
        <time>2026-07-02T10:32:48.742Z</time>
      </trkpt>
      <trkpt lat="45.23918" lon="4.64768">
        <ele>405.314143</ele>
        <time>2026-07-02T10:32:50.741Z</time>
      </trkpt>
      <trkpt lat="45.23916" lon="4.64755">
        <ele>405.502025</ele>
        <time>2026-07-02T10:32:52.741Z</time>
      </trkpt>
      <trkpt lat="45.23915" lon="4.64742">
        <ele>405.69275</ele>
        <time>2026-07-02T10:32:54.741Z</time>
      </trkpt>
      <trkpt lat="45.23914" lon="4.64727">
        <ele>405.903192</ele>
        <time>2026-07-02T10:32:56.741Z</time>
      </trkpt>
      <trkpt lat="45.23912" lon="4.64712">
        <ele>406.111299</ele>
        <time>2026-07-02T10:32:58.741Z</time>
      </trkpt>
      <trkpt lat="45.2391" lon="4.64698">
        <ele>406.3128</ele>
        <time>2026-07-02T10:33:00.742Z</time>
      </trkpt>
      <trkpt lat="45.23906" lon="4.64683">
        <ele>406.535747</ele>
        <time>2026-07-02T10:33:02.745Z</time>
      </trkpt>
      <trkpt lat="45.23903" lon="4.64668">
        <ele>406.765148</ele>
        <time>2026-07-02T10:33:04.742Z</time>
      </trkpt>
      <trkpt lat="45.23898" lon="4.64653">
        <ele>406.968748</ele>
        <time>2026-07-02T10:33:06.740Z</time>
      </trkpt>
      <trkpt lat="45.23888" lon="4.6464">
        <ele>407.211328</ele>
        <time>2026-07-02T10:33:09.747Z</time>
      </trkpt>
      <trkpt lat="45.23879" lon="4.64633">
        <ele>407.38622</ele>
        <time>2026-07-02T10:33:11.737Z</time>
      </trkpt>
      <trkpt lat="45.2387" lon="4.64624">
        <ele>407.578266</ele>
        <time>2026-07-02T10:33:13.749Z</time>
      </trkpt>
      <trkpt lat="45.23861" lon="4.64617">
        <ele>407.769595</ele>
        <time>2026-07-02T10:33:15.742Z</time>
      </trkpt>
      <trkpt lat="45.23852" lon="4.64608">
        <ele>407.958656</ele>
        <time>2026-07-02T10:33:17.743Z</time>
      </trkpt>
      <trkpt lat="45.23844" lon="4.64601">
        <ele>408.13847</ele>
        <time>2026-07-02T10:33:19.739Z</time>
      </trkpt>
      <trkpt lat="45.23835" lon="4.64593">
        <ele>408.318284</ele>
        <time>2026-07-02T10:33:21.738Z</time>
      </trkpt>
      <trkpt lat="45.23827" lon="4.64583">
        <ele>408.502501</ele>
        <time>2026-07-02T10:33:23.737Z</time>
      </trkpt>
      <trkpt lat="45.23819" lon="4.64573">
        <ele>408.691865</ele>
        <time>2026-07-02T10:33:25.746Z</time>
      </trkpt>
      <trkpt lat="45.23812" lon="4.64561">
        <ele>408.890749</ele>
        <time>2026-07-02T10:33:27.736Z</time>
      </trkpt>
      <trkpt lat="45.23805" lon="4.6455">
        <ele>409.081692</ele>
        <time>2026-07-02T10:33:29.734Z</time>
      </trkpt>
      <trkpt lat="45.23798" lon="4.6454">
        <ele>409.251963</ele>
        <time>2026-07-02T10:33:31.737Z</time>
      </trkpt>
      <trkpt lat="45.23792" lon="4.64527">
        <ele>409.443373</ele>
        <time>2026-07-02T10:33:33.739Z</time>
      </trkpt>
      <trkpt lat="45.23785" lon="4.64518">
        <ele>409.619296</ele>
        <time>2026-07-02T10:33:35.744Z</time>
      </trkpt>
      <trkpt lat="45.23777" lon="4.6451">
        <ele>409.78083</ele>
        <time>2026-07-02T10:33:37.712Z</time>
      </trkpt>
      <trkpt lat="45.23769" lon="4.64499">
        <ele>409.989422</ele>
        <time>2026-07-02T10:33:39.739Z</time>
      </trkpt>
      <trkpt lat="45.2376" lon="4.64487">
        <ele>410.23174</ele>
        <time>2026-07-02T10:33:41.739Z</time>
      </trkpt>
      <trkpt lat="45.2375" lon="4.64478">
        <ele>410.462869</ele>
        <time>2026-07-02T10:33:43.738Z</time>
      </trkpt>
      <trkpt lat="45.23741" lon="4.64473">
        <ele>410.665907</ele>
        <time>2026-07-02T10:33:45.741Z</time>
      </trkpt>
      <trkpt lat="45.23731" lon="4.64467">
        <ele>410.880783</ele>
        <time>2026-07-02T10:33:47.741Z</time>
      </trkpt>
      <trkpt lat="45.2372" lon="4.64465">
        <ele>411.101212</ele>
        <time>2026-07-02T10:33:49.741Z</time>
      </trkpt>
      <trkpt lat="45.23709" lon="4.64459">
        <ele>411.333759</ele>
        <time>2026-07-02T10:33:51.739Z</time>
      </trkpt>
      <trkpt lat="45.23698" lon="4.64453">
        <ele>411.569038</ele>
        <time>2026-07-02T10:33:53.740Z</time>
      </trkpt>
      <trkpt lat="45.23687" lon="4.64445">
        <ele>411.816569</ele>
        <time>2026-07-02T10:33:55.735Z</time>
      </trkpt>
      <trkpt lat="45.23677" lon="4.64438">
        <ele>412.036706</ele>
        <time>2026-07-02T10:33:57.742Z</time>
      </trkpt>
      <trkpt lat="45.23666" lon="4.64431">
        <ele>412.269264</ele>
        <time>2026-07-02T10:33:59.732Z</time>
      </trkpt>
      <trkpt lat="45.23657" lon="4.64423">
        <ele>412.488301</ele>
        <time>2026-07-02T10:34:01.741Z</time>
      </trkpt>
      <trkpt lat="45.23647" lon="4.64415">
        <ele>412.707402</ele>
        <time>2026-07-02T10:34:03.742Z</time>
      </trkpt>
      <trkpt lat="45.23639" lon="4.64405">
        <ele>412.930296</ele>
        <time>2026-07-02T10:34:05.740Z</time>
      </trkpt>
      <trkpt lat="45.23631" lon="4.6439">
        <ele>413.193878</ele>
        <time>2026-07-02T10:34:07.741Z</time>
      </trkpt>
      <trkpt lat="45.23626" lon="4.64373">
        <ele>413.443649</ele>
        <time>2026-07-02T10:34:09.746Z</time>
      </trkpt>
      <trkpt lat="45.23625" lon="4.64357">
        <ele>413.669481</ele>
        <time>2026-07-02T10:34:11.744Z</time>
      </trkpt>
      <trkpt lat="45.23625" lon="4.64342">
        <ele>413.869775</ele>
        <time>2026-07-02T10:34:13.739Z</time>
      </trkpt>
      <trkpt lat="45.23627" lon="4.64328">
        <ele>414.074998</ele>
        <time>2026-07-02T10:34:15.738Z</time>
      </trkpt>
      <trkpt lat="45.23629" lon="4.64312">
        <ele>414.287989</ele>
        <time>2026-07-02T10:34:17.736Z</time>
      </trkpt>
      <trkpt lat="45.2363" lon="4.64297">
        <ele>414.498667</ele>
        <time>2026-07-02T10:34:19.738Z</time>
      </trkpt>
      <trkpt lat="45.23634" lon="4.64282">
        <ele>414.719275</ele>
        <time>2026-07-02T10:34:21.739Z</time>
      </trkpt>
      <trkpt lat="45.23641" lon="4.64261">
        <ele>415.035763</ele>
        <time>2026-07-02T10:34:23.746Z</time>
      </trkpt>
      <trkpt lat="45.23648" lon="4.64243">
        <ele>415.330756</ele>
        <time>2026-07-02T10:34:25.744Z</time>
      </trkpt>
      <trkpt lat="45.23654" lon="4.64228">
        <ele>415.565918</ele>
        <time>2026-07-02T10:34:27.740Z</time>
      </trkpt>
      <trkpt lat="45.2366" lon="4.64211">
        <ele>415.824137</ele>
        <time>2026-07-02T10:34:29.751Z</time>
      </trkpt>
      <trkpt lat="45.23665" lon="4.64196">
        <ele>416.051913</ele>
        <time>2026-07-02T10:34:31.741Z</time>
      </trkpt>
      <trkpt lat="45.23669" lon="4.64181">
        <ele>416.282264</ele>
        <time>2026-07-02T10:34:33.735Z</time>
      </trkpt>
      <trkpt lat="45.23671" lon="4.64165">
        <ele>416.494024</ele>
        <time>2026-07-02T10:34:35.740Z</time>
      </trkpt>
      <trkpt lat="45.23671" lon="4.64149">
        <ele>416.723586</ele>
        <time>2026-07-02T10:34:37.739Z</time>
      </trkpt>
      <trkpt lat="45.23672" lon="4.64131">
        <ele>416.963682</ele>
        <time>2026-07-02T10:34:39.733Z</time>
      </trkpt>
      <trkpt lat="45.2367" lon="4.64117">
        <ele>416.992819</ele>
        <time>2026-07-02T10:34:41.737Z</time>
      </trkpt>
      <trkpt lat="45.23665" lon="4.64103">
        <ele>416.836155</ele>
        <time>2026-07-02T10:34:43.743Z</time>
      </trkpt>
      <trkpt lat="45.2366" lon="4.6409">
        <ele>416.683337</ele>
        <time>2026-07-02T10:34:45.743Z</time>
      </trkpt>
      <trkpt lat="45.23651" lon="4.64077">
        <ele>416.500735</ele>
        <time>2026-07-02T10:34:47.746Z</time>
      </trkpt>
      <trkpt lat="45.23642" lon="4.64069">
        <ele>416.343467</ele>
        <time>2026-07-02T10:34:49.707Z</time>
      </trkpt>
      <trkpt lat="45.23631" lon="4.64059">
        <ele>416.156131</ele>
        <time>2026-07-02T10:34:51.741Z</time>
      </trkpt>
      <trkpt lat="45.23619" lon="4.64051">
        <ele>415.9593</ele>
        <time>2026-07-02T10:34:53.743Z</time>
      </trkpt>
      <trkpt lat="45.23608" lon="4.64044">
        <ele>415.788911</ele>
        <time>2026-07-02T10:34:55.739Z</time>
      </trkpt>
      <trkpt lat="45.23598" lon="4.64039">
        <ele>415.638255</ele>
        <time>2026-07-02T10:34:57.737Z</time>
      </trkpt>
      <trkpt lat="45.23588" lon="4.6403">
        <ele>415.461919</ele>
        <time>2026-07-02T10:35:00.750Z</time>
      </trkpt>
      <trkpt lat="45.2358" lon="4.64021">
        <ele>415.317298</ele>
        <time>2026-07-02T10:35:04.741Z</time>
      </trkpt>
      <trkpt lat="45.23573" lon="4.64011">
        <ele>415.166403</ele>
        <time>2026-07-02T10:36:50.738Z</time>
      </trkpt>
      <trkpt lat="45.2357" lon="4.63998">
        <ele>415.029739</ele>
        <time>2026-07-02T10:36:52.745Z</time>
      </trkpt>
      <trkpt lat="45.23568" lon="4.63981">
        <ele>414.861523</ele>
        <time>2026-07-02T10:36:54.747Z</time>
      </trkpt>
      <trkpt lat="45.23567" lon="4.63965">
        <ele>414.698076</ele>
        <time>2026-07-02T10:36:56.737Z</time>
      </trkpt>
      <trkpt lat="45.23568" lon="4.63951">
        <ele>414.552247</ele>
        <time>2026-07-02T10:36:58.736Z</time>
      </trkpt>
      <trkpt lat="45.23568" lon="4.63937">
        <ele>414.51167</ele>
        <time>2026-07-02T10:37:00.740Z</time>
      </trkpt>
      <trkpt lat="45.2357" lon="4.63923">
        <ele>414.633803</ele>
        <time>2026-07-02T10:37:02.740Z</time>
      </trkpt>
      <trkpt lat="45.2357" lon="4.63907">
        <ele>414.772628</ele>
        <time>2026-07-02T10:37:04.744Z</time>
      </trkpt>
      <trkpt lat="45.2357" lon="4.63892">
        <ele>414.89822</ele>
        <time>2026-07-02T10:37:06.744Z</time>
      </trkpt>
      <trkpt lat="45.2357" lon="4.63875">
        <ele>415.047296</ele>
        <time>2026-07-02T10:37:08.736Z</time>
      </trkpt>
      <trkpt lat="45.23568" lon="4.63858">
        <ele>415.197882</ele>
        <time>2026-07-02T10:37:10.738Z</time>
      </trkpt>
      <trkpt lat="45.23565" lon="4.63841">
        <ele>415.349123</ele>
        <time>2026-07-02T10:37:12.743Z</time>
      </trkpt>
      <trkpt lat="45.23563" lon="4.63827">
        <ele>415.473343</ele>
        <time>2026-07-02T10:37:14.739Z</time>
      </trkpt>
      <trkpt lat="45.23561" lon="4.63811">
        <ele>415.616456</ele>
        <time>2026-07-02T10:37:16.739Z</time>
      </trkpt>
      <trkpt lat="45.23557" lon="4.63795">
        <ele>415.759528</ele>
        <time>2026-07-02T10:37:18.741Z</time>
      </trkpt>
      <trkpt lat="45.23557" lon="4.63779">
        <ele>415.894117</ele>
        <time>2026-07-02T10:37:20.742Z</time>
      </trkpt>
      <trkpt lat="45.23558" lon="4.63763">
        <ele>416.038526</ele>
        <time>2026-07-02T10:37:22.733Z</time>
      </trkpt>
      <trkpt lat="45.23561" lon="4.63745">
        <ele>416.194795</ele>
        <time>2026-07-02T10:37:24.741Z</time>
      </trkpt>
      <trkpt lat="45.23566" lon="4.63728">
        <ele>416.356991</ele>
        <time>2026-07-02T10:37:26.745Z</time>
      </trkpt>
      <trkpt lat="45.23568" lon="4.63712">
        <ele>416.496862</ele>
        <time>2026-07-02T10:37:28.737Z</time>
      </trkpt>
      <trkpt lat="45.23567" lon="4.63695">
        <ele>416.640936</ele>
        <time>2026-07-02T10:37:30.739Z</time>
      </trkpt>
      <trkpt lat="45.23564" lon="4.63679">
        <ele>416.834411</ele>
        <time>2026-07-02T10:37:32.753Z</time>
      </trkpt>
      <trkpt lat="45.23559" lon="4.63665">
        <ele>417.021615</ele>
        <time>2026-07-02T10:37:34.737Z</time>
      </trkpt>
      <trkpt lat="45.23553" lon="4.63652">
        <ele>417.207288</ele>
        <time>2026-07-02T10:37:36.737Z</time>
      </trkpt>
      <trkpt lat="45.23548" lon="4.63637">
        <ele>417.40694</ele>
        <time>2026-07-02T10:37:38.743Z</time>
      </trkpt>
      <trkpt lat="45.23544" lon="4.63621">
        <ele>417.611153</ele>
        <time>2026-07-02T10:37:40.738Z</time>
      </trkpt>
      <trkpt lat="45.23542" lon="4.63606">
        <ele>417.798634</ele>
        <time>2026-07-02T10:37:42.740Z</time>
      </trkpt>
      <trkpt lat="45.23541" lon="4.63592">
        <ele>417.972387</ele>
        <time>2026-07-02T10:37:44.733Z</time>
      </trkpt>
      <trkpt lat="45.23541" lon="4.63577">
        <ele>418.161108</ele>
        <time>2026-07-02T10:37:46.739Z</time>
      </trkpt>
      <trkpt lat="45.23543" lon="4.63561">
        <ele>418.355778</ele>
        <time>2026-07-02T10:37:48.746Z</time>
      </trkpt>
      <trkpt lat="45.23546" lon="4.63545">
        <ele>418.552728</ele>
        <time>2026-07-02T10:37:50.735Z</time>
      </trkpt>
      <trkpt lat="45.23553" lon="4.63528">
        <ele>418.790148</ele>
        <time>2026-07-02T10:37:52.747Z</time>
      </trkpt>
      <trkpt lat="45.23557" lon="4.63512">
        <ele>419.000114</ele>
        <time>2026-07-02T10:37:54.733Z</time>
      </trkpt>
      <trkpt lat="45.23559" lon="4.63495">
        <ele>419.204949</ele>
        <time>2026-07-02T10:37:56.745Z</time>
      </trkpt>
      <trkpt lat="45.2356" lon="4.63477">
        <ele>419.426741</ele>
        <time>2026-07-02T10:37:58.741Z</time>
      </trkpt>
      <trkpt lat="45.23559" lon="4.6346">
        <ele>419.638012</ele>
        <time>2026-07-02T10:38:00.735Z</time>
      </trkpt>
      <trkpt lat="45.23557" lon="4.63445">
        <ele>419.833156</ele>
        <time>2026-07-02T10:38:02.735Z</time>
      </trkpt>
      <trkpt lat="45.23555" lon="4.63429">
        <ele>420.12751</ele>
        <time>2026-07-02T10:38:04.736Z</time>
      </trkpt>
      <trkpt lat="45.23554" lon="4.63413">
        <ele>420.418887</ele>
        <time>2026-07-02T10:38:06.750Z</time>
      </trkpt>
      <trkpt lat="45.23554" lon="4.63397">
        <ele>420.716681</ele>
        <time>2026-07-02T10:38:08.735Z</time>
      </trkpt>
      <trkpt lat="45.23553" lon="4.63381">
        <ele>421.003794</ele>
        <time>2026-07-02T10:38:10.745Z</time>
      </trkpt>
      <trkpt lat="45.23552" lon="4.63366">
        <ele>421.286423</ele>
        <time>2026-07-02T10:38:12.742Z</time>
      </trkpt>
      <trkpt lat="45.23549" lon="4.63351">
        <ele>421.560583</ele>
        <time>2026-07-02T10:38:14.737Z</time>
      </trkpt>
      <trkpt lat="45.23546" lon="4.63335">
        <ele>421.864915</ele>
        <time>2026-07-02T10:38:16.746Z</time>
      </trkpt>
      <trkpt lat="45.23541" lon="4.63319">
        <ele>422.178872</ele>
        <time>2026-07-02T10:38:18.737Z</time>
      </trkpt>
      <trkpt lat="45.23537" lon="4.63303">
        <ele>422.486667</ele>
        <time>2026-07-02T10:38:20.739Z</time>
      </trkpt>
      <trkpt lat="45.23533" lon="4.63288">
        <ele>422.765335</ele>
        <time>2026-07-02T10:38:22.739Z</time>
      </trkpt>
      <trkpt lat="45.23532" lon="4.63272">
        <ele>423.058617</ele>
        <time>2026-07-02T10:38:24.733Z</time>
      </trkpt>
      <trkpt lat="45.23531" lon="4.63258">
        <ele>423.326916</ele>
        <time>2026-07-02T10:38:26.741Z</time>
      </trkpt>
      <trkpt lat="45.23532" lon="4.63244">
        <ele>423.580874</ele>
        <time>2026-07-02T10:38:28.736Z</time>
      </trkpt>
      <trkpt lat="45.23535" lon="4.63229">
        <ele>423.862129</ele>
        <time>2026-07-02T10:38:31.735Z</time>
      </trkpt>
      <trkpt lat="45.23542" lon="4.63214">
        <ele>424.181355</ele>
        <time>2026-07-02T10:38:34.738Z</time>
      </trkpt>
      <trkpt lat="45.23549" lon="4.632">
        <ele>424.504537</ele>
        <time>2026-07-02T10:38:37.747Z</time>
      </trkpt>
      <trkpt lat="45.23556" lon="4.63186">
        <ele>424.860986</ele>
        <time>2026-07-02T10:38:40.742Z</time>
      </trkpt>
      <trkpt lat="45.23565" lon="4.63173">
        <ele>425.229046</ele>
        <time>2026-07-02T10:38:43.736Z</time>
      </trkpt>
      <trkpt lat="45.23572" lon="4.63161">
        <ele>425.54033</ele>
        <time>2026-07-02T10:38:46.746Z</time>
      </trkpt>
      <trkpt lat="45.23582" lon="4.63148">
        <ele>425.913228</ele>
        <time>2026-07-02T10:38:49.737Z</time>
      </trkpt>
      <trkpt lat="45.23588" lon="4.63139">
        <ele>426.182988</ele>
        <time>2026-07-02T10:38:51.745Z</time>
      </trkpt>
      <trkpt lat="45.23596" lon="4.63126">
        <ele>426.526196</ele>
        <time>2026-07-02T10:38:54.738Z</time>
      </trkpt>
      <trkpt lat="45.23604" lon="4.63112">
        <ele>426.895409</ele>
        <time>2026-07-02T10:38:57.754Z</time>
      </trkpt>
      <trkpt lat="45.23607" lon="4.63099">
        <ele>427.171773</ele>
        <time>2026-07-02T10:38:59.736Z</time>
      </trkpt>
      <trkpt lat="45.23611" lon="4.63083">
        <ele>427.527505</ele>
        <time>2026-07-02T10:39:02.746Z</time>
      </trkpt>
      <trkpt lat="45.23613" lon="4.63068">
        <ele>427.830533</ele>
        <time>2026-07-02T10:39:04.733Z</time>
      </trkpt>
      <trkpt lat="45.23615" lon="4.63053">
        <ele>428.140985</ele>
        <time>2026-07-02T10:39:06.734Z</time>
      </trkpt>
      <trkpt lat="45.23615" lon="4.63038">
        <ele>428.451853</ele>
        <time>2026-07-02T10:39:08.743Z</time>
      </trkpt>
      <trkpt lat="45.23616" lon="4.63021">
        <ele>428.786844</ele>
        <time>2026-07-02T10:39:10.743Z</time>
      </trkpt>
      <trkpt lat="45.23616" lon="4.63006">
        <ele>429.091193</ele>
        <time>2026-07-02T10:39:12.735Z</time>
      </trkpt>
      <trkpt lat="45.23618" lon="4.62992">
        <ele>429.383538</ele>
        <time>2026-07-02T10:39:14.742Z</time>
      </trkpt>
      <trkpt lat="45.23619" lon="4.62977">
        <ele>429.589539</ele>
        <time>2026-07-02T10:39:16.745Z</time>
      </trkpt>
      <trkpt lat="45.23622" lon="4.6296">
        <ele>429.588565</ele>
        <time>2026-07-02T10:39:18.738Z</time>
      </trkpt>
      <trkpt lat="45.23626" lon="4.62945">
        <ele>429.587625</ele>
        <time>2026-07-02T10:39:20.740Z</time>
      </trkpt>
      <trkpt lat="45.2363" lon="4.62929">
        <ele>429.586626</ele>
        <time>2026-07-02T10:39:22.745Z</time>
      </trkpt>
      <trkpt lat="45.23637" lon="4.62916">
        <ele>429.58569</ele>
        <time>2026-07-02T10:39:24.743Z</time>
      </trkpt>
      <trkpt lat="45.23644" lon="4.62905">
        <ele>429.584788</ele>
        <time>2026-07-02T10:39:26.747Z</time>
      </trkpt>
      <trkpt lat="45.23655" lon="4.62895">
        <ele>429.583753</ele>
        <time>2026-07-02T10:39:28.743Z</time>
      </trkpt>
      <trkpt lat="45.23666" lon="4.62886">
        <ele>429.582667</ele>
        <time>2026-07-02T10:39:30.741Z</time>
      </trkpt>
      <trkpt lat="45.23675" lon="4.62879">
        <ele>429.581794</ele>
        <time>2026-07-02T10:39:32.763Z</time>
      </trkpt>
      <trkpt lat="45.23686" lon="4.62874">
        <ele>429.580851</ele>
        <time>2026-07-02T10:39:34.748Z</time>
      </trkpt>
      <trkpt lat="45.23698" lon="4.62872">
        <ele>429.57984</ele>
        <time>2026-07-02T10:39:36.744Z</time>
      </trkpt>
      <trkpt lat="45.23711" lon="4.62868">
        <ele>429.578788</ele>
        <time>2026-07-02T10:39:38.742Z</time>
      </trkpt>
      <trkpt lat="45.23722" lon="4.62862">
        <ele>429.577794</ele>
        <time>2026-07-02T10:39:40.737Z</time>
      </trkpt>
      <trkpt lat="45.23733" lon="4.62855">
        <ele>429.576795</ele>
        <time>2026-07-02T10:39:42.746Z</time>
      </trkpt>
      <trkpt lat="45.23743" lon="4.62846">
        <ele>429.575782</ele>
        <time>2026-07-02T10:39:44.742Z</time>
      </trkpt>
      <trkpt lat="45.2375" lon="4.62834">
        <ele>429.58476</ele>
        <time>2026-07-02T10:39:46.739Z</time>
      </trkpt>
      <trkpt lat="45.23756" lon="4.62821">
        <ele>429.843608</ele>
        <time>2026-07-02T10:39:48.739Z</time>
      </trkpt>
      <trkpt lat="45.23762" lon="4.62805">
        <ele>430.121771</ele>
        <time>2026-07-02T10:39:50.743Z</time>
      </trkpt>
      <trkpt lat="45.23768" lon="4.62792">
        <ele>430.364114</ele>
        <time>2026-07-02T10:39:52.740Z</time>
      </trkpt>
      <trkpt lat="45.23774" lon="4.6278">
        <ele>430.605944</ele>
        <time>2026-07-02T10:39:54.741Z</time>
      </trkpt>
      <trkpt lat="45.23781" lon="4.62767">
        <ele>430.871732</ele>
        <time>2026-07-02T10:39:56.739Z</time>
      </trkpt>
      <trkpt lat="45.23789" lon="4.62755">
        <ele>431.13893</ele>
        <time>2026-07-02T10:39:58.742Z</time>
      </trkpt>
      <trkpt lat="45.23797" lon="4.62743">
        <ele>431.399855</ele>
        <time>2026-07-02T10:40:00.745Z</time>
      </trkpt>
      <trkpt lat="45.23805" lon="4.6273">
        <ele>431.688802</ele>
        <time>2026-07-02T10:40:02.738Z</time>
      </trkpt>
      <trkpt lat="45.23811" lon="4.62717">
        <ele>431.932179</ele>
        <time>2026-07-02T10:40:04.745Z</time>
      </trkpt>
      <trkpt lat="45.23816" lon="4.62704">
        <ele>432.17298</ele>
        <time>2026-07-02T10:40:06.738Z</time>
      </trkpt>
      <trkpt lat="45.23823" lon="4.62691">
        <ele>432.43451</ele>
        <time>2026-07-02T10:40:08.739Z</time>
      </trkpt>
      <trkpt lat="45.23829" lon="4.62678">
        <ele>432.673647</ele>
        <time>2026-07-02T10:40:10.738Z</time>
      </trkpt>
      <trkpt lat="45.23834" lon="4.62666">
        <ele>432.906692</ele>
        <time>2026-07-02T10:40:12.742Z</time>
      </trkpt>
      <trkpt lat="45.23838" lon="4.62651">
        <ele>433.165752</ele>
        <time>2026-07-02T10:40:14.739Z</time>
      </trkpt>
      <trkpt lat="45.23842" lon="4.62637">
        <ele>433.409067</ele>
        <time>2026-07-02T10:40:16.739Z</time>
      </trkpt>
      <trkpt lat="45.23845" lon="4.62621">
        <ele>433.663369</ele>
        <time>2026-07-02T10:40:18.743Z</time>
      </trkpt>
      <trkpt lat="45.23847" lon="4.62605">
        <ele>434.009647</ele>
        <time>2026-07-02T10:40:20.739Z</time>
      </trkpt>
      <trkpt lat="45.23851" lon="4.62589">
        <ele>434.377644</ele>
        <time>2026-07-02T10:40:22.737Z</time>
      </trkpt>
      <trkpt lat="45.23856" lon="4.62571">
        <ele>434.76277</ele>
        <time>2026-07-02T10:40:24.743Z</time>
      </trkpt>
      <trkpt lat="45.23859" lon="4.62555">
        <ele>435.123577</ele>
        <time>2026-07-02T10:40:26.740Z</time>
      </trkpt>
      <trkpt lat="45.23863" lon="4.62539">
        <ele>435.478375</ele>
        <time>2026-07-02T10:40:28.738Z</time>
      </trkpt>
      <trkpt lat="45.23866" lon="4.62523">
        <ele>435.830065</ele>
        <time>2026-07-02T10:40:30.754Z</time>
      </trkpt>
      <trkpt lat="45.23868" lon="4.62508">
        <ele>436.13028</ele>
        <time>2026-07-02T10:40:32.741Z</time>
      </trkpt>
      <trkpt lat="45.23867" lon="4.62495">
        <ele>436.404799</ele>
        <time>2026-07-02T10:40:34.737Z</time>
      </trkpt>
      <trkpt lat="45.23866" lon="4.62482">
        <ele>436.695265</ele>
        <time>2026-07-02T10:40:36.747Z</time>
      </trkpt>
      <trkpt lat="45.23862" lon="4.62469">
        <ele>436.971092</ele>
        <time>2026-07-02T10:40:38.737Z</time>
      </trkpt>
      <trkpt lat="45.23858" lon="4.62455">
        <ele>437.29904</ele>
        <time>2026-07-02T10:40:40.735Z</time>
      </trkpt>
      <trkpt lat="45.23853" lon="4.6244">
        <ele>437.638307</ele>
        <time>2026-07-02T10:40:42.741Z</time>
      </trkpt>
      <trkpt lat="45.23848" lon="4.62426">
        <ele>437.970818</ele>
        <time>2026-07-02T10:40:44.739Z</time>
      </trkpt>
      <trkpt lat="45.23844" lon="4.62411">
        <ele>438.300785</ele>
        <time>2026-07-02T10:40:46.742Z</time>
      </trkpt>
      <trkpt lat="45.2384" lon="4.62397">
        <ele>438.626353</ele>
        <time>2026-07-02T10:40:48.754Z</time>
      </trkpt>
      <trkpt lat="45.23836" lon="4.62384">
        <ele>438.918433</ele>
        <time>2026-07-02T10:40:50.741Z</time>
      </trkpt>
      <trkpt lat="45.23831" lon="4.62372">
        <ele>439.211466</ele>
        <time>2026-07-02T10:40:52.738Z</time>
      </trkpt>
      <trkpt lat="45.23827" lon="4.6236">
        <ele>439.512193</ele>
        <time>2026-07-02T10:40:54.729Z</time>
      </trkpt>
      <trkpt lat="45.23822" lon="4.62347">
        <ele>439.831084</ele>
        <time>2026-07-02T10:40:56.742Z</time>
      </trkpt>
      <trkpt lat="45.23814" lon="4.62333">
        <ele>440.248494</ele>
        <time>2026-07-02T10:40:59.742Z</time>
      </trkpt>
      <trkpt lat="45.23806" lon="4.62319">
        <ele>440.652013</ele>
        <time>2026-07-02T10:41:02.738Z</time>
      </trkpt>
      <trkpt lat="45.238" lon="4.62308">
        <ele>440.937029</ele>
        <time>2026-07-02T10:41:04.743Z</time>
      </trkpt>
      <trkpt lat="45.23792" lon="4.62293">
        <ele>441.355441</ele>
        <time>2026-07-02T10:41:07.737Z</time>
      </trkpt>
      <trkpt lat="45.23784" lon="4.62278">
        <ele>441.768298</ele>
        <time>2026-07-02T10:41:10.706Z</time>
      </trkpt>
      <trkpt lat="45.23777" lon="4.62261">
        <ele>442.196537</ele>
        <time>2026-07-02T10:41:13.701Z</time>
      </trkpt>
      <trkpt lat="45.23771" lon="4.6225">
        <ele>442.519962</ele>
        <time>2026-07-02T10:41:15.734Z</time>
      </trkpt>
      <trkpt lat="45.23764" lon="4.62239">
        <ele>442.845676</ele>
        <time>2026-07-02T10:41:17.708Z</time>
      </trkpt>
      <trkpt lat="45.23759" lon="4.62227">
        <ele>443.143206</ele>
        <time>2026-07-02T10:41:19.741Z</time>
      </trkpt>
      <trkpt lat="45.2375" lon="4.62213">
        <ele>443.560897</ele>
        <time>2026-07-02T10:41:22.758Z</time>
      </trkpt>
      <trkpt lat="45.23744" lon="4.62202">
        <ele>443.865782</ele>
        <time>2026-07-02T10:41:24.738Z</time>
      </trkpt>
      <trkpt lat="45.23737" lon="4.62185">
        <ele>444.288628</ele>
        <time>2026-07-02T10:41:27.738Z</time>
      </trkpt>
      <trkpt lat="45.23732" lon="4.62172">
        <ele>444.621751</ele>
        <time>2026-07-02T10:41:29.743Z</time>
      </trkpt>
      <trkpt lat="45.23726" lon="4.62158">
        <ele>444.771429</ele>
        <time>2026-07-02T10:41:32.747Z</time>
      </trkpt>
      <trkpt lat="45.23721" lon="4.62142">
        <ele>444.897752</ele>
        <time>2026-07-02T10:41:35.737Z</time>
      </trkpt>
      <trkpt lat="45.23718" lon="4.6213">
        <ele>444.995228</ele>
        <time>2026-07-02T10:41:37.733Z</time>
      </trkpt>
      <trkpt lat="45.23715" lon="4.62115">
        <ele>445.108196</ele>
        <time>2026-07-02T10:41:39.724Z</time>
      </trkpt>
      <trkpt lat="45.2371" lon="4.62098">
        <ele>445.246629</ele>
        <time>2026-07-02T10:41:42.738Z</time>
      </trkpt>
      <trkpt lat="45.23706" lon="4.62081">
        <ele>445.377899</ele>
        <time>2026-07-02T10:41:45.735Z</time>
      </trkpt>
      <trkpt lat="45.23702" lon="4.62064">
        <ele>445.50984</ele>
        <time>2026-07-02T10:41:48.739Z</time>
      </trkpt>
      <trkpt lat="45.23697" lon="4.62046">
        <ele>445.649806</ele>
        <time>2026-07-02T10:41:51.732Z</time>
      </trkpt>
      <trkpt lat="45.23693" lon="4.62029">
        <ele>445.784998</ele>
        <time>2026-07-02T10:41:54.747Z</time>
      </trkpt>
      <trkpt lat="45.23688" lon="4.6201">
        <ele>445.93225</ele>
        <time>2026-07-02T10:41:57.738Z</time>
      </trkpt>
      <trkpt lat="45.23687" lon="4.61995">
        <ele>446.04623</ele>
        <time>2026-07-02T10:41:59.737Z</time>
      </trkpt>
      <trkpt lat="45.23685" lon="4.61981">
        <ele>446.148183</ele>
        <time>2026-07-02T10:42:01.730Z</time>
      </trkpt>
      <trkpt lat="45.23686" lon="4.61963">
        <ele>446.282587</ele>
        <time>2026-07-02T10:42:04.739Z</time>
      </trkpt>
      <trkpt lat="45.2369" lon="4.61951">
        <ele>446.38259</ele>
        <time>2026-07-02T10:42:06.742Z</time>
      </trkpt>
      <trkpt lat="45.23694" lon="4.61938">
        <ele>446.484443</ele>
        <time>2026-07-02T10:42:08.738Z</time>
      </trkpt>
      <trkpt lat="45.23698" lon="4.61923">
        <ele>446.732771</ele>
        <time>2026-07-02T10:42:11.742Z</time>
      </trkpt>
      <trkpt lat="45.23701" lon="4.61907">
        <ele>447.085498</ele>
        <time>2026-07-02T10:42:14.747Z</time>
      </trkpt>
      <trkpt lat="45.23705" lon="4.6189">
        <ele>447.459497</ele>
        <time>2026-07-02T10:42:17.743Z</time>
      </trkpt>
      <trkpt lat="45.23705" lon="4.61877">
        <ele>447.745856</ele>
        <time>2026-07-02T10:42:19.735Z</time>
      </trkpt>
      <trkpt lat="45.23703" lon="4.61864">
        <ele>448.038412</ele>
        <time>2026-07-02T10:42:21.737Z</time>
      </trkpt>
      <trkpt lat="45.237" lon="4.61847">
        <ele>448.419958</ele>
        <time>2026-07-02T10:42:24.742Z</time>
      </trkpt>
      <trkpt lat="45.23695" lon="4.61829">
        <ele>448.829806</ele>
        <time>2026-07-02T10:42:27.738Z</time>
      </trkpt>
      <trkpt lat="45.2369" lon="4.61813">
        <ele>449.214587</ele>
        <time>2026-07-02T10:42:30.738Z</time>
      </trkpt>
      <trkpt lat="45.23686" lon="4.61794">
        <ele>449.638974</ele>
        <time>2026-07-02T10:42:33.738Z</time>
      </trkpt>
      <trkpt lat="45.23683" lon="4.61776">
        <ele>450.041507</ele>
        <time>2026-07-02T10:42:36.742Z</time>
      </trkpt>
      <trkpt lat="45.23678" lon="4.61765">
        <ele>450.324326</ele>
        <time>2026-07-02T10:42:38.737Z</time>
      </trkpt>
      <trkpt lat="45.23673" lon="4.61749">
        <ele>450.711645</ele>
        <time>2026-07-02T10:42:41.732Z</time>
      </trkpt>
      <trkpt lat="45.2367" lon="4.61735">
        <ele>451.021496</ele>
        <time>2026-07-02T10:42:44.743Z</time>
      </trkpt>
      <trkpt lat="45.23667" lon="4.61719">
        <ele>451.38246</ele>
        <time>2026-07-02T10:42:47.747Z</time>
      </trkpt>
      <trkpt lat="45.23665" lon="4.61706">
        <ele>451.661832</ele>
        <time>2026-07-02T10:42:49.734Z</time>
      </trkpt>
      <trkpt lat="45.23662" lon="4.61689">
        <ele>452.050951</ele>
        <time>2026-07-02T10:42:52.739Z</time>
      </trkpt>
      <trkpt lat="45.23662" lon="4.61673">
        <ele>452.201737</ele>
        <time>2026-07-02T10:42:55.740Z</time>
      </trkpt>
      <trkpt lat="45.23666" lon="4.61658">
        <ele>452.33564</ele>
        <time>2026-07-02T10:42:58.753Z</time>
      </trkpt>
      <trkpt lat="45.23669" lon="4.61643">
        <ele>452.465896</ele>
        <time>2026-07-02T10:43:01.743Z</time>
      </trkpt>
      <trkpt lat="45.23672" lon="4.61629">
        <ele>452.596164</ele>
        <time>2026-07-02T10:43:04.736Z</time>
      </trkpt>
      <trkpt lat="45.23675" lon="4.61612">
        <ele>452.740372</ele>
        <time>2026-07-02T10:43:07.736Z</time>
      </trkpt>
      <trkpt lat="45.23677" lon="4.61599">
        <ele>452.852765</ele>
        <time>2026-07-02T10:43:09.737Z</time>
      </trkpt>
      <trkpt lat="45.23679" lon="4.61581">
        <ele>453.009387</ele>
        <time>2026-07-02T10:43:12.739Z</time>
      </trkpt>
      <trkpt lat="45.2368" lon="4.61568">
        <ele>453.118165</ele>
        <time>2026-07-02T10:43:14.743Z</time>
      </trkpt>
      <trkpt lat="45.2368" lon="4.61554">
        <ele>453.24069</ele>
        <time>2026-07-02T10:43:16.748Z</time>
      </trkpt>
      <trkpt lat="45.23679" lon="4.61539">
        <ele>453.362193</ele>
        <time>2026-07-02T10:43:18.737Z</time>
      </trkpt>
      <trkpt lat="45.23677" lon="4.61525">
        <ele>453.485</ele>
        <time>2026-07-02T10:43:20.741Z</time>
      </trkpt>
      <trkpt lat="45.23675" lon="4.61512">
        <ele>453.602317</ele>
        <time>2026-07-02T10:43:22.749Z</time>
      </trkpt>
      <trkpt lat="45.23673" lon="4.61496">
        <ele>453.731796</ele>
        <time>2026-07-02T10:43:24.741Z</time>
      </trkpt>
      <trkpt lat="45.23671" lon="4.61483">
        <ele>453.8497</ele>
        <time>2026-07-02T10:43:26.733Z</time>
      </trkpt>
      <trkpt lat="45.23669" lon="4.6147">
        <ele>453.959504</ele>
        <time>2026-07-02T10:43:28.741Z</time>
      </trkpt>
      <trkpt lat="45.23667" lon="4.61457">
        <ele>454.07057</ele>
        <time>2026-07-02T10:43:30.741Z</time>
      </trkpt>
      <trkpt lat="45.23665" lon="4.61445">
        <ele>454.179163</ele>
        <time>2026-07-02T10:43:32.735Z</time>
      </trkpt>
      <trkpt lat="45.23663" lon="4.6143">
        <ele>454.472463</ele>
        <time>2026-07-02T10:43:34.738Z</time>
      </trkpt>
      <trkpt lat="45.23662" lon="4.61412">
        <ele>454.967793</ele>
        <time>2026-07-02T10:43:36.741Z</time>
      </trkpt>
      <trkpt lat="45.23661" lon="4.61397">
        <ele>455.398419</ele>
        <time>2026-07-02T10:43:38.737Z</time>
      </trkpt>
      <trkpt lat="45.23659" lon="4.61382">
        <ele>455.83592</ele>
        <time>2026-07-02T10:43:40.739Z</time>
      </trkpt>
      <trkpt lat="45.23657" lon="4.61368">
        <ele>456.265039</ele>
        <time>2026-07-02T10:43:42.742Z</time>
      </trkpt>
      <trkpt lat="45.23655" lon="4.61351">
        <ele>456.752245</ele>
        <time>2026-07-02T10:43:44.739Z</time>
      </trkpt>
      <trkpt lat="45.23652" lon="4.61334">
        <ele>457.230536</ele>
        <time>2026-07-02T10:43:46.742Z</time>
      </trkpt>
      <trkpt lat="45.2365" lon="4.61321">
        <ele>457.640613</ele>
        <time>2026-07-02T10:43:48.749Z</time>
      </trkpt>
      <trkpt lat="45.23647" lon="4.61306">
        <ele>458.058567</ele>
        <time>2026-07-02T10:43:50.736Z</time>
      </trkpt>
      <trkpt lat="45.23646" lon="4.61293">
        <ele>458.453293</ele>
        <time>2026-07-02T10:43:52.742Z</time>
      </trkpt>
      <trkpt lat="45.23649" lon="4.6128">
        <ele>458.833073</ele>
        <time>2026-07-02T10:43:54.736Z</time>
      </trkpt>
      <trkpt lat="45.23656" lon="4.61264">
        <ele>459.369961</ele>
        <time>2026-07-02T10:43:57.739Z</time>
      </trkpt>
      <trkpt lat="45.2366" lon="4.61249">
        <ele>459.817652</ele>
        <time>2026-07-02T10:44:00.739Z</time>
      </trkpt>
      <trkpt lat="45.23662" lon="4.61233">
        <ele>460.28114</ele>
        <time>2026-07-02T10:44:04.739Z</time>
      </trkpt>
      <trkpt lat="45.23665" lon="4.6122">
        <ele>460.664887</ele>
        <time>2026-07-02T10:44:08.738Z</time>
      </trkpt>
      <trkpt lat="45.23667" lon="4.61207">
        <ele>461.057214</ele>
        <time>2026-07-02T10:44:12.741Z</time>
      </trkpt>
      <trkpt lat="45.23672" lon="4.61193">
        <ele>461.502559</ele>
        <time>2026-07-02T10:44:16.732Z</time>
      </trkpt>
      <trkpt lat="45.23677" lon="4.61181">
        <ele>462.370953</ele>
        <time>2026-07-02T10:44:20.744Z</time>
      </trkpt>
      <trkpt lat="45.23683" lon="4.61167">
        <ele>463.3577</ele>
        <time>2026-07-02T10:44:24.741Z</time>
      </trkpt>
      <trkpt lat="45.23689" lon="4.61155">
        <ele>464.291645</ele>
        <time>2026-07-02T10:44:28.747Z</time>
      </trkpt>
      <trkpt lat="45.23697" lon="4.61144">
        <ele>465.285192</ele>
        <time>2026-07-02T10:44:32.745Z</time>
      </trkpt>
      <trkpt lat="45.23702" lon="4.61131">
        <ele>466.190049</ele>
        <time>2026-07-02T10:44:36.735Z</time>
      </trkpt>
      <trkpt lat="45.23709" lon="4.61118">
        <ele>467.206215</ele>
        <time>2026-07-02T10:44:40.740Z</time>
      </trkpt>
      <trkpt lat="45.23716" lon="4.61106">
        <ele>468.155809</ele>
        <time>2026-07-02T10:44:44.746Z</time>
      </trkpt>
      <trkpt lat="45.2372" lon="4.61093">
        <ele>469.063293</ele>
        <time>2026-07-02T10:44:48.743Z</time>
      </trkpt>
      <trkpt lat="45.23725" lon="4.61082">
        <ele>469.866111</ele>
        <time>2026-07-02T10:44:52.739Z</time>
      </trkpt>
      <trkpt lat="45.2373" lon="4.6107">
        <ele>470.752276</ele>
        <time>2026-07-02T10:44:56.715Z</time>
      </trkpt>
      <trkpt lat="45.23735" lon="4.61058">
        <ele>471.631437</ele>
        <time>2026-07-02T10:45:00.741Z</time>
      </trkpt>
      <trkpt lat="45.2374" lon="4.61045">
        <ele>472.51981</ele>
        <time>2026-07-02T10:45:04.740Z</time>
      </trkpt>
      <trkpt lat="45.23747" lon="4.61035">
        <ele>473.448643</ele>
        <time>2026-07-02T10:45:08.755Z</time>
      </trkpt>
      <trkpt lat="45.23755" lon="4.61025">
        <ele>474.406373</ele>
        <time>2026-07-02T10:45:12.741Z</time>
      </trkpt>
      <trkpt lat="45.23763" lon="4.61016">
        <ele>475.310043</ele>
        <time>2026-07-02T10:45:16.744Z</time>
      </trkpt>
      <trkpt lat="45.23772" lon="4.6101">
        <ele>476.145645</ele>
        <time>2026-07-02T10:45:20.737Z</time>
      </trkpt>
      <trkpt lat="45.2378" lon="4.61001">
        <ele>477.05092</ele>
        <time>2026-07-02T10:45:25.744Z</time>
      </trkpt>
      <trkpt lat="45.23787" lon="4.60994">
        <ele>477.769583</ele>
        <time>2026-07-02T10:45:29.734Z</time>
      </trkpt>
      <trkpt lat="45.23796" lon="4.60986">
        <ele>478.487031</ele>
        <time>2026-07-02T10:45:35.728Z</time>
      </trkpt>
      <trkpt lat="45.23806" lon="4.60982">
        <ele>479.213287</ele>
        <time>2026-07-02T10:45:39.726Z</time>
      </trkpt>
      <trkpt lat="45.23815" lon="4.60977">
        <ele>479.886044</ele>
        <time>2026-07-02T10:45:43.699Z</time>
      </trkpt>
      <trkpt lat="45.23824" lon="4.60973">
        <ele>480.586828</ele>
        <time>2026-07-02T10:45:47.733Z</time>
      </trkpt>
      <trkpt lat="45.23833" lon="4.60969">
        <ele>481.232401</ele>
        <time>2026-07-02T10:45:51.735Z</time>
      </trkpt>
      <trkpt lat="45.23843" lon="4.60969">
        <ele>481.882988</ele>
        <time>2026-07-02T10:45:55.742Z</time>
      </trkpt>
      <trkpt lat="45.23853" lon="4.6097">
        <ele>482.639907</ele>
        <time>2026-07-02T10:45:59.739Z</time>
      </trkpt>
      <trkpt lat="45.23863" lon="4.60967">
        <ele>483.352421</ele>
        <time>2026-07-02T10:46:03.737Z</time>
      </trkpt>
      <trkpt lat="45.2387" lon="4.60958">
        <ele>483.997117</ele>
        <time>2026-07-02T10:46:08.738Z</time>
      </trkpt>
      <trkpt lat="45.23868" lon="4.60946">
        <ele>484.633081</ele>
        <time>2026-07-02T10:46:13.741Z</time>
      </trkpt>
      <trkpt lat="45.2386" lon="4.60938">
        <ele>485.265926</ele>
        <time>2026-07-02T10:46:17.735Z</time>
      </trkpt>
      <trkpt lat="45.23851" lon="4.60932">
        <ele>485.967802</ele>
        <time>2026-07-02T10:46:22.736Z</time>
      </trkpt>
      <trkpt lat="45.23844" lon="4.60924">
        <ele>486.609393</ele>
        <time>2026-07-02T10:46:27.741Z</time>
      </trkpt>
      <trkpt lat="45.23836" lon="4.60913">
        <ele>487.403018</ele>
        <time>2026-07-02T10:46:32.741Z</time>
      </trkpt>
      <trkpt lat="45.2383" lon="4.60899">
        <ele>488.170761</ele>
        <time>2026-07-02T10:46:37.741Z</time>
      </trkpt>
      <trkpt lat="45.23823" lon="4.60887">
        <ele>488.960573</ele>
        <time>2026-07-02T10:46:42.740Z</time>
      </trkpt>
      <trkpt lat="45.23818" lon="4.60876">
        <ele>489.62791</ele>
        <time>2026-07-02T10:46:46.750Z</time>
      </trkpt>
      <trkpt lat="45.23815" lon="4.60863">
        <ele>490.339449</ele>
        <time>2026-07-02T10:46:50.745Z</time>
      </trkpt>
      <trkpt lat="45.23812" lon="4.60847">
        <ele>491.263768</ele>
        <time>2026-07-02T10:46:54.732Z</time>
      </trkpt>
      <trkpt lat="45.23809" lon="4.60832">
        <ele>492.130926</ele>
        <time>2026-07-02T10:46:58.736Z</time>
      </trkpt>
      <trkpt lat="45.23806" lon="4.60819">
        <ele>492.891997</ele>
        <time>2026-07-02T10:47:02.739Z</time>
      </trkpt>
      <trkpt lat="45.23802" lon="4.60806">
        <ele>493.735084</ele>
        <time>2026-07-02T10:47:07.747Z</time>
      </trkpt>
      <trkpt lat="45.23797" lon="4.6079">
        <ele>494.671963</ele>
        <time>2026-07-02T10:47:12.739Z</time>
      </trkpt>
      <trkpt lat="45.23796" lon="4.60775">
        <ele>495.570676</ele>
        <time>2026-07-02T10:47:16.738Z</time>
      </trkpt>
      <trkpt lat="45.23796" lon="4.60761">
        <ele>496.362574</ele>
        <time>2026-07-02T10:47:20.747Z</time>
      </trkpt>
      <trkpt lat="45.23795" lon="4.60747">
        <ele>497.155328</ele>
        <time>2026-07-02T10:47:24.745Z</time>
      </trkpt>
      <trkpt lat="45.23797" lon="4.60732">
        <ele>497.999824</ele>
        <time>2026-07-02T10:47:29.743Z</time>
      </trkpt>
      <trkpt lat="45.23801" lon="4.60718">
        <ele>498.858417</ele>
        <time>2026-07-02T10:47:34.742Z</time>
      </trkpt>
      <trkpt lat="45.23804" lon="4.60705">
        <ele>499.655892</ele>
        <time>2026-07-02T10:47:39.732Z</time>
      </trkpt>
      <trkpt lat="45.23812" lon="4.60695">
        <ele>500.464708</ele>
        <time>2026-07-02T10:47:43.734Z</time>
      </trkpt>
      <trkpt lat="45.23821" lon="4.60685">
        <ele>501.411023</ele>
        <time>2026-07-02T10:47:47.731Z</time>
      </trkpt>
      <trkpt lat="45.2383" lon="4.60675">
        <ele>502.277908</ele>
        <time>2026-07-02T10:47:51.731Z</time>
      </trkpt>
      <trkpt lat="45.23835" lon="4.60664">
        <ele>503.051887</ele>
        <time>2026-07-02T10:47:55.731Z</time>
      </trkpt>
      <trkpt lat="45.23839" lon="4.60651">
        <ele>503.824949</ele>
        <time>2026-07-02T10:47:59.736Z</time>
      </trkpt>
      <trkpt lat="45.2384" lon="4.60637">
        <ele>504.660372</ele>
        <time>2026-07-02T10:48:03.735Z</time>
      </trkpt>
      <trkpt lat="45.23843" lon="4.60622">
        <ele>505.805646</ele>
        <time>2026-07-02T10:48:08.740Z</time>
      </trkpt>
      <trkpt lat="45.23844" lon="4.60609">
        <ele>506.804965</ele>
        <time>2026-07-02T10:48:12.740Z</time>
      </trkpt>
      <trkpt lat="45.23846" lon="4.60596">
        <ele>507.774699</ele>
        <time>2026-07-02T10:48:16.739Z</time>
      </trkpt>
      <trkpt lat="45.23848" lon="4.60581">
        <ele>508.843337</ele>
        <time>2026-07-02T10:48:20.739Z</time>
      </trkpt>
      <trkpt lat="45.23852" lon="4.6057">
        <ele>509.790624</ele>
        <time>2026-07-02T10:48:24.737Z</time>
      </trkpt>
      <trkpt lat="45.23858" lon="4.6056">
        <ele>510.748599</ele>
        <time>2026-07-02T10:48:28.735Z</time>
      </trkpt>
      <trkpt lat="45.23865" lon="4.6055">
        <ele>511.792513</ele>
        <time>2026-07-02T10:48:32.737Z</time>
      </trkpt>
      <trkpt lat="45.23872" lon="4.60538">
        <ele>512.962629</ele>
        <time>2026-07-02T10:48:37.742Z</time>
      </trkpt>
      <trkpt lat="45.23876" lon="4.60526">
        <ele>513.927616</ele>
        <time>2026-07-02T10:48:41.745Z</time>
      </trkpt>
      <trkpt lat="45.23881" lon="4.60515">
        <ele>514.893097</ele>
        <time>2026-07-02T10:48:45.742Z</time>
      </trkpt>
      <trkpt lat="45.23886" lon="4.60501">
        <ele>516.021779</ele>
        <time>2026-07-02T10:48:49.739Z</time>
      </trkpt>
      <trkpt lat="45.23892" lon="4.60487">
        <ele>517.240307</ele>
        <time>2026-07-02T10:48:54.739Z</time>
      </trkpt>
      <trkpt lat="45.239" lon="4.6048">
        <ele>518.248306</ele>
        <time>2026-07-02T10:48:58.746Z</time>
      </trkpt>
      <trkpt lat="45.23909" lon="4.60474">
        <ele>519.230506</ele>
        <time>2026-07-02T10:49:02.737Z</time>
      </trkpt>
      <trkpt lat="45.23919" lon="4.60471">
        <ele>520.352157</ele>
        <time>2026-07-02T10:49:06.722Z</time>
      </trkpt>
      <trkpt lat="45.23929" lon="4.60471">
        <ele>521.393931</ele>
        <time>2026-07-02T10:49:10.744Z</time>
      </trkpt>
      <trkpt lat="45.2394" lon="4.60472">
        <ele>522.457544</ele>
        <time>2026-07-02T10:49:15.742Z</time>
      </trkpt>
      <trkpt lat="45.23949" lon="4.60476">
        <ele>523.418818</ele>
        <time>2026-07-02T10:49:20.748Z</time>
      </trkpt>
      <trkpt lat="45.23958" lon="4.60483">
        <ele>524.197767</ele>
        <time>2026-07-02T10:49:25.745Z</time>
      </trkpt>
      <trkpt lat="45.23967" lon="4.60492">
        <ele>524.944301</ele>
        <time>2026-07-02T10:49:29.740Z</time>
      </trkpt>
      <trkpt lat="45.23973" lon="4.60501">
        <ele>525.631373</ele>
        <time>2026-07-02T10:49:34.739Z</time>
      </trkpt>
      <trkpt lat="45.23977" lon="4.60516">
        <ele>526.447317</ele>
        <time>2026-07-02T10:49:39.735Z</time>
      </trkpt>
      <trkpt lat="45.23981" lon="4.60528">
        <ele>527.153553</ele>
        <time>2026-07-02T10:49:43.748Z</time>
      </trkpt>
      <trkpt lat="45.23986" lon="4.6054">
        <ele>527.872672</ele>
        <time>2026-07-02T10:49:47.746Z</time>
      </trkpt>
      <trkpt lat="45.23989" lon="4.60556">
        <ele>528.711139</ele>
        <time>2026-07-02T10:49:53.743Z</time>
      </trkpt>
      <trkpt lat="45.23991" lon="4.6057">
        <ele>529.463995</ele>
        <time>2026-07-02T10:49:57.741Z</time>
      </trkpt>
      <trkpt lat="45.23994" lon="4.60583">
        <ele>530.143199</ele>
        <time>2026-07-02T10:50:02.743Z</time>
      </trkpt>
      <trkpt lat="45.23999" lon="4.60596">
        <ele>530.943464</ele>
        <time>2026-07-02T10:50:06.732Z</time>
      </trkpt>
      <trkpt lat="45.24001" lon="4.6061">
        <ele>531.676276</ele>
        <time>2026-07-02T10:50:10.740Z</time>
      </trkpt>
      <trkpt lat="45.24007" lon="4.60622">
        <ele>532.418538</ele>
        <time>2026-07-02T10:50:14.738Z</time>
      </trkpt>
      <trkpt lat="45.24012" lon="4.60633">
        <ele>533.100318</ele>
        <time>2026-07-02T10:50:18.738Z</time>
      </trkpt>
      <trkpt lat="45.2402" lon="4.60642">
        <ele>533.847613</ele>
        <time>2026-07-02T10:50:22.740Z</time>
      </trkpt>
      <trkpt lat="45.2403" lon="4.60645">
        <ele>534.591982</ele>
        <time>2026-07-02T10:50:26.745Z</time>
      </trkpt>
      <trkpt lat="45.24039" lon="4.60653">
        <ele>535.396337</ele>
        <time>2026-07-02T10:50:30.749Z</time>
      </trkpt>
      <trkpt lat="45.2405" lon="4.60659">
        <ele>536.228621</ele>
        <time>2026-07-02T10:50:34.739Z</time>
      </trkpt>
      <trkpt lat="45.24061" lon="4.60664">
        <ele>536.886627</ele>
        <time>2026-07-02T10:50:38.744Z</time>
      </trkpt>
      <trkpt lat="45.24069" lon="4.6067">
        <ele>537.414518</ele>
        <time>2026-07-02T10:50:42.747Z</time>
      </trkpt>
      <trkpt lat="45.24079" lon="4.60677">
        <ele>538.020291</ele>
        <time>2026-07-02T10:50:46.745Z</time>
      </trkpt>
      <trkpt lat="45.24089" lon="4.60682">
        <ele>538.55326</ele>
        <time>2026-07-02T10:50:49.751Z</time>
      </trkpt>
      <trkpt lat="45.24098" lon="4.60684">
        <ele>539.055012</ele>
        <time>2026-07-02T10:50:52.734Z</time>
      </trkpt>
      <trkpt lat="45.24109" lon="4.6068">
        <ele>539.678832</ele>
        <time>2026-07-02T10:50:57.735Z</time>
      </trkpt>
      <trkpt lat="45.24119" lon="4.60674">
        <ele>540.226335</ele>
        <time>2026-07-02T10:51:01.745Z</time>
      </trkpt>
      <trkpt lat="45.24126" lon="4.60664">
        <ele>540.764407</ele>
        <time>2026-07-02T10:51:06.740Z</time>
      </trkpt>
      <trkpt lat="45.2413" lon="4.60651">
        <ele>541.303885</ele>
        <time>2026-07-02T10:51:11.697Z</time>
      </trkpt>
      <trkpt lat="45.24132" lon="4.60638">
        <ele>541.806355</ele>
        <time>2026-07-02T10:51:16.744Z</time>
      </trkpt>
      <trkpt lat="45.24134" lon="4.60625">
        <ele>542.312484</ele>
        <time>2026-07-02T10:51:20.739Z</time>
      </trkpt>
      <trkpt lat="45.24138" lon="4.60612">
        <ele>542.834365</ele>
        <time>2026-07-02T10:51:23.726Z</time>
      </trkpt>
      <trkpt lat="45.24138" lon="4.60598">
        <ele>543.37468</ele>
        <time>2026-07-02T10:51:27.689Z</time>
      </trkpt>
      <trkpt lat="45.2414" lon="4.60584">
        <ele>543.885626</ele>
        <time>2026-07-02T10:51:31.690Z</time>
      </trkpt>
      <trkpt lat="45.24141" lon="4.60571">
        <ele>544.403287</ele>
        <time>2026-07-02T10:51:35.793Z</time>
      </trkpt>
      <trkpt lat="45.24142" lon="4.60555">
        <ele>544.984751</ele>
        <time>2026-07-02T10:51:40.903Z</time>
      </trkpt>
      <trkpt lat="45.24142" lon="4.60542">
        <ele>545.505361</ele>
        <time>2026-07-02T10:51:45.720Z</time>
      </trkpt>
      <trkpt lat="45.24143" lon="4.60528">
        <ele>546.032025</ele>
        <time>2026-07-02T10:51:49.992Z</time>
      </trkpt>
      <trkpt lat="45.24144" lon="4.60514">
        <ele>546.679613</ele>
        <time>2026-07-02T10:51:53.717Z</time>
      </trkpt>
      <trkpt lat="45.24148" lon="4.60499">
        <ele>547.396949</ele>
        <time>2026-07-02T10:51:58.721Z</time>
      </trkpt>
      <trkpt lat="45.24152" lon="4.60487">
        <ele>548.068564</ele>
        <time>2026-07-02T10:52:02.766Z</time>
      </trkpt>
      <trkpt lat="45.24158" lon="4.60475">
        <ele>548.740471</ele>
        <time>2026-07-02T10:52:06.747Z</time>
      </trkpt>
      <trkpt lat="45.24166" lon="4.60464">
        <ele>549.45241</ele>
        <time>2026-07-02T10:52:11.718Z</time>
      </trkpt>
      <trkpt lat="45.24172" lon="4.60453">
        <ele>550.145897</ele>
        <time>2026-07-02T10:52:16.963Z</time>
      </trkpt>
      <trkpt lat="45.24179" lon="4.60442">
        <ele>550.795195</ele>
        <time>2026-07-02T10:52:20.756Z</time>
      </trkpt>
      <trkpt lat="45.24188" lon="4.60433">
        <ele>551.542855</ele>
        <time>2026-07-02T10:52:24.943Z</time>
      </trkpt>
      <trkpt lat="45.24197" lon="4.60427">
        <ele>552.19366</ele>
        <time>2026-07-02T10:52:28.709Z</time>
      </trkpt>
      <trkpt lat="45.24207" lon="4.60423">
        <ele>552.875461</ele>
        <time>2026-07-02T10:52:32.708Z</time>
      </trkpt>
      <trkpt lat="45.24217" lon="4.6042">
        <ele>553.578402</ele>
        <time>2026-07-02T10:52:36.716Z</time>
      </trkpt>
      <trkpt lat="45.24226" lon="4.60413">
        <ele>554.281437</ele>
        <time>2026-07-02T10:52:41.741Z</time>
      </trkpt>
      <trkpt lat="45.24236" lon="4.60411">
        <ele>554.95609</ele>
        <time>2026-07-02T10:52:45.738Z</time>
      </trkpt>
      <trkpt lat="45.24247" lon="4.6041">
        <ele>555.671004</ele>
        <time>2026-07-02T10:52:50.743Z</time>
      </trkpt>
      <trkpt lat="45.24258" lon="4.60409">
        <ele>556.371434</ele>
        <time>2026-07-02T10:52:55.736Z</time>
      </trkpt>
      <trkpt lat="45.24266" lon="4.60413">
        <ele>556.974286</ele>
        <time>2026-07-02T10:52:59.738Z</time>
      </trkpt>
      <trkpt lat="45.24276" lon="4.60418">
        <ele>557.690534</ele>
        <time>2026-07-02T10:53:04.745Z</time>
      </trkpt>
      <trkpt lat="45.24286" lon="4.60419">
        <ele>558.381577</ele>
        <time>2026-07-02T10:53:08.731Z</time>
      </trkpt>
      <trkpt lat="45.24295" lon="4.60421">
        <ele>559.061589</ele>
        <time>2026-07-02T10:53:12.743Z</time>
      </trkpt>
      <trkpt lat="45.24305" lon="4.60426">
        <ele>559.821012</ele>
        <time>2026-07-02T10:53:17.734Z</time>
      </trkpt>
      <trkpt lat="45.24315" lon="4.60427">
        <ele>560.564444</ele>
        <time>2026-07-02T10:53:21.742Z</time>
      </trkpt>
      <trkpt lat="45.24324" lon="4.60431">
        <ele>561.26165</ele>
        <time>2026-07-02T10:53:25.737Z</time>
      </trkpt>
      <trkpt lat="45.24333" lon="4.60436">
        <ele>561.981032</ele>
        <time>2026-07-02T10:53:29.742Z</time>
      </trkpt>
      <trkpt lat="45.24341" lon="4.60443">
        <ele>562.650726</ele>
        <time>2026-07-02T10:53:34.744Z</time>
      </trkpt>
      <trkpt lat="45.24351" lon="4.60447">
        <ele>563.400452</ele>
        <time>2026-07-02T10:53:39.728Z</time>
      </trkpt>
      <trkpt lat="45.24358" lon="4.60456">
        <ele>564.119979</ele>
        <time>2026-07-02T10:53:44.741Z</time>
      </trkpt>
      <trkpt lat="45.24364" lon="4.60466">
        <ele>564.826281</ele>
        <time>2026-07-02T10:53:48.738Z</time>
      </trkpt>
      <trkpt lat="45.24369" lon="4.60479">
        <ele>565.58654</ele>
        <time>2026-07-02T10:53:53.743Z</time>
      </trkpt>
      <trkpt lat="45.24375" lon="4.60489">
        <ele>566.286438</ele>
        <time>2026-07-02T10:53:58.738Z</time>
      </trkpt>
      <trkpt lat="45.24386" lon="4.60493">
        <ele>567.092211</ele>
        <time>2026-07-02T10:54:03.749Z</time>
      </trkpt>
      <trkpt lat="45.24395" lon="4.60488">
        <ele>567.841239</ele>
        <time>2026-07-02T10:54:07.741Z</time>
      </trkpt>
      <trkpt lat="45.24405" lon="4.60483">
        <ele>568.592092</ele>
        <time>2026-07-02T10:54:12.743Z</time>
      </trkpt>
      <trkpt lat="45.24414" lon="4.60476">
        <ele>569.336529</ele>
        <time>2026-07-02T10:54:16.739Z</time>
      </trkpt>
      <trkpt lat="45.24421" lon="4.60467">
        <ele>570.055762</ele>
        <time>2026-07-02T10:54:20.739Z</time>
      </trkpt>
      <trkpt lat="45.24428" lon="4.60457">
        <ele>570.774324</ele>
        <time>2026-07-02T10:54:24.741Z</time>
      </trkpt>
      <trkpt lat="45.24433" lon="4.60446">
        <ele>571.473712</ele>
        <time>2026-07-02T10:54:28.743Z</time>
      </trkpt>
      <trkpt lat="45.24441" lon="4.60439">
        <ele>572.323894</ele>
        <time>2026-07-02T10:54:32.734Z</time>
      </trkpt>
      <trkpt lat="45.24449" lon="4.60431">
        <ele>573.19442</ele>
        <time>2026-07-02T10:54:37.742Z</time>
      </trkpt>
      <trkpt lat="45.24457" lon="4.60422">
        <ele>574.151887</ele>
        <time>2026-07-02T10:54:42.734Z</time>
      </trkpt>
      <trkpt lat="45.24466" lon="4.60414">
        <ele>575.103844</ele>
        <time>2026-07-02T10:54:46.740Z</time>
      </trkpt>
      <trkpt lat="45.24475" lon="4.60409">
        <ele>575.932934</ele>
        <time>2026-07-02T10:54:49.738Z</time>
      </trkpt>
      <trkpt lat="45.24484" lon="4.60406">
        <ele>576.81634</ele>
        <time>2026-07-02T10:54:53.742Z</time>
      </trkpt>
      <trkpt lat="45.24493" lon="4.60404">
        <ele>577.63625</ele>
        <time>2026-07-02T10:54:57.742Z</time>
      </trkpt>
      <trkpt lat="45.24503" lon="4.60408">
        <ele>578.575418</ele>
        <time>2026-07-02T10:55:02.746Z</time>
      </trkpt>
      <trkpt lat="45.24514" lon="4.60411">
        <ele>579.548442</ele>
        <time>2026-07-02T10:55:07.736Z</time>
      </trkpt>
      <trkpt lat="45.24524" lon="4.60422">
        <ele>580.673651</ele>
        <time>2026-07-02T10:55:11.743Z</time>
      </trkpt>
      <trkpt lat="45.24531" lon="4.6043">
        <ele>581.500077</ele>
        <time>2026-07-02T10:55:15.738Z</time>
      </trkpt>
      <trkpt lat="45.2454" lon="4.60437">
        <ele>582.485343</ele>
        <time>2026-07-02T10:55:20.742Z</time>
      </trkpt>
      <trkpt lat="45.24549" lon="4.60446">
        <ele>583.47387</ele>
        <time>2026-07-02T10:55:25.740Z</time>
      </trkpt>
      <trkpt lat="45.24557" lon="4.60455">
        <ele>584.365115</ele>
        <time>2026-07-02T10:55:29.737Z</time>
      </trkpt>
      <trkpt lat="45.24565" lon="4.60462">
        <ele>585.233694</ele>
        <time>2026-07-02T10:55:34.736Z</time>
      </trkpt>
      <trkpt lat="45.24574" lon="4.60472">
        <ele>586.220267</ele>
        <time>2026-07-02T10:55:39.741Z</time>
      </trkpt>
      <trkpt lat="45.24579" lon="4.60484">
        <ele>587.125051</ele>
        <time>2026-07-02T10:55:43.744Z</time>
      </trkpt>
      <trkpt lat="45.24582" lon="4.60498">
        <ele>588.121453</ele>
        <time>2026-07-02T10:55:48.737Z</time>
      </trkpt>
      <trkpt lat="45.24587" lon="4.60511">
        <ele>589.131377</ele>
        <time>2026-07-02T10:55:53.735Z</time>
      </trkpt>
      <trkpt lat="45.24589" lon="4.60524">
        <ele>590.012731</ele>
        <time>2026-07-02T10:55:57.745Z</time>
      </trkpt>
      <trkpt lat="45.24594" lon="4.60538">
        <ele>591.072721</ele>
        <time>2026-07-02T10:56:02.743Z</time>
      </trkpt>
      <trkpt lat="45.24597" lon="4.60551">
        <ele>592.052804</ele>
        <time>2026-07-02T10:56:06.733Z</time>
      </trkpt>
      <trkpt lat="45.24599" lon="4.60564">
        <ele>592.946146</ele>
        <time>2026-07-02T10:56:10.703Z</time>
      </trkpt>
      <trkpt lat="45.24605" lon="4.60576">
        <ele>593.968286</ele>
        <time>2026-07-02T10:56:15.703Z</time>
      </trkpt>
      <trkpt lat="45.24607" lon="4.6059">
        <ele>594.948009</ele>
        <time>2026-07-02T10:56:19.735Z</time>
      </trkpt>
      <trkpt lat="45.24612" lon="4.60604">
        <ele>596.053639</ele>
        <time>2026-07-02T10:56:23.730Z</time>
      </trkpt>
      <trkpt lat="45.24618" lon="4.60615">
        <ele>596.999776</ele>
        <time>2026-07-02T10:56:27.696Z</time>
      </trkpt>
      <trkpt lat="45.24627" lon="4.60619">
        <ele>597.888448</ele>
        <time>2026-07-02T10:56:33.700Z</time>
      </trkpt>
      <trkpt lat="45.24637" lon="4.60619">
        <ele>598.921561</ele>
        <time>2026-07-02T10:56:39.716Z</time>
      </trkpt>
      <trkpt lat="45.24647" lon="4.60622">
        <ele>599.841046</ele>
        <time>2026-07-02T10:56:43.738Z</time>
      </trkpt>
      <trkpt lat="45.24656" lon="4.6063">
        <ele>600.850616</ele>
        <time>2026-07-02T10:56:47.742Z</time>
      </trkpt>
      <trkpt lat="45.24666" lon="4.60635">
        <ele>601.901705</ele>
        <time>2026-07-02T10:56:52.741Z</time>
      </trkpt>
      <trkpt lat="45.24675" lon="4.60638">
        <ele>602.81657</ele>
        <time>2026-07-02T10:56:56.740Z</time>
      </trkpt>
      <trkpt lat="45.24685" lon="4.60641">
        <ele>603.783586</ele>
        <time>2026-07-02T10:57:01.742Z</time>
      </trkpt>
      <trkpt lat="45.24694" lon="4.6065">
        <ele>604.844051</ele>
        <time>2026-07-02T10:57:06.740Z</time>
      </trkpt>
      <trkpt lat="45.24703" lon="4.60657">
        <ele>605.823717</ele>
        <time>2026-07-02T10:57:10.742Z</time>
      </trkpt>
      <trkpt lat="45.24711" lon="4.60665">
        <ele>606.717523</ele>
        <time>2026-07-02T10:57:14.741Z</time>
      </trkpt>
      <trkpt lat="45.24719" lon="4.6067">
        <ele>607.554191</ele>
        <time>2026-07-02T10:57:19.745Z</time>
      </trkpt>
      <trkpt lat="45.24729" lon="4.60678">
        <ele>608.543783</ele>
        <time>2026-07-02T10:57:24.726Z</time>
      </trkpt>
      <trkpt lat="45.24738" lon="4.60683">
        <ele>609.428797</ele>
        <time>2026-07-02T10:57:29.749Z</time>
      </trkpt>
      <trkpt lat="45.24746" lon="4.6069">
        <ele>610.293806</ele>
        <time>2026-07-02T10:57:33.734Z</time>
      </trkpt>
      <trkpt lat="45.24753" lon="4.60698">
        <ele>611.12814</ele>
        <time>2026-07-02T10:57:37.740Z</time>
      </trkpt>
      <trkpt lat="45.24762" lon="4.60706">
        <ele>612.064389</ele>
        <time>2026-07-02T10:57:42.741Z</time>
      </trkpt>
      <trkpt lat="45.2477" lon="4.60716">
        <ele>613.050573</ele>
        <time>2026-07-02T10:57:46.727Z</time>
      </trkpt>
      <trkpt lat="45.24776" lon="4.60726">
        <ele>613.930792</ele>
        <time>2026-07-02T10:57:50.747Z</time>
      </trkpt>
      <trkpt lat="45.24783" lon="4.60738">
        <ele>614.927078</ele>
        <time>2026-07-02T10:57:54.741Z</time>
      </trkpt>
      <trkpt lat="45.2479" lon="4.60747">
        <ele>615.756158</ele>
        <time>2026-07-02T10:57:57.737Z</time>
      </trkpt>
      <trkpt lat="45.24797" lon="4.60758">
        <ele>616.72528</ele>
        <time>2026-07-02T10:58:01.715Z</time>
      </trkpt>
      <trkpt lat="45.24803" lon="4.60771">
        <ele>617.72434</ele>
        <time>2026-07-02T10:58:05.743Z</time>
      </trkpt>
      <trkpt lat="45.2481" lon="4.60781">
        <ele>618.63798</ele>
        <time>2026-07-02T10:58:09.740Z</time>
      </trkpt>
      <trkpt lat="45.24816" lon="4.60792">
        <ele>619.550645</ele>
        <time>2026-07-02T10:58:13.739Z</time>
      </trkpt>
      <trkpt lat="45.24825" lon="4.60797">
        <ele>620.390142</ele>
        <time>2026-07-02T10:58:17.734Z</time>
      </trkpt>
      <trkpt lat="45.24833" lon="4.60802">
        <ele>621.223236</ele>
        <time>2026-07-02T10:58:21.746Z</time>
      </trkpt>
      <trkpt lat="45.24843" lon="4.60802">
        <ele>621.711732</ele>
        <time>2026-07-02T10:58:25.739Z</time>
      </trkpt>
      <trkpt lat="45.24851" lon="4.60796">
        <ele>621.9112</ele>
        <time>2026-07-02T10:58:29.741Z</time>
      </trkpt>
      <trkpt lat="45.24861" lon="4.60796">
        <ele>622.112846</ele>
        <time>2026-07-02T10:58:33.742Z</time>
      </trkpt>
      <trkpt lat="45.2487" lon="4.60789">
        <ele>622.339954</ele>
        <time>2026-07-02T10:58:37.736Z</time>
      </trkpt>
      <trkpt lat="45.24879" lon="4.60786">
        <ele>622.532719</ele>
        <time>2026-07-02T10:58:40.735Z</time>
      </trkpt>
      <trkpt lat="45.24889" lon="4.60784">
        <ele>622.752437</ele>
        <time>2026-07-02T10:58:43.739Z</time>
      </trkpt>
      <trkpt lat="45.24899" lon="4.60784">
        <ele>622.951962</ele>
        <time>2026-07-02T10:58:46.738Z</time>
      </trkpt>
      <trkpt lat="45.24908" lon="4.60787">
        <ele>623.146285</ele>
        <time>2026-07-02T10:58:49.741Z</time>
      </trkpt>
      <trkpt lat="45.24919" lon="4.60789">
        <ele>623.378491</ele>
        <time>2026-07-02T10:58:52.742Z</time>
      </trkpt>
      <trkpt lat="45.24929" lon="4.60789">
        <ele>623.597314</ele>
        <time>2026-07-02T10:58:55.738Z</time>
      </trkpt>
      <trkpt lat="45.2494" lon="4.60789">
        <ele>623.82469</ele>
        <time>2026-07-02T10:58:58.734Z</time>
      </trkpt>
      <trkpt lat="45.2495" lon="4.6079">
        <ele>624.043773</ele>
        <time>2026-07-02T10:59:01.737Z</time>
      </trkpt>
      <trkpt lat="45.24961" lon="4.6079">
        <ele>624.270878</ele>
        <time>2026-07-02T10:59:04.732Z</time>
      </trkpt>
      <trkpt lat="45.24969" lon="4.60786">
        <ele>624.467358</ele>
        <time>2026-07-02T10:59:08.737Z</time>
      </trkpt>
      <trkpt lat="45.24976" lon="4.60775">
        <ele>624.683821</ele>
        <time>2026-07-02T10:59:12.737Z</time>
      </trkpt>
      <trkpt lat="45.24981" lon="4.60763">
        <ele>624.887669</ele>
        <time>2026-07-02T10:59:16.741Z</time>
      </trkpt>
      <trkpt lat="45.24985" lon="4.6075">
        <ele>625.101415</ele>
        <time>2026-07-02T10:59:21.738Z</time>
      </trkpt>
      <trkpt lat="45.2499" lon="4.60739">
        <ele>625.294759</ele>
        <time>2026-07-02T10:59:25.741Z</time>
      </trkpt>
      <trkpt lat="45.24996" lon="4.60727">
        <ele>625.641251</ele>
        <time>2026-07-02T10:59:30.739Z</time>
      </trkpt>
      <trkpt lat="45.25004" lon="4.60717">
        <ele>626.101058</ele>
        <time>2026-07-02T10:59:34.737Z</time>
      </trkpt>
      <trkpt lat="45.25011" lon="4.60707">
        <ele>626.568818</ele>
        <time>2026-07-02T10:59:39.738Z</time>
      </trkpt>
      <trkpt lat="45.25018" lon="4.60695">
        <ele>627.076179</ele>
        <time>2026-07-02T10:59:43.737Z</time>
      </trkpt>
      <trkpt lat="45.25024" lon="4.60682">
        <ele>627.544414</ele>
        <time>2026-07-02T10:59:47.737Z</time>
      </trkpt>
      <trkpt lat="45.25031" lon="4.60673">
        <ele>627.977992</ele>
        <time>2026-07-02T10:59:50.737Z</time>
      </trkpt>
      <trkpt lat="45.25037" lon="4.60662">
        <ele>628.428428</ele>
        <time>2026-07-02T10:59:54.737Z</time>
      </trkpt>
      <trkpt lat="45.25043" lon="4.60652">
        <ele>628.847642</ele>
        <time>2026-07-02T10:59:57.743Z</time>
      </trkpt>
      <trkpt lat="45.2505" lon="4.60642">
        <ele>629.295589</ele>
        <time>2026-07-02T11:00:00.712Z</time>
      </trkpt>
      <trkpt lat="45.2506" lon="4.60632">
        <ele>629.836442</ele>
        <time>2026-07-02T11:00:04.710Z</time>
      </trkpt>
      <trkpt lat="45.2507" lon="4.60623">
        <ele>630.353299</ele>
        <time>2026-07-02T11:00:08.742Z</time>
      </trkpt>
      <trkpt lat="45.2508" lon="4.60617">
        <ele>630.876542</ele>
        <time>2026-07-02T11:00:12.739Z</time>
      </trkpt>
      <trkpt lat="45.2509" lon="4.60611">
        <ele>631.366345</ele>
        <time>2026-07-02T11:00:16.741Z</time>
      </trkpt>
      <trkpt lat="45.25102" lon="4.60606">
        <ele>631.91326</ele>
        <time>2026-07-02T11:00:20.737Z</time>
      </trkpt>
      <trkpt lat="45.2511" lon="4.60601">
        <ele>632.322566</ele>
        <time>2026-07-02T11:00:23.736Z</time>
      </trkpt>
      <trkpt lat="45.25119" lon="4.60594">
        <ele>632.765881</ele>
        <time>2026-07-02T11:00:27.736Z</time>
      </trkpt>
      <trkpt lat="45.25127" lon="4.60586">
        <ele>633.20732</ele>
        <time>2026-07-02T11:00:31.748Z</time>
      </trkpt>
      <trkpt lat="45.25134" lon="4.60577">
        <ele>633.742073</ele>
        <time>2026-07-02T11:00:35.750Z</time>
      </trkpt>
      <trkpt lat="45.25142" lon="4.60567">
        <ele>634.577526</ele>
        <time>2026-07-02T11:00:39.740Z</time>
      </trkpt>
      <trkpt lat="45.25149" lon="4.60554">
        <ele>635.466685</ele>
        <time>2026-07-02T11:00:44.739Z</time>
      </trkpt>
      <trkpt lat="45.25157" lon="4.60542">
        <ele>636.383021</ele>
        <time>2026-07-02T11:00:48.738Z</time>
      </trkpt>
      <trkpt lat="45.25164" lon="4.60534">
        <ele>637.117434</ele>
        <time>2026-07-02T11:00:52.743Z</time>
      </trkpt>
      <trkpt lat="45.25173" lon="4.60528">
        <ele>637.92058</ele>
        <time>2026-07-02T11:00:56.743Z</time>
      </trkpt>
      <trkpt lat="45.25182" lon="4.60521">
        <ele>638.729333</ele>
        <time>2026-07-02T11:01:00.738Z</time>
      </trkpt>
      <trkpt lat="45.25193" lon="4.60515">
        <ele>639.638036</ele>
        <time>2026-07-02T11:01:05.741Z</time>
      </trkpt>
      <trkpt lat="45.25204" lon="4.60515">
        <ele>640.502822</ele>
        <time>2026-07-02T11:01:09.712Z</time>
      </trkpt>
      <trkpt lat="45.25214" lon="4.60523">
        <ele>641.425769</ele>
        <time>2026-07-02T11:01:14.758Z</time>
      </trkpt>
      <trkpt lat="45.25224" lon="4.60531">
        <ele>642.310086</ele>
        <time>2026-07-02T11:01:19.738Z</time>
      </trkpt>
      <trkpt lat="45.25232" lon="4.6054">
        <ele>643.167127</ele>
        <time>2026-07-02T11:01:23.705Z</time>
      </trkpt>
      <trkpt lat="45.2524" lon="4.60549">
        <ele>643.95119</ele>
        <time>2026-07-02T11:01:27.751Z</time>
      </trkpt>
      <trkpt lat="45.25247" lon="4.60559">
        <ele>644.732118</ele>
        <time>2026-07-02T11:01:31.743Z</time>
      </trkpt>
      <trkpt lat="45.25252" lon="4.60573">
        <ele>645.610108</ele>
        <time>2026-07-02T11:01:35.739Z</time>
      </trkpt>
      <trkpt lat="45.25256" lon="4.60585">
        <ele>646.354738</ele>
        <time>2026-07-02T11:01:38.707Z</time>
      </trkpt>
      <trkpt lat="45.25262" lon="4.60597">
        <ele>647.159617</ele>
        <time>2026-07-02T11:01:42.737Z</time>
      </trkpt>
      <trkpt lat="45.25267" lon="4.60608">
        <ele>647.882701</ele>
        <time>2026-07-02T11:01:46.737Z</time>
      </trkpt>
      <trkpt lat="45.2527" lon="4.60621">
        <ele>648.66104</ele>
        <time>2026-07-02T11:01:50.711Z</time>
      </trkpt>
      <trkpt lat="45.25277" lon="4.6063">
        <ele>649.42244</ele>
        <time>2026-07-02T11:01:54.741Z</time>
      </trkpt>
      <trkpt lat="45.25285" lon="4.60641">
        <ele>650.308589</ele>
        <time>2026-07-02T11:01:59.737Z</time>
      </trkpt>
      <trkpt lat="45.25291" lon="4.60652">
        <ele>651.088264</ele>
        <time>2026-07-02T11:02:04.734Z</time>
      </trkpt>
      <trkpt lat="45.25295" lon="4.60666">
        <ele>651.946086</ele>
        <time>2026-07-02T11:02:09.738Z</time>
      </trkpt>
      <trkpt lat="45.25298" lon="4.60679">
        <ele>652.707793</ele>
        <time>2026-07-02T11:02:13.739Z</time>
      </trkpt>
      <trkpt lat="45.25299" lon="4.60694">
        <ele>653.53694</ele>
        <time>2026-07-02T11:02:17.741Z</time>
      </trkpt>
      <trkpt lat="45.25301" lon="4.60707">
        <ele>654.283727</ele>
        <time>2026-07-02T11:02:21.738Z</time>
      </trkpt>
      <trkpt lat="45.25303" lon="4.6072">
        <ele>655.011083</ele>
        <time>2026-07-02T11:02:25.739Z</time>
      </trkpt>
      <trkpt lat="45.25303" lon="4.60735">
        <ele>655.835672</ele>
        <time>2026-07-02T11:02:29.742Z</time>
      </trkpt>
      <trkpt lat="45.25307" lon="4.60748">
        <ele>656.630584</ele>
        <time>2026-07-02T11:02:34.747Z</time>
      </trkpt>
      <trkpt lat="45.25317" lon="4.60755">
        <ele>657.508708</ele>
        <time>2026-07-02T11:02:40.736Z</time>
      </trkpt>
      <trkpt lat="45.25326" lon="4.60756">
        <ele>658.253645</ele>
        <time>2026-07-02T11:02:44.698Z</time>
      </trkpt>
      <trkpt lat="45.25335" lon="4.60755">
        <ele>658.973097</ele>
        <time>2026-07-02T11:02:48.696Z</time>
      </trkpt>
      <trkpt lat="45.25344" lon="4.60751">
        <ele>659.723643</ele>
        <time>2026-07-02T11:02:52.707Z</time>
      </trkpt>
      <trkpt lat="45.25355" lon="4.60751">
        <ele>660.5595</ele>
        <time>2026-07-02T11:02:56.698Z</time>
      </trkpt>
      <trkpt lat="45.25364" lon="4.6075">
        <ele>661.318583</ele>
        <time>2026-07-02T11:03:00.695Z</time>
      </trkpt>
      <trkpt lat="45.25373" lon="4.60749">
        <ele>662.034974</ele>
        <time>2026-07-02T11:03:04.698Z</time>
      </trkpt>
      <trkpt lat="45.25384" lon="4.60752">
        <ele>662.789599</ele>
        <time>2026-07-02T11:03:08.696Z</time>
      </trkpt>
      <trkpt lat="45.25394" lon="4.60756">
        <ele>663.433301</ele>
        <time>2026-07-02T11:03:12.699Z</time>
      </trkpt>
      <trkpt lat="45.25405" lon="4.6076">
        <ele>664.194191</ele>
        <time>2026-07-02T11:03:17.740Z</time>
      </trkpt>
      <trkpt lat="45.25414" lon="4.60762">
        <ele>664.814922</ele>
        <time>2026-07-02T11:03:21.754Z</time>
      </trkpt>
      <trkpt lat="45.25423" lon="4.60767">
        <ele>665.494484</ele>
        <time>2026-07-02T11:03:24.730Z</time>
      </trkpt>
      <trkpt lat="45.25432" lon="4.6077">
        <ele>666.098901</ele>
        <time>2026-07-02T11:03:27.705Z</time>
      </trkpt>
      <trkpt lat="45.25442" lon="4.60767">
        <ele>666.783822</ele>
        <time>2026-07-02T11:03:32.774Z</time>
      </trkpt>
      <trkpt lat="45.25452" lon="4.60765">
        <ele>667.46488</ele>
        <time>2026-07-02T11:03:38.764Z</time>
      </trkpt>
      <trkpt lat="45.25463" lon="4.60768">
        <ele>668.192831</ele>
        <time>2026-07-02T11:03:43.811Z</time>
      </trkpt>
      <trkpt lat="45.25473" lon="4.60769">
        <ele>668.885585</ele>
        <time>2026-07-02T11:03:47.721Z</time>
      </trkpt>
      <trkpt lat="45.25482" lon="4.60774">
        <ele>669.525934</ele>
        <time>2026-07-02T11:03:50.762Z</time>
      </trkpt>
      <trkpt lat="45.25492" lon="4.60777">
        <ele>670.232386</ele>
        <time>2026-07-02T11:03:55.811Z</time>
      </trkpt>
      <trkpt lat="45.25503" lon="4.60779">
        <ele>670.951322</ele>
        <time>2026-07-02T11:03:58.746Z</time>
      </trkpt>
      <trkpt lat="45.25513" lon="4.6078">
        <ele>671.622048</ele>
        <time>2026-07-02T11:04:02.729Z</time>
      </trkpt>
      <trkpt lat="45.25523" lon="4.60785">
        <ele>672.367603</ele>
        <time>2026-07-02T11:04:06.710Z</time>
      </trkpt>
      <trkpt lat="45.25533" lon="4.60794">
        <ele>673.147301</ele>
        <time>2026-07-02T11:04:09.735Z</time>
      </trkpt>
      <trkpt lat="45.25544" lon="4.60802">
        <ele>673.960593</ele>
        <time>2026-07-02T11:04:12.716Z</time>
      </trkpt>
      <trkpt lat="45.25555" lon="4.60805">
        <ele>674.58545</ele>
        <time>2026-07-02T11:04:16.742Z</time>
      </trkpt>
      <trkpt lat="45.25564" lon="4.60811">
        <ele>675.077701</ele>
        <time>2026-07-02T11:04:20.736Z</time>
      </trkpt>
      <trkpt lat="45.25573" lon="4.60815">
        <ele>675.598717</ele>
        <time>2026-07-02T11:04:25.734Z</time>
      </trkpt>
      <trkpt lat="45.25579" lon="4.6083">
        <ele>676.196898</ele>
        <time>2026-07-02T11:04:29.738Z</time>
      </trkpt>
      <trkpt lat="45.25584" lon="4.60842">
        <ele>676.727345</ele>
        <time>2026-07-02T11:04:33.737Z</time>
      </trkpt>
      <trkpt lat="45.2559" lon="4.60853">
        <ele>677.224424</ele>
        <time>2026-07-02T11:04:37.723Z</time>
      </trkpt>
      <trkpt lat="45.25596" lon="4.60863">
        <ele>677.704432</ele>
        <time>2026-07-02T11:04:41.744Z</time>
      </trkpt>
      <trkpt lat="45.25604" lon="4.60871">
        <ele>678.207094</ele>
        <time>2026-07-02T11:04:45.744Z</time>
      </trkpt>
      <trkpt lat="45.25615" lon="4.60874">
        <ele>678.738907</ele>
        <time>2026-07-02T11:04:49.734Z</time>
      </trkpt>
      <trkpt lat="45.25624" lon="4.60868">
        <ele>679.287197</ele>
        <time>2026-07-02T11:04:54.737Z</time>
      </trkpt>
      <trkpt lat="45.25632" lon="4.60859">
        <ele>679.768196</ele>
        <time>2026-07-02T11:04:58.749Z</time>
      </trkpt>
      <trkpt lat="45.25641" lon="4.60851">
        <ele>680.348927</ele>
        <time>2026-07-02T11:05:03.747Z</time>
      </trkpt>
      <trkpt lat="45.2565" lon="4.60843">
        <ele>680.904208</ele>
        <time>2026-07-02T11:05:08.739Z</time>
      </trkpt>
      <trkpt lat="45.25659" lon="4.60834">
        <ele>681.457169</ele>
        <time>2026-07-02T11:05:13.738Z</time>
      </trkpt>
      <trkpt lat="45.25667" lon="4.60824">
        <ele>681.99992</ele>
        <time>2026-07-02T11:05:17.741Z</time>
      </trkpt>
      <trkpt lat="45.25675" lon="4.60814">
        <ele>682.547422</ele>
        <time>2026-07-02T11:05:23.741Z</time>
      </trkpt>
      <trkpt lat="45.25684" lon="4.60806">
        <ele>683.09605</ele>
        <time>2026-07-02T11:05:28.741Z</time>
      </trkpt>
      <trkpt lat="45.25693" lon="4.608">
        <ele>683.780953</ele>
        <time>2026-07-02T11:05:33.743Z</time>
      </trkpt>
      <trkpt lat="45.25704" lon="4.60796">
        <ele>684.748993</ele>
        <time>2026-07-02T11:05:38.740Z</time>
      </trkpt>
      <trkpt lat="45.25714" lon="4.60796">
        <ele>685.651882</ele>
        <time>2026-07-02T11:05:42.736Z</time>
      </trkpt>
      <trkpt lat="45.25725" lon="4.60796">
        <ele>686.60791</ele>
        <time>2026-07-02T11:05:46.746Z</time>
      </trkpt>
      <trkpt lat="45.25734" lon="4.60792">
        <ele>687.479753</ele>
        <time>2026-07-02T11:05:50.741Z</time>
      </trkpt>
      <trkpt lat="45.25745" lon="4.60791">
        <ele>688.455596</ele>
        <time>2026-07-02T11:05:55.738Z</time>
      </trkpt>
      <trkpt lat="45.25754" lon="4.60792">
        <ele>689.263196</ele>
        <time>2026-07-02T11:05:59.744Z</time>
      </trkpt>
      <trkpt lat="45.25763" lon="4.60793">
        <ele>690.070796</ele>
        <time>2026-07-02T11:06:03.738Z</time>
      </trkpt>
      <trkpt lat="45.25772" lon="4.60797">
        <ele>690.953219</ele>
        <time>2026-07-02T11:06:08.746Z</time>
      </trkpt>
      <trkpt lat="45.25782" lon="4.60799">
        <ele>691.85505</ele>
        <time>2026-07-02T11:06:13.737Z</time>
      </trkpt>
      <trkpt lat="45.25793" lon="4.608">
        <ele>692.777406</ele>
        <time>2026-07-02T11:06:19.739Z</time>
      </trkpt>
      <trkpt lat="45.25802" lon="4.60803">
        <ele>693.66431</ele>
        <time>2026-07-02T11:06:24.735Z</time>
      </trkpt>
      <trkpt lat="45.25812" lon="4.60806">
        <ele>694.51633</ele>
        <time>2026-07-02T11:06:29.742Z</time>
      </trkpt>
      <trkpt lat="45.25821" lon="4.60807">
        <ele>695.393696</ele>
        <time>2026-07-02T11:06:34.745Z</time>
      </trkpt>
      <trkpt lat="45.2583" lon="4.6081">
        <ele>696.204223</ele>
        <time>2026-07-02T11:06:38.741Z</time>
      </trkpt>
      <trkpt lat="45.25839" lon="4.60809">
        <ele>697.019192</ele>
        <time>2026-07-02T11:06:42.736Z</time>
      </trkpt>
      <trkpt lat="45.2585" lon="4.60806">
        <ele>698.019885</ele>
        <time>2026-07-02T11:06:47.741Z</time>
      </trkpt>
      <trkpt lat="45.25861" lon="4.60806">
        <ele>698.975914</ele>
        <time>2026-07-02T11:06:51.741Z</time>
      </trkpt>
      <trkpt lat="45.25872" lon="4.60805">
        <ele>699.974282</ele>
        <time>2026-07-02T11:06:56.739Z</time>
      </trkpt>
      <trkpt lat="45.25882" lon="4.60806">
        <ele>700.77905</ele>
        <time>2026-07-02T11:07:00.740Z</time>
      </trkpt>
      <trkpt lat="45.25891" lon="4.6081">
        <ele>701.61584</ele>
        <time>2026-07-02T11:07:06.750Z</time>
      </trkpt>
      <trkpt lat="45.25899" lon="4.60819">
        <ele>702.536144</ele>
        <time>2026-07-02T11:07:10.743Z</time>
      </trkpt>
      <trkpt lat="45.25906" lon="4.6083">
        <ele>703.408357</ele>
        <time>2026-07-02T11:07:14.713Z</time>
      </trkpt>
      <trkpt lat="45.25914" lon="4.60839">
        <ele>704.326768</ele>
        <time>2026-07-02T11:07:19.741Z</time>
      </trkpt>
      <trkpt lat="45.25922" lon="4.6085">
        <ele>705.296988</ele>
        <time>2026-07-02T11:07:24.735Z</time>
      </trkpt>
      <trkpt lat="45.25928" lon="4.6086">
        <ele>706.108265</ele>
        <time>2026-07-02T11:07:28.720Z</time>
      </trkpt>
      <trkpt lat="45.25935" lon="4.60871">
        <ele>706.992261</ele>
        <time>2026-07-02T11:07:33.741Z</time>
      </trkpt>
      <trkpt lat="45.25944" lon="4.60877">
        <ele>707.889215</ele>
        <time>2026-07-02T11:07:39.742Z</time>
      </trkpt>
      <trkpt lat="45.25953" lon="4.60871">
        <ele>708.743568</ele>
        <time>2026-07-02T11:07:45.735Z</time>
      </trkpt>
      <trkpt lat="45.2596" lon="4.60859">
        <ele>709.674371</ele>
        <time>2026-07-02T11:07:51.743Z</time>
      </trkpt>
      <trkpt lat="45.25966" lon="4.60849">
        <ele>710.524728</ele>
        <time>2026-07-02T11:07:56.739Z</time>
      </trkpt>
      <trkpt lat="45.25971" lon="4.60836">
        <ele>711.396485</ele>
        <time>2026-07-02T11:08:00.738Z</time>
      </trkpt>
      <trkpt lat="45.25976" lon="4.60825">
        <ele>712.217655</ele>
        <time>2026-07-02T11:08:04.721Z</time>
      </trkpt>
      <trkpt lat="45.25979" lon="4.60811">
        <ele>713.140523</ele>
        <time>2026-07-02T11:08:09.741Z</time>
      </trkpt>
      <trkpt lat="45.25983" lon="4.60797">
        <ele>714.065559</ele>
        <time>2026-07-02T11:08:14.736Z</time>
      </trkpt>
      <trkpt lat="45.25991" lon="4.60787">
        <ele>714.959166</ele>
        <time>2026-07-02T11:08:18.729Z</time>
      </trkpt>
      <trkpt lat="45.26" lon="4.60781">
        <ele>715.801638</ele>
        <time>2026-07-02T11:08:22.703Z</time>
      </trkpt>
      <trkpt lat="45.26008" lon="4.60774">
        <ele>716.555907</ele>
        <time>2026-07-02T11:08:26.742Z</time>
      </trkpt>
      <trkpt lat="45.26018" lon="4.60767">
        <ele>717.46155</ele>
        <time>2026-07-02T11:08:31.740Z</time>
      </trkpt>
      <trkpt lat="45.26028" lon="4.60764">
        <ele>718.311094</ele>
        <time>2026-07-02T11:08:35.707Z</time>
      </trkpt>
      <trkpt lat="45.26036" lon="4.60758">
        <ele>719.059691</ele>
        <time>2026-07-02T11:08:39.739Z</time>
      </trkpt>
      <trkpt lat="45.26044" lon="4.60753">
        <ele>719.837661</ele>
        <time>2026-07-02T11:08:43.723Z</time>
      </trkpt>
      <trkpt lat="45.26054" lon="4.60751">
        <ele>720.663581</ele>
        <time>2026-07-02T11:08:47.741Z</time>
      </trkpt>
      <trkpt lat="45.26064" lon="4.60752">
        <ele>721.461594</ele>
        <time>2026-07-02T11:08:52.741Z</time>
      </trkpt>
      <trkpt lat="45.26075" lon="4.60752">
        <ele>722.388573</ele>
        <time>2026-07-02T11:08:57.740Z</time>
      </trkpt>
      <trkpt lat="45.26083" lon="4.60743">
        <ele>723.212359</ele>
        <time>2026-07-02T11:09:02.743Z</time>
      </trkpt>
      <trkpt lat="45.26088" lon="4.6073">
        <ele>724.083296</ele>
        <time>2026-07-02T11:09:07.739Z</time>
      </trkpt>
      <trkpt lat="45.26094" lon="4.60719">
        <ele>724.871814</ele>
        <time>2026-07-02T11:09:12.739Z</time>
      </trkpt>
      <trkpt lat="45.26103" lon="4.60711">
        <ele>725.793873</ele>
        <time>2026-07-02T11:09:16.743Z</time>
      </trkpt>
      <trkpt lat="45.26112" lon="4.60705">
        <ele>726.591799</ele>
        <time>2026-07-02T11:09:20.745Z</time>
      </trkpt>
      <trkpt lat="45.26122" lon="4.60699">
        <ele>727.516884</ele>
        <time>2026-07-02T11:09:25.744Z</time>
      </trkpt>
      <trkpt lat="45.2613" lon="4.60691">
        <ele>728.275847</ele>
        <time>2026-07-02T11:09:29.741Z</time>
      </trkpt>
      <trkpt lat="45.26138" lon="4.60684">
        <ele>729.075921</ele>
        <time>2026-07-02T11:09:33.743Z</time>
      </trkpt>
      <trkpt lat="45.26147" lon="4.60678">
        <ele>729.903619</ele>
        <time>2026-07-02T11:09:37.739Z</time>
      </trkpt>
      <trkpt lat="45.26156" lon="4.60672">
        <ele>730.783905</ele>
        <time>2026-07-02T11:09:42.727Z</time>
      </trkpt>
      <trkpt lat="45.26166" lon="4.60666">
        <ele>731.801612</ele>
        <time>2026-07-02T11:09:47.741Z</time>
      </trkpt>
      <trkpt lat="45.26175" lon="4.60663">
        <ele>732.630149</ele>
        <time>2026-07-02T11:09:51.745Z</time>
      </trkpt>
      <trkpt lat="45.26184" lon="4.60659">
        <ele>733.505781</ele>
        <time>2026-07-02T11:09:55.738Z</time>
      </trkpt>
      <trkpt lat="45.26193" lon="4.60654">
        <ele>734.359084</ele>
        <time>2026-07-02T11:09:59.738Z</time>
      </trkpt>
      <trkpt lat="45.26199" lon="4.60644">
        <ele>735.215544</ele>
        <time>2026-07-02T11:10:04.748Z</time>
      </trkpt>
      <trkpt lat="45.26199" lon="4.6063">
        <ele>736.0775</ele>
        <time>2026-07-02T11:10:10.741Z</time>
      </trkpt>
      <trkpt lat="45.26194" lon="4.60618">
        <ele>737.019719</ele>
        <time>2026-07-02T11:10:15.736Z</time>
      </trkpt>
      <trkpt lat="45.26188" lon="4.60607">
        <ele>737.892761</ele>
        <time>2026-07-02T11:10:19.736Z</time>
      </trkpt>
      <trkpt lat="45.26179" lon="4.60603">
        <ele>738.731757</ele>
        <time>2026-07-02T11:10:25.737Z</time>
      </trkpt>
      <trkpt lat="45.26169" lon="4.60604">
        <ele>739.595446</ele>
        <time>2026-07-02T11:10:29.735Z</time>
      </trkpt>
      <trkpt lat="45.26161" lon="4.60598">
        <ele>740.415639</ele>
        <time>2026-07-02T11:10:33.741Z</time>
      </trkpt>
      <trkpt lat="45.26153" lon="4.60588">
        <ele>741.396992</ele>
        <time>2026-07-02T11:10:37.731Z</time>
      </trkpt>
      <trkpt lat="45.26145" lon="4.60581">
        <ele>742.2965</ele>
        <time>2026-07-02T11:10:41.740Z</time>
      </trkpt>
      <trkpt lat="45.26137" lon="4.60573">
        <ele>743.128269</ele>
        <time>2026-07-02T11:10:45.740Z</time>
      </trkpt>
      <trkpt lat="45.26128" lon="4.60568">
        <ele>744.030781</ele>
        <time>2026-07-02T11:10:49.738Z</time>
      </trkpt>
      <trkpt lat="45.26119" lon="4.60562">
        <ele>744.894145</ele>
        <time>2026-07-02T11:10:53.746Z</time>
      </trkpt>
      <trkpt lat="45.26112" lon="4.60553">
        <ele>745.795293</ele>
        <time>2026-07-02T11:10:57.741Z</time>
      </trkpt>
      <trkpt lat="45.26105" lon="4.60544">
        <ele>746.408456</ele>
        <time>2026-07-02T11:11:01.737Z</time>
      </trkpt>
      <trkpt lat="45.26097" lon="4.60536">
        <ele>746.656993</ele>
        <time>2026-07-02T11:11:05.742Z</time>
      </trkpt>
      <trkpt lat="45.2609" lon="4.60527">
        <ele>746.91479</ele>
        <time>2026-07-02T11:11:09.717Z</time>
      </trkpt>
      <trkpt lat="45.26081" lon="4.60516">
        <ele>747.21837</ele>
        <time>2026-07-02T11:11:13.721Z</time>
      </trkpt>
      <trkpt lat="45.26074" lon="4.60507">
        <ele>747.467205</ele>
        <time>2026-07-02T11:11:17.779Z</time>
      </trkpt>
      <trkpt lat="45.26068" lon="4.60493">
        <ele>747.781474</ele>
        <time>2026-07-02T11:11:21.702Z</time>
      </trkpt>
      <trkpt lat="45.26062" lon="4.60482">
        <ele>748.035861</ele>
        <time>2026-07-02T11:11:25.703Z</time>
      </trkpt>
      <trkpt lat="45.26059" lon="4.6047">
        <ele>748.289961</ele>
        <time>2026-07-02T11:11:29.736Z</time>
      </trkpt>
      <trkpt lat="45.26056" lon="4.60455">
        <ele>748.583717</ele>
        <time>2026-07-02T11:11:33.723Z</time>
      </trkpt>
      <trkpt lat="45.26055" lon="4.60441">
        <ele>748.841813</ele>
        <time>2026-07-02T11:11:36.721Z</time>
      </trkpt>
      <trkpt lat="45.26052" lon="4.60426">
        <ele>749.125779</ele>
        <time>2026-07-02T11:11:41.741Z</time>
      </trkpt>
      <trkpt lat="45.26047" lon="4.60414">
        <ele>749.384749</ele>
        <time>2026-07-02T11:11:46.747Z</time>
      </trkpt>
      <trkpt lat="45.26039" lon="4.60405">
        <ele>749.650195</ele>
        <time>2026-07-02T11:11:51.734Z</time>
      </trkpt>
      <trkpt lat="45.26031" lon="4.60397">
        <ele>749.924788</ele>
        <time>2026-07-02T11:11:56.737Z</time>
      </trkpt>
      <trkpt lat="45.26023" lon="4.60389">
        <ele>750.189206</ele>
        <time>2026-07-02T11:12:00.740Z</time>
      </trkpt>
      <trkpt lat="45.26014" lon="4.60384">
        <ele>750.446677</ele>
        <time>2026-07-02T11:12:03.743Z</time>
      </trkpt>
      <trkpt lat="45.26005" lon="4.6038">
        <ele>750.690113</ele>
        <time>2026-07-02T11:12:06.741Z</time>
      </trkpt>
      <trkpt lat="45.25995" lon="4.60376">
        <ele>750.978111</ele>
        <time>2026-07-02T11:12:10.749Z</time>
      </trkpt>
      <trkpt lat="45.25984" lon="4.60373">
        <ele>751.511905</ele>
        <time>2026-07-02T11:12:14.736Z</time>
      </trkpt>
      <trkpt lat="45.25973" lon="4.60371">
        <ele>752.189849</ele>
        <time>2026-07-02T11:12:19.748Z</time>
      </trkpt>
      <trkpt lat="45.25963" lon="4.60369">
        <ele>752.857519</ele>
        <time>2026-07-02T11:12:24.737Z</time>
      </trkpt>
      <trkpt lat="45.25952" lon="4.60364">
        <ele>753.584351</ele>
        <time>2026-07-02T11:12:28.741Z</time>
      </trkpt>
      <trkpt lat="45.25943" lon="4.60355">
        <ele>754.28772</ele>
        <time>2026-07-02T11:12:32.700Z</time>
      </trkpt>
      <trkpt lat="45.25938" lon="4.60343">
        <ele>754.899244</ele>
        <time>2026-07-02T11:12:36.730Z</time>
      </trkpt>
      <trkpt lat="45.25935" lon="4.60329">
        <ele>755.543662</ele>
        <time>2026-07-02T11:12:40.760Z</time>
      </trkpt>
      <trkpt lat="45.2593" lon="4.60317">
        <ele>756.171778</ele>
        <time>2026-07-02T11:12:44.729Z</time>
      </trkpt>
      <trkpt lat="45.25926" lon="4.60303">
        <ele>756.824079</ele>
        <time>2026-07-02T11:12:48.818Z</time>
      </trkpt>
      <trkpt lat="45.25923" lon="4.60291">
        <ele>757.399797</ele>
        <time>2026-07-02T11:12:52.773Z</time>
      </trkpt>
      <trkpt lat="45.25918" lon="4.60279">
        <ele>757.982968</ele>
        <time>2026-07-02T11:12:56.705Z</time>
      </trkpt>
      <trkpt lat="45.25915" lon="4.60266">
        <ele>758.616458</ele>
        <time>2026-07-02T11:13:00.727Z</time>
      </trkpt>
      <trkpt lat="45.25911" lon="4.60252">
        <ele>759.274946</ele>
        <time>2026-07-02T11:13:04.754Z</time>
      </trkpt>
      <trkpt lat="45.25907" lon="4.60239">
        <ele>759.907844</ele>
        <time>2026-07-02T11:13:08.714Z</time>
      </trkpt>
      <trkpt lat="45.25905" lon="4.60226">
        <ele>760.509077</ele>
        <time>2026-07-02T11:13:12.701Z</time>
      </trkpt>
      <trkpt lat="45.25902" lon="4.60213">
        <ele>761.081857</ele>
        <time>2026-07-02T11:13:16.752Z</time>
      </trkpt>
      <trkpt lat="45.25901" lon="4.60198">
        <ele>761.770699</ele>
        <time>2026-07-02T11:13:21.778Z</time>
      </trkpt>
      <trkpt lat="45.259" lon="4.60183">
        <ele>762.441137</ele>
        <time>2026-07-02T11:13:26.712Z</time>
      </trkpt>
      <trkpt lat="45.25901" lon="4.60168">
        <ele>763.382252</ele>
        <time>2026-07-02T11:13:30.713Z</time>
      </trkpt>
      <trkpt lat="45.25905" lon="4.60155">
        <ele>764.193708</ele>
        <time>2026-07-02T11:13:33.810Z</time>
      </trkpt>
      <trkpt lat="45.25911" lon="4.60143">
        <ele>765.080407</ele>
        <time>2026-07-02T11:13:37.701Z</time>
      </trkpt>
      <trkpt lat="45.25919" lon="4.60136">
        <ele>765.927385</ele>
        <time>2026-07-02T11:13:41.718Z</time>
      </trkpt>
      <trkpt lat="45.25929" lon="4.60131">
        <ele>766.77313</ele>
        <time>2026-07-02T11:13:45.700Z</time>
      </trkpt>
      <trkpt lat="45.25939" lon="4.60129">
        <ele>767.680998</ele>
        <time>2026-07-02T11:13:49.699Z</time>
      </trkpt>
      <trkpt lat="45.2595" lon="4.60126">
        <ele>768.619142</ele>
        <time>2026-07-02T11:13:53.750Z</time>
      </trkpt>
      <trkpt lat="45.25959" lon="4.60124">
        <ele>769.422917</ele>
        <time>2026-07-02T11:13:57.713Z</time>
      </trkpt>
      <trkpt lat="45.25968" lon="4.60123">
        <ele>770.193905</ele>
        <time>2026-07-02T11:14:00.699Z</time>
      </trkpt>
      <trkpt lat="45.2598" lon="4.60125">
        <ele>771.217897</ele>
        <time>2026-07-02T11:14:04.708Z</time>
      </trkpt>
      <trkpt lat="45.2599" lon="4.60131">
        <ele>772.134239</ele>
        <time>2026-07-02T11:14:08.742Z</time>
      </trkpt>
      <trkpt lat="45.26" lon="4.60136">
        <ele>773.042444</ele>
        <time>2026-07-02T11:14:13.738Z</time>
      </trkpt>
      <trkpt lat="45.26009" lon="4.60142">
        <ele>773.858945</ele>
        <time>2026-07-02T11:14:17.742Z</time>
      </trkpt>
      <trkpt lat="45.26019" lon="4.60147">
        <ele>774.807243</ele>
        <time>2026-07-02T11:14:21.741Z</time>
      </trkpt>
      <trkpt lat="45.2603" lon="4.60147">
        <ele>775.747312</ele>
        <time>2026-07-02T11:14:25.743Z</time>
      </trkpt>
      <trkpt lat="45.26041" lon="4.60146">
        <ele>776.674614</ele>
        <time>2026-07-02T11:14:29.742Z</time>
      </trkpt>
      <trkpt lat="45.2605" lon="4.60139">
        <ele>777.529346</ele>
        <time>2026-07-02T11:14:34.726Z</time>
      </trkpt>
      <trkpt lat="45.26059" lon="4.60133">
        <ele>778.541155</ele>
        <time>2026-07-02T11:14:38.750Z</time>
      </trkpt>
      <trkpt lat="45.26068" lon="4.60126">
        <ele>779.542917</ele>
        <time>2026-07-02T11:14:43.706Z</time>
      </trkpt>
      <trkpt lat="45.26077" lon="4.60121">
        <ele>780.563982</ele>
        <time>2026-07-02T11:14:48.746Z</time>
      </trkpt>
      <trkpt lat="45.26084" lon="4.60112">
        <ele>781.528832</ele>
        <time>2026-07-02T11:14:53.704Z</time>
      </trkpt>
      <trkpt lat="45.26093" lon="4.60102">
        <ele>782.661967</ele>
        <time>2026-07-02T11:14:58.711Z</time>
      </trkpt>
      <trkpt lat="45.26102" lon="4.60093">
        <ele>783.825833</ele>
        <time>2026-07-02T11:15:03.731Z</time>
      </trkpt>
      <trkpt lat="45.2611" lon="4.60085">
        <ele>784.744393</ele>
        <time>2026-07-02T11:15:07.741Z</time>
      </trkpt>
      <trkpt lat="45.26116" lon="4.60074">
        <ele>785.789728</ele>
        <time>2026-07-02T11:15:12.751Z</time>
      </trkpt>
      <trkpt lat="45.26122" lon="4.60061">
        <ele>786.922472</ele>
        <time>2026-07-02T11:15:18.751Z</time>
      </trkpt>
      <trkpt lat="45.26129" lon="4.60051">
        <ele>787.894106</ele>
        <time>2026-07-02T11:15:23.746Z</time>
      </trkpt>
      <trkpt lat="45.26137" lon="4.6004">
        <ele>789.034207</ele>
        <time>2026-07-02T11:15:28.746Z</time>
      </trkpt>
      <trkpt lat="45.26145" lon="4.6003">
        <ele>790.181096</ele>
        <time>2026-07-02T11:15:33.734Z</time>
      </trkpt>
      <trkpt lat="45.26154" lon="4.60022">
        <ele>791.220278</ele>
        <time>2026-07-02T11:15:37.749Z</time>
      </trkpt>
      <trkpt lat="45.26162" lon="4.60015">
        <ele>792.220341</ele>
        <time>2026-07-02T11:15:41.747Z</time>
      </trkpt>
      <trkpt lat="45.26171" lon="4.60008">
        <ele>793.216941</ele>
        <time>2026-07-02T11:15:45.741Z</time>
      </trkpt>
      <trkpt lat="45.26181" lon="4.60001">
        <ele>794.316684</ele>
        <time>2026-07-02T11:15:49.737Z</time>
      </trkpt>
      <trkpt lat="45.26191" lon="4.59997">
        <ele>795.392929</ele>
        <time>2026-07-02T11:15:53.741Z</time>
      </trkpt>
      <trkpt lat="45.26201" lon="4.59994">
        <ele>796.482313</ele>
        <time>2026-07-02T11:15:57.743Z</time>
      </trkpt>
      <trkpt lat="45.26211" lon="4.59992">
        <ele>797.659053</ele>
        <time>2026-07-02T11:16:01.753Z</time>
      </trkpt>
      <trkpt lat="45.26222" lon="4.59988">
        <ele>798.829655</ele>
        <time>2026-07-02T11:16:06.750Z</time>
      </trkpt>
      <trkpt lat="45.2623" lon="4.59983">
        <ele>799.850222</ele>
        <time>2026-07-02T11:16:11.702Z</time>
      </trkpt>
      <trkpt lat="45.2624" lon="4.59983">
        <ele>800.908418</ele>
        <time>2026-07-02T11:16:15.696Z</time>
      </trkpt>
      <trkpt lat="45.2625" lon="4.59978">
        <ele>802.090405</ele>
        <time>2026-07-02T11:16:21.703Z</time>
      </trkpt>
      <trkpt lat="45.26261" lon="4.59975">
        <ele>803.292599</ele>
        <time>2026-07-02T11:16:26.696Z</time>
      </trkpt>
      <trkpt lat="45.26268" lon="4.59966">
        <ele>804.389907</ele>
        <time>2026-07-02T11:16:31.706Z</time>
      </trkpt>
      <trkpt lat="45.26277" lon="4.59959">
        <ele>805.472873</ele>
        <time>2026-07-02T11:16:37.699Z</time>
      </trkpt>
      <trkpt lat="45.26283" lon="4.59949">
        <ele>806.56508</ele>
        <time>2026-07-02T11:16:42.706Z</time>
      </trkpt>
      <trkpt lat="45.26286" lon="4.59936">
        <ele>807.558368</ele>
        <time>2026-07-02T11:16:46.696Z</time>
      </trkpt>
      <trkpt lat="45.26289" lon="4.59922">
        <ele>808.73706</ele>
        <time>2026-07-02T11:16:51.704Z</time>
      </trkpt>
      <trkpt lat="45.26293" lon="4.59908">
        <ele>809.872594</ele>
        <time>2026-07-02T11:16:55.699Z</time>
      </trkpt>
      <trkpt lat="45.26296" lon="4.59894">
        <ele>811.01429</ele>
        <time>2026-07-02T11:17:00.700Z</time>
      </trkpt>
      <trkpt lat="45.263" lon="4.59882">
        <ele>812.086693</ele>
        <time>2026-07-02T11:17:05.736Z</time>
      </trkpt>
      <trkpt lat="45.26302" lon="4.59866">
        <ele>813.349448</ele>
        <time>2026-07-02T11:17:10.735Z</time>
      </trkpt>
      <trkpt lat="45.26303" lon="4.59852">
        <ele>814.441214</ele>
        <time>2026-07-02T11:17:15.715Z</time>
      </trkpt>
      <trkpt lat="45.263" lon="4.59839">
        <ele>815.499379</ele>
        <time>2026-07-02T11:17:23.738Z</time>
      </trkpt>
      <trkpt lat="45.26293" lon="4.59827">
        <ele>816.083519</ele>
        <time>2026-07-02T11:17:27.737Z</time>
      </trkpt>
      <trkpt lat="45.26289" lon="4.59815">
        <ele>816.286193</ele>
        <time>2026-07-02T11:17:31.733Z</time>
      </trkpt>
      <trkpt lat="45.26287" lon="4.598">
        <ele>816.512455</ele>
        <time>2026-07-02T11:17:35.746Z</time>
      </trkpt>
      <trkpt lat="45.26284" lon="4.59786">
        <ele>816.725416</ele>
        <time>2026-07-02T11:17:39.745Z</time>
      </trkpt>
      <trkpt lat="45.26279" lon="4.59773">
        <ele>816.94485</ele>
        <time>2026-07-02T11:17:44.743Z</time>
      </trkpt>
      <trkpt lat="45.26274" lon="4.5976">
        <ele>817.154151</ele>
        <time>2026-07-02T11:17:48.744Z</time>
      </trkpt>
      <trkpt lat="45.26271" lon="4.59746">
        <ele>817.364661</ele>
        <time>2026-07-02T11:17:52.750Z</time>
      </trkpt>
      <trkpt lat="45.26269" lon="4.59731">
        <ele>817.593083</ele>
        <time>2026-07-02T11:17:55.741Z</time>
      </trkpt>
      <trkpt lat="45.26268" lon="4.59715">
        <ele>817.825847</ele>
        <time>2026-07-02T11:17:59.749Z</time>
      </trkpt>
      <trkpt lat="45.26267" lon="4.59698">
        <ele>818.07766</ele>
        <time>2026-07-02T11:18:03.740Z</time>
      </trkpt>
      <trkpt lat="45.26267" lon="4.59684">
        <ele>818.283185</ele>
        <time>2026-07-02T11:18:07.744Z</time>
      </trkpt>
      <trkpt lat="45.26264" lon="4.59668">
        <ele>818.521092</ele>
        <time>2026-07-02T11:18:12.747Z</time>
      </trkpt>
      <trkpt lat="45.26262" lon="4.59655">
        <ele>818.71911</ele>
        <time>2026-07-02T11:18:16.748Z</time>
      </trkpt>
      <trkpt lat="45.26256" lon="4.59642">
        <ele>818.950261</ele>
        <time>2026-07-02T11:18:21.735Z</time>
      </trkpt>
      <trkpt lat="45.2625" lon="4.59629">
        <ele>819.169697</ele>
        <time>2026-07-02T11:18:26.749Z</time>
      </trkpt>
      <trkpt lat="45.26243" lon="4.59618">
        <ele>819.388424</ele>
        <time>2026-07-02T11:18:31.699Z</time>
      </trkpt>
      <trkpt lat="45.26233" lon="4.59617">
        <ele>819.590206</ele>
        <time>2026-07-02T11:18:36.739Z</time>
      </trkpt>
      <trkpt lat="45.26225" lon="4.59611">
        <ele>820.042719</ele>
        <time>2026-07-02T11:18:40.716Z</time>
      </trkpt>
      <trkpt lat="45.2622" lon="4.59599">
        <ele>820.704927</ele>
        <time>2026-07-02T11:18:43.740Z</time>
      </trkpt>
      <trkpt lat="45.26217" lon="4.59586">
        <ele>821.413949</ele>
        <time>2026-07-02T11:18:46.740Z</time>
      </trkpt>
      <trkpt lat="45.26214" lon="4.59571">
        <ele>822.173305</ele>
        <time>2026-07-02T11:18:49.741Z</time>
      </trkpt>
      <trkpt lat="45.26211" lon="4.59556">
        <ele>822.954642</ele>
        <time>2026-07-02T11:18:53.742Z</time>
      </trkpt>
      <trkpt lat="45.2621" lon="4.59543">
        <ele>823.619042</ele>
        <time>2026-07-02T11:18:56.744Z</time>
      </trkpt>
      <trkpt lat="45.2621" lon="4.59527">
        <ele>824.389213</ele>
        <time>2026-07-02T11:19:00.734Z</time>
      </trkpt>
      <trkpt lat="45.26209" lon="4.59514">
        <ele>825.033007</ele>
        <time>2026-07-02T11:19:04.741Z</time>
      </trkpt>
      <trkpt lat="45.26209" lon="4.59501">
        <ele>825.697865</ele>
        <time>2026-07-02T11:19:08.741Z</time>
      </trkpt>
      <trkpt lat="45.26209" lon="4.59488">
        <ele>826.333895</ele>
        <time>2026-07-02T11:19:12.743Z</time>
      </trkpt>
      <trkpt lat="45.26211" lon="4.59473">
        <ele>827.091332</ele>
        <time>2026-07-02T11:19:16.729Z</time>
      </trkpt>
      <trkpt lat="45.26213" lon="4.5946">
        <ele>827.738935</ele>
        <time>2026-07-02T11:19:20.742Z</time>
      </trkpt>
      <trkpt lat="45.26215" lon="4.59445">
        <ele>828.500436</ele>
        <time>2026-07-02T11:19:25.739Z</time>
      </trkpt>
      <trkpt lat="45.26217" lon="4.59433">
        <ele>829.136425</ele>
        <time>2026-07-02T11:19:29.741Z</time>
      </trkpt>
      <trkpt lat="45.26218" lon="4.59419">
        <ele>829.803499</ele>
        <time>2026-07-02T11:19:34.740Z</time>
      </trkpt>
      <trkpt lat="45.26221" lon="4.59405">
        <ele>830.518391</ele>
        <time>2026-07-02T11:19:39.743Z</time>
      </trkpt>
      <trkpt lat="45.26225" lon="4.59391">
        <ele>831.29554</ele>
        <time>2026-07-02T11:19:45.743Z</time>
      </trkpt>
      <trkpt lat="45.2623" lon="4.59379">
        <ele>831.967422</ele>
        <time>2026-07-02T11:19:49.745Z</time>
      </trkpt>
      <trkpt lat="45.26236" lon="4.59367">
        <ele>832.796355</ele>
        <time>2026-07-02T11:19:53.741Z</time>
      </trkpt>
      <trkpt lat="45.26241" lon="4.59354">
        <ele>833.643602</ele>
        <time>2026-07-02T11:19:58.743Z</time>
      </trkpt>
      <trkpt lat="45.26246" lon="4.59343">
        <ele>834.405277</ele>
        <time>2026-07-02T11:20:02.741Z</time>
      </trkpt>
      <trkpt lat="45.26252" lon="4.59332">
        <ele>835.19916</ele>
        <time>2026-07-02T11:20:07.744Z</time>
      </trkpt>
      <trkpt lat="45.26257" lon="4.59321">
        <ele>835.984711</ele>
        <time>2026-07-02T11:20:12.741Z</time>
      </trkpt>
      <trkpt lat="45.26262" lon="4.5931">
        <ele>836.764312</ele>
        <time>2026-07-02T11:20:17.740Z</time>
      </trkpt>
      <trkpt lat="45.26267" lon="4.59299">
        <ele>837.515151</ele>
        <time>2026-07-02T11:20:23.743Z</time>
      </trkpt>
      <trkpt lat="45.26271" lon="4.59287">
        <ele>838.337601</ele>
        <time>2026-07-02T11:20:29.708Z</time>
      </trkpt>
      <trkpt lat="45.26268" lon="4.59273">
        <ele>839.195921</ele>
        <time>2026-07-02T11:20:35.743Z</time>
      </trkpt>
      <trkpt lat="45.26265" lon="4.5926">
        <ele>839.966401</ele>
        <time>2026-07-02T11:20:40.743Z</time>
      </trkpt>
      <trkpt lat="45.26262" lon="4.59246">
        <ele>840.867125</ele>
        <time>2026-07-02T11:20:44.742Z</time>
      </trkpt>
      <trkpt lat="45.26262" lon="4.59229">
        <ele>841.815858</ele>
        <time>2026-07-02T11:20:48.741Z</time>
      </trkpt>
      <trkpt lat="45.26264" lon="4.59217">
        <ele>842.577649</ele>
        <time>2026-07-02T11:20:51.746Z</time>
      </trkpt>
      <trkpt lat="45.26264" lon="4.59201">
        <ele>843.472436</ele>
        <time>2026-07-02T11:20:55.749Z</time>
      </trkpt>
      <trkpt lat="45.26262" lon="4.59186">
        <ele>844.373869</ele>
        <time>2026-07-02T11:20:59.747Z</time>
      </trkpt>
      <trkpt lat="45.26259" lon="4.59172">
        <ele>845.251424</ele>
        <time>2026-07-02T11:21:03.742Z</time>
      </trkpt>
      <trkpt lat="45.26255" lon="4.5916">
        <ele>846.005008</ele>
        <time>2026-07-02T11:21:07.742Z</time>
      </trkpt>
      <trkpt lat="45.26252" lon="4.59148">
        <ele>846.782895</ele>
        <time>2026-07-02T11:21:11.738Z</time>
      </trkpt>
      <trkpt lat="45.26246" lon="4.59135">
        <ele>847.697051</ele>
        <time>2026-07-02T11:21:17.723Z</time>
      </trkpt>
      <trkpt lat="45.26241" lon="4.59124">
        <ele>848.490205</ele>
        <time>2026-07-02T11:21:22.739Z</time>
      </trkpt>
      <trkpt lat="45.26238" lon="4.59111">
        <ele>849.323925</ele>
        <time>2026-07-02T11:21:26.741Z</time>
      </trkpt>
      <trkpt lat="45.26234" lon="4.59096">
        <ele>850.282133</ele>
        <time>2026-07-02T11:21:31.745Z</time>
      </trkpt>
      <trkpt lat="45.2623" lon="4.59082">
        <ele>851.246939</ele>
        <time>2026-07-02T11:21:37.739Z</time>
      </trkpt>
      <trkpt lat="45.26225" lon="4.5907">
        <ele>852.095241</ele>
        <time>2026-07-02T11:21:41.741Z</time>
      </trkpt>
      <trkpt lat="45.26221" lon="4.59057">
        <ele>853.006793</ele>
        <time>2026-07-02T11:21:45.743Z</time>
      </trkpt>
      <trkpt lat="45.26215" lon="4.59042">
        <ele>854.009622</ele>
        <time>2026-07-02T11:21:50.738Z</time>
      </trkpt>
      <trkpt lat="45.26214" lon="4.59027">
        <ele>854.966398</ele>
        <time>2026-07-02T11:21:55.741Z</time>
      </trkpt>
      <trkpt lat="45.26213" lon="4.59011">
        <ele>855.956468</ele>
        <time>2026-07-02T11:21:59.743Z</time>
      </trkpt>
      <trkpt lat="45.26212" lon="4.58996">
        <ele>856.86582</ele>
        <time>2026-07-02T11:22:04.744Z</time>
      </trkpt>
      <trkpt lat="45.26208" lon="4.58981">
        <ele>857.850351</ele>
        <time>2026-07-02T11:22:10.753Z</time>
      </trkpt>
      <trkpt lat="45.26202" lon="4.58968">
        <ele>858.788431</ele>
        <time>2026-07-02T11:22:14.737Z</time>
      </trkpt>
      <trkpt lat="45.26193" lon="4.58958">
        <ele>859.815791</ele>
        <time>2026-07-02T11:22:20.739Z</time>
      </trkpt>
      <trkpt lat="45.26185" lon="4.5895">
        <ele>860.640014</ele>
        <time>2026-07-02T11:22:24.737Z</time>
      </trkpt>
      <trkpt lat="45.26178" lon="4.5894">
        <ele>861.503277</ele>
        <time>2026-07-02T11:22:28.743Z</time>
      </trkpt>
      <trkpt lat="45.26172" lon="4.58928">
        <ele>862.40217</ele>
        <time>2026-07-02T11:22:33.747Z</time>
      </trkpt>
      <trkpt lat="45.26166" lon="4.58919">
        <ele>863.065035</ele>
        <time>2026-07-02T11:22:39.738Z</time>
      </trkpt>
      <trkpt lat="45.26159" lon="4.58907">
        <ele>863.35422</ele>
        <time>2026-07-02T11:22:45.739Z</time>
      </trkpt>
      <trkpt lat="45.26152" lon="4.58897">
        <ele>863.643012</ele>
        <time>2026-07-02T11:22:50.744Z</time>
      </trkpt>
      <trkpt lat="45.26146" lon="4.58885">
        <ele>863.934998</ele>
        <time>2026-07-02T11:22:54.747Z</time>
      </trkpt>
      <trkpt lat="45.26141" lon="4.58872">
        <ele>864.237792</ele>
        <time>2026-07-02T11:22:58.743Z</time>
      </trkpt>
      <trkpt lat="45.26135" lon="4.58859">
        <ele>864.564384</ele>
        <time>2026-07-02T11:23:03.746Z</time>
      </trkpt>
      <trkpt lat="45.26131" lon="4.58842">
        <ele>864.92165</ele>
        <time>2026-07-02T11:23:07.744Z</time>
      </trkpt>
      <trkpt lat="45.26132" lon="4.58829">
        <ele>865.188286</ele>
        <time>2026-07-02T11:23:10.751Z</time>
      </trkpt>
      <trkpt lat="45.26139" lon="4.58818">
        <ele>865.481701</ele>
        <time>2026-07-02T11:23:14.743Z</time>
      </trkpt>
      <trkpt lat="45.26146" lon="4.5881">
        <ele>865.743452</ele>
        <time>2026-07-02T11:23:17.744Z</time>
      </trkpt>
      <trkpt lat="45.26157" lon="4.58806">
        <ele>866.078551</ele>
        <time>2026-07-02T11:23:21.747Z</time>
      </trkpt>
      <trkpt lat="45.26167" lon="4.58803">
        <ele>866.359792</ele>
        <time>2026-07-02T11:23:25.746Z</time>
      </trkpt>
      <trkpt lat="45.26175" lon="4.58795">
        <ele>866.645844</ele>
        <time>2026-07-02T11:23:29.738Z</time>
      </trkpt>
      <trkpt lat="45.26183" lon="4.58789">
        <ele>866.905078</ele>
        <time>2026-07-02T11:23:32.735Z</time>
      </trkpt>
      <trkpt lat="45.26192" lon="4.58784">
        <ele>867.181619</ele>
        <time>2026-07-02T11:23:35.743Z</time>
      </trkpt>
      <trkpt lat="45.26201" lon="4.5878">
        <ele>867.451852</ele>
        <time>2026-07-02T11:23:38.743Z</time>
      </trkpt>
      <trkpt lat="45.26212" lon="4.58774">
        <ele>867.792182</ele>
        <time>2026-07-02T11:23:41.737Z</time>
      </trkpt>
      <trkpt lat="45.26222" lon="4.58767">
        <ele>868.110891</ele>
        <time>2026-07-02T11:23:44.747Z</time>
      </trkpt>
      <trkpt lat="45.26231" lon="4.5876">
        <ele>868.482225</ele>
        <time>2026-07-02T11:23:47.739Z</time>
      </trkpt>
      <trkpt lat="45.26242" lon="4.5875">
        <ele>868.953332</ele>
        <time>2026-07-02T11:23:50.736Z</time>
      </trkpt>
      <trkpt lat="45.26253" lon="4.58742">
        <ele>869.410755</ele>
        <time>2026-07-02T11:23:53.736Z</time>
      </trkpt>
      <trkpt lat="45.26263" lon="4.58735">
        <ele>869.824437</ele>
        <time>2026-07-02T11:23:56.745Z</time>
      </trkpt>
      <trkpt lat="45.26273" lon="4.58726">
        <ele>870.247098</ele>
        <time>2026-07-02T11:23:59.741Z</time>
      </trkpt>
      <trkpt lat="45.26282" lon="4.58716">
        <ele>870.669758</ele>
        <time>2026-07-02T11:24:02.743Z</time>
      </trkpt>
      <trkpt lat="45.26292" lon="4.58707">
        <ele>871.093881</ele>
        <time>2026-07-02T11:24:05.742Z</time>
      </trkpt>
      <trkpt lat="45.26301" lon="4.58699">
        <ele>871.487286</ele>
        <time>2026-07-02T11:24:08.739Z</time>
      </trkpt>
      <trkpt lat="45.2631" lon="4.58689">
        <ele>871.917366</ele>
        <time>2026-07-02T11:24:11.740Z</time>
      </trkpt>
      <trkpt lat="45.26322" lon="4.58682">
        <ele>872.38407</ele>
        <time>2026-07-02T11:24:14.748Z</time>
      </trkpt>
      <trkpt lat="45.26332" lon="4.58676">
        <ele>872.801608</ele>
        <time>2026-07-02T11:24:17.744Z</time>
      </trkpt>
      <trkpt lat="45.26342" lon="4.58671">
        <ele>873.170601</ele>
        <time>2026-07-02T11:24:19.740Z</time>
      </trkpt>
      <trkpt lat="45.26351" lon="4.58665">
        <ele>873.526146</ele>
        <time>2026-07-02T11:24:21.743Z</time>
      </trkpt>
      <trkpt lat="45.2636" lon="4.5866">
        <ele>873.896818</ele>
        <time>2026-07-02T11:24:23.743Z</time>
      </trkpt>
      <trkpt lat="45.26369" lon="4.58657">
        <ele>874.246948</ele>
        <time>2026-07-02T11:24:25.737Z</time>
      </trkpt>
      <trkpt lat="45.26381" lon="4.5865">
        <ele>874.703883</ele>
        <time>2026-07-02T11:24:28.741Z</time>
      </trkpt>
      <trkpt lat="45.26391" lon="4.58643">
        <ele>875.291775</ele>
        <time>2026-07-02T11:24:31.742Z</time>
      </trkpt>
      <trkpt lat="45.26401" lon="4.58636">
        <ele>875.905819</ele>
        <time>2026-07-02T11:24:34.737Z</time>
      </trkpt>
      <trkpt lat="45.26413" lon="4.58625">
        <ele>876.62347</ele>
        <time>2026-07-02T11:24:37.737Z</time>
      </trkpt>
      <trkpt lat="45.26422" lon="4.5862">
        <ele>877.150461</ele>
        <time>2026-07-02T11:24:39.742Z</time>
      </trkpt>
      <trkpt lat="45.26431" lon="4.58614">
        <ele>877.711194</ele>
        <time>2026-07-02T11:24:41.744Z</time>
      </trkpt>
      <trkpt lat="45.26438" lon="4.58605">
        <ele>878.209656</ele>
        <time>2026-07-02T11:24:43.739Z</time>
      </trkpt>
      <trkpt lat="45.26443" lon="4.58594">
        <ele>878.694336</ele>
        <time>2026-07-02T11:24:45.743Z</time>
      </trkpt>
      <trkpt lat="45.26444" lon="4.58581">
        <ele>879.178821</ele>
        <time>2026-07-02T11:24:47.739Z</time>
      </trkpt>
      <trkpt lat="45.26448" lon="4.58566">
        <ele>879.795329</ele>
        <time>2026-07-02T11:24:50.743Z</time>
      </trkpt>
      <trkpt lat="45.26452" lon="4.58548">
        <ele>880.497009</ele>
        <time>2026-07-02T11:24:53.744Z</time>
      </trkpt>
      <trkpt lat="45.26457" lon="4.58531">
        <ele>881.205736</ele>
        <time>2026-07-02T11:24:56.740Z</time>
      </trkpt>
      <trkpt lat="45.26459" lon="4.58512">
        <ele>881.926099</ele>
        <time>2026-07-02T11:24:59.719Z</time>
      </trkpt>
      <trkpt lat="45.26457" lon="4.58496">
        <ele>882.538889</ele>
        <time>2026-07-02T11:25:02.750Z</time>
      </trkpt>
      <trkpt lat="45.26452" lon="4.5848">
        <ele>883.20322</ele>
        <time>2026-07-02T11:25:05.744Z</time>
      </trkpt>
      <trkpt lat="45.26445" lon="4.58466">
        <ele>883.836082</ele>
        <time>2026-07-02T11:25:08.727Z</time>
      </trkpt>
      <trkpt lat="45.26439" lon="4.58456">
        <ele>884.330718</ele>
        <time>2026-07-02T11:25:11.742Z</time>
      </trkpt>
      <trkpt lat="45.26434" lon="4.58442">
        <ele>884.844506</ele>
        <time>2026-07-02T11:25:14.706Z</time>
      </trkpt>
      <trkpt lat="45.26429" lon="4.5843">
        <ele>885.294299</ele>
        <time>2026-07-02T11:25:17.735Z</time>
      </trkpt>
      <trkpt lat="45.26422" lon="4.58416">
        <ele>885.852194</ele>
        <time>2026-07-02T11:25:21.729Z</time>
      </trkpt>
      <trkpt lat="45.26418" lon="4.58402">
        <ele>886.335628</ele>
        <time>2026-07-02T11:25:24.737Z</time>
      </trkpt>
      <trkpt lat="45.26413" lon="4.58388">
        <ele>886.833246</ele>
        <time>2026-07-02T11:25:28.748Z</time>
      </trkpt>
      <trkpt lat="45.26406" lon="4.58377">
        <ele>887.344831</ele>
        <time>2026-07-02T11:25:33.714Z</time>
      </trkpt>
      <trkpt lat="45.26399" lon="4.58368">
        <ele>887.757211</ele>
        <time>2026-07-02T11:25:37.746Z</time>
      </trkpt>
      <trkpt lat="45.26388" lon="4.58363">
        <ele>888.309583</ele>
        <time>2026-07-02T11:25:42.744Z</time>
      </trkpt>
      <trkpt lat="45.26382" lon="4.58352">
        <ele>888.743389</ele>
        <time>2026-07-02T11:25:45.739Z</time>
      </trkpt>
      <trkpt lat="45.26375" lon="4.58342">
        <ele>889.220502</ele>
        <time>2026-07-02T11:25:48.751Z</time>
      </trkpt>
      <trkpt lat="45.26368" lon="4.58332">
        <ele>889.676231</ele>
        <time>2026-07-02T11:25:51.735Z</time>
      </trkpt>
      <trkpt lat="45.26361" lon="4.58322">
        <ele>890.111543</ele>
        <time>2026-07-02T11:25:54.743Z</time>
      </trkpt>
      <trkpt lat="45.26355" lon="4.58311">
        <ele>890.575851</ele>
        <time>2026-07-02T11:25:57.737Z</time>
      </trkpt>
      <trkpt lat="45.26349" lon="4.58298">
        <ele>891.065508</ele>
        <time>2026-07-02T11:26:00.739Z</time>
      </trkpt>
      <trkpt lat="45.26345" lon="4.58285">
        <ele>891.538255</ele>
        <time>2026-07-02T11:26:03.746Z</time>
      </trkpt>
      <trkpt lat="45.26344" lon="4.58269">
        <ele>892.035929</ele>
        <time>2026-07-02T11:26:07.739Z</time>
      </trkpt>
      <trkpt lat="45.26344" lon="4.58255">
        <ele>892.489098</ele>
        <time>2026-07-02T11:26:11.740Z</time>
      </trkpt>
      <trkpt lat="45.26344" lon="4.58241">
        <ele>892.978011</ele>
        <time>2026-07-02T11:26:15.718Z</time>
      </trkpt>
      <trkpt lat="45.26345" lon="4.58228">
        <ele>893.475432</ele>
        <time>2026-07-02T11:26:19.739Z</time>
      </trkpt>
      <trkpt lat="45.26348" lon="4.58213">
        <ele>894.015653</ele>
        <time>2026-07-02T11:26:23.745Z</time>
      </trkpt>
      <trkpt lat="45.2635" lon="4.58201">
        <ele>894.490845</ele>
        <time>2026-07-02T11:26:27.747Z</time>
      </trkpt>
      <trkpt lat="45.26354" lon="4.58185">
        <ele>895.090028</ele>
        <time>2026-07-02T11:26:31.745Z</time>
      </trkpt>
      <trkpt lat="45.26356" lon="4.58172">
        <ele>895.60301</ele>
        <time>2026-07-02T11:26:35.746Z</time>
      </trkpt>
      <trkpt lat="45.26359" lon="4.58157">
        <ele>896.155088</ele>
        <time>2026-07-02T11:26:39.746Z</time>
      </trkpt>
      <trkpt lat="45.26363" lon="4.58146">
        <ele>896.621375</ele>
        <time>2026-07-02T11:26:42.744Z</time>
      </trkpt>
      <trkpt lat="45.2637" lon="4.58134">
        <ele>897.19495</ele>
        <time>2026-07-02T11:26:46.738Z</time>
      </trkpt>
      <trkpt lat="45.26373" lon="4.58119">
        <ele>897.735438</ele>
        <time>2026-07-02T11:26:50.744Z</time>
      </trkpt>
      <trkpt lat="45.26376" lon="4.58103">
        <ele>898.3399</ele>
        <time>2026-07-02T11:26:54.738Z</time>
      </trkpt>
      <trkpt lat="45.26375" lon="4.5809">
        <ele>898.836641</ele>
        <time>2026-07-02T11:26:58.739Z</time>
      </trkpt>
      <trkpt lat="45.26374" lon="4.58075">
        <ele>899.381787</ele>
        <time>2026-07-02T11:27:02.749Z</time>
      </trkpt>
      <trkpt lat="45.26375" lon="4.58061">
        <ele>899.897999</ele>
        <time>2026-07-02T11:27:06.739Z</time>
      </trkpt>
      <trkpt lat="45.2638" lon="4.58048">
        <ele>900.43391</ele>
        <time>2026-07-02T11:27:10.735Z</time>
      </trkpt>
      <trkpt lat="45.26387" lon="4.58038">
        <ele>900.927445</ele>
        <time>2026-07-02T11:27:14.724Z</time>
      </trkpt>
      <trkpt lat="45.26395" lon="4.58029">
        <ele>901.465305</ele>
        <time>2026-07-02T11:27:18.741Z</time>
      </trkpt>
      <trkpt lat="45.26403" lon="4.5802">
        <ele>901.983724</ele>
        <time>2026-07-02T11:27:22.742Z</time>
      </trkpt>
      <trkpt lat="45.26411" lon="4.5801">
        <ele>903.037643</ele>
        <time>2026-07-02T11:27:26.743Z</time>
      </trkpt>
      <trkpt lat="45.26419" lon="4.58001">
        <ele>903.993063</ele>
        <time>2026-07-02T11:27:30.746Z</time>
      </trkpt>
      <trkpt lat="45.26426" lon="4.57992">
        <ele>904.8936</ele>
        <time>2026-07-02T11:27:34.746Z</time>
      </trkpt>
      <trkpt lat="45.26433" lon="4.57985">
        <ele>905.765691</ele>
        <time>2026-07-02T11:27:38.744Z</time>
      </trkpt>
      <trkpt lat="45.26443" lon="4.57978">
        <ele>906.83975</ele>
        <time>2026-07-02T11:27:43.738Z</time>
      </trkpt>
      <trkpt lat="45.26452" lon="4.57972">
        <ele>907.791903</ele>
        <time>2026-07-02T11:27:47.744Z</time>
      </trkpt>
      <trkpt lat="45.26462" lon="4.57966">
        <ele>908.820038</ele>
        <time>2026-07-02T11:27:51.740Z</time>
      </trkpt>
      <trkpt lat="45.26471" lon="4.57962">
        <ele>909.769101</ele>
        <time>2026-07-02T11:27:55.733Z</time>
      </trkpt>
      <trkpt lat="45.26482" lon="4.57957">
        <ele>910.827623</ele>
        <time>2026-07-02T11:27:59.744Z</time>
      </trkpt>
      <trkpt lat="45.26491" lon="4.57952">
        <ele>911.753825</ele>
        <time>2026-07-02T11:28:03.742Z</time>
      </trkpt>
      <trkpt lat="45.265" lon="4.57944">
        <ele>912.797653</ele>
        <time>2026-07-02T11:28:10.741Z</time>
      </trkpt>
      <trkpt lat="45.26509" lon="4.57938">
        <ele>913.781626</ele>
        <time>2026-07-02T11:28:15.701Z</time>
      </trkpt>
      <trkpt lat="45.26515" lon="4.57926">
        <ele>914.769805</ele>
        <time>2026-07-02T11:28:21.737Z</time>
      </trkpt>
      <trkpt lat="45.26522" lon="4.57915">
        <ele>915.7626</ele>
        <time>2026-07-02T11:28:26.741Z</time>
      </trkpt>
      <trkpt lat="45.26527" lon="4.57902">
        <ele>916.789219</ele>
        <time>2026-07-02T11:28:31.738Z</time>
      </trkpt>
      <trkpt lat="45.26533" lon="4.5789">
        <ele>917.809822</ele>
        <time>2026-07-02T11:28:35.741Z</time>
      </trkpt>
      <trkpt lat="45.26539" lon="4.57878">
        <ele>918.785808</ele>
        <time>2026-07-02T11:28:39.720Z</time>
      </trkpt>
      <trkpt lat="45.26545" lon="4.57865">
        <ele>919.460992</ele>
        <time>2026-07-02T11:28:44.745Z</time>
      </trkpt>
      <trkpt lat="45.26551" lon="4.57851">
        <ele>919.762305</ele>
        <time>2026-07-02T11:28:49.744Z</time>
      </trkpt>
      <trkpt lat="45.26555" lon="4.57838">
        <ele>920.039529</ele>
        <time>2026-07-02T11:28:54.695Z</time>
      </trkpt>
      <trkpt lat="45.26558" lon="4.57824">
        <ele>920.309276</ele>
        <time>2026-07-02T11:28:59.738Z</time>
      </trkpt>
      <trkpt lat="45.2656" lon="4.57811">
        <ele>920.556961</ele>
        <time>2026-07-02T11:29:03.744Z</time>
      </trkpt>
      <trkpt lat="45.26566" lon="4.57799">
        <ele>920.836705</ele>
        <time>2026-07-02T11:29:06.749Z</time>
      </trkpt>
      <trkpt lat="45.26572" lon="4.57788">
        <ele>921.094127</ele>
        <time>2026-07-02T11:29:10.741Z</time>
      </trkpt>
      <trkpt lat="45.26579" lon="4.57778">
        <ele>921.351173</ele>
        <time>2026-07-02T11:29:14.744Z</time>
      </trkpt>
      <trkpt lat="45.26583" lon="4.57767">
        <ele>921.601592</ele>
        <time>2026-07-02T11:29:18.742Z</time>
      </trkpt>
      <trkpt lat="45.26588" lon="4.57755">
        <ele>921.858677</ele>
        <time>2026-07-02T11:29:22.738Z</time>
      </trkpt>
      <trkpt lat="45.26592" lon="4.57742">
        <ele>922.114085</ele>
        <time>2026-07-02T11:29:26.738Z</time>
      </trkpt>
      <trkpt lat="45.26594" lon="4.57729">
        <ele>922.367199</ele>
        <time>2026-07-02T11:29:30.738Z</time>
      </trkpt>
      <trkpt lat="45.26599" lon="4.57715">
        <ele>922.660388</ele>
        <time>2026-07-02T11:29:35.742Z</time>
      </trkpt>
      <trkpt lat="45.26602" lon="4.577">
        <ele>922.955077</ele>
        <time>2026-07-02T11:29:40.741Z</time>
      </trkpt>
      <trkpt lat="45.26605" lon="4.57686">
        <ele>923.223886</ele>
        <time>2026-07-02T11:29:44.742Z</time>
      </trkpt>
      <trkpt lat="45.26608" lon="4.57671">
        <ele>923.520803</ele>
        <time>2026-07-02T11:29:48.742Z</time>
      </trkpt>
      <trkpt lat="45.2661" lon="4.57659">
        <ele>923.766384</ele>
        <time>2026-07-02T11:29:51.746Z</time>
      </trkpt>
      <trkpt lat="45.26613" lon="4.57643">
        <ele>924.060177</ele>
        <time>2026-07-02T11:29:55.745Z</time>
      </trkpt>
      <trkpt lat="45.26616" lon="4.5763">
        <ele>924.755611</ele>
        <time>2026-07-02T11:29:59.740Z</time>
      </trkpt>
      <trkpt lat="45.26617" lon="4.57616">
        <ele>925.531091</ele>
        <time>2026-07-02T11:30:04.746Z</time>
      </trkpt>
      <trkpt lat="45.26623" lon="4.57603">
        <ele>926.362272</ele>
        <time>2026-07-02T11:30:07.752Z</time>
      </trkpt>
      <trkpt lat="45.26628" lon="4.57588">
        <ele>927.305872</ele>
        <time>2026-07-02T11:30:11.741Z</time>
      </trkpt>
      <trkpt lat="45.26631" lon="4.57575">
        <ele>928.061963</ele>
        <time>2026-07-02T11:30:15.740Z</time>
      </trkpt>
      <trkpt lat="45.26635" lon="4.57564">
        <ele>928.790031</ele>
        <time>2026-07-02T11:30:19.741Z</time>
      </trkpt>
      <trkpt lat="45.26637" lon="4.57551">
        <ele>929.539276</ele>
        <time>2026-07-02T11:30:23.741Z</time>
      </trkpt>
      <trkpt lat="45.26641" lon="4.57536">
        <ele>930.412021</ele>
        <time>2026-07-02T11:30:28.737Z</time>
      </trkpt>
      <trkpt lat="45.26645" lon="4.57522">
        <ele>931.264049</ele>
        <time>2026-07-02T11:30:32.700Z</time>
      </trkpt>
      <trkpt lat="45.26647" lon="4.57508">
        <ele>932.089513</ele>
        <time>2026-07-02T11:30:36.738Z</time>
      </trkpt>
      <trkpt lat="45.26648" lon="4.57493">
        <ele>932.906391</ele>
        <time>2026-07-02T11:30:41.738Z</time>
      </trkpt>
      <trkpt lat="45.26648" lon="4.57479">
        <ele>933.710614</ele>
        <time>2026-07-02T11:30:45.734Z</time>
      </trkpt>
      <trkpt lat="45.26646" lon="4.57465">
        <ele>934.541596</ele>
        <time>2026-07-02T11:30:49.738Z</time>
      </trkpt>
      <trkpt lat="45.26644" lon="4.5745">
        <ele>935.361544</ele>
        <time>2026-07-02T11:30:53.742Z</time>
      </trkpt>
      <trkpt lat="45.2664" lon="4.57437">
        <ele>936.15769</ele>
        <time>2026-07-02T11:30:57.742Z</time>
      </trkpt>
      <trkpt lat="45.26638" lon="4.57423">
        <ele>936.957807</ele>
        <time>2026-07-02T11:31:01.741Z</time>
      </trkpt>
      <trkpt lat="45.26635" lon="4.57411">
        <ele>937.700549</ele>
        <time>2026-07-02T11:31:05.740Z</time>
      </trkpt>
      <trkpt lat="45.2663" lon="4.574">
        <ele>938.419229</ele>
        <time>2026-07-02T11:31:09.733Z</time>
      </trkpt>
      <trkpt lat="45.26626" lon="4.57388">
        <ele>938.834539</ele>
        <time>2026-07-02T11:31:14.811Z</time>
      </trkpt>
      <trkpt lat="45.26622" lon="4.57373">
        <ele>939.28679</ele>
        <time>2026-07-02T11:31:19.697Z</time>
      </trkpt>
      <trkpt lat="45.26621" lon="4.57359">
        <ele>939.688807</ele>
        <time>2026-07-02T11:31:22.699Z</time>
      </trkpt>
      <trkpt lat="45.26618" lon="4.57346">
        <ele>940.06969</ele>
        <time>2026-07-02T11:31:25.705Z</time>
      </trkpt>
      <trkpt lat="45.26617" lon="4.57332">
        <ele>940.473922</ele>
        <time>2026-07-02T11:31:28.746Z</time>
      </trkpt>
      <trkpt lat="45.26614" lon="4.57316">
        <ele>940.970027</ele>
        <time>2026-07-02T11:31:32.736Z</time>
      </trkpt>
      <trkpt lat="45.26612" lon="4.57301">
        <ele>941.406671</ele>
        <time>2026-07-02T11:31:35.746Z</time>
      </trkpt>
      <trkpt lat="45.26611" lon="4.57287">
        <ele>941.810199</ele>
        <time>2026-07-02T11:31:39.743Z</time>
      </trkpt>
      <trkpt lat="45.2661" lon="4.57273">
        <ele>942.216854</ele>
        <time>2026-07-02T11:31:43.751Z</time>
      </trkpt>
      <trkpt lat="45.2661" lon="4.57259">
        <ele>942.602431</ele>
        <time>2026-07-02T11:31:46.739Z</time>
      </trkpt>
      <trkpt lat="45.26607" lon="4.57243">
        <ele>943.096321</ele>
        <time>2026-07-02T11:31:50.739Z</time>
      </trkpt>
      <trkpt lat="45.26605" lon="4.5723">
        <ele>943.464166</ele>
        <time>2026-07-02T11:31:53.745Z</time>
      </trkpt>
      <trkpt lat="45.26603" lon="4.57215">
        <ele>943.905811</ele>
        <time>2026-07-02T11:31:56.738Z</time>
      </trkpt>
      <trkpt lat="45.26603" lon="4.57199">
        <ele>944.371821</ele>
        <time>2026-07-02T11:31:59.738Z</time>
      </trkpt>
      <trkpt lat="45.26606" lon="4.57183">
        <ele>944.835342</ele>
        <time>2026-07-02T11:32:02.733Z</time>
      </trkpt>
      <trkpt lat="45.26613" lon="4.57171">
        <ele>945.296273</ele>
        <time>2026-07-02T11:32:05.758Z</time>
      </trkpt>
      <trkpt lat="45.26619" lon="4.57157">
        <ele>945.784756</ele>
        <time>2026-07-02T11:32:08.742Z</time>
      </trkpt>
      <trkpt lat="45.26624" lon="4.57143">
        <ele>945.84304</ele>
        <time>2026-07-02T11:32:12.739Z</time>
      </trkpt>
      <trkpt lat="45.26628" lon="4.57129">
        <ele>945.857995</ele>
        <time>2026-07-02T11:32:15.741Z</time>
      </trkpt>
      <trkpt lat="45.2663" lon="4.57116">
        <ele>945.87211</ele>
        <time>2026-07-02T11:32:18.753Z</time>
      </trkpt>
      <trkpt lat="45.26632" lon="4.57101">
        <ele>945.887073</ele>
        <time>2026-07-02T11:32:21.743Z</time>
      </trkpt>
      <trkpt lat="45.26635" lon="4.57087">
        <ele>945.902573</ele>
        <time>2026-07-02T11:32:24.749Z</time>
      </trkpt>
      <trkpt lat="45.26638" lon="4.57071">
        <ele>945.918657</ele>
        <time>2026-07-02T11:32:27.746Z</time>
      </trkpt>
      <trkpt lat="45.26642" lon="4.57055">
        <ele>945.93633</ele>
        <time>2026-07-02T11:32:30.741Z</time>
      </trkpt>
      <trkpt lat="45.26647" lon="4.5704">
        <ele>945.952378</ele>
        <time>2026-07-02T11:32:33.743Z</time>
      </trkpt>
      <trkpt lat="45.26651" lon="4.57027">
        <ele>945.967418</ele>
        <time>2026-07-02T11:32:36.739Z</time>
      </trkpt>
      <trkpt lat="45.26656" lon="4.57013">
        <ele>945.98337</ele>
        <time>2026-07-02T11:32:39.740Z</time>
      </trkpt>
      <trkpt lat="45.26662" lon="4.56998">
        <ele>946.001269</ele>
        <time>2026-07-02T11:32:42.736Z</time>
      </trkpt>
      <trkpt lat="45.26668" lon="4.56983">
        <ele>946.018512</ele>
        <time>2026-07-02T11:32:45.742Z</time>
      </trkpt>
      <trkpt lat="45.26676" lon="4.56968">
        <ele>946.037596</ele>
        <time>2026-07-02T11:32:48.748Z</time>
      </trkpt>
      <trkpt lat="45.26684" lon="4.56959">
        <ele>946.052505</ele>
        <time>2026-07-02T11:32:50.742Z</time>
      </trkpt>
      <trkpt lat="45.26692" lon="4.5695">
        <ele>946.066805</ele>
        <time>2026-07-02T11:32:52.742Z</time>
      </trkpt>
      <trkpt lat="45.267" lon="4.5694">
        <ele>946.082029</ele>
        <time>2026-07-02T11:32:54.747Z</time>
      </trkpt>
      <trkpt lat="45.26707" lon="4.5693">
        <ele>945.939896</ele>
        <time>2026-07-02T11:32:56.746Z</time>
      </trkpt>
      <trkpt lat="45.26716" lon="4.56922">
        <ele>945.657253</ele>
        <time>2026-07-02T11:32:58.748Z</time>
      </trkpt>
      <trkpt lat="45.26725" lon="4.56912">
        <ele>945.36496</ele>
        <time>2026-07-02T11:33:00.738Z</time>
      </trkpt>
      <trkpt lat="45.26735" lon="4.56904">
        <ele>945.068099</ele>
        <time>2026-07-02T11:33:02.737Z</time>
      </trkpt>
      <trkpt lat="45.26745" lon="4.56896">
        <ele>944.766673</ele>
        <time>2026-07-02T11:33:04.740Z</time>
      </trkpt>
      <trkpt lat="45.26756" lon="4.56885">
        <ele>944.415045</ele>
        <time>2026-07-02T11:33:06.739Z</time>
      </trkpt>
      <trkpt lat="45.26768" lon="4.56876">
        <ele>944.053135</ele>
        <time>2026-07-02T11:33:08.743Z</time>
      </trkpt>
      <trkpt lat="45.26781" lon="4.56868">
        <ele>943.682031</ele>
        <time>2026-07-02T11:33:10.739Z</time>
      </trkpt>
      <trkpt lat="45.26794" lon="4.56861">
        <ele>943.318002</ele>
        <time>2026-07-02T11:33:12.736Z</time>
      </trkpt>
      <trkpt lat="45.26806" lon="4.56855">
        <ele>942.976428</ele>
        <time>2026-07-02T11:33:14.744Z</time>
      </trkpt>
      <trkpt lat="45.26819" lon="4.56849">
        <ele>942.633803</ele>
        <time>2026-07-02T11:33:16.743Z</time>
      </trkpt>
      <trkpt lat="45.2683" lon="4.56846">
        <ele>942.331866</ele>
        <time>2026-07-02T11:33:18.735Z</time>
      </trkpt>
      <trkpt lat="45.2684" lon="4.56847">
        <ele>942.057949</ele>
        <time>2026-07-02T11:33:20.740Z</time>
      </trkpt>
      <trkpt lat="45.2685" lon="4.56846">
        <ele>941.812501</ele>
        <time>2026-07-02T11:33:22.737Z</time>
      </trkpt>
      <trkpt lat="45.26859" lon="4.56842">
        <ele>941.545686</ele>
        <time>2026-07-02T11:33:24.735Z</time>
      </trkpt>
      <trkpt lat="45.26869" lon="4.56839">
        <ele>941.409734</ele>
        <time>2026-07-02T11:33:26.746Z</time>
      </trkpt>
      <trkpt lat="45.26879" lon="4.56832">
        <ele>941.564291</ele>
        <time>2026-07-02T11:33:28.741Z</time>
      </trkpt>
      <trkpt lat="45.26889" lon="4.56825">
        <ele>941.721735</ele>
        <time>2026-07-02T11:33:30.741Z</time>
      </trkpt>
      <trkpt lat="45.26898" lon="4.56817">
        <ele>941.873049</ele>
        <time>2026-07-02T11:33:32.743Z</time>
      </trkpt>
      <trkpt lat="45.26907" lon="4.56812">
        <ele>942.015957</ele>
        <time>2026-07-02T11:33:34.745Z</time>
      </trkpt>
      <trkpt lat="45.26917" lon="4.56808">
        <ele>942.165306</ele>
        <time>2026-07-02T11:33:36.740Z</time>
      </trkpt>
      <trkpt lat="45.26926" lon="4.56803">
        <ele>942.303165</ele>
        <time>2026-07-02T11:33:38.736Z</time>
      </trkpt>
      <trkpt lat="45.26937" lon="4.56798">
        <ele>942.466873</ele>
        <time>2026-07-02T11:33:41.743Z</time>
      </trkpt>
      <trkpt lat="45.26946" lon="4.56794">
        <ele>942.599727</ele>
        <time>2026-07-02T11:33:43.741Z</time>
      </trkpt>
      <trkpt lat="45.26957" lon="4.56792">
        <ele>942.74788</ele>
        <time>2026-07-02T11:33:45.757Z</time>
      </trkpt>
      <trkpt lat="45.26966" lon="4.56793">
        <ele>942.878965</ele>
        <time>2026-07-02T11:33:47.742Z</time>
      </trkpt>
      <trkpt lat="45.26979" lon="4.56792">
        <ele>943.06555</ele>
        <time>2026-07-02T11:33:50.746Z</time>
      </trkpt>
      <trkpt lat="45.2699" lon="4.56786">
        <ele>943.228965</ele>
        <time>2026-07-02T11:33:52.736Z</time>
      </trkpt>
      <trkpt lat="45.27001" lon="4.5678">
        <ele>943.402915</ele>
        <time>2026-07-02T11:33:54.741Z</time>
      </trkpt>
      <trkpt lat="45.2701" lon="4.56772">
        <ele>943.559637</ele>
        <time>2026-07-02T11:33:56.737Z</time>
      </trkpt>
      <trkpt lat="45.27019" lon="4.56763">
        <ele>943.713502</ele>
        <time>2026-07-02T11:33:58.739Z</time>
      </trkpt>
      <trkpt lat="45.27027" lon="4.56755">
        <ele>943.848721</ele>
        <time>2026-07-02T11:34:00.743Z</time>
      </trkpt>
      <trkpt lat="45.27035" lon="4.5674">
        <ele>943.549382</ele>
        <time>2026-07-02T11:34:03.743Z</time>
      </trkpt>
      <trkpt lat="45.27041" lon="4.56727">
        <ele>942.995929</ele>
        <time>2026-07-02T11:34:06.743Z</time>
      </trkpt>
      <trkpt lat="45.27046" lon="4.56713">
        <ele>942.452771</ele>
        <time>2026-07-02T11:34:09.736Z</time>
      </trkpt>
      <trkpt lat="45.27049" lon="4.56699">
        <ele>941.973249</ele>
        <time>2026-07-02T11:34:11.735Z</time>
      </trkpt>
      <trkpt lat="45.27052" lon="4.56682">
        <ele>941.386549</ele>
        <time>2026-07-02T11:34:14.744Z</time>
      </trkpt>
      <trkpt lat="45.27052" lon="4.56669">
        <ele>940.942375</ele>
        <time>2026-07-02T11:34:16.743Z</time>
      </trkpt>
      <trkpt lat="45.2706" lon="4.56656">
        <ele>940.32473</ele>
        <time>2026-07-02T11:34:19.738Z</time>
      </trkpt>
      <trkpt lat="45.27072" lon="4.56647">
        <ele>939.683624</ele>
        <time>2026-07-02T11:34:22.743Z</time>
      </trkpt>
      <trkpt lat="45.2708" lon="4.5664">
        <ele>939.196538</ele>
        <time>2026-07-02T11:34:25.741Z</time>
      </trkpt>
      <trkpt lat="45.27088" lon="4.56633">
        <ele>938.738035</ele>
        <time>2026-07-02T11:34:28.743Z</time>
      </trkpt>
      <trkpt lat="45.27101" lon="4.56632">
        <ele>938.145485</ele>
        <time>2026-07-02T11:34:32.741Z</time>
      </trkpt>
      <trkpt lat="45.2711" lon="4.56642">
        <ele>937.601172</ele>
        <time>2026-07-02T11:34:34.746Z</time>
      </trkpt>
      <trkpt lat="45.27119" lon="4.56654">
        <ele>936.983453</ele>
        <time>2026-07-02T11:34:36.735Z</time>
      </trkpt>
      <trkpt lat="45.27132" lon="4.56664">
        <ele>936.254075</ele>
        <time>2026-07-02T11:34:38.744Z</time>
      </trkpt>
      <trkpt lat="45.27145" lon="4.56674">
        <ele>935.543257</ele>
        <time>2026-07-02T11:34:40.740Z</time>
      </trkpt>
      <trkpt lat="45.27157" lon="4.56669">
        <ele>934.773145</ele>
        <time>2026-07-02T11:34:42.738Z</time>
      </trkpt>
      <trkpt lat="45.27164" lon="4.56656">
        <ele>933.874146</ele>
        <time>2026-07-02T11:34:44.736Z</time>
      </trkpt>
      <trkpt lat="45.27157" lon="4.56631">
        <ele>932.417087</ele>
        <time>2026-07-02T11:34:46.741Z</time>
      </trkpt>
      <trkpt lat="45.27152" lon="4.56616">
        <ele>931.480261</ele>
        <time>2026-07-02T11:34:47.742Z</time>
      </trkpt>
      <trkpt lat="45.27148" lon="4.56601">
        <ele>930.598777</ele>
        <time>2026-07-02T11:34:48.750Z</time>
      </trkpt>
      <trkpt lat="45.27145" lon="4.56585">
        <ele>929.698774</ele>
        <time>2026-07-02T11:34:49.742Z</time>
      </trkpt>
      <trkpt lat="45.27144" lon="4.5657">
        <ele>928.838998</ele>
        <time>2026-07-02T11:34:50.741Z</time>
      </trkpt>
      <trkpt lat="45.27144" lon="4.56556">
        <ele>928.054268</ele>
        <time>2026-07-02T11:34:51.742Z</time>
      </trkpt>
      <trkpt lat="45.27147" lon="4.56542">
        <ele>927.272483</ele>
        <time>2026-07-02T11:34:52.739Z</time>
      </trkpt>
      <trkpt lat="45.27151" lon="4.56529">
        <ele>926.50812</ele>
        <time>2026-07-02T11:34:53.754Z</time>
      </trkpt>
      <trkpt lat="45.27156" lon="4.56517">
        <ele>925.69486</ele>
        <time>2026-07-02T11:34:54.737Z</time>
      </trkpt>
      <trkpt lat="45.27162" lon="4.56506">
        <ele>924.95848</ele>
        <time>2026-07-02T11:34:55.748Z</time>
      </trkpt>
      <trkpt lat="45.2717" lon="4.56495">
        <ele>924.109265</ele>
        <time>2026-07-02T11:34:56.735Z</time>
      </trkpt>
      <trkpt lat="45.27176" lon="4.56485">
        <ele>923.347087</ele>
        <time>2026-07-02T11:34:57.741Z</time>
      </trkpt>
      <trkpt lat="45.27183" lon="4.56474">
        <ele>922.533141</ele>
        <time>2026-07-02T11:34:58.739Z</time>
      </trkpt>
      <trkpt lat="45.27189" lon="4.56463">
        <ele>921.738865</ele>
        <time>2026-07-02T11:34:59.744Z</time>
      </trkpt>
      <trkpt lat="45.27197" lon="4.56453">
        <ele>920.986629</ele>
        <time>2026-07-02T11:35:00.742Z</time>
      </trkpt>
      <trkpt lat="45.27205" lon="4.56445">
        <ele>920.431296</ele>
        <time>2026-07-02T11:35:01.737Z</time>
      </trkpt>
      <trkpt lat="45.27214" lon="4.56438">
        <ele>919.864618</ele>
        <time>2026-07-02T11:35:02.738Z</time>
      </trkpt>
      <trkpt lat="45.27222" lon="4.56433">
        <ele>919.35318</ele>
        <time>2026-07-02T11:35:03.740Z</time>
      </trkpt>
      <trkpt lat="45.27232" lon="4.5643">
        <ele>918.780625</ele>
        <time>2026-07-02T11:35:04.742Z</time>
      </trkpt>
      <trkpt lat="45.27243" lon="4.56428">
        <ele>918.183599</ele>
        <time>2026-07-02T11:35:05.744Z</time>
      </trkpt>
      <trkpt lat="45.27254" lon="4.56429">
        <ele>917.571753</ele>
        <time>2026-07-02T11:35:06.741Z</time>
      </trkpt>
      <trkpt lat="45.27265" lon="4.5643">
        <ele>916.986432</ele>
        <time>2026-07-02T11:35:07.742Z</time>
      </trkpt>
      <trkpt lat="45.27275" lon="4.56431">
        <ele>916.410815</ele>
        <time>2026-07-02T11:35:08.742Z</time>
      </trkpt>
      <trkpt lat="45.27285" lon="4.56433">
        <ele>915.869514</ele>
        <time>2026-07-02T11:35:09.739Z</time>
      </trkpt>
      <trkpt lat="45.27294" lon="4.56435">
        <ele>915.346603</ele>
        <time>2026-07-02T11:35:10.744Z</time>
      </trkpt>
      <trkpt lat="45.27303" lon="4.56437">
        <ele>914.83823</ele>
        <time>2026-07-02T11:35:11.741Z</time>
      </trkpt>
      <trkpt lat="45.2732" lon="4.56443">
        <ele>913.8659</ele>
        <time>2026-07-02T11:35:13.737Z</time>
      </trkpt>
      <trkpt lat="45.27336" lon="4.56451">
        <ele>912.917694</ele>
        <time>2026-07-02T11:35:15.741Z</time>
      </trkpt>
      <trkpt lat="45.27351" lon="4.56461">
        <ele>911.971334</ele>
        <time>2026-07-02T11:35:17.734Z</time>
      </trkpt>
      <trkpt lat="45.27366" lon="4.56471">
        <ele>911.052732</ele>
        <time>2026-07-02T11:35:19.736Z</time>
      </trkpt>
      <trkpt lat="45.27382" lon="4.56483">
        <ele>910.031168</ele>
        <time>2026-07-02T11:35:21.744Z</time>
      </trkpt>
      <trkpt lat="45.27398" lon="4.56494">
        <ele>909.003836</ele>
        <time>2026-07-02T11:35:23.748Z</time>
      </trkpt>
      <trkpt lat="45.27407" lon="4.565">
        <ele>908.433657</ele>
        <time>2026-07-02T11:35:24.737Z</time>
      </trkpt>
      <trkpt lat="45.27416" lon="4.56504">
        <ele>907.869384</ele>
        <time>2026-07-02T11:35:25.740Z</time>
      </trkpt>
      <trkpt lat="45.27427" lon="4.56507">
        <ele>907.269209</ele>
        <time>2026-07-02T11:35:26.741Z</time>
      </trkpt>
      <trkpt lat="45.27436" lon="4.56507">
        <ele>906.709016</ele>
        <time>2026-07-02T11:35:27.740Z</time>
      </trkpt>
      <trkpt lat="45.27446" lon="4.56505">
        <ele>906.137781</ele>
        <time>2026-07-02T11:35:28.746Z</time>
      </trkpt>
      <trkpt lat="45.27455" lon="4.56501">
        <ele>905.600867</ele>
        <time>2026-07-02T11:35:29.744Z</time>
      </trkpt>
      <trkpt lat="45.27464" lon="4.56498">
        <ele>905.062498</ele>
        <time>2026-07-02T11:35:30.740Z</time>
      </trkpt>
      <trkpt lat="45.2748" lon="4.56488">
        <ele>904.027528</ele>
        <time>2026-07-02T11:35:32.739Z</time>
      </trkpt>
      <trkpt lat="45.27489" lon="4.56484">
        <ele>903.494722</ele>
        <time>2026-07-02T11:35:33.735Z</time>
      </trkpt>
      <trkpt lat="45.27507" lon="4.56487">
        <ele>902.450402</ele>
        <time>2026-07-02T11:35:35.738Z</time>
      </trkpt>
      <trkpt lat="45.27523" lon="4.565">
        <ele>901.426015</ele>
        <time>2026-07-02T11:35:37.736Z</time>
      </trkpt>
      <trkpt lat="45.27535" lon="4.56518">
        <ele>900.2827</ele>
        <time>2026-07-02T11:35:39.748Z</time>
      </trkpt>
      <trkpt lat="45.27541" lon="4.5653">
        <ele>899.492489</ele>
        <time>2026-07-02T11:35:40.743Z</time>
      </trkpt>
      <trkpt lat="45.27546" lon="4.56543">
        <ele>898.668831</ele>
        <time>2026-07-02T11:35:41.738Z</time>
      </trkpt>
      <trkpt lat="45.27551" lon="4.56556">
        <ele>897.889187</ele>
        <time>2026-07-02T11:35:42.736Z</time>
      </trkpt>
      <trkpt lat="45.27556" lon="4.5657">
        <ele>897.052358</ele>
        <time>2026-07-02T11:35:43.742Z</time>
      </trkpt>
      <trkpt lat="45.27561" lon="4.56584">
        <ele>896.176794</ele>
        <time>2026-07-02T11:35:44.747Z</time>
      </trkpt>
      <trkpt lat="45.27566" lon="4.566">
        <ele>895.234232</ele>
        <time>2026-07-02T11:35:45.737Z</time>
      </trkpt>
      <trkpt lat="45.27571" lon="4.56615">
        <ele>894.339141</ele>
        <time>2026-07-02T11:35:46.741Z</time>
      </trkpt>
      <trkpt lat="45.27576" lon="4.5663">
        <ele>893.434251</ele>
        <time>2026-07-02T11:35:47.743Z</time>
      </trkpt>
      <trkpt lat="45.27582" lon="4.56646">
        <ele>892.437571</ele>
        <time>2026-07-02T11:35:48.740Z</time>
      </trkpt>
      <trkpt lat="45.27587" lon="4.56661">
        <ele>891.527449</ele>
        <time>2026-07-02T11:35:49.750Z</time>
      </trkpt>
      <trkpt lat="45.27593" lon="4.56676">
        <ele>890.591882</ele>
        <time>2026-07-02T11:35:50.740Z</time>
      </trkpt>
      <trkpt lat="45.27599" lon="4.5669">
        <ele>889.682415</ele>
        <time>2026-07-02T11:35:51.742Z</time>
      </trkpt>
      <trkpt lat="45.27606" lon="4.56703">
        <ele>888.799483</ele>
        <time>2026-07-02T11:35:52.737Z</time>
      </trkpt>
      <trkpt lat="45.27613" lon="4.56719">
        <ele>887.799851</ele>
        <time>2026-07-02T11:35:53.745Z</time>
      </trkpt>
      <trkpt lat="45.27618" lon="4.56733">
        <ele>886.947382</ele>
        <time>2026-07-02T11:35:54.744Z</time>
      </trkpt>
      <trkpt lat="45.27624" lon="4.56747">
        <ele>885.975878</ele>
        <time>2026-07-02T11:35:55.740Z</time>
      </trkpt>
      <trkpt lat="45.27629" lon="4.5676">
        <ele>885.064132</ele>
        <time>2026-07-02T11:35:56.751Z</time>
      </trkpt>
      <trkpt lat="45.27635" lon="4.56774">
        <ele>884.1027</ele>
        <time>2026-07-02T11:35:57.737Z</time>
      </trkpt>
      <trkpt lat="45.27642" lon="4.56785">
        <ele>883.21199</ele>
        <time>2026-07-02T11:35:58.743Z</time>
      </trkpt>
      <trkpt lat="45.27649" lon="4.56796">
        <ele>882.299975</ele>
        <time>2026-07-02T11:35:59.741Z</time>
      </trkpt>
      <trkpt lat="45.27657" lon="4.56806">
        <ele>881.419997</ele>
        <time>2026-07-02T11:36:00.740Z</time>
      </trkpt>
      <trkpt lat="45.27666" lon="4.56814">
        <ele>880.494313</ele>
        <time>2026-07-02T11:36:01.738Z</time>
      </trkpt>
      <trkpt lat="45.27676" lon="4.56819">
        <ele>879.573906</ele>
        <time>2026-07-02T11:36:02.748Z</time>
      </trkpt>
      <trkpt lat="45.27686" lon="4.56821">
        <ele>878.693449</ele>
        <time>2026-07-02T11:36:03.737Z</time>
      </trkpt>
      <trkpt lat="45.27696" lon="4.56819">
        <ele>877.832076</ele>
        <time>2026-07-02T11:36:04.745Z</time>
      </trkpt>
      <trkpt lat="45.27706" lon="4.56816">
        <ele>876.955317</ele>
        <time>2026-07-02T11:36:05.741Z</time>
      </trkpt>
      <trkpt lat="45.27716" lon="4.56811">
        <ele>876.071974</ele>
        <time>2026-07-02T11:36:06.741Z</time>
      </trkpt>
      <trkpt lat="45.27726" lon="4.56803">
        <ele>875.126941</ele>
        <time>2026-07-02T11:36:07.741Z</time>
      </trkpt>
      <trkpt lat="45.27736" lon="4.56797">
        <ele>874.1813</ele>
        <time>2026-07-02T11:36:08.742Z</time>
      </trkpt>
      <trkpt lat="45.27747" lon="4.56791">
        <ele>873.169421</ele>
        <time>2026-07-02T11:36:09.719Z</time>
      </trkpt>
      <trkpt lat="45.27758" lon="4.56787">
        <ele>872.138588</ele>
        <time>2026-07-02T11:36:10.699Z</time>
      </trkpt>
      <trkpt lat="45.2777" lon="4.56784">
        <ele>871.003869</ele>
        <time>2026-07-02T11:36:11.741Z</time>
      </trkpt>
      <trkpt lat="45.27784" lon="4.56782">
        <ele>869.440572</ele>
        <time>2026-07-02T11:36:12.734Z</time>
      </trkpt>
      <trkpt lat="45.27796" lon="4.56783">
        <ele>868.12419</ele>
        <time>2026-07-02T11:36:13.721Z</time>
      </trkpt>
      <trkpt lat="45.27808" lon="4.56783">
        <ele>866.843231</ele>
        <time>2026-07-02T11:36:14.741Z</time>
      </trkpt>
      <trkpt lat="45.2782" lon="4.56783">
        <ele>865.495927</ele>
        <time>2026-07-02T11:36:15.741Z</time>
      </trkpt>
      <trkpt lat="45.27833" lon="4.56782">
        <ele>864.111892</ele>
        <time>2026-07-02T11:36:16.739Z</time>
      </trkpt>
      <trkpt lat="45.27845" lon="4.5678">
        <ele>862.777681</ele>
        <time>2026-07-02T11:36:17.700Z</time>
      </trkpt>
      <trkpt lat="45.27856" lon="4.56779">
        <ele>861.484535</ele>
        <time>2026-07-02T11:36:18.739Z</time>
      </trkpt>
      <trkpt lat="45.27867" lon="4.56781">
        <ele>860.308215</ele>
        <time>2026-07-02T11:36:19.734Z</time>
      </trkpt>
      <trkpt lat="45.27877" lon="4.56785">
        <ele>859.103674</ele>
        <time>2026-07-02T11:36:20.705Z</time>
      </trkpt>
      <trkpt lat="45.27887" lon="4.56793">
        <ele>857.834384</ele>
        <time>2026-07-02T11:36:21.711Z</time>
      </trkpt>
      <trkpt lat="45.27897" lon="4.56804">
        <ele>856.482325</ele>
        <time>2026-07-02T11:36:22.738Z</time>
      </trkpt>
      <trkpt lat="45.27906" lon="4.56814">
        <ele>855.209947</ele>
        <time>2026-07-02T11:36:23.738Z</time>
      </trkpt>
      <trkpt lat="45.27915" lon="4.56828">
        <ele>853.753002</ele>
        <time>2026-07-02T11:36:24.735Z</time>
      </trkpt>
      <trkpt lat="45.27924" lon="4.5684">
        <ele>852.395441</ele>
        <time>2026-07-02T11:36:25.738Z</time>
      </trkpt>
      <trkpt lat="45.27932" lon="4.56853">
        <ele>851.08761</ele>
        <time>2026-07-02T11:36:26.745Z</time>
      </trkpt>
      <trkpt lat="45.2794" lon="4.56869">
        <ele>849.839123</ele>
        <time>2026-07-02T11:36:27.736Z</time>
      </trkpt>
      <trkpt lat="45.27947" lon="4.56886">
        <ele>848.516215</ele>
        <time>2026-07-02T11:36:28.735Z</time>
      </trkpt>
      <trkpt lat="45.27954" lon="4.56904">
        <ele>847.24487</ele>
        <time>2026-07-02T11:36:29.738Z</time>
      </trkpt>
      <trkpt lat="45.2796" lon="4.56922">
        <ele>845.94066</ele>
        <time>2026-07-02T11:36:30.735Z</time>
      </trkpt>
      <trkpt lat="45.27965" lon="4.56941">
        <ele>844.626545</ele>
        <time>2026-07-02T11:36:31.737Z</time>
      </trkpt>
      <trkpt lat="45.2797" lon="4.56958">
        <ele>843.407436</ele>
        <time>2026-07-02T11:36:32.735Z</time>
      </trkpt>
      <trkpt lat="45.27975" lon="4.56976">
        <ele>842.107904</ele>
        <time>2026-07-02T11:36:33.742Z</time>
      </trkpt>
      <trkpt lat="45.2798" lon="4.56996">
        <ele>840.782579</ele>
        <time>2026-07-02T11:36:34.738Z</time>
      </trkpt>
      <trkpt lat="45.27984" lon="4.57014">
        <ele>839.53348</ele>
        <time>2026-07-02T11:36:35.741Z</time>
      </trkpt>
      <trkpt lat="45.27986" lon="4.57032">
        <ele>838.324734</ele>
        <time>2026-07-02T11:36:36.742Z</time>
      </trkpt>
      <trkpt lat="45.27988" lon="4.57051">
        <ele>837.090365</ele>
        <time>2026-07-02T11:36:37.742Z</time>
      </trkpt>
      <trkpt lat="45.2799" lon="4.57069">
        <ele>835.897476</ele>
        <time>2026-07-02T11:36:38.740Z</time>
      </trkpt>
      <trkpt lat="45.27991" lon="4.57087">
        <ele>834.735799</ele>
        <time>2026-07-02T11:36:39.737Z</time>
      </trkpt>
      <trkpt lat="45.27991" lon="4.57107">
        <ele>833.526563</ele>
        <time>2026-07-02T11:36:40.742Z</time>
      </trkpt>
      <trkpt lat="45.27993" lon="4.57126">
        <ele>832.379398</ele>
        <time>2026-07-02T11:36:41.738Z</time>
      </trkpt>
      <trkpt lat="45.27994" lon="4.57144">
        <ele>831.260582</ele>
        <time>2026-07-02T11:36:42.737Z</time>
      </trkpt>
      <trkpt lat="45.27996" lon="4.57164">
        <ele>830.057279</ele>
        <time>2026-07-02T11:36:43.738Z</time>
      </trkpt>
      <trkpt lat="45.27997" lon="4.57183">
        <ele>828.88213</ele>
        <time>2026-07-02T11:36:44.743Z</time>
      </trkpt>
      <trkpt lat="45.27999" lon="4.57202">
        <ele>827.714173</ele>
        <time>2026-07-02T11:36:45.745Z</time>
      </trkpt>
      <trkpt lat="45.28003" lon="4.5722">
        <ele>826.576525</ele>
        <time>2026-07-02T11:36:46.749Z</time>
      </trkpt>
      <trkpt lat="45.28007" lon="4.57237">
        <ele>825.470468</ele>
        <time>2026-07-02T11:36:47.738Z</time>
      </trkpt>
      <trkpt lat="45.28013" lon="4.57254">
        <ele>824.326716</ele>
        <time>2026-07-02T11:36:48.740Z</time>
      </trkpt>
      <trkpt lat="45.28019" lon="4.57271">
        <ele>823.171774</ele>
        <time>2026-07-02T11:36:49.737Z</time>
      </trkpt>
      <trkpt lat="45.28025" lon="4.57287">
        <ele>822.029742</ele>
        <time>2026-07-02T11:36:50.739Z</time>
      </trkpt>
      <trkpt lat="45.28032" lon="4.57303">
        <ele>820.899076</ele>
        <time>2026-07-02T11:36:51.741Z</time>
      </trkpt>
      <trkpt lat="45.28039" lon="4.57321">
        <ele>819.642695</ele>
        <time>2026-07-02T11:36:52.743Z</time>
      </trkpt>
      <trkpt lat="45.28049" lon="4.57337">
        <ele>818.426435</ele>
        <time>2026-07-02T11:36:53.733Z</time>
      </trkpt>
      <trkpt lat="45.28057" lon="4.57352">
        <ele>817.317581</ele>
        <time>2026-07-02T11:36:54.738Z</time>
      </trkpt>
      <trkpt lat="45.28065" lon="4.57366">
        <ele>816.285997</ele>
        <time>2026-07-02T11:36:55.738Z</time>
      </trkpt>
      <trkpt lat="45.28072" lon="4.57376">
        <ele>815.413232</ele>
        <time>2026-07-02T11:36:56.738Z</time>
      </trkpt>
      <trkpt lat="45.2808" lon="4.57385">
        <ele>814.616302</ele>
        <time>2026-07-02T11:36:57.736Z</time>
      </trkpt>
      <trkpt lat="45.28088" lon="4.57391">
        <ele>813.853064</ele>
        <time>2026-07-02T11:36:58.741Z</time>
      </trkpt>
      <trkpt lat="45.28103" lon="4.57399">
        <ele>812.512583</ele>
        <time>2026-07-02T11:37:00.751Z</time>
      </trkpt>
      <trkpt lat="45.28112" lon="4.57401">
        <ele>811.756214</ele>
        <time>2026-07-02T11:37:01.739Z</time>
      </trkpt>
      <trkpt lat="45.28122" lon="4.57401">
        <ele>810.927229</ele>
        <time>2026-07-02T11:37:02.747Z</time>
      </trkpt>
      <trkpt lat="45.28132" lon="4.57401">
        <ele>810.16504</ele>
        <time>2026-07-02T11:37:03.742Z</time>
      </trkpt>
      <trkpt lat="45.28147" lon="4.57392">
        <ele>808.778244</ele>
        <time>2026-07-02T11:37:05.735Z</time>
      </trkpt>
      <trkpt lat="45.28154" lon="4.57383">
        <ele>807.976322</ele>
        <time>2026-07-02T11:37:06.737Z</time>
      </trkpt>
      <trkpt lat="45.28162" lon="4.57375">
        <ele>807.226832</ele>
        <time>2026-07-02T11:37:07.738Z</time>
      </trkpt>
      <trkpt lat="45.2817" lon="4.57369">
        <ele>806.427381</ele>
        <time>2026-07-02T11:37:08.745Z</time>
      </trkpt>
      <trkpt lat="45.28179" lon="4.57364">
        <ele>805.611579</ele>
        <time>2026-07-02T11:37:09.736Z</time>
      </trkpt>
      <trkpt lat="45.28188" lon="4.57358">
        <ele>804.80569</ele>
        <time>2026-07-02T11:37:10.739Z</time>
      </trkpt>
      <trkpt lat="45.28199" lon="4.57356">
        <ele>803.729536</ele>
        <time>2026-07-02T11:37:11.741Z</time>
      </trkpt>
      <trkpt lat="45.2821" lon="4.57355">
        <ele>802.53054</ele>
        <time>2026-07-02T11:37:12.737Z</time>
      </trkpt>
      <trkpt lat="45.28221" lon="4.57355">
        <ele>801.266766</ele>
        <time>2026-07-02T11:37:13.738Z</time>
      </trkpt>
      <trkpt lat="45.28232" lon="4.57356">
        <ele>800.06777</ele>
        <time>2026-07-02T11:37:14.741Z</time>
      </trkpt>
      <trkpt lat="45.28243" lon="4.57356">
        <ele>798.879885</ele>
        <time>2026-07-02T11:37:15.738Z</time>
      </trkpt>
      <trkpt lat="45.28254" lon="4.57358">
        <ele>797.751079</ele>
        <time>2026-07-02T11:37:16.742Z</time>
      </trkpt>
      <trkpt lat="45.28265" lon="4.5736">
        <ele>796.483652</ele>
        <time>2026-07-02T11:37:17.739Z</time>
      </trkpt>
      <trkpt lat="45.28277" lon="4.57365">
        <ele>795.116099</ele>
        <time>2026-07-02T11:37:18.735Z</time>
      </trkpt>
      <trkpt lat="45.28289" lon="4.57366">
        <ele>793.794672</ele>
        <time>2026-07-02T11:37:19.737Z</time>
      </trkpt>
      <trkpt lat="45.28302" lon="4.57365">
        <ele>792.463346</ele>
        <time>2026-07-02T11:37:20.739Z</time>
      </trkpt>
      <trkpt lat="45.28314" lon="4.57365">
        <ele>791.123314</ele>
        <time>2026-07-02T11:37:21.743Z</time>
      </trkpt>
      <trkpt lat="45.28326" lon="4.57363">
        <ele>789.760953</ele>
        <time>2026-07-02T11:37:22.740Z</time>
      </trkpt>
      <trkpt lat="45.28338" lon="4.57361">
        <ele>788.444667</ele>
        <time>2026-07-02T11:37:23.742Z</time>
      </trkpt>
      <trkpt lat="45.2835" lon="4.57357">
        <ele>787.181352</ele>
        <time>2026-07-02T11:37:24.733Z</time>
      </trkpt>
      <trkpt lat="45.28361" lon="4.57354">
        <ele>785.910245</ele>
        <time>2026-07-02T11:37:25.749Z</time>
      </trkpt>
      <trkpt lat="45.28372" lon="4.57349">
        <ele>784.690147</ele>
        <time>2026-07-02T11:37:26.747Z</time>
      </trkpt>
      <trkpt lat="45.28384" lon="4.57345">
        <ele>783.784518</ele>
        <time>2026-07-02T11:37:27.743Z</time>
      </trkpt>
      <trkpt lat="45.28396" lon="4.57342">
        <ele>782.838411</ele>
        <time>2026-07-02T11:37:28.738Z</time>
      </trkpt>
      <trkpt lat="45.28408" lon="4.5734">
        <ele>781.901992</ele>
        <time>2026-07-02T11:37:29.737Z</time>
      </trkpt>
      <trkpt lat="45.2842" lon="4.57339">
        <ele>780.958368</ele>
        <time>2026-07-02T11:37:30.743Z</time>
      </trkpt>
      <trkpt lat="45.28432" lon="4.57339">
        <ele>779.987357</ele>
        <time>2026-07-02T11:37:31.737Z</time>
      </trkpt>
      <trkpt lat="45.28445" lon="4.57341">
        <ele>779.014136</ele>
        <time>2026-07-02T11:37:32.746Z</time>
      </trkpt>
      <trkpt lat="45.28458" lon="4.57344">
        <ele>777.948562</ele>
        <time>2026-07-02T11:37:33.739Z</time>
      </trkpt>
      <trkpt lat="45.28471" lon="4.57346">
        <ele>776.954432</ele>
        <time>2026-07-02T11:37:34.743Z</time>
      </trkpt>
      <trkpt lat="45.28484" lon="4.5735">
        <ele>775.949908</ele>
        <time>2026-07-02T11:37:35.745Z</time>
      </trkpt>
      <trkpt lat="45.28497" lon="4.57354">
        <ele>774.935639</ele>
        <time>2026-07-02T11:37:36.741Z</time>
      </trkpt>
      <trkpt lat="45.2851" lon="4.5736">
        <ele>773.810147</ele>
        <time>2026-07-02T11:37:37.736Z</time>
      </trkpt>
      <trkpt lat="45.28523" lon="4.57365">
        <ele>772.783886</ele>
        <time>2026-07-02T11:37:38.738Z</time>
      </trkpt>
      <trkpt lat="45.28535" lon="4.57371">
        <ele>771.821705</ele>
        <time>2026-07-02T11:37:39.738Z</time>
      </trkpt>
      <trkpt lat="45.28546" lon="4.57379">
        <ele>770.867454</ele>
        <time>2026-07-02T11:37:40.741Z</time>
      </trkpt>
      <trkpt lat="45.28556" lon="4.57388">
        <ele>770.0705</ele>
        <time>2026-07-02T11:37:41.744Z</time>
      </trkpt>
      <trkpt lat="45.28566" lon="4.57401">
        <ele>769.193213</ele>
        <time>2026-07-02T11:37:42.744Z</time>
      </trkpt>
      <trkpt lat="45.28577" lon="4.57416">
        <ele>768.202792</ele>
        <time>2026-07-02T11:37:43.745Z</time>
      </trkpt>
      <trkpt lat="45.28587" lon="4.57427">
        <ele>767.370996</ele>
        <time>2026-07-02T11:37:44.708Z</time>
      </trkpt>
      <trkpt lat="45.28597" lon="4.57443">
        <ele>766.366446</ele>
        <time>2026-07-02T11:37:45.734Z</time>
      </trkpt>
      <trkpt lat="45.28607" lon="4.57457">
        <ele>765.42062</ele>
        <time>2026-07-02T11:37:46.742Z</time>
      </trkpt>
      <trkpt lat="45.28618" lon="4.57469">
        <ele>764.543478</ele>
        <time>2026-07-02T11:37:47.738Z</time>
      </trkpt>
      <trkpt lat="45.28628" lon="4.57481">
        <ele>763.656742</ele>
        <time>2026-07-02T11:37:48.746Z</time>
      </trkpt>
      <trkpt lat="45.28638" lon="4.57492">
        <ele>762.80193</ele>
        <time>2026-07-02T11:37:49.739Z</time>
      </trkpt>
      <trkpt lat="45.2865" lon="4.575">
        <ele>761.969371</ele>
        <time>2026-07-02T11:37:50.739Z</time>
      </trkpt>
      <trkpt lat="45.28662" lon="4.57508">
        <ele>761.097673</ele>
        <time>2026-07-02T11:37:51.739Z</time>
      </trkpt>
      <trkpt lat="45.28672" lon="4.57515">
        <ele>760.330675</ele>
        <time>2026-07-02T11:37:52.740Z</time>
      </trkpt>
      <trkpt lat="45.28683" lon="4.57523">
        <ele>759.499597</ele>
        <time>2026-07-02T11:37:53.740Z</time>
      </trkpt>
      <trkpt lat="45.28695" lon="4.57533">
        <ele>758.626874</ele>
        <time>2026-07-02T11:37:54.740Z</time>
      </trkpt>
      <trkpt lat="45.28706" lon="4.57541">
        <ele>757.888661</ele>
        <time>2026-07-02T11:37:55.742Z</time>
      </trkpt>
      <trkpt lat="45.28717" lon="4.5755">
        <ele>757.11899</ele>
        <time>2026-07-02T11:37:56.727Z</time>
      </trkpt>
      <trkpt lat="45.28726" lon="4.57555">
        <ele>756.540016</ele>
        <time>2026-07-02T11:37:57.742Z</time>
      </trkpt>
      <trkpt lat="45.28735" lon="4.57559">
        <ele>755.952261</ele>
        <time>2026-07-02T11:37:58.737Z</time>
      </trkpt>
      <trkpt lat="45.28746" lon="4.57561">
        <ele>755.285725</ele>
        <time>2026-07-02T11:37:59.737Z</time>
      </trkpt>
      <trkpt lat="45.28755" lon="4.57563">
        <ele>754.70506</ele>
        <time>2026-07-02T11:38:00.734Z</time>
      </trkpt>
      <trkpt lat="45.28769" lon="4.57567">
        <ele>753.856949</ele>
        <time>2026-07-02T11:38:02.747Z</time>
      </trkpt>
      <trkpt lat="45.28774" lon="4.57585">
        <ele>753.049875</ele>
        <time>2026-07-02T11:38:04.750Z</time>
      </trkpt>
      <trkpt lat="45.28769" lon="4.57602">
        <ele>752.242563</ele>
        <time>2026-07-02T11:38:06.745Z</time>
      </trkpt>
      <trkpt lat="45.28754" lon="4.5761">
        <ele>751.243796</ele>
        <time>2026-07-02T11:38:08.744Z</time>
      </trkpt>
      <trkpt lat="45.28744" lon="4.57609">
        <ele>750.663023</ele>
        <time>2026-07-02T11:38:09.745Z</time>
      </trkpt>
      <trkpt lat="45.28733" lon="4.57607">
        <ele>749.982473</ele>
        <time>2026-07-02T11:38:10.742Z</time>
      </trkpt>
      <trkpt lat="45.28722" lon="4.57604">
        <ele>749.295204</ele>
        <time>2026-07-02T11:38:11.751Z</time>
      </trkpt>
      <trkpt lat="45.28711" lon="4.57601">
        <ele>748.613453</ele>
        <time>2026-07-02T11:38:12.739Z</time>
      </trkpt>
      <trkpt lat="45.287" lon="4.57598">
        <ele>747.927764</ele>
        <time>2026-07-02T11:38:13.744Z</time>
      </trkpt>
      <trkpt lat="45.28689" lon="4.57596">
        <ele>747.228914</ele>
        <time>2026-07-02T11:38:14.745Z</time>
      </trkpt>
      <trkpt lat="45.28677" lon="4.57591">
        <ele>746.480582</ele>
        <time>2026-07-02T11:38:15.738Z</time>
      </trkpt>
      <trkpt lat="45.28665" lon="4.57588">
        <ele>745.754178</ele>
        <time>2026-07-02T11:38:16.747Z</time>
      </trkpt>
      <trkpt lat="45.28653" lon="4.57585">
        <ele>745.003217</ele>
        <time>2026-07-02T11:38:17.738Z</time>
      </trkpt>
      <trkpt lat="45.28641" lon="4.5758">
        <ele>744.247977</ele>
        <time>2026-07-02T11:38:18.741Z</time>
      </trkpt>
      <trkpt lat="45.28628" lon="4.5758">
        <ele>743.467638</ele>
        <time>2026-07-02T11:38:19.743Z</time>
      </trkpt>
      <trkpt lat="45.28615" lon="4.57577">
        <ele>742.692903</ele>
        <time>2026-07-02T11:38:20.735Z</time>
      </trkpt>
      <trkpt lat="45.28602" lon="4.57572">
        <ele>741.88383</ele>
        <time>2026-07-02T11:38:21.742Z</time>
      </trkpt>
      <trkpt lat="45.2859" lon="4.57568">
        <ele>741.139218</ele>
        <time>2026-07-02T11:38:22.742Z</time>
      </trkpt>
      <trkpt lat="45.28579" lon="4.57563">
        <ele>740.403652</ele>
        <time>2026-07-02T11:38:23.736Z</time>
      </trkpt>
      <trkpt lat="45.28567" lon="4.57558">
        <ele>739.659085</ele>
        <time>2026-07-02T11:38:24.741Z</time>
      </trkpt>
      <trkpt lat="45.28555" lon="4.57554">
        <ele>738.930413</ele>
        <time>2026-07-02T11:38:25.737Z</time>
      </trkpt>
      <trkpt lat="45.28543" lon="4.5755">
        <ele>738.192733</ele>
        <time>2026-07-02T11:38:26.739Z</time>
      </trkpt>
      <trkpt lat="45.2853" lon="4.57546">
        <ele>737.393419</ele>
        <time>2026-07-02T11:38:27.732Z</time>
      </trkpt>
      <trkpt lat="45.28519" lon="4.57539">
        <ele>737.233876</ele>
        <time>2026-07-02T11:38:28.732Z</time>
      </trkpt>
      <trkpt lat="45.28506" lon="4.57537">
        <ele>737.273333</ele>
        <time>2026-07-02T11:38:29.738Z</time>
      </trkpt>
      <trkpt lat="45.28495" lon="4.57534">
        <ele>737.310255</ele>
        <time>2026-07-02T11:38:30.750Z</time>
      </trkpt>
      <trkpt lat="45.28485" lon="4.57533">
        <ele>737.342174</ele>
        <time>2026-07-02T11:38:31.720Z</time>
      </trkpt>
      <trkpt lat="45.28473" lon="4.57531">
        <ele>737.377748</ele>
        <time>2026-07-02T11:38:32.737Z</time>
      </trkpt>
      <trkpt lat="45.28464" lon="4.57528">
        <ele>737.406314</ele>
        <time>2026-07-02T11:38:33.739Z</time>
      </trkpt>
      <trkpt lat="45.28451" lon="4.57529">
        <ele>737.446983</ele>
        <time>2026-07-02T11:38:35.734Z</time>
      </trkpt>
      <trkpt lat="45.28441" lon="4.57538">
        <ele>737.484509</ele>
        <time>2026-07-02T11:38:37.738Z</time>
      </trkpt>
      <trkpt lat="45.28445" lon="4.57551">
        <ele>737.517073</ele>
        <time>2026-07-02T11:38:40.740Z</time>
      </trkpt>
      <trkpt lat="45.28456" lon="4.57556">
        <ele>737.552902</ele>
        <time>2026-07-02T11:38:41.730Z</time>
      </trkpt>
      <trkpt lat="45.28467" lon="4.57559">
        <ele>737.586412</ele>
        <time>2026-07-02T11:38:42.732Z</time>
      </trkpt>
      <trkpt lat="45.28478" lon="4.5756">
        <ele>737.619988</ele>
        <time>2026-07-02T11:38:43.734Z</time>
      </trkpt>
      <trkpt lat="45.28488" lon="4.57563">
        <ele>737.653775</ele>
        <time>2026-07-02T11:38:44.730Z</time>
      </trkpt>
      <trkpt lat="45.28498" lon="4.57567">
        <ele>737.687009</ele>
        <time>2026-07-02T11:38:45.741Z</time>
      </trkpt>
      <trkpt lat="45.2851" lon="4.57572">
        <ele>737.724501</ele>
        <time>2026-07-02T11:38:46.734Z</time>
      </trkpt>
      <trkpt lat="45.28521" lon="4.57578">
        <ele>737.760816</ele>
        <time>2026-07-02T11:38:47.745Z</time>
      </trkpt>
      <trkpt lat="45.2853" lon="4.57586">
        <ele>737.237375</ele>
        <time>2026-07-02T11:38:48.735Z</time>
      </trkpt>
      <trkpt lat="45.28539" lon="4.57595">
        <ele>736.52488</ele>
        <time>2026-07-02T11:38:49.737Z</time>
      </trkpt>
      <trkpt lat="45.2855" lon="4.57605">
        <ele>735.751808</ele>
        <time>2026-07-02T11:38:50.737Z</time>
      </trkpt>
      <trkpt lat="45.28559" lon="4.57616">
        <ele>734.982336</ele>
        <time>2026-07-02T11:38:51.730Z</time>
      </trkpt>
      <trkpt lat="45.28569" lon="4.57629">
        <ele>734.165261</ele>
        <time>2026-07-02T11:38:52.727Z</time>
      </trkpt>
      <trkpt lat="45.28579" lon="4.57642">
        <ele>733.340676</ele>
        <time>2026-07-02T11:38:53.738Z</time>
      </trkpt>
      <trkpt lat="45.28589" lon="4.57656">
        <ele>732.469285</ele>
        <time>2026-07-02T11:38:54.733Z</time>
      </trkpt>
      <trkpt lat="45.28599" lon="4.57669">
        <ele>731.626729</ele>
        <time>2026-07-02T11:38:55.734Z</time>
      </trkpt>
      <trkpt lat="45.28609" lon="4.57681">
        <ele>730.80984</ele>
        <time>2026-07-02T11:38:56.739Z</time>
      </trkpt>
      <trkpt lat="45.28619" lon="4.57692">
        <ele>730.021059</ele>
        <time>2026-07-02T11:38:57.741Z</time>
      </trkpt>
      <trkpt lat="45.28629" lon="4.57703">
        <ele>729.220239</ele>
        <time>2026-07-02T11:38:58.731Z</time>
      </trkpt>
      <trkpt lat="45.2864" lon="4.57715">
        <ele>728.393637</ele>
        <time>2026-07-02T11:38:59.744Z</time>
      </trkpt>
      <trkpt lat="45.28651" lon="4.57727">
        <ele>727.525932</ele>
        <time>2026-07-02T11:39:00.739Z</time>
      </trkpt>
      <trkpt lat="45.28662" lon="4.5774">
        <ele>726.64037</ele>
        <time>2026-07-02T11:39:01.732Z</time>
      </trkpt>
      <trkpt lat="45.28673" lon="4.57754">
        <ele>723.783258</ele>
        <time>2026-07-02T11:39:02.738Z</time>
      </trkpt>
      <trkpt lat="45.28682" lon="4.57764">
        <ele>721.541883</ele>
        <time>2026-07-02T11:39:03.742Z</time>
      </trkpt>
      <trkpt lat="45.28692" lon="4.57776">
        <ele>719.125102</ele>
        <time>2026-07-02T11:39:04.736Z</time>
      </trkpt>
      <trkpt lat="45.28703" lon="4.57787">
        <ele>716.503895</ele>
        <time>2026-07-02T11:39:05.737Z</time>
      </trkpt>
      <trkpt lat="45.28713" lon="4.57797">
        <ele>714.078382</ele>
        <time>2026-07-02T11:39:06.735Z</time>
      </trkpt>
      <trkpt lat="45.28723" lon="4.57804">
        <ele>711.955988</ele>
        <time>2026-07-02T11:39:07.744Z</time>
      </trkpt>
      <trkpt lat="45.28734" lon="4.5781">
        <ele>709.759651</ele>
        <time>2026-07-02T11:39:08.733Z</time>
      </trkpt>
      <trkpt lat="45.28745" lon="4.57813">
        <ele>707.495736</ele>
        <time>2026-07-02T11:39:09.741Z</time>
      </trkpt>
      <trkpt lat="45.28757" lon="4.57815">
        <ele>705.273896</ele>
        <time>2026-07-02T11:39:10.738Z</time>
      </trkpt>
      <trkpt lat="45.28769" lon="4.57817">
        <ele>702.937229</ele>
        <time>2026-07-02T11:39:11.744Z</time>
      </trkpt>
      <trkpt lat="45.28781" lon="4.57817">
        <ele>700.627245</ele>
        <time>2026-07-02T11:39:12.737Z</time>
      </trkpt>
      <trkpt lat="45.28793" lon="4.57818">
        <ele>698.239301</ele>
        <time>2026-07-02T11:39:13.737Z</time>
      </trkpt>
      <trkpt lat="45.28805" lon="4.57818">
        <ele>695.929278</ele>
        <time>2026-07-02T11:39:14.745Z</time>
      </trkpt>
      <trkpt lat="45.28817" lon="4.57818">
        <ele>693.600044</ele>
        <time>2026-07-02T11:39:15.738Z</time>
      </trkpt>
      <trkpt lat="45.28829" lon="4.57817">
        <ele>691.692851</ele>
        <time>2026-07-02T11:39:16.745Z</time>
      </trkpt>
      <trkpt lat="45.28841" lon="4.57816">
        <ele>690.713831</ele>
        <time>2026-07-02T11:39:17.736Z</time>
      </trkpt>
      <trkpt lat="45.28853" lon="4.57811">
        <ele>689.656892</ele>
        <time>2026-07-02T11:39:18.743Z</time>
      </trkpt>
      <trkpt lat="45.28864" lon="4.57803">
        <ele>688.678681</ele>
        <time>2026-07-02T11:39:19.741Z</time>
      </trkpt>
      <trkpt lat="45.28874" lon="4.57793">
        <ele>687.684593</ele>
        <time>2026-07-02T11:39:20.741Z</time>
      </trkpt>
      <trkpt lat="45.28884" lon="4.57783">
        <ele>686.636258</ele>
        <time>2026-07-02T11:39:21.735Z</time>
      </trkpt>
      <trkpt lat="45.28894" lon="4.57773">
        <ele>685.631856</ele>
        <time>2026-07-02T11:39:22.744Z</time>
      </trkpt>
      <trkpt lat="45.28904" lon="4.57763">
        <ele>684.606562</ele>
        <time>2026-07-02T11:39:23.738Z</time>
      </trkpt>
      <trkpt lat="45.28914" lon="4.57753">
        <ele>683.581977</ele>
        <time>2026-07-02T11:39:24.738Z</time>
      </trkpt>
      <trkpt lat="45.28923" lon="4.57742">
        <ele>682.579504</ele>
        <time>2026-07-02T11:39:25.744Z</time>
      </trkpt>
      <trkpt lat="45.28933" lon="4.57732">
        <ele>681.566872</ele>
        <time>2026-07-02T11:39:26.740Z</time>
      </trkpt>
      <trkpt lat="45.28941" lon="4.57721">
        <ele>680.603806</ele>
        <time>2026-07-02T11:39:27.744Z</time>
      </trkpt>
      <trkpt lat="45.28949" lon="4.57707">
        <ele>679.582566</ele>
        <time>2026-07-02T11:39:28.751Z</time>
      </trkpt>
      <trkpt lat="45.28955" lon="4.57692">
        <ele>678.540853</ele>
        <time>2026-07-02T11:39:29.741Z</time>
      </trkpt>
      <trkpt lat="45.28962" lon="4.57678">
        <ele>677.568115</ele>
        <time>2026-07-02T11:39:30.744Z</time>
      </trkpt>
      <trkpt lat="45.2897" lon="4.57666">
        <ele>676.609533</ele>
        <time>2026-07-02T11:39:31.744Z</time>
      </trkpt>
      <trkpt lat="45.28976" lon="4.57651">
        <ele>675.555967</ele>
        <time>2026-07-02T11:39:32.749Z</time>
      </trkpt>
      <trkpt lat="45.28983" lon="4.57635">
        <ele>674.456624</ele>
        <time>2026-07-02T11:39:33.738Z</time>
      </trkpt>
      <trkpt lat="45.28989" lon="4.57619">
        <ele>673.439663</ele>
        <time>2026-07-02T11:39:34.740Z</time>
      </trkpt>
      <trkpt lat="45.28996" lon="4.57603">
        <ele>672.264917</ele>
        <time>2026-07-02T11:39:35.740Z</time>
      </trkpt>
      <trkpt lat="45.29003" lon="4.57585">
        <ele>671.102985</ele>
        <time>2026-07-02T11:39:36.741Z</time>
      </trkpt>
      <trkpt lat="45.29006" lon="4.57566">
        <ele>669.943561</ele>
        <time>2026-07-02T11:39:37.738Z</time>
      </trkpt>
      <trkpt lat="45.29011" lon="4.57549">
        <ele>668.824575</ele>
        <time>2026-07-02T11:39:38.747Z</time>
      </trkpt>
      <trkpt lat="45.29017" lon="4.57534">
        <ele>667.810151</ele>
        <time>2026-07-02T11:39:39.743Z</time>
      </trkpt>
      <trkpt lat="45.29023" lon="4.57518">
        <ele>666.749038</ele>
        <time>2026-07-02T11:39:40.751Z</time>
      </trkpt>
      <trkpt lat="45.29029" lon="4.57503">
        <ele>665.728108</ele>
        <time>2026-07-02T11:39:41.749Z</time>
      </trkpt>
      <trkpt lat="45.29035" lon="4.57489">
        <ele>664.767978</ele>
        <time>2026-07-02T11:39:42.739Z</time>
      </trkpt>
      <trkpt lat="45.2904" lon="4.57476">
        <ele>663.878843</ele>
        <time>2026-07-02T11:39:43.741Z</time>
      </trkpt>
      <trkpt lat="45.29045" lon="4.57461">
        <ele>662.902414</ele>
        <time>2026-07-02T11:39:44.746Z</time>
      </trkpt>
      <trkpt lat="45.29048" lon="4.57448">
        <ele>662.119057</ele>
        <time>2026-07-02T11:39:45.704Z</time>
      </trkpt>
      <trkpt lat="45.29052" lon="4.57436">
        <ele>661.804071</ele>
        <time>2026-07-02T11:39:46.743Z</time>
      </trkpt>
      <trkpt lat="45.29059" lon="4.57417">
        <ele>661.515856</ele>
        <time>2026-07-02T11:39:48.740Z</time>
      </trkpt>
      <trkpt lat="45.29064" lon="4.57399">
        <ele>661.26411</ele>
        <time>2026-07-02T11:39:50.748Z</time>
      </trkpt>
      <trkpt lat="45.29068" lon="4.57386">
        <ele>661.078621</ele>
        <time>2026-07-02T11:39:53.745Z</time>
      </trkpt>
      <trkpt lat="45.29077" lon="4.57395">
        <ele>660.869961</ele>
        <time>2026-07-02T11:39:57.742Z</time>
      </trkpt>
      <trkpt lat="45.29079" lon="4.57413">
        <ele>660.625674</ele>
        <time>2026-07-02T11:40:00.752Z</time>
      </trkpt>
      <trkpt lat="45.29078" lon="4.57427">
        <ele>660.43955</ele>
        <time>2026-07-02T11:40:02.739Z</time>
      </trkpt>
      <trkpt lat="45.29077" lon="4.57445">
        <ele>660.208351</ele>
        <time>2026-07-02T11:40:04.740Z</time>
      </trkpt>
      <trkpt lat="45.29075" lon="4.57467">
        <ele>659.917124</ele>
        <time>2026-07-02T11:40:06.744Z</time>
      </trkpt>
      <trkpt lat="45.29071" lon="4.5749">
        <ele>659.597647</ele>
        <time>2026-07-02T11:40:08.742Z</time>
      </trkpt>
      <trkpt lat="45.29066" lon="4.57511">
        <ele>659.311761</ele>
        <time>2026-07-02T11:40:10.734Z</time>
      </trkpt>
      <trkpt lat="45.29062" lon="4.57532">
        <ele>659.02663</ele>
        <time>2026-07-02T11:40:12.738Z</time>
      </trkpt>
      <trkpt lat="45.29058" lon="4.57551">
        <ele>658.763646</ele>
        <time>2026-07-02T11:40:14.739Z</time>
      </trkpt>
      <trkpt lat="45.29052" lon="4.57569">
        <ele>658.550769</ele>
        <time>2026-07-02T11:40:16.737Z</time>
      </trkpt>
      <trkpt lat="45.29045" lon="4.5759">
        <ele>658.49238</ele>
        <time>2026-07-02T11:40:18.736Z</time>
      </trkpt>
      <trkpt lat="45.29039" lon="4.57609">
        <ele>658.439029</ele>
        <time>2026-07-02T11:40:20.735Z</time>
      </trkpt>
      <trkpt lat="45.29033" lon="4.57626">
        <ele>658.388069</ele>
        <time>2026-07-02T11:40:22.741Z</time>
      </trkpt>
      <trkpt lat="45.29026" lon="4.57641">
        <ele>658.341247</ele>
        <time>2026-07-02T11:40:24.740Z</time>
      </trkpt>
      <trkpt lat="45.2902" lon="4.57657">
        <ele>658.295294</ele>
        <time>2026-07-02T11:40:26.741Z</time>
      </trkpt>
      <trkpt lat="45.29014" lon="4.57669">
        <ele>658.256955</ele>
        <time>2026-07-02T11:40:28.742Z</time>
      </trkpt>
      <trkpt lat="45.29009" lon="4.57683">
        <ele>658.214804</ele>
        <time>2026-07-02T11:40:30.743Z</time>
      </trkpt>
      <trkpt lat="45.29003" lon="4.57698">
        <ele>658.170702</ele>
        <time>2026-07-02T11:40:32.735Z</time>
      </trkpt>
      <trkpt lat="45.28996" lon="4.57714">
        <ele>658.121948</ele>
        <time>2026-07-02T11:40:34.738Z</time>
      </trkpt>
      <trkpt lat="45.2899" lon="4.57727">
        <ele>658.081029</ele>
        <time>2026-07-02T11:40:36.742Z</time>
      </trkpt>
      <trkpt lat="45.28982" lon="4.57742">
        <ele>658.033783</ele>
        <time>2026-07-02T11:40:38.750Z</time>
      </trkpt>
      <trkpt lat="45.28974" lon="4.57753">
        <ele>657.991738</ele>
        <time>2026-07-02T11:40:40.742Z</time>
      </trkpt>
      <trkpt lat="45.28967" lon="4.57763">
        <ele>657.954942</ele>
        <time>2026-07-02T11:40:42.743Z</time>
      </trkpt>
      <trkpt lat="45.28958" lon="4.57776">
        <ele>657.908883</ele>
        <time>2026-07-02T11:40:45.751Z</time>
      </trkpt>
      <trkpt lat="45.28953" lon="4.57791">
        <ele>657.198118</ele>
        <time>2026-07-02T11:40:48.741Z</time>
      </trkpt>
      <trkpt lat="45.28947" lon="4.57802">
        <ele>656.575932</ele>
        <time>2026-07-02T11:40:50.741Z</time>
      </trkpt>
      <trkpt lat="45.28941" lon="4.57818">
        <ele>655.699332</ele>
        <time>2026-07-02T11:40:53.751Z</time>
      </trkpt>
      <trkpt lat="45.28935" lon="4.57831">
        <ele>655.002557</ele>
        <time>2026-07-02T11:40:56.743Z</time>
      </trkpt>
      <trkpt lat="45.28937" lon="4.57816">
        <ele>654.285059</ele>
        <time>2026-07-02T11:41:07.744Z</time>
      </trkpt>
      <trkpt lat="45.28947" lon="4.57805">
        <ele>653.441871</ele>
        <time>2026-07-02T11:41:10.703Z</time>
      </trkpt>
      <trkpt lat="45.28957" lon="4.57798">
        <ele>652.73469</ele>
        <time>2026-07-02T11:41:12.740Z</time>
      </trkpt>
      <trkpt lat="45.28969" lon="4.5779">
        <ele>651.850852</ele>
        <time>2026-07-02T11:41:14.739Z</time>
      </trkpt>
      <trkpt lat="45.28979" lon="4.57781">
        <ele>651.023944</ele>
        <time>2026-07-02T11:41:16.745Z</time>
      </trkpt>
      <trkpt lat="45.28989" lon="4.57769">
        <ele>650.176461</ele>
        <time>2026-07-02T11:41:18.749Z</time>
      </trkpt>
      <trkpt lat="45.28996" lon="4.57759">
        <ele>649.503313</ele>
        <time>2026-07-02T11:41:20.737Z</time>
      </trkpt>
      <trkpt lat="45.29007" lon="4.57746">
        <ele>648.53747</ele>
        <time>2026-07-02T11:41:23.743Z</time>
      </trkpt>
      <trkpt lat="45.29019" lon="4.57739">
        <ele>647.713617</ele>
        <time>2026-07-02T11:41:26.751Z</time>
      </trkpt>
      <trkpt lat="45.29023" lon="4.57756">
        <ele>646.868229</ele>
        <time>2026-07-02T11:41:30.743Z</time>
      </trkpt>
      <trkpt lat="45.29019" lon="4.5777">
        <ele>646.153507</ele>
        <time>2026-07-02T11:41:32.744Z</time>
      </trkpt>
      <trkpt lat="45.29015" lon="4.57785">
        <ele>644.18194</ele>
        <time>2026-07-02T11:41:34.747Z</time>
      </trkpt>
      <trkpt lat="45.29009" lon="4.57803">
        <ele>641.015614</ele>
        <time>2026-07-02T11:41:36.744Z</time>
      </trkpt>
      <trkpt lat="45.29004" lon="4.5782">
        <ele>637.869637</ele>
        <time>2026-07-02T11:41:38.745Z</time>
      </trkpt>
      <trkpt lat="45.28998" lon="4.57836">
        <ele>634.921403</ele>
        <time>2026-07-02T11:41:40.739Z</time>
      </trkpt>
      <trkpt lat="45.28993" lon="4.57851">
        <ele>632.167964</ele>
        <time>2026-07-02T11:41:42.744Z</time>
      </trkpt>
      <trkpt lat="45.28994" lon="4.57867">
        <ele>629.567462</ele>
        <time>2026-07-02T11:41:45.730Z</time>
      </trkpt>
      <trkpt lat="45.29007" lon="4.57865">
        <ele>626.631336</ele>
        <time>2026-07-02T11:41:48.744Z</time>
      </trkpt>
      <trkpt lat="45.29016" lon="4.57854">
        <ele>623.801845</ele>
        <time>2026-07-02T11:41:50.744Z</time>
      </trkpt>
      <trkpt lat="45.29025" lon="4.57842">
        <ele>621.016075</ele>
        <time>2026-07-02T11:41:52.739Z</time>
      </trkpt>
      <trkpt lat="45.29033" lon="4.57831">
        <ele>618.43722</ele>
        <time>2026-07-02T11:41:54.737Z</time>
      </trkpt>
      <trkpt lat="45.29043" lon="4.57826">
        <ele>615.845514</ele>
        <time>2026-07-02T11:41:57.741Z</time>
      </trkpt>
      <trkpt lat="45.29049" lon="4.57837">
        <ele>613.57023</ele>
        <time>2026-07-02T11:42:00.738Z</time>
      </trkpt>
      <trkpt lat="45.29048" lon="4.57857">
        <ele>610.211736</ele>
        <time>2026-07-02T11:42:02.742Z</time>
      </trkpt>
      <trkpt lat="45.29046" lon="4.57877">
        <ele>606.899245</ele>
        <time>2026-07-02T11:42:04.742Z</time>
      </trkpt>
      <trkpt lat="45.29045" lon="4.57893">
        <ele>604.294829</ele>
        <time>2026-07-02T11:42:06.707Z</time>
      </trkpt>
      <trkpt lat="45.29051" lon="4.57905">
        <ele>602.759933</ele>
        <time>2026-07-02T11:42:09.740Z</time>
      </trkpt>
      <trkpt lat="45.29062" lon="4.57896">
        <ele>600.892674</ele>
        <time>2026-07-02T11:42:12.740Z</time>
      </trkpt>
      <trkpt lat="45.29072" lon="4.57889">
        <ele>599.302559</ele>
        <time>2026-07-02T11:42:15.739Z</time>
      </trkpt>
      <trkpt lat="45.29076" lon="4.57906">
        <ele>597.440594</ele>
        <time>2026-07-02T11:42:18.746Z</time>
      </trkpt>
      <trkpt lat="45.29077" lon="4.57926">
        <ele>595.43288</ele>
        <time>2026-07-02T11:42:20.724Z</time>
      </trkpt>
      <trkpt lat="45.29077" lon="4.57946">
        <ele>593.388819</ele>
        <time>2026-07-02T11:42:22.741Z</time>
      </trkpt>
      <trkpt lat="45.29078" lon="4.57966">
        <ele>591.363768</ele>
        <time>2026-07-02T11:42:24.738Z</time>
      </trkpt>
      <trkpt lat="45.29079" lon="4.57989">
        <ele>589.062287</ele>
        <time>2026-07-02T11:42:26.740Z</time>
      </trkpt>
      <trkpt lat="45.29079" lon="4.5801">
        <ele>586.927158</ele>
        <time>2026-07-02T11:42:28.736Z</time>
      </trkpt>
      <trkpt lat="45.29079" lon="4.58029">
        <ele>585.00409</ele>
        <time>2026-07-02T11:42:30.739Z</time>
      </trkpt>
      <trkpt lat="45.29079" lon="4.5805">
        <ele>582.858457</ele>
        <time>2026-07-02T11:42:32.742Z</time>
      </trkpt>
      <trkpt lat="45.29081" lon="4.58074">
        <ele>580.403617</ele>
        <time>2026-07-02T11:42:34.742Z</time>
      </trkpt>
      <trkpt lat="45.29081" lon="4.58088">
        <ele>579.054047</ele>
        <time>2026-07-02T11:42:35.738Z</time>
      </trkpt>
      <trkpt lat="45.29081" lon="4.58102">
        <ele>577.747792</ele>
        <time>2026-07-02T11:42:36.738Z</time>
      </trkpt>
      <trkpt lat="45.29082" lon="4.58116">
        <ele>576.566339</ele>
        <time>2026-07-02T11:42:37.743Z</time>
      </trkpt>
      <trkpt lat="45.29082" lon="4.58131">
        <ele>575.386076</ele>
        <time>2026-07-02T11:42:38.737Z</time>
      </trkpt>
      <trkpt lat="45.29083" lon="4.58145">
        <ele>574.242978</ele>
        <time>2026-07-02T11:42:39.728Z</time>
      </trkpt>
      <trkpt lat="45.29082" lon="4.58158">
        <ele>573.125889</ele>
        <time>2026-07-02T11:42:40.732Z</time>
      </trkpt>
      <trkpt lat="45.29081" lon="4.58172">
        <ele>572.014211</ele>
        <time>2026-07-02T11:42:41.732Z</time>
      </trkpt>
      <trkpt lat="45.29079" lon="4.58198">
        <ele>569.886674</ele>
        <time>2026-07-02T11:42:43.747Z</time>
      </trkpt>
      <trkpt lat="45.29078" lon="4.58211">
        <ele>568.816563</ele>
        <time>2026-07-02T11:42:44.746Z</time>
      </trkpt>
      <trkpt lat="45.29079" lon="4.58225">
        <ele>567.683877</ele>
        <time>2026-07-02T11:42:45.735Z</time>
      </trkpt>
      <trkpt lat="45.29079" lon="4.58239">
        <ele>566.559319</ele>
        <time>2026-07-02T11:42:46.730Z</time>
      </trkpt>
      <trkpt lat="45.2908" lon="4.58252">
        <ele>565.482031</ele>
        <time>2026-07-02T11:42:47.743Z</time>
      </trkpt>
      <trkpt lat="45.29082" lon="4.58275">
        <ele>563.607547</ele>
        <time>2026-07-02T11:42:49.738Z</time>
      </trkpt>
      <trkpt lat="45.29084" lon="4.58297">
        <ele>561.768253</ele>
        <time>2026-07-02T11:42:51.735Z</time>
      </trkpt>
      <trkpt lat="45.29086" lon="4.58319">
        <ele>559.948791</ele>
        <time>2026-07-02T11:42:53.730Z</time>
      </trkpt>
      <trkpt lat="45.29089" lon="4.58342">
        <ele>558.078927</ele>
        <time>2026-07-02T11:42:55.745Z</time>
      </trkpt>
      <trkpt lat="45.29091" lon="4.58364">
        <ele>557.34881</ele>
        <time>2026-07-02T11:42:57.734Z</time>
      </trkpt>
      <trkpt lat="45.29093" lon="4.58383">
        <ele>557.281151</ele>
        <time>2026-07-02T11:42:59.730Z</time>
      </trkpt>
      <trkpt lat="45.29095" lon="4.58401">
        <ele>557.222253</ele>
        <time>2026-07-02T11:43:01.737Z</time>
      </trkpt>
      <trkpt lat="45.29096" lon="4.5842">
        <ele>557.156801</ele>
        <time>2026-07-02T11:43:03.726Z</time>
      </trkpt>
      <trkpt lat="45.29098" lon="4.58442">
        <ele>557.082488</ele>
        <time>2026-07-02T11:43:05.733Z</time>
      </trkpt>
      <trkpt lat="45.29099" lon="4.58464">
        <ele>557.005058</ele>
        <time>2026-07-02T11:43:07.737Z</time>
      </trkpt>
      <trkpt lat="45.29097" lon="4.58489">
        <ele>556.922748</ele>
        <time>2026-07-02T11:43:09.737Z</time>
      </trkpt>
      <trkpt lat="45.29098" lon="4.58509">
        <ele>556.85321</ele>
        <time>2026-07-02T11:43:11.739Z</time>
      </trkpt>
      <trkpt lat="45.29097" lon="4.58528">
        <ele>556.788748</ele>
        <time>2026-07-02T11:43:13.742Z</time>
      </trkpt>
      <trkpt lat="45.29095" lon="4.5855">
        <ele>556.715269</ele>
        <time>2026-07-02T11:43:15.746Z</time>
      </trkpt>
      <trkpt lat="45.29091" lon="4.58569">
        <ele>556.645061</ele>
        <time>2026-07-02T11:43:17.741Z</time>
      </trkpt>
      <trkpt lat="45.29086" lon="4.58591">
        <ele>556.56755</ele>
        <time>2026-07-02T11:43:19.745Z</time>
      </trkpt>
      <trkpt lat="45.2908" lon="4.58612">
        <ele>556.517691</ele>
        <time>2026-07-02T11:43:21.736Z</time>
      </trkpt>
      <trkpt lat="45.29076" lon="4.58632">
        <ele>556.496204</ele>
        <time>2026-07-02T11:43:23.741Z</time>
      </trkpt>
      <trkpt lat="45.29075" lon="4.58652">
        <ele>556.475846</ele>
        <time>2026-07-02T11:43:25.749Z</time>
      </trkpt>
      <trkpt lat="45.29075" lon="4.58674">
        <ele>556.453615</ele>
        <time>2026-07-02T11:43:27.741Z</time>
      </trkpt>
      <trkpt lat="45.29074" lon="4.58696">
        <ele>556.430921</ele>
        <time>2026-07-02T11:43:29.733Z</time>
      </trkpt>
      <trkpt lat="45.29072" lon="4.58716">
        <ele>556.410466</ele>
        <time>2026-07-02T11:43:31.729Z</time>
      </trkpt>
      <trkpt lat="45.29069" lon="4.58735">
        <ele>556.390337</ele>
        <time>2026-07-02T11:43:33.737Z</time>
      </trkpt>
      <trkpt lat="45.29068" lon="4.58754">
        <ele>556.371184</ele>
        <time>2026-07-02T11:43:35.739Z</time>
      </trkpt>
      <trkpt lat="45.29066" lon="4.58773">
        <ele>556.351256</ele>
        <time>2026-07-02T11:43:37.734Z</time>
      </trkpt>
      <trkpt lat="45.29064" lon="4.58793">
        <ele>556.330645</ele>
        <time>2026-07-02T11:43:39.739Z</time>
      </trkpt>
      <trkpt lat="45.29061" lon="4.5881">
        <ele>556.312772</ele>
        <time>2026-07-02T11:43:41.749Z</time>
      </trkpt>
      <trkpt lat="45.29057" lon="4.58828">
        <ele>556.293589</ele>
        <time>2026-07-02T11:43:43.739Z</time>
      </trkpt>
      <trkpt lat="45.29051" lon="4.58849">
        <ele>556.271068</ele>
        <time>2026-07-02T11:43:45.740Z</time>
      </trkpt>
      <trkpt lat="45.29048" lon="4.58862">
        <ele>555.82492</ele>
        <time>2026-07-02T11:43:46.749Z</time>
      </trkpt>
      <trkpt lat="45.29046" lon="4.58875">
        <ele>555.276331</ele>
        <time>2026-07-02T11:43:47.743Z</time>
      </trkpt>
      <trkpt lat="45.29043" lon="4.58888">
        <ele>554.735569</ele>
        <time>2026-07-02T11:43:48.742Z</time>
      </trkpt>
      <trkpt lat="45.29041" lon="4.58901">
        <ele>554.19338</ele>
        <time>2026-07-02T11:43:49.743Z</time>
      </trkpt>
      <trkpt lat="45.29035" lon="4.58925">
        <ele>553.156215</ele>
        <time>2026-07-02T11:43:51.740Z</time>
      </trkpt>
      <trkpt lat="45.2903" lon="4.58938">
        <ele>552.590101</ele>
        <time>2026-07-02T11:43:52.745Z</time>
      </trkpt>
      <trkpt lat="45.29025" lon="4.5895">
        <ele>552.024531</ele>
        <time>2026-07-02T11:43:53.746Z</time>
      </trkpt>
      <trkpt lat="45.29022" lon="4.58962">
        <ele>551.470534</ele>
        <time>2026-07-02T11:43:54.750Z</time>
      </trkpt>
      <trkpt lat="45.29014" lon="4.58985">
        <ele>550.461165</ele>
        <time>2026-07-02T11:43:56.736Z</time>
      </trkpt>
      <trkpt lat="45.29007" lon="4.59007">
        <ele>549.490827</ele>
        <time>2026-07-02T11:43:58.754Z</time>
      </trkpt>
      <trkpt lat="45.29002" lon="4.59018">
        <ele>548.952304</ele>
        <time>2026-07-02T11:43:59.747Z</time>
      </trkpt>
      <trkpt lat="45.28992" lon="4.59038">
        <ele>547.955779</ele>
        <time>2026-07-02T11:44:01.739Z</time>
      </trkpt>
      <trkpt lat="45.28981" lon="4.59055">
        <ele>547.035326</ele>
        <time>2026-07-02T11:44:03.739Z</time>
      </trkpt>
      <trkpt lat="45.28975" lon="4.59075">
        <ele>546.16848</ele>
        <time>2026-07-02T11:44:05.738Z</time>
      </trkpt>
      <trkpt lat="45.28967" lon="4.59091">
        <ele>545.98418</ele>
        <time>2026-07-02T11:44:07.740Z</time>
      </trkpt>
      <trkpt lat="45.28958" lon="4.59107">
        <ele>546.028551</ele>
        <time>2026-07-02T11:44:09.737Z</time>
      </trkpt>
      <trkpt lat="45.28949" lon="4.59124">
        <ele>546.074465</ele>
        <time>2026-07-02T11:44:11.742Z</time>
      </trkpt>
      <trkpt lat="45.28939" lon="4.59141">
        <ele>546.124561</ele>
        <time>2026-07-02T11:44:13.743Z</time>
      </trkpt>
      <trkpt lat="45.28929" lon="4.59162">
        <ele>546.176456</ele>
        <time>2026-07-02T11:44:15.742Z</time>
      </trkpt>
      <trkpt lat="45.28921" lon="4.59182">
        <ele>546.226534</ele>
        <time>2026-07-02T11:44:17.745Z</time>
      </trkpt>
      <trkpt lat="45.28912" lon="4.59202">
        <ele>546.278068</ele>
        <time>2026-07-02T11:44:19.741Z</time>
      </trkpt>
      <trkpt lat="45.28903" lon="4.59224">
        <ele>546.333107</ele>
        <time>2026-07-02T11:44:21.741Z</time>
      </trkpt>
      <trkpt lat="45.28895" lon="4.59245">
        <ele>546.38556</ele>
        <time>2026-07-02T11:44:23.748Z</time>
      </trkpt>
      <trkpt lat="45.28887" lon="4.59266">
        <ele>546.436538</ele>
        <time>2026-07-02T11:44:25.740Z</time>
      </trkpt>
      <trkpt lat="45.28882" lon="4.59288">
        <ele>546.486903</ele>
        <time>2026-07-02T11:44:27.750Z</time>
      </trkpt>
      <trkpt lat="45.28875" lon="4.5931">
        <ele>545.951377</ele>
        <time>2026-07-02T11:44:29.749Z</time>
      </trkpt>
      <trkpt lat="45.2887" lon="4.59331">
        <ele>545.090073</ele>
        <time>2026-07-02T11:44:31.744Z</time>
      </trkpt>
      <trkpt lat="45.28866" lon="4.59354">
        <ele>544.231543</ele>
        <time>2026-07-02T11:44:33.748Z</time>
      </trkpt>
      <trkpt lat="45.28863" lon="4.59378">
        <ele>543.326872</ele>
        <time>2026-07-02T11:44:35.743Z</time>
      </trkpt>
      <trkpt lat="45.2886" lon="4.59401">
        <ele>542.423123</ele>
        <time>2026-07-02T11:44:37.732Z</time>
      </trkpt>
      <trkpt lat="45.28855" lon="4.59423">
        <ele>541.572047</ele>
        <time>2026-07-02T11:44:39.738Z</time>
      </trkpt>
      <trkpt lat="45.2885" lon="4.59444">
        <ele>540.747517</ele>
        <time>2026-07-02T11:44:41.737Z</time>
      </trkpt>
      <trkpt lat="45.28846" lon="4.59464">
        <ele>539.942904</ele>
        <time>2026-07-02T11:44:43.737Z</time>
      </trkpt>
      <trkpt lat="45.28841" lon="4.59485">
        <ele>539.130238</ele>
        <time>2026-07-02T11:44:45.741Z</time>
      </trkpt>
      <trkpt lat="45.28839" lon="4.59503">
        <ele>538.454764</ele>
        <time>2026-07-02T11:44:47.740Z</time>
      </trkpt>
      <trkpt lat="45.28835" lon="4.59519">
        <ele>537.830006</ele>
        <time>2026-07-02T11:44:49.743Z</time>
      </trkpt>
      <trkpt lat="45.28832" lon="4.59533">
        <ele>537.272111</ele>
        <time>2026-07-02T11:44:51.742Z</time>
      </trkpt>
      <trkpt lat="45.28827" lon="4.59545">
        <ele>536.796822</ele>
        <time>2026-07-02T11:44:53.739Z</time>
      </trkpt>
      <trkpt lat="45.28822" lon="4.5956">
        <ele>536.34712</ele>
        <time>2026-07-02T11:44:55.741Z</time>
      </trkpt>
      <trkpt lat="45.28818" lon="4.59578">
        <ele>535.831693</ele>
        <time>2026-07-02T11:44:57.737Z</time>
      </trkpt>
      <trkpt lat="45.28813" lon="4.59596">
        <ele>535.298102</ele>
        <time>2026-07-02T11:44:59.743Z</time>
      </trkpt>
      <trkpt lat="45.28809" lon="4.59612">
        <ele>534.821105</ele>
        <time>2026-07-02T11:45:01.734Z</time>
      </trkpt>
      <trkpt lat="45.28806" lon="4.59631">
        <ele>534.283387</ele>
        <time>2026-07-02T11:45:03.747Z</time>
      </trkpt>
      <trkpt lat="45.28803" lon="4.59654">
        <ele>533.652882</ele>
        <time>2026-07-02T11:45:05.744Z</time>
      </trkpt>
      <trkpt lat="45.288" lon="4.59677">
        <ele>533.023014</ele>
        <time>2026-07-02T11:45:07.741Z</time>
      </trkpt>
      <trkpt lat="45.28797" lon="4.597">
        <ele>532.387765</ele>
        <time>2026-07-02T11:45:09.740Z</time>
      </trkpt>
      <trkpt lat="45.28794" lon="4.59721">
        <ele>531.782842</ele>
        <time>2026-07-02T11:45:11.748Z</time>
      </trkpt>
      <trkpt lat="45.28792" lon="4.59744">
        <ele>531.145468</ele>
        <time>2026-07-02T11:45:13.742Z</time>
      </trkpt>
      <trkpt lat="45.28792" lon="4.59757">
        <ele>530.794569</ele>
        <time>2026-07-02T11:45:14.736Z</time>
      </trkpt>
      <trkpt lat="45.28794" lon="4.59771">
        <ele>530.418264</ele>
        <time>2026-07-02T11:45:15.736Z</time>
      </trkpt>
      <trkpt lat="45.28797" lon="4.59794">
        <ele>530.087154</ele>
        <time>2026-07-02T11:45:17.738Z</time>
      </trkpt>
      <trkpt lat="45.28801" lon="4.59817">
        <ele>530.693014</ele>
        <time>2026-07-02T11:45:19.745Z</time>
      </trkpt>
      <trkpt lat="45.28806" lon="4.5984">
        <ele>531.304529</ele>
        <time>2026-07-02T11:45:21.747Z</time>
      </trkpt>
      <trkpt lat="45.28813" lon="4.59861">
        <ele>531.875156</ele>
        <time>2026-07-02T11:45:23.745Z</time>
      </trkpt>
      <trkpt lat="45.28819" lon="4.59881">
        <ele>532.43195</ele>
        <time>2026-07-02T11:45:25.739Z</time>
      </trkpt>
      <trkpt lat="45.28823" lon="4.59893">
        <ele>532.75688</ele>
        <time>2026-07-02T11:45:26.745Z</time>
      </trkpt>
      <trkpt lat="45.28827" lon="4.59911">
        <ele>533.243281</ele>
        <time>2026-07-02T11:45:28.746Z</time>
      </trkpt>
      <trkpt lat="45.28834" lon="4.5993">
        <ele>533.761844</ele>
        <time>2026-07-02T11:45:30.741Z</time>
      </trkpt>
      <trkpt lat="45.28842" lon="4.59948">
        <ele>534.289413</ele>
        <time>2026-07-02T11:45:32.736Z</time>
      </trkpt>
      <trkpt lat="45.28851" lon="4.59964">
        <ele>534.812147</ele>
        <time>2026-07-02T11:45:34.739Z</time>
      </trkpt>
      <trkpt lat="45.28862" lon="4.5998">
        <ele>535.363275</ele>
        <time>2026-07-02T11:45:36.741Z</time>
      </trkpt>
      <trkpt lat="45.2887" lon="4.59994">
        <ele>535.832732</ele>
        <time>2026-07-02T11:45:38.738Z</time>
      </trkpt>
      <trkpt lat="45.28881" lon="4.60009">
        <ele>536.323072</ele>
        <time>2026-07-02T11:45:40.746Z</time>
      </trkpt>
      <trkpt lat="45.28891" lon="4.60023">
        <ele>535.595086</ele>
        <time>2026-07-02T11:45:42.739Z</time>
      </trkpt>
      <trkpt lat="45.28902" lon="4.60038">
        <ele>534.833113</ele>
        <time>2026-07-02T11:45:44.750Z</time>
      </trkpt>
      <trkpt lat="45.28913" lon="4.60051">
        <ele>534.10846</ele>
        <time>2026-07-02T11:45:46.743Z</time>
      </trkpt>
      <trkpt lat="45.28924" lon="4.60068">
        <ele>533.277523</ele>
        <time>2026-07-02T11:45:48.734Z</time>
      </trkpt>
      <trkpt lat="45.28931" lon="4.60076">
        <ele>532.822987</ele>
        <time>2026-07-02T11:45:49.741Z</time>
      </trkpt>
      <trkpt lat="45.28943" lon="4.60089">
        <ele>532.064286</ele>
        <time>2026-07-02T11:45:51.737Z</time>
      </trkpt>
      <trkpt lat="45.28951" lon="4.60097">
        <ele>531.569797</ele>
        <time>2026-07-02T11:45:52.740Z</time>
      </trkpt>
      <trkpt lat="45.28965" lon="4.60106">
        <ele>530.810568</ele>
        <time>2026-07-02T11:45:54.733Z</time>
      </trkpt>
      <trkpt lat="45.28978" lon="4.60111">
        <ele>530.10713</ele>
        <time>2026-07-02T11:45:56.743Z</time>
      </trkpt>
      <trkpt lat="45.28992" lon="4.60118">
        <ele>529.354519</ele>
        <time>2026-07-02T11:45:58.745Z</time>
      </trkpt>
      <trkpt lat="45.29" lon="4.60123">
        <ele>528.897369</ele>
        <time>2026-07-02T11:45:59.743Z</time>
      </trkpt>
      <trkpt lat="45.29009" lon="4.60128">
        <ele>528.432217</ele>
        <time>2026-07-02T11:46:00.737Z</time>
      </trkpt>
      <trkpt lat="45.29025" lon="4.60135">
        <ele>527.59779</ele>
        <time>2026-07-02T11:46:02.741Z</time>
      </trkpt>
      <trkpt lat="45.29039" lon="4.60143">
        <ele>526.989098</ele>
        <time>2026-07-02T11:46:04.747Z</time>
      </trkpt>
      <trkpt lat="45.29052" lon="4.6015">
        <ele>526.556086</ele>
        <time>2026-07-02T11:46:06.742Z</time>
      </trkpt>
      <trkpt lat="45.29066" lon="4.60157">
        <ele>526.110399</ele>
        <time>2026-07-02T11:46:08.743Z</time>
      </trkpt>
      <trkpt lat="45.29078" lon="4.60165">
        <ele>525.713656</ele>
        <time>2026-07-02T11:46:10.706Z</time>
      </trkpt>
      <trkpt lat="45.29091" lon="4.60175">
        <ele>525.282629</ele>
        <time>2026-07-02T11:46:12.724Z</time>
      </trkpt>
      <trkpt lat="45.29102" lon="4.60188">
        <ele>524.852107</ele>
        <time>2026-07-02T11:46:14.719Z</time>
      </trkpt>
      <trkpt lat="45.29108" lon="4.60199">
        <ele>524.545249</ele>
        <time>2026-07-02T11:46:15.698Z</time>
      </trkpt>
      <trkpt lat="45.29117" lon="4.60211">
        <ele>524.169138</ele>
        <time>2026-07-02T11:46:17.702Z</time>
      </trkpt>
      <trkpt lat="45.29126" lon="4.60217">
        <ele>523.879004</ele>
        <time>2026-07-02T11:46:19.728Z</time>
      </trkpt>
      <trkpt lat="45.29139" lon="4.60215">
        <ele>523.486843</ele>
        <time>2026-07-02T11:46:21.700Z</time>
      </trkpt>
      <trkpt lat="45.29152" lon="4.60216">
        <ele>523.092818</ele>
        <time>2026-07-02T11:46:23.737Z</time>
      </trkpt>
      <trkpt lat="45.29162" lon="4.60222">
        <ele>522.780253</ele>
        <time>2026-07-02T11:46:25.726Z</time>
      </trkpt>
      <trkpt lat="45.29171" lon="4.60228">
        <ele>522.465946</ele>
        <time>2026-07-02T11:46:27.731Z</time>
      </trkpt>
      <trkpt lat="45.29182" lon="4.60233">
        <ele>522.132994</ele>
        <time>2026-07-02T11:46:29.746Z</time>
      </trkpt>
      <trkpt lat="45.29191" lon="4.60237">
        <ele>521.859338</ele>
        <time>2026-07-02T11:46:31.741Z</time>
      </trkpt>
      <trkpt lat="45.29197" lon="4.60248">
        <ele>521.58513</ele>
        <time>2026-07-02T11:46:34.695Z</time>
      </trkpt>
      <trkpt lat="45.29198" lon="4.60264">
        <ele>521.282487</ele>
        <time>2026-07-02T11:46:36.741Z</time>
      </trkpt>
      <trkpt lat="45.29199" lon="4.6028">
        <ele>520.960439</ele>
        <time>2026-07-02T11:46:38.744Z</time>
      </trkpt>
      <trkpt lat="45.292" lon="4.60298">
        <ele>520.617837</ele>
        <time>2026-07-02T11:46:40.750Z</time>
      </trkpt>
      <trkpt lat="45.29201" lon="4.60316">
        <ele>520.273489</ele>
        <time>2026-07-02T11:46:42.744Z</time>
      </trkpt>
      <trkpt lat="45.29202" lon="4.60335">
        <ele>519.908852</ele>
        <time>2026-07-02T11:46:44.743Z</time>
      </trkpt>
      <trkpt lat="45.29204" lon="4.60355">
        <ele>519.533528</ele>
        <time>2026-07-02T11:46:46.729Z</time>
      </trkpt>
      <trkpt lat="45.29207" lon="4.60374">
        <ele>519.161576</ele>
        <time>2026-07-02T11:46:48.744Z</time>
      </trkpt>
      <trkpt lat="45.29209" lon="4.60393">
        <ele>518.797083</ele>
        <time>2026-07-02T11:46:50.737Z</time>
      </trkpt>
      <trkpt lat="45.29211" lon="4.60412">
        <ele>518.413305</ele>
        <time>2026-07-02T11:46:52.738Z</time>
      </trkpt>
      <trkpt lat="45.29213" lon="4.60432">
        <ele>518.044307</ele>
        <time>2026-07-02T11:46:54.735Z</time>
      </trkpt>
      <trkpt lat="45.29214" lon="4.60453">
        <ele>517.642263</ele>
        <time>2026-07-02T11:46:56.741Z</time>
      </trkpt>
      <trkpt lat="45.29215" lon="4.60476">
        <ele>517.191999</ele>
        <time>2026-07-02T11:46:58.743Z</time>
      </trkpt>
      <trkpt lat="45.29216" lon="4.60498">
        <ele>517.028199</ele>
        <time>2026-07-02T11:47:00.744Z</time>
      </trkpt>
      <trkpt lat="45.29219" lon="4.60519">
        <ele>517.266853</ele>
        <time>2026-07-02T11:47:02.747Z</time>
      </trkpt>
      <trkpt lat="45.29222" lon="4.60542">
        <ele>517.517343</ele>
        <time>2026-07-02T11:47:04.743Z</time>
      </trkpt>
      <trkpt lat="45.29223" lon="4.60564">
        <ele>517.753407</ele>
        <time>2026-07-02T11:47:06.742Z</time>
      </trkpt>
      <trkpt lat="45.29225" lon="4.60586">
        <ele>517.998994</ele>
        <time>2026-07-02T11:47:08.741Z</time>
      </trkpt>
      <trkpt lat="45.29225" lon="4.60608">
        <ele>518.233247</ele>
        <time>2026-07-02T11:47:10.750Z</time>
      </trkpt>
      <trkpt lat="45.29226" lon="4.60631">
        <ele>518.483616</ele>
        <time>2026-07-02T11:47:12.742Z</time>
      </trkpt>
      <trkpt lat="45.29229" lon="4.60651">
        <ele>518.703396</ele>
        <time>2026-07-02T11:47:14.739Z</time>
      </trkpt>
      <trkpt lat="45.29231" lon="4.60673">
        <ele>518.950131</ele>
        <time>2026-07-02T11:47:16.743Z</time>
      </trkpt>
      <trkpt lat="45.29233" lon="4.60696">
        <ele>519.201281</ele>
        <time>2026-07-02T11:47:18.741Z</time>
      </trkpt>
      <trkpt lat="45.29237" lon="4.60717">
        <ele>519.433584</ele>
        <time>2026-07-02T11:47:20.741Z</time>
      </trkpt>
      <trkpt lat="45.2924" lon="4.60735">
        <ele>519.638206</ele>
        <time>2026-07-02T11:47:22.740Z</time>
      </trkpt>
      <trkpt lat="45.29245" lon="4.60754">
        <ele>519.51814</ele>
        <time>2026-07-02T11:47:24.746Z</time>
      </trkpt>
      <trkpt lat="45.29251" lon="4.60773">
        <ele>519.205246</ele>
        <time>2026-07-02T11:47:26.749Z</time>
      </trkpt>
      <trkpt lat="45.29257" lon="4.6079">
        <ele>518.934568</ele>
        <time>2026-07-02T11:47:28.747Z</time>
      </trkpt>
      <trkpt lat="45.29263" lon="4.60811">
        <ele>518.599758</ele>
        <time>2026-07-02T11:47:30.740Z</time>
      </trkpt>
      <trkpt lat="45.29268" lon="4.60828">
        <ele>518.321286</ele>
        <time>2026-07-02T11:47:32.741Z</time>
      </trkpt>
      <trkpt lat="45.29274" lon="4.60846">
        <ele>518.029352</ele>
        <time>2026-07-02T11:47:34.711Z</time>
      </trkpt>
      <trkpt lat="45.29278" lon="4.60867">
        <ele>517.717692</ele>
        <time>2026-07-02T11:47:36.721Z</time>
      </trkpt>
      <trkpt lat="45.2928" lon="4.60887">
        <ele>517.413273</ele>
        <time>2026-07-02T11:47:38.744Z</time>
      </trkpt>
      <trkpt lat="45.29282" lon="4.60908">
        <ele>517.108103</ele>
        <time>2026-07-02T11:47:40.736Z</time>
      </trkpt>
      <trkpt lat="45.29285" lon="4.60927">
        <ele>516.817374</ele>
        <time>2026-07-02T11:47:42.741Z</time>
      </trkpt>
      <trkpt lat="45.29285" lon="4.60948">
        <ele>516.508199</ele>
        <time>2026-07-02T11:47:44.746Z</time>
      </trkpt>
      <trkpt lat="45.29285" lon="4.60968">
        <ele>516.221459</ele>
        <time>2026-07-02T11:47:46.746Z</time>
      </trkpt>
      <trkpt lat="45.29286" lon="4.60989">
        <ele>515.901739</ele>
        <time>2026-07-02T11:47:48.746Z</time>
      </trkpt>
      <trkpt lat="45.29285" lon="4.61011">
        <ele>515.567749</ele>
        <time>2026-07-02T11:47:50.739Z</time>
      </trkpt>
      <trkpt lat="45.29283" lon="4.61033">
        <ele>515.212926</ele>
        <time>2026-07-02T11:47:52.745Z</time>
      </trkpt>
      <trkpt lat="45.29281" lon="4.61054">
        <ele>514.885311</ele>
        <time>2026-07-02T11:47:54.746Z</time>
      </trkpt>
      <trkpt lat="45.29281" lon="4.61073">
        <ele>514.587515</ele>
        <time>2026-07-02T11:47:56.754Z</time>
      </trkpt>
      <trkpt lat="45.2928" lon="4.61091">
        <ele>514.29878</ele>
        <time>2026-07-02T11:47:58.749Z</time>
      </trkpt>
      <trkpt lat="45.29279" lon="4.6111">
        <ele>514.008485</ele>
        <time>2026-07-02T11:48:00.722Z</time>
      </trkpt>
      <trkpt lat="45.29275" lon="4.61131">
        <ele>513.667719</ele>
        <time>2026-07-02T11:48:02.757Z</time>
      </trkpt>
      <trkpt lat="45.2927" lon="4.61151">
        <ele>513.339294</ele>
        <time>2026-07-02T11:48:04.746Z</time>
      </trkpt>
      <trkpt lat="45.29263" lon="4.61169">
        <ele>513.016527</ele>
        <time>2026-07-02T11:48:06.745Z</time>
      </trkpt>
      <trkpt lat="45.29254" lon="4.61186">
        <ele>512.679889</ele>
        <time>2026-07-02T11:48:08.745Z</time>
      </trkpt>
      <trkpt lat="45.29244" lon="4.61205">
        <ele>512.305549</ele>
        <time>2026-07-02T11:48:10.741Z</time>
      </trkpt>
      <trkpt lat="45.29236" lon="4.61226">
        <ele>511.94953</ele>
        <time>2026-07-02T11:48:12.738Z</time>
      </trkpt>
      <trkpt lat="45.29229" lon="4.61249">
        <ele>511.924166</ele>
        <time>2026-07-02T11:48:14.742Z</time>
      </trkpt>
      <trkpt lat="45.29226" lon="4.61272">
        <ele>511.900767</ele>
        <time>2026-07-02T11:48:16.744Z</time>
      </trkpt>
      <trkpt lat="45.29223" lon="4.61296">
        <ele>511.876629</ele>
        <time>2026-07-02T11:48:18.738Z</time>
      </trkpt>
      <trkpt lat="45.29222" lon="4.61309">
        <ele>511.863747</ele>
        <time>2026-07-02T11:48:19.741Z</time>
      </trkpt>
      <trkpt lat="45.2922" lon="4.61333">
        <ele>511.838942</ele>
        <time>2026-07-02T11:48:21.745Z</time>
      </trkpt>
      <trkpt lat="45.2922" lon="4.61347">
        <ele>511.825002</ele>
        <time>2026-07-02T11:48:22.753Z</time>
      </trkpt>
      <trkpt lat="45.29221" lon="4.61361">
        <ele>511.811622</ele>
        <time>2026-07-02T11:48:23.737Z</time>
      </trkpt>
      <trkpt lat="45.29225" lon="4.61385">
        <ele>511.786614</ele>
        <time>2026-07-02T11:48:25.731Z</time>
      </trkpt>
      <trkpt lat="45.2923" lon="4.61408">
        <ele>511.762457</ele>
        <time>2026-07-02T11:48:27.740Z</time>
      </trkpt>
      <trkpt lat="45.29236" lon="4.61432">
        <ele>511.737027</ele>
        <time>2026-07-02T11:48:29.738Z</time>
      </trkpt>
      <trkpt lat="45.29242" lon="4.61456">
        <ele>511.711926</ele>
        <time>2026-07-02T11:48:31.699Z</time>
      </trkpt>
      <trkpt lat="45.29246" lon="4.61468">
        <ele>511.698069</ele>
        <time>2026-07-02T11:48:32.738Z</time>
      </trkpt>
      <trkpt lat="45.2925" lon="4.6148">
        <ele>511.580893</ele>
        <time>2026-07-02T11:48:33.739Z</time>
      </trkpt>
      <trkpt lat="45.29253" lon="4.61493">
        <ele>511.423486</ele>
        <time>2026-07-02T11:48:34.744Z</time>
      </trkpt>
      <trkpt lat="45.29258" lon="4.61516">
        <ele>511.147558</ele>
        <time>2026-07-02T11:48:36.740Z</time>
      </trkpt>
      <trkpt lat="45.29262" lon="4.61529">
        <ele>510.993351</ele>
        <time>2026-07-02T11:48:37.738Z</time>
      </trkpt>
      <trkpt lat="45.29268" lon="4.61549">
        <ele>510.734423</ele>
        <time>2026-07-02T11:48:39.736Z</time>
      </trkpt>
      <trkpt lat="45.29274" lon="4.61572">
        <ele>510.451518</ele>
        <time>2026-07-02T11:48:41.737Z</time>
      </trkpt>
      <trkpt lat="45.29278" lon="4.61584">
        <ele>510.299315</ele>
        <time>2026-07-02T11:48:42.741Z</time>
      </trkpt>
      <trkpt lat="45.29285" lon="4.61605">
        <ele>510.03296</ele>
        <time>2026-07-02T11:48:44.740Z</time>
      </trkpt>
      <trkpt lat="45.29293" lon="4.61628">
        <ele>509.752765</ele>
        <time>2026-07-02T11:48:46.741Z</time>
      </trkpt>
      <trkpt lat="45.293" lon="4.61651">
        <ele>509.465526</ele>
        <time>2026-07-02T11:48:48.721Z</time>
      </trkpt>
      <trkpt lat="45.29302" lon="4.61663">
        <ele>509.31565</ele>
        <time>2026-07-02T11:48:49.732Z</time>
      </trkpt>
      <trkpt lat="45.29306" lon="4.61687">
        <ele>509.038135</ele>
        <time>2026-07-02T11:48:51.736Z</time>
      </trkpt>
      <trkpt lat="45.29308" lon="4.61699">
        <ele>508.889956</ele>
        <time>2026-07-02T11:48:52.739Z</time>
      </trkpt>
      <trkpt lat="45.2931" lon="4.61713">
        <ele>508.671897</ele>
        <time>2026-07-02T11:48:53.740Z</time>
      </trkpt>
      <trkpt lat="45.29312" lon="4.61729">
        <ele>508.16936</ele>
        <time>2026-07-02T11:48:54.738Z</time>
      </trkpt>
      <trkpt lat="45.29313" lon="4.61743">
        <ele>507.739571</ele>
        <time>2026-07-02T11:48:55.744Z</time>
      </trkpt>
      <trkpt lat="45.29313" lon="4.61756">
        <ele>507.33546</ele>
        <time>2026-07-02T11:48:56.741Z</time>
      </trkpt>
      <trkpt lat="45.29312" lon="4.61782">
        <ele>506.53723</ele>
        <time>2026-07-02T11:48:58.735Z</time>
      </trkpt>
      <trkpt lat="45.2931" lon="4.61796">
        <ele>506.11509</ele>
        <time>2026-07-02T11:48:59.745Z</time>
      </trkpt>
      <trkpt lat="45.29308" lon="4.61808">
        <ele>505.722841</ele>
        <time>2026-07-02T11:49:00.736Z</time>
      </trkpt>
      <trkpt lat="45.29304" lon="4.61832">
        <ele>504.979022</ele>
        <time>2026-07-02T11:49:02.739Z</time>
      </trkpt>
      <trkpt lat="45.29302" lon="4.61844">
        <ele>504.586773</ele>
        <time>2026-07-02T11:49:03.741Z</time>
      </trkpt>
      <trkpt lat="45.29299" lon="4.61869">
        <ele>503.80925</ele>
        <time>2026-07-02T11:49:05.736Z</time>
      </trkpt>
      <trkpt lat="45.29296" lon="4.61894">
        <ele>503.048314</ele>
        <time>2026-07-02T11:49:07.741Z</time>
      </trkpt>
      <trkpt lat="45.29292" lon="4.61917">
        <ele>502.317418</ele>
        <time>2026-07-02T11:49:09.742Z</time>
      </trkpt>
      <trkpt lat="45.29287" lon="4.61938">
        <ele>501.64055</ele>
        <time>2026-07-02T11:49:11.735Z</time>
      </trkpt>
      <trkpt lat="45.29282" lon="4.6196">
        <ele>500.946287</ele>
        <time>2026-07-02T11:49:13.742Z</time>
      </trkpt>
      <trkpt lat="45.29278" lon="4.61981">
        <ele>500.809777</ele>
        <time>2026-07-02T11:49:15.739Z</time>
      </trkpt>
      <trkpt lat="45.29275" lon="4.62003">
        <ele>500.674174</ele>
        <time>2026-07-02T11:49:17.735Z</time>
      </trkpt>
      <trkpt lat="45.29271" lon="4.62026">
        <ele>500.533506</ele>
        <time>2026-07-02T11:49:19.735Z</time>
      </trkpt>
      <trkpt lat="45.2927" lon="4.62048">
        <ele>500.406493</ele>
        <time>2026-07-02T11:49:21.742Z</time>
      </trkpt>
      <trkpt lat="45.29269" lon="4.62069">
        <ele>500.276232</ele>
        <time>2026-07-02T11:49:23.740Z</time>
      </trkpt>
      <trkpt lat="45.29266" lon="4.6209">
        <ele>500.147966</ele>
        <time>2026-07-02T11:49:25.733Z</time>
      </trkpt>
      <trkpt lat="45.29262" lon="4.62112">
        <ele>500.016816</ele>
        <time>2026-07-02T11:49:27.738Z</time>
      </trkpt>
      <trkpt lat="45.29257" lon="4.62134">
        <ele>499.877475</ele>
        <time>2026-07-02T11:49:29.736Z</time>
      </trkpt>
      <trkpt lat="45.29253" lon="4.62155">
        <ele>499.744379</ele>
        <time>2026-07-02T11:49:31.748Z</time>
      </trkpt>
      <trkpt lat="45.2925" lon="4.62178">
        <ele>499.606631</ele>
        <time>2026-07-02T11:49:33.739Z</time>
      </trkpt>
      <trkpt lat="45.29247" lon="4.62199">
        <ele>499.475849</ele>
        <time>2026-07-02T11:49:35.738Z</time>
      </trkpt>
      <trkpt lat="45.29244" lon="4.62222">
        <ele>499.488261</ele>
        <time>2026-07-02T11:49:37.743Z</time>
      </trkpt>
      <trkpt lat="45.29241" lon="4.62244">
        <ele>499.630014</ele>
        <time>2026-07-02T11:49:39.741Z</time>
      </trkpt>
      <trkpt lat="45.29237" lon="4.62265">
        <ele>499.767914</ele>
        <time>2026-07-02T11:49:41.735Z</time>
      </trkpt>
      <trkpt lat="45.29235" lon="4.62286">
        <ele>499.900298</ele>
        <time>2026-07-02T11:49:43.740Z</time>
      </trkpt>
      <trkpt lat="45.29233" lon="4.62307">
        <ele>500.034196</ele>
        <time>2026-07-02T11:49:45.731Z</time>
      </trkpt>
      <trkpt lat="45.29232" lon="4.62329">
        <ele>500.16916</ele>
        <time>2026-07-02T11:49:47.738Z</time>
      </trkpt>
      <trkpt lat="45.29233" lon="4.62351">
        <ele>500.307243</ele>
        <time>2026-07-02T11:49:49.734Z</time>
      </trkpt>
      <trkpt lat="45.29232" lon="4.62372">
        <ele>500.436927</ele>
        <time>2026-07-02T11:49:51.733Z</time>
      </trkpt>
      <trkpt lat="45.29232" lon="4.62393">
        <ele>500.573372</ele>
        <time>2026-07-02T11:49:53.738Z</time>
      </trkpt>
      <trkpt lat="45.29233" lon="4.62415">
        <ele>500.710488</ele>
        <time>2026-07-02T11:49:55.743Z</time>
      </trkpt>
      <trkpt lat="45.29233" lon="4.62437">
        <ele>500.848787</ele>
        <time>2026-07-02T11:49:57.739Z</time>
      </trkpt>
      <trkpt lat="45.29233" lon="4.62461">
        <ele>500.995854</ele>
        <time>2026-07-02T11:49:59.742Z</time>
      </trkpt>
      <trkpt lat="45.29231" lon="4.62483">
        <ele>500.786222</ele>
        <time>2026-07-02T11:50:01.738Z</time>
      </trkpt>
      <trkpt lat="45.2923" lon="4.62506">
        <ele>500.530596</ele>
        <time>2026-07-02T11:50:03.742Z</time>
      </trkpt>
      <trkpt lat="45.29227" lon="4.62529">
        <ele>500.26867</ele>
        <time>2026-07-02T11:50:05.734Z</time>
      </trkpt>
      <trkpt lat="45.29224" lon="4.62551">
        <ele>500.006643</ele>
        <time>2026-07-02T11:50:07.743Z</time>
      </trkpt>
      <trkpt lat="45.29223" lon="4.62576">
        <ele>499.724241</ele>
        <time>2026-07-02T11:50:09.741Z</time>
      </trkpt>
      <trkpt lat="45.29219" lon="4.62599">
        <ele>499.460366</ele>
        <time>2026-07-02T11:50:11.735Z</time>
      </trkpt>
      <trkpt lat="45.29216" lon="4.62612">
        <ele>499.311465</ele>
        <time>2026-07-02T11:50:12.740Z</time>
      </trkpt>
      <trkpt lat="45.29212" lon="4.62633">
        <ele>499.057048</ele>
        <time>2026-07-02T11:50:14.743Z</time>
      </trkpt>
      <trkpt lat="45.29208" lon="4.62655">
        <ele>498.79807</ele>
        <time>2026-07-02T11:50:16.741Z</time>
      </trkpt>
      <trkpt lat="45.29203" lon="4.62668">
        <ele>498.636044</ele>
        <time>2026-07-02T11:50:17.737Z</time>
      </trkpt>
      <trkpt lat="45.29196" lon="4.62692">
        <ele>498.339978</ele>
        <time>2026-07-02T11:50:19.747Z</time>
      </trkpt>
      <trkpt lat="45.29192" lon="4.62703">
        <ele>498.195267</ele>
        <time>2026-07-02T11:50:20.739Z</time>
      </trkpt>
      <trkpt lat="45.29187" lon="4.62715">
        <ele>497.908786</ele>
        <time>2026-07-02T11:50:21.738Z</time>
      </trkpt>
      <trkpt lat="45.29183" lon="4.62726">
        <ele>497.513453</ele>
        <time>2026-07-02T11:50:22.741Z</time>
      </trkpt>
      <trkpt lat="45.29171" lon="4.62745">
        <ele>496.742739</ele>
        <time>2026-07-02T11:50:24.739Z</time>
      </trkpt>
      <trkpt lat="45.29159" lon="4.62763">
        <ele>495.9763</ele>
        <time>2026-07-02T11:50:26.749Z</time>
      </trkpt>
      <trkpt lat="45.29153" lon="4.62773">
        <ele>495.575265</ele>
        <time>2026-07-02T11:50:27.740Z</time>
      </trkpt>
      <trkpt lat="45.29139" lon="4.62791">
        <ele>494.773339</ele>
        <time>2026-07-02T11:50:29.738Z</time>
      </trkpt>
      <trkpt lat="45.29128" lon="4.62809">
        <ele>494.008065</ele>
        <time>2026-07-02T11:50:31.746Z</time>
      </trkpt>
      <trkpt lat="45.29116" lon="4.62829">
        <ele>493.220798</ele>
        <time>2026-07-02T11:50:33.734Z</time>
      </trkpt>
      <trkpt lat="45.29104" lon="4.62847">
        <ele>492.464752</ele>
        <time>2026-07-02T11:50:35.737Z</time>
      </trkpt>
      <trkpt lat="45.29093" lon="4.62865">
        <ele>491.712636</ele>
        <time>2026-07-02T11:50:37.737Z</time>
      </trkpt>
      <trkpt lat="45.29086" lon="4.62875">
        <ele>491.305878</ele>
        <time>2026-07-02T11:50:38.739Z</time>
      </trkpt>
      <trkpt lat="45.29073" lon="4.6289">
        <ele>490.557693</ele>
        <time>2026-07-02T11:50:40.738Z</time>
      </trkpt>
      <trkpt lat="45.2906" lon="4.62906">
        <ele>490.316768</ele>
        <time>2026-07-02T11:50:42.751Z</time>
      </trkpt>
      <trkpt lat="45.29048" lon="4.62921">
        <ele>490.399395</ele>
        <time>2026-07-02T11:50:44.741Z</time>
      </trkpt>
      <trkpt lat="45.29035" lon="4.62934">
        <ele>490.481635</ele>
        <time>2026-07-02T11:50:46.743Z</time>
      </trkpt>
      <trkpt lat="45.29021" lon="4.62945">
        <ele>490.565546</ele>
        <time>2026-07-02T11:50:48.744Z</time>
      </trkpt>
      <trkpt lat="45.29006" lon="4.62954">
        <ele>490.651803</ele>
        <time>2026-07-02T11:50:50.743Z</time>
      </trkpt>
      <trkpt lat="45.28991" lon="4.62963">
        <ele>490.73648</ele>
        <time>2026-07-02T11:50:52.745Z</time>
      </trkpt>
      <trkpt lat="45.28977" lon="4.62972">
        <ele>490.816899</ele>
        <time>2026-07-02T11:50:54.739Z</time>
      </trkpt>
      <trkpt lat="45.2896" lon="4.6298">
        <ele>490.909803</ele>
        <time>2026-07-02T11:50:56.738Z</time>
      </trkpt>
      <trkpt lat="45.28945" lon="4.62984">
        <ele>490.990518</ele>
        <time>2026-07-02T11:50:58.743Z</time>
      </trkpt>
      <trkpt lat="45.28929" lon="4.62986">
        <ele>491.071531</ele>
        <time>2026-07-02T11:51:00.744Z</time>
      </trkpt>
      <trkpt lat="45.28914" lon="4.62989">
        <ele>491.153042</ele>
        <time>2026-07-02T11:51:02.745Z</time>
      </trkpt>
      <trkpt lat="45.28898" lon="4.62998">
        <ele>490.972356</ele>
        <time>2026-07-02T11:51:04.744Z</time>
      </trkpt>
      <trkpt lat="45.28884" lon="4.63009">
        <ele>490.513787</ele>
        <time>2026-07-02T11:51:06.740Z</time>
      </trkpt>
      <trkpt lat="45.28869" lon="4.63019">
        <ele>490.071167</ele>
        <time>2026-07-02T11:51:08.739Z</time>
      </trkpt>
      <trkpt lat="45.28854" lon="4.63028">
        <ele>489.594076</ele>
        <time>2026-07-02T11:51:10.696Z</time>
      </trkpt>
      <trkpt lat="45.28836" lon="4.63038">
        <ele>489.066957</ele>
        <time>2026-07-02T11:51:12.731Z</time>
      </trkpt>
      <trkpt lat="45.28828" lon="4.63043">
        <ele>488.799679</ele>
        <time>2026-07-02T11:51:13.705Z</time>
      </trkpt>
      <trkpt lat="45.28819" lon="4.63046">
        <ele>488.543003</ele>
        <time>2026-07-02T11:51:14.703Z</time>
      </trkpt>
      <trkpt lat="45.2881" lon="4.63049">
        <ele>488.281358</ele>
        <time>2026-07-02T11:51:15.738Z</time>
      </trkpt>
      <trkpt lat="45.28793" lon="4.63053">
        <ele>487.813045</ele>
        <time>2026-07-02T11:51:17.741Z</time>
      </trkpt>
      <trkpt lat="45.28777" lon="4.63057">
        <ele>487.338201</ele>
        <time>2026-07-02T11:51:19.744Z</time>
      </trkpt>
      <trkpt lat="45.28761" lon="4.6306">
        <ele>486.881339</ele>
        <time>2026-07-02T11:51:21.736Z</time>
      </trkpt>
      <trkpt lat="45.28744" lon="4.63065">
        <ele>486.386212</ele>
        <time>2026-07-02T11:51:23.739Z</time>
      </trkpt>
      <trkpt lat="45.28728" lon="4.6307">
        <ele>486.185844</ele>
        <time>2026-07-02T11:51:25.699Z</time>
      </trkpt>
      <trkpt lat="45.28711" lon="4.63074">
        <ele>486.340302</ele>
        <time>2026-07-02T11:51:27.734Z</time>
      </trkpt>
      <trkpt lat="45.28702" lon="4.63075">
        <ele>486.42599</ele>
        <time>2026-07-02T11:51:28.735Z</time>
      </trkpt>
      <trkpt lat="45.28692" lon="4.63078">
        <ele>486.515746</ele>
        <time>2026-07-02T11:51:29.747Z</time>
      </trkpt>
      <trkpt lat="45.28682" lon="4.63081">
        <ele>486.604839</ele>
        <time>2026-07-02T11:51:30.740Z</time>
      </trkpt>
      <trkpt lat="45.28673" lon="4.63082">
        <ele>486.691761</ele>
        <time>2026-07-02T11:51:31.736Z</time>
      </trkpt>
      <trkpt lat="45.28663" lon="4.63084">
        <ele>486.779935</ele>
        <time>2026-07-02T11:51:32.722Z</time>
      </trkpt>
      <trkpt lat="45.28653" lon="4.63085">
        <ele>486.868779</ele>
        <time>2026-07-02T11:51:33.697Z</time>
      </trkpt>
      <trkpt lat="45.28644" lon="4.63086">
        <ele>486.956441</ele>
        <time>2026-07-02T11:51:34.737Z</time>
      </trkpt>
      <trkpt lat="45.28629" lon="4.63089">
        <ele>487.092977</ele>
        <time>2026-07-02T11:51:36.732Z</time>
      </trkpt>
      <trkpt lat="45.28612" lon="4.63092">
        <ele>487.239856</ele>
        <time>2026-07-02T11:51:38.740Z</time>
      </trkpt>
      <trkpt lat="45.28595" lon="4.63095">
        <ele>487.395489</ele>
        <time>2026-07-02T11:51:40.739Z</time>
      </trkpt>
      <trkpt lat="45.2858" lon="4.63098">
        <ele>487.538113</ele>
        <time>2026-07-02T11:51:42.746Z</time>
      </trkpt>
      <trkpt lat="45.28563" lon="4.63102">
        <ele>487.691348</ele>
        <time>2026-07-02T11:51:44.739Z</time>
      </trkpt>
      <trkpt lat="45.28546" lon="4.63108">
        <ele>487.428464</ele>
        <time>2026-07-02T11:51:46.742Z</time>
      </trkpt>
      <trkpt lat="45.28529" lon="4.63116">
        <ele>486.937598</ele>
        <time>2026-07-02T11:51:48.697Z</time>
      </trkpt>
      <trkpt lat="45.28514" lon="4.63126">
        <ele>486.463059</ele>
        <time>2026-07-02T11:51:50.741Z</time>
      </trkpt>
      <trkpt lat="45.285" lon="4.63135">
        <ele>486.003879</ele>
        <time>2026-07-02T11:51:52.727Z</time>
      </trkpt>
      <trkpt lat="45.28484" lon="4.63147">
        <ele>485.502554</ele>
        <time>2026-07-02T11:51:54.706Z</time>
      </trkpt>
      <trkpt lat="45.2847" lon="4.63157">
        <ele>485.053485</ele>
        <time>2026-07-02T11:51:56.739Z</time>
      </trkpt>
      <trkpt lat="45.28456" lon="4.63167">
        <ele>484.608751</ele>
        <time>2026-07-02T11:51:58.701Z</time>
      </trkpt>
      <trkpt lat="45.2844" lon="4.63176">
        <ele>484.135737</ele>
        <time>2026-07-02T11:52:00.713Z</time>
      </trkpt>
      <trkpt lat="45.28428" lon="4.63184">
        <ele>483.737293</ele>
        <time>2026-07-02T11:52:02.738Z</time>
      </trkpt>
      <trkpt lat="45.28413" lon="4.63193">
        <ele>483.282191</ele>
        <time>2026-07-02T11:52:04.739Z</time>
      </trkpt>
      <trkpt lat="45.28404" lon="4.63199">
        <ele>482.997457</ele>
        <time>2026-07-02T11:52:05.746Z</time>
      </trkpt>
      <trkpt lat="45.28391" lon="4.63211">
        <ele>482.656188</ele>
        <time>2026-07-02T11:52:07.735Z</time>
      </trkpt>
      <trkpt lat="45.28378" lon="4.63228">
        <ele>482.730922</ele>
        <time>2026-07-02T11:52:09.738Z</time>
      </trkpt>
      <trkpt lat="45.28369" lon="4.63247">
        <ele>482.799347</ele>
        <time>2026-07-02T11:52:11.742Z</time>
      </trkpt>
      <trkpt lat="45.28361" lon="4.63267">
        <ele>482.868588</ele>
        <time>2026-07-02T11:52:13.743Z</time>
      </trkpt>
      <trkpt lat="45.28353" lon="4.63287">
        <ele>482.93809</ele>
        <time>2026-07-02T11:52:15.744Z</time>
      </trkpt>
      <trkpt lat="45.28347" lon="4.63306">
        <ele>483.001817</ele>
        <time>2026-07-02T11:52:17.733Z</time>
      </trkpt>
      <trkpt lat="45.2834" lon="4.63325">
        <ele>483.066567</ele>
        <time>2026-07-02T11:52:19.720Z</time>
      </trkpt>
      <trkpt lat="45.28332" lon="4.63344">
        <ele>483.133185</ele>
        <time>2026-07-02T11:52:21.734Z</time>
      </trkpt>
      <trkpt lat="45.28326" lon="4.63364">
        <ele>483.199836</ele>
        <time>2026-07-02T11:52:23.739Z</time>
      </trkpt>
      <trkpt lat="45.28319" lon="4.63383">
        <ele>483.264836</ele>
        <time>2026-07-02T11:52:25.738Z</time>
      </trkpt>
      <trkpt lat="45.2831" lon="4.634">
        <ele>483.327469</ele>
        <time>2026-07-02T11:52:27.737Z</time>
      </trkpt>
      <trkpt lat="45.28299" lon="4.63418">
        <ele>483.40084</ele>
        <time>2026-07-02T11:52:29.738Z</time>
      </trkpt>
      <trkpt lat="45.28291" lon="4.63436">
        <ele>483.143018</ele>
        <time>2026-07-02T11:52:31.743Z</time>
      </trkpt>
      <trkpt lat="45.28281" lon="4.63451">
        <ele>482.775538</ele>
        <time>2026-07-02T11:52:33.746Z</time>
      </trkpt>
      <trkpt lat="45.28269" lon="4.63467">
        <ele>482.376176</ele>
        <time>2026-07-02T11:52:35.733Z</time>
      </trkpt>
      <trkpt lat="45.28259" lon="4.63482">
        <ele>482.002848</ele>
        <time>2026-07-02T11:52:37.737Z</time>
      </trkpt>
      <trkpt lat="45.28248" lon="4.63496">
        <ele>481.653535</ele>
        <time>2026-07-02T11:52:39.742Z</time>
      </trkpt>
      <trkpt lat="45.28239" lon="4.63512">
        <ele>481.290667</ele>
        <time>2026-07-02T11:52:41.737Z</time>
      </trkpt>
      <trkpt lat="45.28229" lon="4.63529">
        <ele>480.907662</ele>
        <time>2026-07-02T11:52:43.738Z</time>
      </trkpt>
      <trkpt lat="45.28222" lon="4.63537">
        <ele>480.683857</ele>
        <time>2026-07-02T11:52:44.742Z</time>
      </trkpt>
      <trkpt lat="45.28209" lon="4.63553">
        <ele>480.27521</ele>
        <time>2026-07-02T11:52:46.738Z</time>
      </trkpt>
      <trkpt lat="45.28199" lon="4.63569">
        <ele>479.90188</ele>
        <time>2026-07-02T11:52:48.741Z</time>
      </trkpt>
      <trkpt lat="45.2819" lon="4.63585">
        <ele>479.529655</ele>
        <time>2026-07-02T11:52:50.736Z</time>
      </trkpt>
      <trkpt lat="45.2818" lon="4.63603">
        <ele>479.140632</ele>
        <time>2026-07-02T11:52:52.742Z</time>
      </trkpt>
      <trkpt lat="45.2817" lon="4.63621">
        <ele>479.108547</ele>
        <time>2026-07-02T11:52:54.738Z</time>
      </trkpt>
      <trkpt lat="45.28161" lon="4.63638">
        <ele>479.297311</ele>
        <time>2026-07-02T11:52:56.741Z</time>
      </trkpt>
      <trkpt lat="45.28155" lon="4.63656">
        <ele>479.477396</ele>
        <time>2026-07-02T11:52:58.729Z</time>
      </trkpt>
      <trkpt lat="45.28146" lon="4.63675">
        <ele>479.675733</ele>
        <time>2026-07-02T11:53:00.734Z</time>
      </trkpt>
      <trkpt lat="45.28138" lon="4.63695">
        <ele>479.881745</ele>
        <time>2026-07-02T11:53:02.738Z</time>
      </trkpt>
      <trkpt lat="45.2813" lon="4.63715">
        <ele>480.081529</ele>
        <time>2026-07-02T11:53:04.737Z</time>
      </trkpt>
      <trkpt lat="45.28124" lon="4.63735">
        <ele>480.278687</ele>
        <time>2026-07-02T11:53:06.735Z</time>
      </trkpt>
      <trkpt lat="45.28117" lon="4.63756">
        <ele>480.478165</ele>
        <time>2026-07-02T11:53:08.735Z</time>
      </trkpt>
      <trkpt lat="45.28108" lon="4.63775">
        <ele>480.685877</ele>
        <time>2026-07-02T11:53:10.741Z</time>
      </trkpt>
      <trkpt lat="45.281" lon="4.63796">
        <ele>480.902224</ele>
        <time>2026-07-02T11:53:12.737Z</time>
      </trkpt>
      <trkpt lat="45.28091" lon="4.63818">
        <ele>481.125359</ele>
        <time>2026-07-02T11:53:14.701Z</time>
      </trkpt>
      <trkpt lat="45.28086" lon="4.63829">
        <ele>481.241467</ele>
        <time>2026-07-02T11:53:15.693Z</time>
      </trkpt>
      <trkpt lat="45.28081" lon="4.6384">
        <ele>481.031079</ele>
        <time>2026-07-02T11:53:16.738Z</time>
      </trkpt>
      <trkpt lat="45.28072" lon="4.63862">
        <ele>480.538688</ele>
        <time>2026-07-02T11:53:18.736Z</time>
      </trkpt>
      <trkpt lat="45.28063" lon="4.63884">
        <ele>480.045525</ele>
        <time>2026-07-02T11:53:20.742Z</time>
      </trkpt>
      <trkpt lat="45.28058" lon="4.63894">
        <ele>479.796493</ele>
        <time>2026-07-02T11:53:21.739Z</time>
      </trkpt>
      <trkpt lat="45.28053" lon="4.63905">
        <ele>479.541205</ele>
        <time>2026-07-02T11:53:22.737Z</time>
      </trkpt>
      <trkpt lat="45.28048" lon="4.63916">
        <ele>479.287422</ele>
        <time>2026-07-02T11:53:23.741Z</time>
      </trkpt>
      <trkpt lat="45.28039" lon="4.63939">
        <ele>478.793815</ele>
        <time>2026-07-02T11:53:25.737Z</time>
      </trkpt>
      <trkpt lat="45.28034" lon="4.6395">
        <ele>478.544896</ele>
        <time>2026-07-02T11:53:26.737Z</time>
      </trkpt>
      <trkpt lat="45.28024" lon="4.63971">
        <ele>478.051946</ele>
        <time>2026-07-02T11:53:28.738Z</time>
      </trkpt>
      <trkpt lat="45.28015" lon="4.63992">
        <ele>477.561882</ele>
        <time>2026-07-02T11:53:30.741Z</time>
      </trkpt>
      <trkpt lat="45.28009" lon="4.64003">
        <ele>477.30037</ele>
        <time>2026-07-02T11:53:31.724Z</time>
      </trkpt>
      <trkpt lat="45.28004" lon="4.64014">
        <ele>477.039579</ele>
        <time>2026-07-02T11:53:32.738Z</time>
      </trkpt>
      <trkpt lat="45.27999" lon="4.64026">
        <ele>476.776294</ele>
        <time>2026-07-02T11:53:33.739Z</time>
      </trkpt>
      <trkpt lat="45.27994" lon="4.64037">
        <ele>476.526896</ele>
        <time>2026-07-02T11:53:34.743Z</time>
      </trkpt>
      <trkpt lat="45.27986" lon="4.64059">
        <ele>476.096244</ele>
        <time>2026-07-02T11:53:36.739Z</time>
      </trkpt>
      <trkpt lat="45.27976" lon="4.64081">
        <ele>475.690203</ele>
        <time>2026-07-02T11:53:38.738Z</time>
      </trkpt>
      <trkpt lat="45.27971" lon="4.64092">
        <ele>475.486654</ele>
        <time>2026-07-02T11:53:39.737Z</time>
      </trkpt>
      <trkpt lat="45.27961" lon="4.64112">
        <ele>475.108443</ele>
        <time>2026-07-02T11:53:41.746Z</time>
      </trkpt>
      <trkpt lat="45.27953" lon="4.64133">
        <ele>474.743497</ele>
        <time>2026-07-02T11:53:43.737Z</time>
      </trkpt>
      <trkpt lat="45.27945" lon="4.64154">
        <ele>474.376626</ele>
        <time>2026-07-02T11:53:45.734Z</time>
      </trkpt>
      <trkpt lat="45.27935" lon="4.64175">
        <ele>473.989499</ele>
        <time>2026-07-02T11:53:47.735Z</time>
      </trkpt>
      <trkpt lat="45.27926" lon="4.64197">
        <ele>473.59455</ele>
        <time>2026-07-02T11:53:49.733Z</time>
      </trkpt>
      <trkpt lat="45.27921" lon="4.64208">
        <ele>473.394539</ele>
        <time>2026-07-02T11:53:50.737Z</time>
      </trkpt>
      <trkpt lat="45.27916" lon="4.64219">
        <ele>473.193352</ele>
        <time>2026-07-02T11:53:51.737Z</time>
      </trkpt>
      <trkpt lat="45.27911" lon="4.6423">
        <ele>472.997104</ele>
        <time>2026-07-02T11:53:52.743Z</time>
      </trkpt>
      <trkpt lat="45.27906" lon="4.64241">
        <ele>472.795917</ele>
        <time>2026-07-02T11:53:53.721Z</time>
      </trkpt>
      <trkpt lat="45.27902" lon="4.64252">
        <ele>472.597775</ele>
        <time>2026-07-02T11:53:54.738Z</time>
      </trkpt>
      <trkpt lat="45.27893" lon="4.64273">
        <ele>472.403789</ele>
        <time>2026-07-02T11:53:56.742Z</time>
      </trkpt>
      <trkpt lat="45.27888" lon="4.64284">
        <ele>472.445223</ele>
        <time>2026-07-02T11:53:57.740Z</time>
      </trkpt>
      <trkpt lat="45.27883" lon="4.64295">
        <ele>472.489379</ele>
        <time>2026-07-02T11:53:58.745Z</time>
      </trkpt>
      <trkpt lat="45.27878" lon="4.64306">
        <ele>472.530703</ele>
        <time>2026-07-02T11:53:59.749Z</time>
      </trkpt>
      <trkpt lat="45.27873" lon="4.64317">
        <ele>472.572945</ele>
        <time>2026-07-02T11:54:00.736Z</time>
      </trkpt>
      <trkpt lat="45.27868" lon="4.64328">
        <ele>472.614379</ele>
        <time>2026-07-02T11:54:01.741Z</time>
      </trkpt>
      <trkpt lat="45.2786" lon="4.64349">
        <ele>472.692528</ele>
        <time>2026-07-02T11:54:03.737Z</time>
      </trkpt>
      <trkpt lat="45.27851" lon="4.6437">
        <ele>472.770677</ele>
        <time>2026-07-02T11:54:05.738Z</time>
      </trkpt>
      <trkpt lat="45.27846" lon="4.64382">
        <ele>472.815765</ele>
        <time>2026-07-02T11:54:06.740Z</time>
      </trkpt>
      <trkpt lat="45.27841" lon="4.64394">
        <ele>472.860363</ele>
        <time>2026-07-02T11:54:07.743Z</time>
      </trkpt>
      <trkpt lat="45.27836" lon="4.64406">
        <ele>472.903658</ele>
        <time>2026-07-02T11:54:08.740Z</time>
      </trkpt>
      <trkpt lat="45.27826" lon="4.64427">
        <ele>472.987854</ele>
        <time>2026-07-02T11:54:10.744Z</time>
      </trkpt>
      <trkpt lat="45.27821" lon="4.64438">
        <ele>473.029827</ele>
        <time>2026-07-02T11:54:11.716Z</time>
      </trkpt>
      <trkpt lat="45.27816" lon="4.64449">
        <ele>473.072565</ele>
        <time>2026-07-02T11:54:12.741Z</time>
      </trkpt>
      <trkpt lat="45.2781" lon="4.6446">
        <ele>473.115581</ele>
        <time>2026-07-02T11:54:13.739Z</time>
      </trkpt>
      <trkpt lat="45.27802" lon="4.64481">
        <ele>473.191828</ele>
        <time>2026-07-02T11:54:15.741Z</time>
      </trkpt>
      <trkpt lat="45.27794" lon="4.64502">
        <ele>472.776364</ele>
        <time>2026-07-02T11:54:17.742Z</time>
      </trkpt>
      <trkpt lat="45.27784" lon="4.64523">
        <ele>472.300131</ele>
        <time>2026-07-02T11:54:19.738Z</time>
      </trkpt>
      <trkpt lat="45.27778" lon="4.64534">
        <ele>472.06281</ele>
        <time>2026-07-02T11:54:20.744Z</time>
      </trkpt>
      <trkpt lat="45.27773" lon="4.64545">
        <ele>471.822299</ele>
        <time>2026-07-02T11:54:21.743Z</time>
      </trkpt>
      <trkpt lat="45.27768" lon="4.64556">
        <ele>471.581893</ele>
        <time>2026-07-02T11:54:22.743Z</time>
      </trkpt>
      <trkpt lat="45.27759" lon="4.64577">
        <ele>471.119742</ele>
        <time>2026-07-02T11:54:24.739Z</time>
      </trkpt>
      <trkpt lat="45.27754" lon="4.64588">
        <ele>470.88242</ele>
        <time>2026-07-02T11:54:25.749Z</time>
      </trkpt>
      <trkpt lat="45.27749" lon="4.64598">
        <ele>470.645092</ele>
        <time>2026-07-02T11:54:26.739Z</time>
      </trkpt>
      <trkpt lat="45.2774" lon="4.64619">
        <ele>470.197768</ele>
        <time>2026-07-02T11:54:28.740Z</time>
      </trkpt>
      <trkpt lat="45.27732" lon="4.6464">
        <ele>469.76241</ele>
        <time>2026-07-02T11:54:30.742Z</time>
      </trkpt>
      <trkpt lat="45.27723" lon="4.64661">
        <ele>469.308079</ele>
        <time>2026-07-02T11:54:32.746Z</time>
      </trkpt>
      <trkpt lat="45.27718" lon="4.64672">
        <ele>469.073471</ele>
        <time>2026-07-02T11:54:33.744Z</time>
      </trkpt>
      <trkpt lat="45.27709" lon="4.64693">
        <ele>468.611317</ele>
        <time>2026-07-02T11:54:35.745Z</time>
      </trkpt>
      <trkpt lat="45.27699" lon="4.64714">
        <ele>468.705438</ele>
        <time>2026-07-02T11:54:37.749Z</time>
      </trkpt>
      <trkpt lat="45.27689" lon="4.64735">
        <ele>468.974172</ele>
        <time>2026-07-02T11:54:39.735Z</time>
      </trkpt>
      <trkpt lat="45.2768" lon="4.64755">
        <ele>469.226516</ele>
        <time>2026-07-02T11:54:41.738Z</time>
      </trkpt>
      <trkpt lat="45.27672" lon="4.64775">
        <ele>469.470131</ele>
        <time>2026-07-02T11:54:43.737Z</time>
      </trkpt>
      <trkpt lat="45.27663" lon="4.64796">
        <ele>469.7246</ele>
        <time>2026-07-02T11:54:45.738Z</time>
      </trkpt>
      <trkpt lat="45.27655" lon="4.64814">
        <ele>469.957816</ele>
        <time>2026-07-02T11:54:47.743Z</time>
      </trkpt>
      <trkpt lat="45.27644" lon="4.64825">
        <ele>470.158532</ele>
        <time>2026-07-02T11:54:49.744Z</time>
      </trkpt>
      <trkpt lat="45.2763" lon="4.64827">
        <ele>470.373477</ele>
        <time>2026-07-02T11:54:51.735Z</time>
      </trkpt>
      <trkpt lat="45.27614" lon="4.64824">
        <ele>470.621756</ele>
        <time>2026-07-02T11:54:53.739Z</time>
      </trkpt>
      <trkpt lat="45.27599" lon="4.64831">
        <ele>470.862671</ele>
        <time>2026-07-02T11:54:55.760Z</time>
      </trkpt>
      <trkpt lat="45.27587" lon="4.64849">
        <ele>471.121889</ele>
        <time>2026-07-02T11:54:57.742Z</time>
      </trkpt>
      <trkpt lat="45.27584" lon="4.64862">
        <ele>471.312808</ele>
        <time>2026-07-02T11:54:58.742Z</time>
      </trkpt>
      <trkpt lat="45.2758" lon="4.64876">
        <ele>471.589759</ele>
        <time>2026-07-02T11:54:59.737Z</time>
      </trkpt>
      <trkpt lat="45.27577" lon="4.64888">
        <ele>471.846946</ele>
        <time>2026-07-02T11:55:00.737Z</time>
      </trkpt>
      <trkpt lat="45.27569" lon="4.64899">
        <ele>472.141788</ele>
        <time>2026-07-02T11:55:01.739Z</time>
      </trkpt>
      <trkpt lat="45.2756" lon="4.64909">
        <ele>472.444103</ele>
        <time>2026-07-02T11:55:02.737Z</time>
      </trkpt>
      <trkpt lat="45.27552" lon="4.64915">
        <ele>472.708155</ele>
        <time>2026-07-02T11:55:03.737Z</time>
      </trkpt>
      <trkpt lat="45.27543" lon="4.64919">
        <ele>472.970242</ele>
        <time>2026-07-02T11:55:04.741Z</time>
      </trkpt>
      <trkpt lat="45.27526" lon="4.64924">
        <ele>473.429847</ele>
        <time>2026-07-02T11:55:06.736Z</time>
      </trkpt>
      <trkpt lat="45.2751" lon="4.64927">
        <ele>473.863196</ele>
        <time>2026-07-02T11:55:08.741Z</time>
      </trkpt>
      <trkpt lat="45.27494" lon="4.6493">
        <ele>474.322852</ele>
        <time>2026-07-02T11:55:10.739Z</time>
      </trkpt>
      <trkpt lat="45.27484" lon="4.64932">
        <ele>474.584549</ele>
        <time>2026-07-02T11:55:11.745Z</time>
      </trkpt>
      <trkpt lat="45.27475" lon="4.64934">
        <ele>474.832916</ele>
        <time>2026-07-02T11:55:12.751Z</time>
      </trkpt>
      <trkpt lat="45.27466" lon="4.64935">
        <ele>475.092383</ele>
        <time>2026-07-02T11:55:13.734Z</time>
      </trkpt>
      <trkpt lat="45.27457" lon="4.64938">
        <ele>475.345928</ele>
        <time>2026-07-02T11:55:14.737Z</time>
      </trkpt>
      <trkpt lat="45.27446" lon="4.6494">
        <ele>475.636855</ele>
        <time>2026-07-02T11:55:15.739Z</time>
      </trkpt>
      <trkpt lat="45.27436" lon="4.64943">
        <ele>475.911271</ele>
        <time>2026-07-02T11:55:16.736Z</time>
      </trkpt>
      <trkpt lat="45.27427" lon="4.64946">
        <ele>476.11959</ele>
        <time>2026-07-02T11:55:17.738Z</time>
      </trkpt>
      <trkpt lat="45.27417" lon="4.64948">
        <ele>475.910713</ele>
        <time>2026-07-02T11:55:18.743Z</time>
      </trkpt>
      <trkpt lat="45.27408" lon="4.64951">
        <ele>475.715204</ele>
        <time>2026-07-02T11:55:19.749Z</time>
      </trkpt>
      <trkpt lat="45.27398" lon="4.64953">
        <ele>475.517406</ele>
        <time>2026-07-02T11:55:20.739Z</time>
      </trkpt>
      <trkpt lat="45.2738" lon="4.64957">
        <ele>475.153045</ele>
        <time>2026-07-02T11:55:22.738Z</time>
      </trkpt>
      <trkpt lat="45.27361" lon="4.64961">
        <ele>474.770766</ele>
        <time>2026-07-02T11:55:24.737Z</time>
      </trkpt>
      <trkpt lat="45.27351" lon="4.64964">
        <ele>474.554158</ele>
        <time>2026-07-02T11:55:25.735Z</time>
      </trkpt>
      <trkpt lat="45.27341" lon="4.64965">
        <ele>474.351081</ele>
        <time>2026-07-02T11:55:26.755Z</time>
      </trkpt>
      <trkpt lat="45.27331" lon="4.64967">
        <ele>474.149843</ele>
        <time>2026-07-02T11:55:27.738Z</time>
      </trkpt>
      <trkpt lat="45.27321" lon="4.64968">
        <ele>473.945529</ele>
        <time>2026-07-02T11:55:28.739Z</time>
      </trkpt>
      <trkpt lat="45.2731" lon="4.64968">
        <ele>473.735636</ele>
        <time>2026-07-02T11:55:29.734Z</time>
      </trkpt>
      <trkpt lat="45.273" lon="4.64968">
        <ele>473.527542</ele>
        <time>2026-07-02T11:55:30.741Z</time>
      </trkpt>
      <trkpt lat="45.27289" lon="4.64965">
        <ele>473.297375</ele>
        <time>2026-07-02T11:55:31.739Z</time>
      </trkpt>
      <trkpt lat="45.27278" lon="4.64963">
        <ele>473.072343</ele>
        <time>2026-07-02T11:55:32.739Z</time>
      </trkpt>
      <trkpt lat="45.27268" lon="4.6496">
        <ele>472.865487</ele>
        <time>2026-07-02T11:55:33.738Z</time>
      </trkpt>
      <trkpt lat="45.27258" lon="4.64956">
        <ele>472.662809</ele>
        <time>2026-07-02T11:55:34.739Z</time>
      </trkpt>
      <trkpt lat="45.27249" lon="4.64951">
        <ele>472.573347</ele>
        <time>2026-07-02T11:55:35.737Z</time>
      </trkpt>
      <trkpt lat="45.27239" lon="4.64944">
        <ele>472.83127</ele>
        <time>2026-07-02T11:55:36.748Z</time>
      </trkpt>
      <trkpt lat="45.2723" lon="4.64938">
        <ele>473.07943</ele>
        <time>2026-07-02T11:55:37.741Z</time>
      </trkpt>
      <trkpt lat="45.2722" lon="4.64933">
        <ele>473.348896</ele>
        <time>2026-07-02T11:55:38.741Z</time>
      </trkpt>
      <trkpt lat="45.2721" lon="4.64929">
        <ele>473.597205</ele>
        <time>2026-07-02T11:55:39.735Z</time>
      </trkpt>
      <trkpt lat="45.272" lon="4.64926">
        <ele>473.858076</ele>
        <time>2026-07-02T11:55:40.736Z</time>
      </trkpt>
      <trkpt lat="45.2719" lon="4.64924">
        <ele>474.1207</ele>
        <time>2026-07-02T11:55:41.737Z</time>
      </trkpt>
      <trkpt lat="45.27179" lon="4.64923">
        <ele>474.377781</ele>
        <time>2026-07-02T11:55:42.736Z</time>
      </trkpt>
      <trkpt lat="45.27169" lon="4.64921">
        <ele>474.637944</ele>
        <time>2026-07-02T11:55:43.734Z</time>
      </trkpt>
      <trkpt lat="45.27159" lon="4.64919">
        <ele>474.888753</ele>
        <time>2026-07-02T11:55:44.745Z</time>
      </trkpt>
      <trkpt lat="45.27149" lon="4.6492">
        <ele>475.138435</ele>
        <time>2026-07-02T11:55:45.742Z</time>
      </trkpt>
      <trkpt lat="45.27139" lon="4.6492">
        <ele>475.381988</ele>
        <time>2026-07-02T11:55:46.736Z</time>
      </trkpt>
      <trkpt lat="45.2713" lon="4.64918">
        <ele>475.607256</ele>
        <time>2026-07-02T11:55:47.736Z</time>
      </trkpt>
      <trkpt lat="45.27121" lon="4.64916">
        <ele>475.837674</ele>
        <time>2026-07-02T11:55:48.736Z</time>
      </trkpt>
      <trkpt lat="45.27112" lon="4.64914">
        <ele>476.065636</ele>
        <time>2026-07-02T11:55:49.738Z</time>
      </trkpt>
      <trkpt lat="45.27101" lon="4.64914">
        <ele>476.323698</ele>
        <time>2026-07-02T11:55:50.741Z</time>
      </trkpt>
      <trkpt lat="45.2709" lon="4.64913">
        <ele>476.599658</ele>
        <time>2026-07-02T11:55:51.739Z</time>
      </trkpt>
      <trkpt lat="45.2708" lon="4.64913">
        <ele>476.860325</ele>
        <time>2026-07-02T11:55:52.741Z</time>
      </trkpt>
      <trkpt lat="45.27069" lon="4.64913">
        <ele>476.289335</ele>
        <time>2026-07-02T11:55:53.740Z</time>
      </trkpt>
      <trkpt lat="45.27058" lon="4.64914">
        <ele>475.212839</ele>
        <time>2026-07-02T11:55:54.740Z</time>
      </trkpt>
      <trkpt lat="45.27049" lon="4.64914">
        <ele>474.238957</ele>
        <time>2026-07-02T11:55:55.741Z</time>
      </trkpt>
      <trkpt lat="45.27039" lon="4.64917">
        <ele>473.269969</ele>
        <time>2026-07-02T11:55:56.737Z</time>
      </trkpt>
      <trkpt lat="45.27027" lon="4.64919">
        <ele>472.042331</ele>
        <time>2026-07-02T11:55:57.747Z</time>
      </trkpt>
      <trkpt lat="45.27018" lon="4.64921">
        <ele>471.056924</ele>
        <time>2026-07-02T11:55:58.746Z</time>
      </trkpt>
      <trkpt lat="45.27009" lon="4.64926">
        <ele>470.06318</ele>
        <time>2026-07-02T11:55:59.739Z</time>
      </trkpt>
      <trkpt lat="45.26999" lon="4.64932">
        <ele>468.937385</ele>
        <time>2026-07-02T11:56:00.746Z</time>
      </trkpt>
      <trkpt lat="45.2699" lon="4.64941">
        <ele>467.86467</ele>
        <time>2026-07-02T11:56:01.745Z</time>
      </trkpt>
      <trkpt lat="45.26983" lon="4.6495">
        <ele>466.917306</ele>
        <time>2026-07-02T11:56:02.736Z</time>
      </trkpt>
      <trkpt lat="45.26974" lon="4.64959">
        <ele>465.790614</ele>
        <time>2026-07-02T11:56:03.745Z</time>
      </trkpt>
      <trkpt lat="45.26967" lon="4.6497">
        <ele>464.688403</ele>
        <time>2026-07-02T11:56:04.735Z</time>
      </trkpt>
      <trkpt lat="45.26961" lon="4.6498">
        <ele>463.733773</ele>
        <time>2026-07-02T11:56:05.743Z</time>
      </trkpt>
      <trkpt lat="45.26955" lon="4.64992">
        <ele>462.696731</ele>
        <time>2026-07-02T11:56:06.735Z</time>
      </trkpt>
      <trkpt lat="45.26949" lon="4.65002">
        <ele>461.733381</ele>
        <time>2026-07-02T11:56:07.749Z</time>
      </trkpt>
      <trkpt lat="45.26941" lon="4.65024">
        <ele>459.949199</ele>
        <time>2026-07-02T11:56:09.697Z</time>
      </trkpt>
      <trkpt lat="45.26938" lon="4.65036">
        <ele>459.019844</ele>
        <time>2026-07-02T11:56:10.704Z</time>
      </trkpt>
      <trkpt lat="45.26938" lon="4.65062">
        <ele>458.573732</ele>
        <time>2026-07-02T11:56:12.740Z</time>
      </trkpt>
      <trkpt lat="45.26942" lon="4.65086">
        <ele>458.592457</ele>
        <time>2026-07-02T11:56:14.736Z</time>
      </trkpt>
      <trkpt lat="45.26942" lon="4.65112">
        <ele>458.612288</ele>
        <time>2026-07-02T11:56:16.733Z</time>
      </trkpt>
      <trkpt lat="45.26942" lon="4.65135">
        <ele>458.629851</ele>
        <time>2026-07-02T11:56:18.741Z</time>
      </trkpt>
      <trkpt lat="45.26943" lon="4.65159">
        <ele>458.648188</ele>
        <time>2026-07-02T11:56:20.735Z</time>
      </trkpt>
      <trkpt lat="45.26943" lon="4.65181">
        <ele>458.664739</ele>
        <time>2026-07-02T11:56:22.731Z</time>
      </trkpt>
      <trkpt lat="45.26939" lon="4.65202">
        <ele>458.681336</ele>
        <time>2026-07-02T11:56:24.723Z</time>
      </trkpt>
      <trkpt lat="45.26933" lon="4.65221">
        <ele>458.697146</ele>
        <time>2026-07-02T11:56:26.740Z</time>
      </trkpt>
      <trkpt lat="45.26926" lon="4.65237">
        <ele>458.711562</ele>
        <time>2026-07-02T11:56:28.740Z</time>
      </trkpt>
      <trkpt lat="45.26917" lon="4.65251">
        <ele>458.725806</ele>
        <time>2026-07-02T11:56:30.744Z</time>
      </trkpt>
      <trkpt lat="45.26906" lon="4.65263">
        <ele>458.741279</ele>
        <time>2026-07-02T11:56:32.737Z</time>
      </trkpt>
      <trkpt lat="45.26894" lon="4.65275">
        <ele>458.884503</ele>
        <time>2026-07-02T11:56:34.751Z</time>
      </trkpt>
      <trkpt lat="45.26883" lon="4.65283">
        <ele>459.48372</ele>
        <time>2026-07-02T11:56:36.742Z</time>
      </trkpt>
      <trkpt lat="45.26872" lon="4.6529">
        <ele>460.07792</ele>
        <time>2026-07-02T11:56:38.739Z</time>
      </trkpt>
      <trkpt lat="45.2686" lon="4.65295">
        <ele>460.640657</ele>
        <time>2026-07-02T11:56:40.739Z</time>
      </trkpt>
      <trkpt lat="45.2685" lon="4.65301">
        <ele>461.155728</ele>
        <time>2026-07-02T11:56:42.746Z</time>
      </trkpt>
      <trkpt lat="45.26839" lon="4.65307">
        <ele>461.743036</ele>
        <time>2026-07-02T11:56:44.746Z</time>
      </trkpt>
      <trkpt lat="45.26827" lon="4.65312">
        <ele>462.30108</ele>
        <time>2026-07-02T11:56:46.739Z</time>
      </trkpt>
      <trkpt lat="45.26817" lon="4.65316">
        <ele>462.798236</ele>
        <time>2026-07-02T11:56:48.735Z</time>
      </trkpt>
      <trkpt lat="45.26807" lon="4.65323">
        <ele>463.343657</ele>
        <time>2026-07-02T11:56:50.745Z</time>
      </trkpt>
      <trkpt lat="45.26795" lon="4.65333">
        <ele>464.000027</ele>
        <time>2026-07-02T11:56:52.743Z</time>
      </trkpt>
      <trkpt lat="45.26785" lon="4.65345">
        <ele>464.610995</ele>
        <time>2026-07-02T11:56:54.741Z</time>
      </trkpt>
      <trkpt lat="45.26775" lon="4.65355">
        <ele>465.185184</ele>
        <time>2026-07-02T11:56:56.735Z</time>
      </trkpt>
      <trkpt lat="45.26766" lon="4.65365">
        <ele>465.745763</ele>
        <time>2026-07-02T11:56:58.738Z</time>
      </trkpt>
      <trkpt lat="45.26756" lon="4.65376">
        <ele>466.322404</ele>
        <time>2026-07-02T11:57:00.747Z</time>
      </trkpt>
      <trkpt lat="45.26748" lon="4.65389">
        <ele>466.889183</ele>
        <time>2026-07-02T11:57:02.739Z</time>
      </trkpt>
      <trkpt lat="45.26741" lon="4.654">
        <ele>467.397712</ele>
        <time>2026-07-02T11:57:04.743Z</time>
      </trkpt>
      <trkpt lat="45.26735" lon="4.65412">
        <ele>467.856978</ele>
        <time>2026-07-02T11:57:06.743Z</time>
      </trkpt>
      <trkpt lat="45.26728" lon="4.65424">
        <ele>468.326698</ele>
        <time>2026-07-02T11:57:08.749Z</time>
      </trkpt>
      <trkpt lat="45.26724" lon="4.65436">
        <ele>468.74235</ele>
        <time>2026-07-02T11:57:10.738Z</time>
      </trkpt>
      <trkpt lat="45.26719" lon="4.65448">
        <ele>469.182516</ele>
        <time>2026-07-02T11:57:12.749Z</time>
      </trkpt>
      <trkpt lat="45.26715" lon="4.6546">
        <ele>469.601025</ele>
        <time>2026-07-02T11:57:14.739Z</time>
      </trkpt>
      <trkpt lat="45.26712" lon="4.65473">
        <ele>470.009702</ele>
        <time>2026-07-02T11:57:16.742Z</time>
      </trkpt>
      <trkpt lat="45.26708" lon="4.65484">
        <ele>470.412236</ele>
        <time>2026-07-02T11:57:18.741Z</time>
      </trkpt>
      <trkpt lat="45.26704" lon="4.65497">
        <ele>470.843995</ele>
        <time>2026-07-02T11:57:20.750Z</time>
      </trkpt>
      <trkpt lat="45.26699" lon="4.65511">
        <ele>471.336501</ele>
        <time>2026-07-02T11:57:22.741Z</time>
      </trkpt>
      <trkpt lat="45.26694" lon="4.65527">
        <ele>471.856126</ele>
        <time>2026-07-02T11:57:24.737Z</time>
      </trkpt>
      <trkpt lat="45.2669" lon="4.6554">
        <ele>472.299755</ele>
        <time>2026-07-02T11:57:26.741Z</time>
      </trkpt>
      <trkpt lat="45.26685" lon="4.65558">
        <ele>472.900033</ele>
        <time>2026-07-02T11:57:29.747Z</time>
      </trkpt>
      <trkpt lat="45.26679" lon="4.65575">
        <ele>473.503039</ele>
        <time>2026-07-02T11:57:32.742Z</time>
      </trkpt>
      <trkpt lat="45.26675" lon="4.65588">
        <ele>473.943155</ele>
        <time>2026-07-02T11:57:34.739Z</time>
      </trkpt>
      <trkpt lat="45.26672" lon="4.65602">
        <ele>474.401245</ele>
        <time>2026-07-02T11:57:36.746Z</time>
      </trkpt>
      <trkpt lat="45.26668" lon="4.65616">
        <ele>474.849015</ele>
        <time>2026-07-02T11:57:38.739Z</time>
      </trkpt>
      <trkpt lat="45.26665" lon="4.6563">
        <ele>475.132385</ele>
        <time>2026-07-02T11:57:40.741Z</time>
      </trkpt>
      <trkpt lat="45.26662" lon="4.65645">
        <ele>474.802854</ele>
        <time>2026-07-02T11:57:42.738Z</time>
      </trkpt>
      <trkpt lat="45.2666" lon="4.65659">
        <ele>474.485032</ele>
        <time>2026-07-02T11:57:44.743Z</time>
      </trkpt>
      <trkpt lat="45.26658" lon="4.65674">
        <ele>474.177253</ele>
        <time>2026-07-02T11:57:46.738Z</time>
      </trkpt>
      <trkpt lat="45.26656" lon="4.65688">
        <ele>473.870065</ele>
        <time>2026-07-02T11:57:48.736Z</time>
      </trkpt>
      <trkpt lat="45.26653" lon="4.65701">
        <ele>473.565681</ele>
        <time>2026-07-02T11:57:50.740Z</time>
      </trkpt>
      <trkpt lat="45.26651" lon="4.65715">
        <ele>473.267887</ele>
        <time>2026-07-02T11:57:52.743Z</time>
      </trkpt>
      <trkpt lat="45.26649" lon="4.65729">
        <ele>472.950064</ele>
        <time>2026-07-02T11:57:54.741Z</time>
      </trkpt>
      <trkpt lat="45.2665" lon="4.65743">
        <ele>472.650532</ele>
        <time>2026-07-02T11:57:56.739Z</time>
      </trkpt>
      <trkpt lat="45.26651" lon="4.65756">
        <ele>472.370373</ele>
        <time>2026-07-02T11:57:58.745Z</time>
      </trkpt>
      <trkpt lat="45.26652" lon="4.65771">
        <ele>472.048123</ele>
        <time>2026-07-02T11:58:00.747Z</time>
      </trkpt>
      <trkpt lat="45.26654" lon="4.65786">
        <ele>471.718744</ele>
        <time>2026-07-02T11:58:02.741Z</time>
      </trkpt>
      <trkpt lat="45.26657" lon="4.65801">
        <ele>471.398701</ele>
        <time>2026-07-02T11:58:04.744Z</time>
      </trkpt>
      <trkpt lat="45.2666" lon="4.65816">
        <ele>471.058226</ele>
        <time>2026-07-02T11:58:06.750Z</time>
      </trkpt>
      <trkpt lat="45.26662" lon="4.65829">
        <ele>470.768982</ele>
        <time>2026-07-02T11:58:08.745Z</time>
      </trkpt>
      <trkpt lat="45.26666" lon="4.65844">
        <ele>470.445388</ele>
        <time>2026-07-02T11:58:10.733Z</time>
      </trkpt>
      <trkpt lat="45.26669" lon="4.65857">
        <ele>470.14696</ele>
        <time>2026-07-02T11:58:12.741Z</time>
      </trkpt>
      <trkpt lat="45.26672" lon="4.6587">
        <ele>469.849551</ele>
        <time>2026-07-02T11:58:14.747Z</time>
      </trkpt>
      <trkpt lat="45.26676" lon="4.65883">
        <ele>469.879267</ele>
        <time>2026-07-02T11:58:16.737Z</time>
      </trkpt>
      <trkpt lat="45.26679" lon="4.65896">
        <ele>470.08907</ele>
        <time>2026-07-02T11:58:18.738Z</time>
      </trkpt>
      <trkpt lat="45.26681" lon="4.6591">
        <ele>470.321461</ele>
        <time>2026-07-02T11:58:20.751Z</time>
      </trkpt>
      <trkpt lat="45.26682" lon="4.65926">
        <ele>470.563011</ele>
        <time>2026-07-02T11:58:22.743Z</time>
      </trkpt>
      <trkpt lat="45.26682" lon="4.65941">
        <ele>470.797581</ele>
        <time>2026-07-02T11:58:24.737Z</time>
      </trkpt>
      <trkpt lat="45.26681" lon="4.65958">
        <ele>471.05623</ele>
        <time>2026-07-02T11:58:26.738Z</time>
      </trkpt>
      <trkpt lat="45.26678" lon="4.65973">
        <ele>471.303737</ele>
        <time>2026-07-02T11:58:28.738Z</time>
      </trkpt>
      <trkpt lat="45.26673" lon="4.65988">
        <ele>471.559999</ele>
        <time>2026-07-02T11:58:30.746Z</time>
      </trkpt>
      <trkpt lat="45.26664" lon="4.66003">
        <ele>471.855551</ele>
        <time>2026-07-02T11:58:32.752Z</time>
      </trkpt>
      <trkpt lat="45.26655" lon="4.66018">
        <ele>472.155065</ele>
        <time>2026-07-02T11:58:34.739Z</time>
      </trkpt>
      <trkpt lat="45.26647" lon="4.66031">
        <ele>472.41809</ele>
        <time>2026-07-02T11:58:36.747Z</time>
      </trkpt>
      <trkpt lat="45.26637" lon="4.66045">
        <ele>472.725916</ele>
        <time>2026-07-02T11:58:38.741Z</time>
      </trkpt>
      <trkpt lat="45.26627" lon="4.66057">
        <ele>473.02104</ele>
        <time>2026-07-02T11:58:40.735Z</time>
      </trkpt>
      <trkpt lat="45.26617" lon="4.66072">
        <ele>473.33323</ele>
        <time>2026-07-02T11:58:42.742Z</time>
      </trkpt>
      <trkpt lat="45.26607" lon="4.66085">
        <ele>473.633574</ele>
        <time>2026-07-02T11:58:44.747Z</time>
      </trkpt>
      <trkpt lat="45.26596" lon="4.66099">
        <ele>473.849133</ele>
        <time>2026-07-02T11:58:46.740Z</time>
      </trkpt>
      <trkpt lat="45.26586" lon="4.66112">
        <ele>474.028613</ele>
        <time>2026-07-02T11:58:48.739Z</time>
      </trkpt>
      <trkpt lat="45.26577" lon="4.66125">
        <ele>474.190635</ele>
        <time>2026-07-02T11:58:50.746Z</time>
      </trkpt>
      <trkpt lat="45.2657" lon="4.66139">
        <ele>474.347836</ele>
        <time>2026-07-02T11:58:52.742Z</time>
      </trkpt>
      <trkpt lat="45.26557" lon="4.66153">
        <ele>474.555517</ele>
        <time>2026-07-02T11:58:54.743Z</time>
      </trkpt>
      <trkpt lat="45.26549" lon="4.66169">
        <ele>474.739203</ele>
        <time>2026-07-02T11:58:56.726Z</time>
      </trkpt>
      <trkpt lat="45.26542" lon="4.66188">
        <ele>474.931439</ele>
        <time>2026-07-02T11:58:58.744Z</time>
      </trkpt>
      <trkpt lat="45.26531" lon="4.66203">
        <ele>475.127724</ele>
        <time>2026-07-02T11:59:00.744Z</time>
      </trkpt>
      <trkpt lat="45.26521" lon="4.6622">
        <ele>475.328499</ele>
        <time>2026-07-02T11:59:02.739Z</time>
      </trkpt>
      <trkpt lat="45.2651" lon="4.66236">
        <ele>475.528783</ele>
        <time>2026-07-02T11:59:04.742Z</time>
      </trkpt>
      <trkpt lat="45.265" lon="4.66252">
        <ele>475.722009</ele>
        <time>2026-07-02T11:59:06.746Z</time>
      </trkpt>
      <trkpt lat="45.26491" lon="4.66269">
        <ele>475.920829</ele>
        <time>2026-07-02T11:59:08.739Z</time>
      </trkpt>
      <trkpt lat="45.26483" lon="4.66286">
        <ele>476.022691</ele>
        <time>2026-07-02T11:59:10.737Z</time>
      </trkpt>
      <trkpt lat="45.26481" lon="4.66305">
        <ele>476.040769</ele>
        <time>2026-07-02T11:59:12.746Z</time>
      </trkpt>
      <trkpt lat="45.26478" lon="4.66326">
        <ele>476.060644</ele>
        <time>2026-07-02T11:59:14.741Z</time>
      </trkpt>
      <trkpt lat="45.26474" lon="4.66349">
        <ele>476.08303</ele>
        <time>2026-07-02T11:59:16.735Z</time>
      </trkpt>
      <trkpt lat="45.26473" lon="4.66372">
        <ele>476.105275</ele>
        <time>2026-07-02T11:59:18.744Z</time>
      </trkpt>
      <trkpt lat="45.26472" lon="4.66395">
        <ele>476.127057</ele>
        <time>2026-07-02T11:59:20.741Z</time>
      </trkpt>
      <trkpt lat="45.26471" lon="4.66416">
        <ele>476.147002</ele>
        <time>2026-07-02T11:59:22.740Z</time>
      </trkpt>
      <trkpt lat="45.26471" lon="4.66436">
        <ele>476.165439</ele>
        <time>2026-07-02T11:59:24.741Z</time>
      </trkpt>
      <trkpt lat="45.26473" lon="4.66455">
        <ele>476.183273</ele>
        <time>2026-07-02T11:59:26.742Z</time>
      </trkpt>
      <trkpt lat="45.26471" lon="4.66475">
        <ele>476.202608</ele>
        <time>2026-07-02T11:59:28.735Z</time>
      </trkpt>
      <trkpt lat="45.2647" lon="4.66496">
        <ele>476.222516</ele>
        <time>2026-07-02T11:59:30.741Z</time>
      </trkpt>
      <trkpt lat="45.26465" lon="4.66514">
        <ele>476.240255</ele>
        <time>2026-07-02T11:59:32.743Z</time>
      </trkpt>
      <trkpt lat="45.26457" lon="4.66532">
        <ele>476.112467</ele>
        <time>2026-07-02T11:59:34.741Z</time>
      </trkpt>
      <trkpt lat="45.26445" lon="4.66549">
        <ele>475.593556</ele>
        <time>2026-07-02T11:59:36.738Z</time>
      </trkpt>
      <trkpt lat="45.26433" lon="4.66564">
        <ele>475.101259</ele>
        <time>2026-07-02T11:59:38.739Z</time>
      </trkpt>
      <trkpt lat="45.26422" lon="4.66576">
        <ele>474.657885</ele>
        <time>2026-07-02T11:59:40.733Z</time>
      </trkpt>
      <trkpt lat="45.26413" lon="4.66589">
        <ele>474.266794</ele>
        <time>2026-07-02T11:59:42.737Z</time>
      </trkpt>
      <trkpt lat="45.26401" lon="4.66602">
        <ele>473.81546</ele>
        <time>2026-07-02T11:59:44.740Z</time>
      </trkpt>
      <trkpt lat="45.26391" lon="4.66614">
        <ele>473.412983</ele>
        <time>2026-07-02T11:59:46.739Z</time>
      </trkpt>
      <trkpt lat="45.2638" lon="4.66628">
        <ele>472.947882</ele>
        <time>2026-07-02T11:59:48.740Z</time>
      </trkpt>
      <trkpt lat="45.26367" lon="4.66643">
        <ele>472.450917</ele>
        <time>2026-07-02T11:59:50.738Z</time>
      </trkpt>
      <trkpt lat="45.26352" lon="4.66656">
        <ele>471.906749</ele>
        <time>2026-07-02T11:59:52.734Z</time>
      </trkpt>
      <trkpt lat="45.26342" lon="4.66671">
        <ele>471.457832</ele>
        <time>2026-07-02T11:59:54.733Z</time>
      </trkpt>
      <trkpt lat="45.26331" lon="4.66684">
        <ele>471.009451</ele>
        <time>2026-07-02T11:59:56.739Z</time>
      </trkpt>
      <trkpt lat="45.26319" lon="4.66698">
        <ele>470.934365</ele>
        <time>2026-07-02T11:59:58.741Z</time>
      </trkpt>
      <trkpt lat="45.26307" lon="4.66712">
        <ele>471.44477</ele>
        <time>2026-07-02T12:00:00.707Z</time>
      </trkpt>
      <trkpt lat="45.26296" lon="4.66726">
        <ele>471.914995</ele>
        <time>2026-07-02T12:00:02.705Z</time>
      </trkpt>
      <trkpt lat="45.26285" lon="4.66738">
        <ele>472.373432</ele>
        <time>2026-07-02T12:00:04.701Z</time>
      </trkpt>
      <trkpt lat="45.26271" lon="4.66747">
        <ele>472.86763</ele>
        <time>2026-07-02T12:00:06.740Z</time>
      </trkpt>
      <trkpt lat="45.26257" lon="4.66752">
        <ele>473.341143</ele>
        <time>2026-07-02T12:00:08.740Z</time>
      </trkpt>
      <trkpt lat="45.26242" lon="4.66754">
        <ele>473.840998</ele>
        <time>2026-07-02T12:00:10.736Z</time>
      </trkpt>
      <trkpt lat="45.26224" lon="4.66755">
        <ele>474.417617</ele>
        <time>2026-07-02T12:00:12.736Z</time>
      </trkpt>
      <trkpt lat="45.26208" lon="4.66758">
        <ele>474.933193</ele>
        <time>2026-07-02T12:00:14.739Z</time>
      </trkpt>
      <trkpt lat="45.26194" lon="4.66761">
        <ele>475.396878</ele>
        <time>2026-07-02T12:00:16.735Z</time>
      </trkpt>
      <trkpt lat="45.2618" lon="4.66764">
        <ele>475.865176</ele>
        <time>2026-07-02T12:00:18.737Z</time>
      </trkpt>
      <trkpt lat="45.26165" lon="4.66766">
        <ele>476.362439</ele>
        <time>2026-07-02T12:00:20.726Z</time>
      </trkpt>
      <trkpt lat="45.26151" lon="4.66769">
        <ele>476.54903</ele>
        <time>2026-07-02T12:00:22.737Z</time>
      </trkpt>
      <trkpt lat="45.2614" lon="4.66773">
        <ele>476.498231</ele>
        <time>2026-07-02T12:00:24.740Z</time>
      </trkpt>
      <trkpt lat="45.26127" lon="4.66776">
        <ele>476.437139</ele>
        <time>2026-07-02T12:00:26.735Z</time>
      </trkpt>
      <trkpt lat="45.26116" lon="4.66776">
        <ele>476.38358</ele>
        <time>2026-07-02T12:00:28.739Z</time>
      </trkpt>
      <trkpt lat="45.26105" lon="4.66775">
        <ele>476.334612</ele>
        <time>2026-07-02T12:00:30.737Z</time>
      </trkpt>
      <trkpt lat="45.26094" lon="4.66778">
        <ele>476.281653</ele>
        <time>2026-07-02T12:00:32.744Z</time>
      </trkpt>
      <trkpt lat="45.26088" lon="4.66794">
        <ele>476.2199</ele>
        <time>2026-07-02T12:00:34.739Z</time>
      </trkpt>
      <trkpt lat="45.26082" lon="4.66815">
        <ele>476.146341</ele>
        <time>2026-07-02T12:00:36.743Z</time>
      </trkpt>
      <trkpt lat="45.26071" lon="4.66832">
        <ele>476.071096</ele>
        <time>2026-07-02T12:00:38.735Z</time>
      </trkpt>
      <trkpt lat="45.26057" lon="4.66847">
        <ele>475.989979</ele>
        <time>2026-07-02T12:00:40.740Z</time>
      </trkpt>
      <trkpt lat="45.2605" lon="4.66855">
        <ele>475.946499</ele>
        <time>2026-07-02T12:00:41.736Z</time>
      </trkpt>
      <trkpt lat="45.26041" lon="4.66861">
        <ele>475.902152</ele>
        <time>2026-07-02T12:00:42.739Z</time>
      </trkpt>
      <trkpt lat="45.26033" lon="4.66867">
        <ele>475.859215</ele>
        <time>2026-07-02T12:00:43.737Z</time>
      </trkpt>
      <trkpt lat="45.26024" lon="4.66872">
        <ele>475.813589</ele>
        <time>2026-07-02T12:00:44.740Z</time>
      </trkpt>
      <trkpt lat="45.26008" lon="4.66884">
        <ele>475.658505</ele>
        <time>2026-07-02T12:00:46.733Z</time>
      </trkpt>
      <trkpt lat="45.26" lon="4.6689">
        <ele>475.403742</ele>
        <time>2026-07-02T12:00:47.753Z</time>
      </trkpt>
      <trkpt lat="45.25986" lon="4.66901">
        <ele>474.941872</ele>
        <time>2026-07-02T12:00:49.740Z</time>
      </trkpt>
      <trkpt lat="45.25971" lon="4.66911">
        <ele>474.493897</ele>
        <time>2026-07-02T12:00:51.743Z</time>
      </trkpt>
      <trkpt lat="45.25956" lon="4.66922">
        <ele>474.024029</ele>
        <time>2026-07-02T12:00:53.737Z</time>
      </trkpt>
      <trkpt lat="45.25941" lon="4.66936">
        <ele>473.524928</ele>
        <time>2026-07-02T12:00:55.737Z</time>
      </trkpt>
      <trkpt lat="45.25932" lon="4.66942">
        <ele>473.266323</ele>
        <time>2026-07-02T12:00:56.740Z</time>
      </trkpt>
      <trkpt lat="45.25916" lon="4.66953">
        <ele>472.774994</ele>
        <time>2026-07-02T12:00:58.739Z</time>
      </trkpt>
      <trkpt lat="45.259" lon="4.66963">
        <ele>472.283376</ele>
        <time>2026-07-02T12:01:00.745Z</time>
      </trkpt>
      <trkpt lat="45.2589" lon="4.66967">
        <ele>472.000834</ele>
        <time>2026-07-02T12:01:01.738Z</time>
      </trkpt>
      <trkpt lat="45.25882" lon="4.66973">
        <ele>471.741267</ele>
        <time>2026-07-02T12:01:02.733Z</time>
      </trkpt>
      <trkpt lat="45.25866" lon="4.66979">
        <ele>471.278841</ele>
        <time>2026-07-02T12:01:04.735Z</time>
      </trkpt>
      <trkpt lat="45.25855" lon="4.66982">
        <ele>470.982284</ele>
        <time>2026-07-02T12:01:05.733Z</time>
      </trkpt>
      <trkpt lat="45.25845" lon="4.66986">
        <ele>470.758778</ele>
        <time>2026-07-02T12:01:06.739Z</time>
      </trkpt>
      <trkpt lat="45.25836" lon="4.6699">
        <ele>470.727037</ele>
        <time>2026-07-02T12:01:07.734Z</time>
      </trkpt>
      <trkpt lat="45.25826" lon="4.66994">
        <ele>470.695727</ele>
        <time>2026-07-02T12:01:08.739Z</time>
      </trkpt>
      <trkpt lat="45.25817" lon="4.66998">
        <ele>470.665435</ele>
        <time>2026-07-02T12:01:09.717Z</time>
      </trkpt>
      <trkpt lat="45.25809" lon="4.67002">
        <ele>470.636768</ele>
        <time>2026-07-02T12:01:10.724Z</time>
      </trkpt>
      <trkpt lat="45.25792" lon="4.67011">
        <ele>470.580434</ele>
        <time>2026-07-02T12:01:12.762Z</time>
      </trkpt>
      <trkpt lat="45.25784" lon="4.67017">
        <ele>470.550973</ele>
        <time>2026-07-02T12:01:13.751Z</time>
      </trkpt>
      <trkpt lat="45.25768" lon="4.67023">
        <ele>470.496946</ele>
        <time>2026-07-02T12:01:15.697Z</time>
      </trkpt>
      <trkpt lat="45.25752" lon="4.67029">
        <ele>470.444322</ele>
        <time>2026-07-02T12:01:17.717Z</time>
      </trkpt>
      <trkpt lat="45.25734" lon="4.67029">
        <ele>470.388491</ele>
        <time>2026-07-02T12:01:19.707Z</time>
      </trkpt>
      <trkpt lat="45.25725" lon="4.67028">
        <ele>470.359313</ele>
        <time>2026-07-02T12:01:20.715Z</time>
      </trkpt>
      <trkpt lat="45.25716" lon="4.67024">
        <ele>470.328929</ele>
        <time>2026-07-02T12:01:21.698Z</time>
      </trkpt>
      <trkpt lat="45.25707" lon="4.67021">
        <ele>470.300057</ele>
        <time>2026-07-02T12:01:22.716Z</time>
      </trkpt>
      <trkpt lat="45.25691" lon="4.67014">
        <ele>470.244991</ele>
        <time>2026-07-02T12:01:24.699Z</time>
      </trkpt>
      <trkpt lat="45.25677" lon="4.67009">
        <ele>470.198882</ele>
        <time>2026-07-02T12:01:26.705Z</time>
      </trkpt>
      <trkpt lat="45.25668" lon="4.67003">
        <ele>470.010568</ele>
        <time>2026-07-02T12:01:29.710Z</time>
      </trkpt>
      <trkpt lat="45.25659" lon="4.66995">
        <ele>469.77531</ele>
        <time>2026-07-02T12:01:34.735Z</time>
      </trkpt>
      <trkpt lat="45.25648" lon="4.66985">
        <ele>469.461555</ele>
        <time>2026-07-02T12:01:37.740Z</time>
      </trkpt>
      <trkpt lat="45.2564" lon="4.66972">
        <ele>469.19249</ele>
        <time>2026-07-02T12:01:39.738Z</time>
      </trkpt>
      <trkpt lat="45.25632" lon="4.66957">
        <ele>468.896456</ele>
        <time>2026-07-02T12:01:41.708Z</time>
      </trkpt>
      <trkpt lat="45.25625" lon="4.66944">
        <ele>468.614783</ele>
        <time>2026-07-02T12:01:43.738Z</time>
      </trkpt>
      <trkpt lat="45.25616" lon="4.6693">
        <ele>468.31701</ele>
        <time>2026-07-02T12:01:45.741Z</time>
      </trkpt>
      <trkpt lat="45.25607" lon="4.66917">
        <ele>468.020909</ele>
        <time>2026-07-02T12:01:47.736Z</time>
      </trkpt>
      <trkpt lat="45.25598" lon="4.66904">
        <ele>467.725203</ele>
        <time>2026-07-02T12:01:49.751Z</time>
      </trkpt>
      <trkpt lat="45.25589" lon="4.66893">
        <ele>467.444329</ele>
        <time>2026-07-02T12:01:51.743Z</time>
      </trkpt>
      <trkpt lat="45.25579" lon="4.66881">
        <ele>467.149037</ele>
        <time>2026-07-02T12:01:53.743Z</time>
      </trkpt>
      <trkpt lat="45.25568" lon="4.66869">
        <ele>466.843554</ele>
        <time>2026-07-02T12:01:55.743Z</time>
      </trkpt>
      <trkpt lat="45.25557" lon="4.66853">
        <ele>466.479902</ele>
        <time>2026-07-02T12:01:57.737Z</time>
      </trkpt>
      <trkpt lat="45.25546" lon="4.66838">
        <ele>466.121578</ele>
        <time>2026-07-02T12:01:59.745Z</time>
      </trkpt>
      <trkpt lat="45.25534" lon="4.66826">
        <ele>465.899001</ele>
        <time>2026-07-02T12:02:01.745Z</time>
      </trkpt>
      <trkpt lat="45.25519" lon="4.66817">
        <ele>465.685097</ele>
        <time>2026-07-02T12:02:03.743Z</time>
      </trkpt>
      <trkpt lat="45.25506" lon="4.66806">
        <ele>465.476229</ele>
        <time>2026-07-02T12:02:05.742Z</time>
      </trkpt>
      <trkpt lat="45.25489" lon="4.66801">
        <ele>465.246126</ele>
        <time>2026-07-02T12:02:07.742Z</time>
      </trkpt>
      <trkpt lat="45.25472" lon="4.66795">
        <ele>465.007137</ele>
        <time>2026-07-02T12:02:09.730Z</time>
      </trkpt>
      <trkpt lat="45.25463" lon="4.66792">
        <ele>464.877068</ele>
        <time>2026-07-02T12:02:10.745Z</time>
      </trkpt>
      <trkpt lat="45.25453" lon="4.66788">
        <ele>464.742253</ele>
        <time>2026-07-02T12:02:11.725Z</time>
      </trkpt>
      <trkpt lat="45.25443" lon="4.66783">
        <ele>464.60428</ele>
        <time>2026-07-02T12:02:12.739Z</time>
      </trkpt>
      <trkpt lat="45.25434" lon="4.66778">
        <ele>464.467573</ele>
        <time>2026-07-02T12:02:13.748Z</time>
      </trkpt>
      <trkpt lat="45.25424" lon="4.66774">
        <ele>464.330457</ele>
        <time>2026-07-02T12:02:14.748Z</time>
      </trkpt>
      <trkpt lat="45.25415" lon="4.6677">
        <ele>464.20171</ele>
        <time>2026-07-02T12:02:15.742Z</time>
      </trkpt>
      <trkpt lat="45.25406" lon="4.66764">
        <ele>464.063881</ele>
        <time>2026-07-02T12:02:16.735Z</time>
      </trkpt>
      <trkpt lat="45.25396" lon="4.66759">
        <ele>463.928751</ele>
        <time>2026-07-02T12:02:17.739Z</time>
      </trkpt>
      <trkpt lat="45.25387" lon="4.66755">
        <ele>463.798354</ele>
        <time>2026-07-02T12:02:18.740Z</time>
      </trkpt>
      <trkpt lat="45.25377" lon="4.6675">
        <ele>463.652943</ele>
        <time>2026-07-02T12:02:19.737Z</time>
      </trkpt>
      <trkpt lat="45.25366" lon="4.66745">
        <ele>463.047299</ele>
        <time>2026-07-02T12:02:20.745Z</time>
      </trkpt>
      <trkpt lat="45.25357" lon="4.6674">
        <ele>462.44133</ele>
        <time>2026-07-02T12:02:21.743Z</time>
      </trkpt>
      <trkpt lat="45.25347" lon="4.66736">
        <ele>461.827805</ele>
        <time>2026-07-02T12:02:22.734Z</time>
      </trkpt>
      <trkpt lat="45.25336" lon="4.66733">
        <ele>461.192939</ele>
        <time>2026-07-02T12:02:23.739Z</time>
      </trkpt>
      <trkpt lat="45.25327" lon="4.6673">
        <ele>460.632582</ele>
        <time>2026-07-02T12:02:24.740Z</time>
      </trkpt>
      <trkpt lat="45.25318" lon="4.66735">
        <ele>460.030711</ele>
        <time>2026-07-02T12:02:25.736Z</time>
      </trkpt>
      <trkpt lat="45.25308" lon="4.66744">
        <ele>459.35022</ele>
        <time>2026-07-02T12:02:26.741Z</time>
      </trkpt>
      <trkpt lat="45.25299" lon="4.66751">
        <ele>458.764442</ele>
        <time>2026-07-02T12:02:27.736Z</time>
      </trkpt>
      <trkpt lat="45.2529" lon="4.66762">
        <ele>458.061685</ele>
        <time>2026-07-02T12:02:28.742Z</time>
      </trkpt>
      <trkpt lat="45.25284" lon="4.66775">
        <ele>457.406222</ele>
        <time>2026-07-02T12:02:29.743Z</time>
      </trkpt>
      <trkpt lat="45.25275" lon="4.66787">
        <ele>456.681152</ele>
        <time>2026-07-02T12:02:30.745Z</time>
      </trkpt>
      <trkpt lat="45.25267" lon="4.66799">
        <ele>455.965032</ele>
        <time>2026-07-02T12:02:31.740Z</time>
      </trkpt>
      <trkpt lat="45.2526" lon="4.66811">
        <ele>455.311625</ele>
        <time>2026-07-02T12:02:32.739Z</time>
      </trkpt>
      <trkpt lat="45.25252" lon="4.66824">
        <ele>454.606818</ele>
        <time>2026-07-02T12:02:33.747Z</time>
      </trkpt>
      <trkpt lat="45.25243" lon="4.66836">
        <ele>453.882309</ele>
        <time>2026-07-02T12:02:34.739Z</time>
      </trkpt>
      <trkpt lat="45.25234" lon="4.66848">
        <ele>453.132079</ele>
        <time>2026-07-02T12:02:35.738Z</time>
      </trkpt>
      <trkpt lat="45.25224" lon="4.66859">
        <ele>452.391138</ele>
        <time>2026-07-02T12:02:36.739Z</time>
      </trkpt>
      <trkpt lat="45.25215" lon="4.66871">
        <ele>451.656081</ele>
        <time>2026-07-02T12:02:37.743Z</time>
      </trkpt>
      <trkpt lat="45.25206" lon="4.66882">
        <ele>450.987022</ele>
        <time>2026-07-02T12:02:38.752Z</time>
      </trkpt>
      <trkpt lat="45.25197" lon="4.66891">
        <ele>450.329</ele>
        <time>2026-07-02T12:02:39.741Z</time>
      </trkpt>
      <trkpt lat="45.25188" lon="4.669">
        <ele>449.702845</ele>
        <time>2026-07-02T12:02:40.705Z</time>
      </trkpt>
      <trkpt lat="45.25179" lon="4.66907">
        <ele>449.102577</ele>
        <time>2026-07-02T12:02:41.743Z</time>
      </trkpt>
      <trkpt lat="45.2517" lon="4.66913">
        <ele>448.472154</ele>
        <time>2026-07-02T12:02:42.744Z</time>
      </trkpt>
      <trkpt lat="45.25161" lon="4.66917">
        <ele>447.905685</ele>
        <time>2026-07-02T12:02:43.739Z</time>
      </trkpt>
      <trkpt lat="45.25146" lon="4.66919">
        <ele>447.04583</ele>
        <time>2026-07-02T12:02:45.733Z</time>
      </trkpt>
      <trkpt lat="45.25132" lon="4.66918">
        <ele>446.217274</ele>
        <time>2026-07-02T12:02:47.737Z</time>
      </trkpt>
      <trkpt lat="45.25119" lon="4.66924">
        <ele>445.375189</ele>
        <time>2026-07-02T12:02:49.741Z</time>
      </trkpt>
      <trkpt lat="45.25103" lon="4.66934">
        <ele>444.387351</ele>
        <time>2026-07-02T12:02:51.738Z</time>
      </trkpt>
      <trkpt lat="45.25089" lon="4.66941">
        <ele>443.489117</ele>
        <time>2026-07-02T12:02:53.742Z</time>
      </trkpt>
      <trkpt lat="45.25073" lon="4.66946">
        <ele>442.498427</ele>
        <time>2026-07-02T12:02:55.741Z</time>
      </trkpt>
      <trkpt lat="45.25062" lon="4.66951">
        <ele>441.928012</ele>
        <time>2026-07-02T12:02:57.735Z</time>
      </trkpt>
      <trkpt lat="45.25049" lon="4.66954">
        <ele>441.301756</ele>
        <time>2026-07-02T12:03:00.741Z</time>
      </trkpt>
      <trkpt lat="45.25039" lon="4.66955">
        <ele>440.833454</ele>
        <time>2026-07-02T12:03:02.738Z</time>
      </trkpt>
      <trkpt lat="45.25031" lon="4.66961">
        <ele>440.380758</ele>
        <time>2026-07-02T12:03:04.738Z</time>
      </trkpt>
      <trkpt lat="45.25024" lon="4.66973">
        <ele>439.835275</ele>
        <time>2026-07-02T12:03:06.753Z</time>
      </trkpt>
      <trkpt lat="45.25025" lon="4.66987">
        <ele>439.375233</ele>
        <time>2026-07-02T12:03:08.739Z</time>
      </trkpt>
      <trkpt lat="45.25031" lon="4.66999">
        <ele>438.888922</ele>
        <time>2026-07-02T12:03:10.735Z</time>
      </trkpt>
      <trkpt lat="45.25033" lon="4.67013">
        <ele>438.403434</ele>
        <time>2026-07-02T12:03:12.742Z</time>
      </trkpt>
      <trkpt lat="45.25026" lon="4.67027">
        <ele>437.813488</ele>
        <time>2026-07-02T12:03:14.739Z</time>
      </trkpt>
      <trkpt lat="45.25015" lon="4.67041">
        <ele>437.111728</ele>
        <time>2026-07-02T12:03:16.742Z</time>
      </trkpt>
      <trkpt lat="45.25008" lon="4.67049">
        <ele>436.675802</ele>
        <time>2026-07-02T12:03:17.739Z</time>
      </trkpt>
      <trkpt lat="45.25001" lon="4.67058">
        <ele>436.201844</ele>
        <time>2026-07-02T12:03:18.738Z</time>
      </trkpt>
      <trkpt lat="45.24993" lon="4.67068">
        <ele>435.707595</ele>
        <time>2026-07-02T12:03:19.740Z</time>
      </trkpt>
      <trkpt lat="45.24984" lon="4.67089">
        <ele>434.870188</ele>
        <time>2026-07-02T12:03:21.741Z</time>
      </trkpt>
      <trkpt lat="45.24977" lon="4.67112">
        <ele>434.033664</ele>
        <time>2026-07-02T12:03:23.741Z</time>
      </trkpt>
      <trkpt lat="45.24974" lon="4.67124">
        <ele>433.585995</ele>
        <time>2026-07-02T12:03:24.740Z</time>
      </trkpt>
      <trkpt lat="45.24971" lon="4.67137">
        <ele>433.086487</ele>
        <time>2026-07-02T12:03:25.725Z</time>
      </trkpt>
      <trkpt lat="45.24968" lon="4.67151">
        <ele>432.585205</ele>
        <time>2026-07-02T12:03:26.739Z</time>
      </trkpt>
      <trkpt lat="45.24963" lon="4.67164">
        <ele>432.068306</ele>
        <time>2026-07-02T12:03:27.740Z</time>
      </trkpt>
      <trkpt lat="45.24959" lon="4.67178">
        <ele>431.5242</ele>
        <time>2026-07-02T12:03:28.741Z</time>
      </trkpt>
      <trkpt lat="45.24954" lon="4.67193">
        <ele>430.932153</ele>
        <time>2026-07-02T12:03:29.745Z</time>
      </trkpt>
      <trkpt lat="45.24951" lon="4.67209">
        <ele>430.358101</ele>
        <time>2026-07-02T12:03:30.725Z</time>
      </trkpt>
      <trkpt lat="45.24948" lon="4.67224">
        <ele>429.789402</ele>
        <time>2026-07-02T12:03:31.735Z</time>
      </trkpt>
      <trkpt lat="45.24946" lon="4.6724">
        <ele>429.212745</ele>
        <time>2026-07-02T12:03:32.737Z</time>
      </trkpt>
      <trkpt lat="45.24945" lon="4.67256">
        <ele>428.654446</ele>
        <time>2026-07-02T12:03:33.739Z</time>
      </trkpt>
      <trkpt lat="45.24943" lon="4.67273">
        <ele>428.047252</ele>
        <time>2026-07-02T12:03:34.738Z</time>
      </trkpt>
      <trkpt lat="45.24942" lon="4.6729">
        <ele>427.436294</ele>
        <time>2026-07-02T12:03:35.757Z</time>
      </trkpt>
      <trkpt lat="45.24939" lon="4.67307">
        <ele>426.7985</ele>
        <time>2026-07-02T12:03:36.742Z</time>
      </trkpt>
      <trkpt lat="45.24937" lon="4.67323">
        <ele>426.213982</ele>
        <time>2026-07-02T12:03:37.741Z</time>
      </trkpt>
      <trkpt lat="45.24934" lon="4.6734">
        <ele>425.622161</ele>
        <time>2026-07-02T12:03:38.742Z</time>
      </trkpt>
      <trkpt lat="45.24932" lon="4.67356">
        <ele>425.036749</ele>
        <time>2026-07-02T12:03:39.746Z</time>
      </trkpt>
      <trkpt lat="45.2493" lon="4.67371">
        <ele>424.470964</ele>
        <time>2026-07-02T12:03:40.745Z</time>
      </trkpt>
      <trkpt lat="45.24927" lon="4.67386">
        <ele>423.916634</ele>
        <time>2026-07-02T12:03:41.746Z</time>
      </trkpt>
      <trkpt lat="45.24926" lon="4.674">
        <ele>423.411312</ele>
        <time>2026-07-02T12:03:42.738Z</time>
      </trkpt>
      <trkpt lat="45.24924" lon="4.67416">
        <ele>422.858724</ele>
        <time>2026-07-02T12:03:43.743Z</time>
      </trkpt>
      <trkpt lat="45.24922" lon="4.67431">
        <ele>422.304385</ele>
        <time>2026-07-02T12:03:44.741Z</time>
      </trkpt>
      <trkpt lat="45.2492" lon="4.67445">
        <ele>421.800218</ele>
        <time>2026-07-02T12:03:45.748Z</time>
      </trkpt>
      <trkpt lat="45.24919" lon="4.67459">
        <ele>421.281093</ele>
        <time>2026-07-02T12:03:46.741Z</time>
      </trkpt>
      <trkpt lat="45.24917" lon="4.67474">
        <ele>420.733916</ele>
        <time>2026-07-02T12:03:47.746Z</time>
      </trkpt>
      <trkpt lat="45.24916" lon="4.67489">
        <ele>420.210177</ele>
        <time>2026-07-02T12:03:48.736Z</time>
      </trkpt>
      <trkpt lat="45.24915" lon="4.67504">
        <ele>419.668022</ele>
        <time>2026-07-02T12:03:49.741Z</time>
      </trkpt>
      <trkpt lat="45.24912" lon="4.67519">
        <ele>419.117169</ele>
        <time>2026-07-02T12:03:50.739Z</time>
      </trkpt>
      <trkpt lat="45.2491" lon="4.67535">
        <ele>418.517521</ele>
        <time>2026-07-02T12:03:51.741Z</time>
      </trkpt>
      <trkpt lat="45.24906" lon="4.6755">
        <ele>417.973079</ele>
        <time>2026-07-02T12:03:52.740Z</time>
      </trkpt>
      <trkpt lat="45.24901" lon="4.67561">
        <ele>417.490065</ele>
        <time>2026-07-02T12:03:53.742Z</time>
      </trkpt>
      <trkpt lat="45.24893" lon="4.67571">
        <ele>416.949475</ele>
        <time>2026-07-02T12:03:54.733Z</time>
      </trkpt>
      <trkpt lat="45.24884" lon="4.6758">
        <ele>416.396884</ele>
        <time>2026-07-02T12:03:55.740Z</time>
      </trkpt>
      <trkpt lat="45.24874" lon="4.67589">
        <ele>415.771068</ele>
        <time>2026-07-02T12:03:56.741Z</time>
      </trkpt>
      <trkpt lat="45.24864" lon="4.67596">
        <ele>415.344215</ele>
        <time>2026-07-02T12:03:57.743Z</time>
      </trkpt>
      <trkpt lat="45.24856" lon="4.67603">
        <ele>415.081781</ele>
        <time>2026-07-02T12:03:58.735Z</time>
      </trkpt>
      <trkpt lat="45.24844" lon="4.67614">
        <ele>414.675395</ele>
        <time>2026-07-02T12:04:00.740Z</time>
      </trkpt>
      <trkpt lat="45.24836" lon="4.67621">
        <ele>414.418344</ele>
        <time>2026-07-02T12:04:02.737Z</time>
      </trkpt>
      <trkpt lat="45.24826" lon="4.67631">
        <ele>414.093634</ele>
        <time>2026-07-02T12:04:05.739Z</time>
      </trkpt>
      <trkpt lat="45.24817" lon="4.67638">
        <ele>413.807723</ele>
        <time>2026-07-02T12:04:08.747Z</time>
      </trkpt>
      <trkpt lat="45.24809" lon="4.67646">
        <ele>413.543351</ele>
        <time>2026-07-02T12:04:12.738Z</time>
      </trkpt>
      <trkpt lat="45.248" lon="4.67653">
        <ele>413.266916</ele>
        <time>2026-07-02T12:04:24.737Z</time>
      </trkpt>
      <trkpt lat="45.2479" lon="4.6766">
        <ele>412.965698</ele>
        <time>2026-07-02T12:04:27.741Z</time>
      </trkpt>
      <trkpt lat="45.24782" lon="4.67664">
        <ele>412.714076</ele>
        <time>2026-07-02T12:04:29.738Z</time>
      </trkpt>
      <trkpt lat="45.24771" lon="4.67663">
        <ele>412.434707</ele>
        <time>2026-07-02T12:04:31.741Z</time>
      </trkpt>
      <trkpt lat="45.24759" lon="4.67658">
        <ele>412.089157</ele>
        <time>2026-07-02T12:04:33.741Z</time>
      </trkpt>
      <trkpt lat="45.24747" lon="4.67649">
        <ele>411.698428</ele>
        <time>2026-07-02T12:04:35.751Z</time>
      </trkpt>
      <trkpt lat="45.24733" lon="4.67638">
        <ele>411.268841</ele>
        <time>2026-07-02T12:04:37.741Z</time>
      </trkpt>
      <trkpt lat="45.24724" lon="4.67633">
        <ele>411.013887</ele>
        <time>2026-07-02T12:04:38.749Z</time>
      </trkpt>
      <trkpt lat="45.24715" lon="4.67627">
        <ele>410.737736</ele>
        <time>2026-07-02T12:04:39.745Z</time>
      </trkpt>
      <trkpt lat="45.24706" lon="4.67621">
        <ele>410.592848</ele>
        <time>2026-07-02T12:04:40.745Z</time>
      </trkpt>
      <trkpt lat="45.24697" lon="4.67615">
        <ele>410.809494</ele>
        <time>2026-07-02T12:04:41.745Z</time>
      </trkpt>
      <trkpt lat="45.24689" lon="4.67607">
        <ele>411.035808</ele>
        <time>2026-07-02T12:04:42.734Z</time>
      </trkpt>
      <trkpt lat="45.2468" lon="4.676">
        <ele>411.251725</ele>
        <time>2026-07-02T12:04:43.741Z</time>
      </trkpt>
      <trkpt lat="45.24671" lon="4.67592">
        <ele>411.467809</ele>
        <time>2026-07-02T12:04:44.741Z</time>
      </trkpt>
      <trkpt lat="45.24664" lon="4.67584">
        <ele>411.675004</ele>
        <time>2026-07-02T12:04:45.741Z</time>
      </trkpt>
      <trkpt lat="45.2465" lon="4.6757">
        <ele>412.035959</ele>
        <time>2026-07-02T12:04:47.738Z</time>
      </trkpt>
      <trkpt lat="45.24638" lon="4.67559">
        <ele>412.345847</ele>
        <time>2026-07-02T12:04:49.748Z</time>
      </trkpt>
      <trkpt lat="45.24628" lon="4.67551">
        <ele>412.591479</ele>
        <time>2026-07-02T12:04:51.737Z</time>
      </trkpt>
      <trkpt lat="45.24619" lon="4.67551">
        <ele>412.785974</ele>
        <time>2026-07-02T12:04:55.745Z</time>
      </trkpt>
      <trkpt lat="45.24604" lon="4.67547">
        <ele>413.107836</ele>
        <time>2026-07-02T12:05:12.745Z</time>
      </trkpt>
      <trkpt lat="45.24596" lon="4.67542">
        <ele>413.316065</ele>
        <time>2026-07-02T12:05:14.740Z</time>
      </trkpt>
      <trkpt lat="45.24587" lon="4.67534">
        <ele>413.536256</ele>
        <time>2026-07-02T12:05:16.735Z</time>
      </trkpt>
      <trkpt lat="45.24576" lon="4.67527">
        <ele>413.793528</ele>
        <time>2026-07-02T12:05:18.740Z</time>
      </trkpt>
      <trkpt lat="45.24566" lon="4.67521">
        <ele>414.037928</ele>
        <time>2026-07-02T12:05:20.740Z</time>
      </trkpt>
      <trkpt lat="45.24556" lon="4.67515">
        <ele>414.26697</ele>
        <time>2026-07-02T12:05:22.740Z</time>
      </trkpt>
      <trkpt lat="45.24546" lon="4.67509">
        <ele>414.49148</ele>
        <time>2026-07-02T12:05:24.750Z</time>
      </trkpt>
      <trkpt lat="45.24537" lon="4.67501">
        <ele>414.70898</ele>
        <time>2026-07-02T12:05:26.734Z</time>
      </trkpt>
      <trkpt lat="45.24528" lon="4.67494">
        <ele>414.921225</ele>
        <time>2026-07-02T12:05:28.754Z</time>
      </trkpt>
      <trkpt lat="45.24519" lon="4.67485">
        <ele>415.146582</ele>
        <time>2026-07-02T12:05:30.746Z</time>
      </trkpt>
      <trkpt lat="45.24512" lon="4.67472">
        <ele>415.377909</ele>
        <time>2026-07-02T12:05:32.753Z</time>
      </trkpt>
      <trkpt lat="45.24504" lon="4.6746">
        <ele>415.600555</ele>
        <time>2026-07-02T12:05:34.746Z</time>
      </trkpt>
      <trkpt lat="45.24491" lon="4.67458">
        <ele>415.864497</ele>
        <time>2026-07-02T12:05:37.742Z</time>
      </trkpt>
      <trkpt lat="45.24488" lon="4.67474">
        <ele>416.091779</ele>
        <time>2026-07-02T12:05:41.735Z</time>
      </trkpt>
      <trkpt lat="45.24487" lon="4.67488">
        <ele>416.302233</ele>
        <time>2026-07-02T12:05:43.741Z</time>
      </trkpt>
      <trkpt lat="45.24486" lon="4.67503">
        <ele>416.504929</ele>
        <time>2026-07-02T12:05:45.742Z</time>
      </trkpt>
      <trkpt lat="45.24484" lon="4.6752">
        <ele>416.759236</ele>
        <time>2026-07-02T12:05:48.748Z</time>
      </trkpt>
      <trkpt lat="45.24484" lon="4.67535">
        <ele>416.962347</ele>
        <time>2026-07-02T12:05:51.745Z</time>
      </trkpt>
      <trkpt lat="45.2448" lon="4.67547">
        <ele>417.156413</ele>
        <time>2026-07-02T12:05:54.733Z</time>
      </trkpt>
      <trkpt lat="45.24473" lon="4.6756">
        <ele>417.394505</ele>
        <time>2026-07-02T12:05:58.743Z</time>
      </trkpt>
      <trkpt lat="45.24464" lon="4.67571">
        <ele>417.629464</ele>
        <time>2026-07-02T12:06:01.740Z</time>
      </trkpt>
      <trkpt lat="45.24453" lon="4.67577">
        <ele>417.861532</ele>
        <time>2026-07-02T12:06:04.740Z</time>
      </trkpt>
      <trkpt lat="45.24441" lon="4.67582">
        <ele>418.284925</ele>
        <time>2026-07-02T12:06:07.735Z</time>
      </trkpt>
      <trkpt lat="45.24432" lon="4.67587">
        <ele>418.96484</ele>
        <time>2026-07-02T12:06:11.752Z</time>
      </trkpt>
      <trkpt lat="45.24422" lon="4.67589">
        <ele>419.63321</ele>
        <time>2026-07-02T12:06:15.735Z</time>
      </trkpt>
      <trkpt lat="45.24409" lon="4.67591">
        <ele>420.531214</ele>
        <time>2026-07-02T12:06:18.743Z</time>
      </trkpt>
      <trkpt lat="45.24396" lon="4.67593">
        <ele>421.473994</ele>
        <time>2026-07-02T12:06:21.741Z</time>
      </trkpt>
      <trkpt lat="45.24384" lon="4.67594">
        <ele>422.316972</ele>
        <time>2026-07-02T12:06:24.737Z</time>
      </trkpt>
      <trkpt lat="45.24372" lon="4.67593">
        <ele>423.127009</ele>
        <time>2026-07-02T12:06:27.738Z</time>
      </trkpt>
      <trkpt lat="45.2436" lon="4.67588">
        <ele>423.953283</ele>
        <time>2026-07-02T12:06:30.746Z</time>
      </trkpt>
      <trkpt lat="45.24348" lon="4.67582">
        <ele>424.878647</ele>
        <time>2026-07-02T12:06:33.740Z</time>
      </trkpt>
      <trkpt lat="45.24336" lon="4.6758">
        <ele>425.692045</ele>
        <time>2026-07-02T12:06:36.737Z</time>
      </trkpt>
      <trkpt lat="45.24325" lon="4.67579">
        <ele>426.474967</ele>
        <time>2026-07-02T12:06:39.736Z</time>
      </trkpt>
      <trkpt lat="45.24315" lon="4.67581">
        <ele>427.118917</ele>
        <time>2026-07-02T12:06:41.739Z</time>
      </trkpt>
      <trkpt lat="45.24305" lon="4.67583">
        <ele>427.854183</ele>
        <time>2026-07-02T12:06:43.743Z</time>
      </trkpt>
      <trkpt lat="45.24295" lon="4.67586">
        <ele>428.562801</ele>
        <time>2026-07-02T12:06:46.738Z</time>
      </trkpt>
      <trkpt lat="45.24283" lon="4.6759">
        <ele>429.380023</ele>
        <time>2026-07-02T12:06:49.743Z</time>
      </trkpt>
      <trkpt lat="45.2427" lon="4.67594">
        <ele>430.313711</ele>
        <time>2026-07-02T12:06:52.742Z</time>
      </trkpt>
      <trkpt lat="45.24258" lon="4.67599">
        <ele>430.831023</ele>
        <time>2026-07-02T12:06:55.744Z</time>
      </trkpt>
      <trkpt lat="45.24249" lon="4.67602">
        <ele>431.149538</ele>
        <time>2026-07-02T12:06:58.747Z</time>
      </trkpt>
      <trkpt lat="45.24234" lon="4.67605">
        <ele>431.660381</ele>
        <time>2026-07-02T12:07:01.736Z</time>
      </trkpt>
      <trkpt lat="45.24224" lon="4.6761">
        <ele>432.036137</ele>
        <time>2026-07-02T12:07:03.738Z</time>
      </trkpt>
      <trkpt lat="45.24214" lon="4.67615">
        <ele>432.398647</ele>
        <time>2026-07-02T12:07:05.742Z</time>
      </trkpt>
      <trkpt lat="45.24202" lon="4.67621">
        <ele>432.856152</ele>
        <time>2026-07-02T12:07:08.738Z</time>
      </trkpt>
      <trkpt lat="45.24192" lon="4.6763">
        <ele>433.250091</ele>
        <time>2026-07-02T12:07:11.735Z</time>
      </trkpt>
      <trkpt lat="45.24182" lon="4.67636">
        <ele>433.645991</ele>
        <time>2026-07-02T12:07:14.738Z</time>
      </trkpt>
      <trkpt lat="45.24174" lon="4.67645">
        <ele>434.00662</ele>
        <time>2026-07-02T12:07:17.749Z</time>
      </trkpt>
      <trkpt lat="45.24168" lon="4.67655">
        <ele>434.321949</ele>
        <time>2026-07-02T12:07:19.744Z</time>
      </trkpt>
      <trkpt lat="45.24163" lon="4.67667">
        <ele>434.668931</ele>
        <time>2026-07-02T12:07:22.743Z</time>
      </trkpt>
      <trkpt lat="45.24158" lon="4.67681">
        <ele>435.048237</ele>
        <time>2026-07-02T12:07:25.742Z</time>
      </trkpt>
      <trkpt lat="45.24153" lon="4.67694">
        <ele>435.409637</ele>
        <time>2026-07-02T12:07:28.751Z</time>
      </trkpt>
      <trkpt lat="45.24148" lon="4.67709">
        <ele>435.805914</ele>
        <time>2026-07-02T12:07:32.743Z</time>
      </trkpt>
      <trkpt lat="45.24144" lon="4.67724">
        <ele>436.218199</ele>
        <time>2026-07-02T12:07:36.741Z</time>
      </trkpt>
      <trkpt lat="45.24137" lon="4.67739">
        <ele>436.650559</ele>
        <time>2026-07-02T12:07:40.743Z</time>
      </trkpt>
      <trkpt lat="45.24129" lon="4.67751">
        <ele>436.534636</ele>
        <time>2026-07-02T12:07:43.745Z</time>
      </trkpt>
      <trkpt lat="45.2412" lon="4.67763">
        <ele>436.30331</ele>
        <time>2026-07-02T12:07:46.745Z</time>
      </trkpt>
      <trkpt lat="45.24112" lon="4.67775">
        <ele>436.06962</ele>
        <time>2026-07-02T12:07:49.748Z</time>
      </trkpt>
      <trkpt lat="45.24104" lon="4.67787">
        <ele>435.848117</ele>
        <time>2026-07-02T12:07:52.741Z</time>
      </trkpt>
      <trkpt lat="45.24098" lon="4.67801">
        <ele>435.632356</ele>
        <time>2026-07-02T12:07:55.737Z</time>
      </trkpt>
      <trkpt lat="45.24092" lon="4.67812">
        <ele>435.442165</ele>
        <time>2026-07-02T12:07:57.751Z</time>
      </trkpt>
      <trkpt lat="45.24087" lon="4.67825">
        <ele>435.245997</ele>
        <time>2026-07-02T12:07:59.739Z</time>
      </trkpt>
      <trkpt lat="45.24084" lon="4.6784">
        <ele>435.033325</ele>
        <time>2026-07-02T12:08:01.743Z</time>
      </trkpt>
      <trkpt lat="45.2408" lon="4.67855">
        <ele>434.821226</ele>
        <time>2026-07-02T12:08:03.728Z</time>
      </trkpt>
      <trkpt lat="45.24076" lon="4.6787">
        <ele>434.602161</ele>
        <time>2026-07-02T12:08:05.742Z</time>
      </trkpt>
      <trkpt lat="45.24071" lon="4.67887">
        <ele>434.354209</ele>
        <time>2026-07-02T12:08:07.748Z</time>
      </trkpt>
      <trkpt lat="45.24067" lon="4.67905">
        <ele>434.102743</ele>
        <time>2026-07-02T12:08:09.741Z</time>
      </trkpt>
      <trkpt lat="45.24063" lon="4.67924">
        <ele>433.831975</ele>
        <time>2026-07-02T12:08:11.696Z</time>
      </trkpt>
      <trkpt lat="45.2406" lon="4.67945">
        <ele>433.53831</ele>
        <time>2026-07-02T12:08:13.711Z</time>
      </trkpt>
      <trkpt lat="45.24059" lon="4.67964">
        <ele>433.280543</ele>
        <time>2026-07-02T12:08:15.738Z</time>
      </trkpt>
      <trkpt lat="45.24058" lon="4.67982">
        <ele>433.530488</ele>
        <time>2026-07-02T12:08:17.739Z</time>
      </trkpt>
      <trkpt lat="45.24059" lon="4.68002">
        <ele>433.819048</ele>
        <time>2026-07-02T12:08:19.737Z</time>
      </trkpt>
      <trkpt lat="45.2406" lon="4.68022">
        <ele>434.101982</ele>
        <time>2026-07-02T12:08:21.737Z</time>
      </trkpt>
      <trkpt lat="45.24059" lon="4.68041">
        <ele>434.376292</ele>
        <time>2026-07-02T12:08:23.699Z</time>
      </trkpt>
      <trkpt lat="45.2406" lon="4.68059">
        <ele>434.642474</ele>
        <time>2026-07-02T12:08:25.730Z</time>
      </trkpt>
      <trkpt lat="45.2406" lon="4.68079">
        <ele>434.920487</ele>
        <time>2026-07-02T12:08:27.740Z</time>
      </trkpt>
      <trkpt lat="45.24059" lon="4.68098">
        <ele>435.204733</ele>
        <time>2026-07-02T12:08:29.746Z</time>
      </trkpt>
      <trkpt lat="45.24057" lon="4.68116">
        <ele>435.464382</ele>
        <time>2026-07-02T12:08:31.719Z</time>
      </trkpt>
      <trkpt lat="45.24055" lon="4.68133">
        <ele>435.70708</ele>
        <time>2026-07-02T12:08:33.742Z</time>
      </trkpt>
      <trkpt lat="45.24052" lon="4.68149">
        <ele>435.946423</ele>
        <time>2026-07-02T12:08:35.742Z</time>
      </trkpt>
      <trkpt lat="45.2405" lon="4.68165">
        <ele>436.18726</ele>
        <time>2026-07-02T12:08:37.738Z</time>
      </trkpt>
      <trkpt lat="45.24048" lon="4.68179">
        <ele>436.395311</ele>
        <time>2026-07-02T12:08:39.727Z</time>
      </trkpt>
      <trkpt lat="45.24045" lon="4.68193">
        <ele>436.604956</ele>
        <time>2026-07-02T12:08:41.740Z</time>
      </trkpt>
      <trkpt lat="45.24042" lon="4.68207">
        <ele>436.815987</ele>
        <time>2026-07-02T12:08:43.742Z</time>
      </trkpt>
      <trkpt lat="45.24039" lon="4.6822">
        <ele>436.986998</ele>
        <time>2026-07-02T12:08:45.744Z</time>
      </trkpt>
      <trkpt lat="45.24037" lon="4.68235">
        <ele>437.098488</ele>
        <time>2026-07-02T12:08:47.742Z</time>
      </trkpt>
      <trkpt lat="45.24034" lon="4.68247">
        <ele>437.20145</ele>
        <time>2026-07-02T12:08:49.724Z</time>
      </trkpt>
      <trkpt lat="45.24031" lon="4.68265">
        <ele>437.339232</ele>
        <time>2026-07-02T12:08:52.733Z</time>
      </trkpt>
      <trkpt lat="45.24029" lon="4.68283">
        <ele>437.47982</ele>
        <time>2026-07-02T12:08:55.734Z</time>
      </trkpt>
      <trkpt lat="45.2403" lon="4.68299">
        <ele>437.601979</ele>
        <time>2026-07-02T12:08:58.741Z</time>
      </trkpt>
      <trkpt lat="45.24027" lon="4.68318">
        <ele>437.746924</ele>
        <time>2026-07-02T12:09:01.736Z</time>
      </trkpt>
      <trkpt lat="45.24024" lon="4.68337">
        <ele>437.896149</ele>
        <time>2026-07-02T12:09:04.740Z</time>
      </trkpt>
      <trkpt lat="45.24021" lon="4.68351">
        <ele>438.008489</ele>
        <time>2026-07-02T12:09:06.740Z</time>
      </trkpt>
      <trkpt lat="45.24019" lon="4.68366">
        <ele>438.124447</ele>
        <time>2026-07-02T12:09:08.741Z</time>
      </trkpt>
      <trkpt lat="45.24017" lon="4.68382">
        <ele>438.249082</ele>
        <time>2026-07-02T12:09:10.739Z</time>
      </trkpt>
      <trkpt lat="45.24014" lon="4.68397">
        <ele>438.367517</ele>
        <time>2026-07-02T12:09:12.723Z</time>
      </trkpt>
      <trkpt lat="45.2401" lon="4.68411">
        <ele>438.484548</ele>
        <time>2026-07-02T12:09:14.738Z</time>
      </trkpt>
      <trkpt lat="45.24009" lon="4.68429">
        <ele>438.616826</ele>
        <time>2026-07-02T12:09:16.740Z</time>
      </trkpt>
      <trkpt lat="45.24007" lon="4.68448">
        <ele>438.762748</ele>
        <time>2026-07-02T12:09:18.736Z</time>
      </trkpt>
      <trkpt lat="45.24005" lon="4.68466">
        <ele>438.90444</ele>
        <time>2026-07-02T12:09:20.735Z</time>
      </trkpt>
      <trkpt lat="45.24004" lon="4.68482">
        <ele>439.015991</ele>
        <time>2026-07-02T12:09:22.743Z</time>
      </trkpt>
      <trkpt lat="45.24001" lon="4.68499">
        <ele>439.129446</ele>
        <time>2026-07-02T12:09:24.740Z</time>
      </trkpt>
      <trkpt lat="45.23997" lon="4.68515">
        <ele>439.241078</ele>
        <time>2026-07-02T12:09:26.746Z</time>
      </trkpt>
      <trkpt lat="45.23993" lon="4.68531">
        <ele>439.356714</ele>
        <time>2026-07-02T12:09:28.740Z</time>
      </trkpt>
      <trkpt lat="45.23991" lon="4.68546">
        <ele>439.461474</ele>
        <time>2026-07-02T12:09:30.743Z</time>
      </trkpt>
      <trkpt lat="45.23989" lon="4.68561">
        <ele>439.559036</ele>
        <time>2026-07-02T12:09:32.739Z</time>
      </trkpt>
      <trkpt lat="45.23988" lon="4.68575">
        <ele>439.653855</ele>
        <time>2026-07-02T12:09:34.739Z</time>
      </trkpt>
      <trkpt lat="45.23986" lon="4.68589">
        <ele>439.750299</ele>
        <time>2026-07-02T12:09:36.738Z</time>
      </trkpt>
      <trkpt lat="45.23983" lon="4.68604">
        <ele>439.854246</ele>
        <time>2026-07-02T12:09:38.740Z</time>
      </trkpt>
      <trkpt lat="45.23979" lon="4.68618">
        <ele>439.957269</ele>
        <time>2026-07-02T12:09:40.749Z</time>
      </trkpt>
      <trkpt lat="45.23978" lon="4.68632">
        <ele>440.051243</ele>
        <time>2026-07-02T12:09:42.738Z</time>
      </trkpt>
      <trkpt lat="45.23975" lon="4.68645">
        <ele>440.143923</ele>
        <time>2026-07-02T12:09:44.735Z</time>
      </trkpt>
      <trkpt lat="45.23973" lon="4.6866">
        <ele>440.245808</ele>
        <time>2026-07-02T12:09:46.737Z</time>
      </trkpt>
      <trkpt lat="45.23971" lon="4.68675">
        <ele>440.34337</ele>
        <time>2026-07-02T12:09:48.737Z</time>
      </trkpt>
      <trkpt lat="45.23966" lon="4.6869">
        <ele>440.45341</ele>
        <time>2026-07-02T12:09:50.738Z</time>
      </trkpt>
      <trkpt lat="45.23962" lon="4.68705">
        <ele>440.564959</ele>
        <time>2026-07-02T12:09:52.749Z</time>
      </trkpt>
      <trkpt lat="45.23959" lon="4.68721">
        <ele>440.259501</ele>
        <time>2026-07-02T12:09:54.747Z</time>
      </trkpt>
      <trkpt lat="45.23955" lon="4.68738">
        <ele>439.556474</ele>
        <time>2026-07-02T12:09:56.743Z</time>
      </trkpt>
      <trkpt lat="45.23952" lon="4.68755">
        <ele>438.874883</ele>
        <time>2026-07-02T12:09:58.753Z</time>
      </trkpt>
      <trkpt lat="45.23948" lon="4.68772">
        <ele>438.146438</ele>
        <time>2026-07-02T12:10:00.740Z</time>
      </trkpt>
      <trkpt lat="45.23942" lon="4.68789">
        <ele>437.398332</ele>
        <time>2026-07-02T12:10:02.738Z</time>
      </trkpt>
      <trkpt lat="45.23935" lon="4.68807">
        <ele>436.592018</ele>
        <time>2026-07-02T12:10:04.717Z</time>
      </trkpt>
      <trkpt lat="45.23931" lon="4.68825">
        <ele>435.840738</ele>
        <time>2026-07-02T12:10:06.696Z</time>
      </trkpt>
      <trkpt lat="45.23929" lon="4.68845">
        <ele>435.0525</ele>
        <time>2026-07-02T12:10:08.742Z</time>
      </trkpt>
      <trkpt lat="45.23926" lon="4.68866">
        <ele>434.215543</ele>
        <time>2026-07-02T12:10:10.740Z</time>
      </trkpt>
      <trkpt lat="45.23924" lon="4.68888">
        <ele>433.311224</ele>
        <time>2026-07-02T12:10:12.744Z</time>
      </trkpt>
      <trkpt lat="45.2392" lon="4.68912">
        <ele>432.338247</ele>
        <time>2026-07-02T12:10:14.738Z</time>
      </trkpt>
      <trkpt lat="45.23918" lon="4.68936">
        <ele>431.406068</ele>
        <time>2026-07-02T12:10:16.740Z</time>
      </trkpt>
      <trkpt lat="45.23913" lon="4.6896">
        <ele>430.500137</ele>
        <time>2026-07-02T12:10:18.743Z</time>
      </trkpt>
      <trkpt lat="45.23908" lon="4.68977">
        <ele>430.500137</ele>
        <time>2026-07-02T12:10:20.754Z</time>
      </trkpt>
      <trkpt lat="45.23903" lon="4.68994">
        <ele>430.500137</ele>
        <time>2026-07-02T12:10:23.739Z</time>
      </trkpt>
      <trkpt lat="45.23896" lon="4.69003">
        <ele>430.500137</ele>
        <time>2026-07-02T12:10:25.745Z</time>
      </trkpt>
      <trkpt lat="45.23889" lon="4.69014">
        <ele>430.500137</ele>
        <time>2026-07-02T12:10:27.743Z</time>
      </trkpt>
      <trkpt lat="45.23883" lon="4.69027">
        <ele>430.500137</ele>
        <time>2026-07-02T12:10:29.742Z</time>
      </trkpt>
      <trkpt lat="45.23881" lon="4.69043">
        <ele>430.500137</ele>
        <time>2026-07-02T12:10:31.741Z</time>
      </trkpt>
      <trkpt lat="45.23885" lon="4.69058">
        <ele>430.500137</ele>
        <time>2026-07-02T12:10:33.744Z</time>
      </trkpt>
      <trkpt lat="45.23891" lon="4.6907">
        <ele>430.500137</ele>
        <time>2026-07-02T12:10:35.753Z</time>
      </trkpt>
      <trkpt lat="45.239" lon="4.69081">
        <ele>430.500137</ele>
        <time>2026-07-02T12:10:37.736Z</time>
      </trkpt>
      <trkpt lat="45.23909" lon="4.69095">
        <ele>430.500137</ele>
        <time>2026-07-02T12:10:40.743Z</time>
      </trkpt>
      <trkpt lat="45.2392" lon="4.69096">
        <ele>430.500137</ele>
        <time>2026-07-02T12:10:43.747Z</time>
      </trkpt>
      <trkpt lat="45.2393" lon="4.69095">
        <ele>430.500137</ele>
        <time>2026-07-02T12:10:46.741Z</time>
      </trkpt>
      <trkpt lat="45.23938" lon="4.69101">
        <ele>430.500137</ele>
        <time>2026-07-02T12:10:49.743Z</time>
      </trkpt>
      <trkpt lat="45.23942" lon="4.69113">
        <ele>430.500137</ele>
        <time>2026-07-02T12:10:52.738Z</time>
      </trkpt>
      <trkpt lat="45.23948" lon="4.69126">
        <ele>430.500137</ele>
        <time>2026-07-02T12:10:57.737Z</time>
      </trkpt>
      <trkpt lat="45.23958" lon="4.69146">
        <ele>430.500137</ele>
        <time>2026-07-02T12:11:55.780Z</time>
      </trkpt>
      <trkpt lat="45.23968" lon="4.69144">
        <ele>430.500137</ele>
        <time>2026-07-02T12:11:59.744Z</time>
      </trkpt>
      <trkpt lat="45.23978" lon="4.69137">
        <ele>430.500137</ele>
        <time>2026-07-02T12:12:01.696Z</time>
      </trkpt>
    </trkseg>
  </trk>
</gpx>